<?xml version="1.0" encoding="UTF-8"?>
<gpx version="1.1" creator="https://www.youtrack.es" xsi:schemaLocation="http://www.topografix.com/GPX/1/1 http://www.topografix.com/GPX/1/1/gpx.xsd http://www.garmin.com/xmlschemas/GpxExtensions/v3 http://www.garmin.com/xmlschemas/GpxExtensionsv3.xsd http://www.garmin.com/xmlschemas/TrackPointExtension/v1 http://www.garmin.com/xmlschemas/TrackPointExtensionv1.xsd" xmlns:gpxtpx="http://www.garmin.com/xmlschemas/TrackPointExtension/v1" xmlns:gpxx="http://www.garmin.com/xmlschemas/GpxExtensions/v3" xmlns:xsi="http://www.w3.org/2001/XMLSchema-instance">
  <metadata>
    <link href="https://www.youtrack.es">
      <text>YouTrack.es</text>
    </link>
    <time>2026-05-08T02:21:40Z</time>
  </metadata>
  <trk>
    <src>https://www.youtrack.es</src>
    <link href="https://www.youtrack.es/ruta/27225-castanar-de-hermisende">
      <text>YouTrack.es</text>
    </link>
    <trkseg>
      <trkpt lat="41.967941410839557647705078125" lon="-6.8904828093945980072021484375">
        <ele>880.79998779296875</ele>
        <time>2021-11-06T09:59:11.000Z</time>
      </trkpt>
      <trkpt lat="41.968075521290302276611328125" lon="-6.89060409553349018096923828125">
        <ele>880.20001220703125</ele>
        <time>2021-11-06T09:59:35.000Z</time>
      </trkpt>
      <trkpt lat="41.96808314882218837738037109375" lon="-6.89063460566103458404541015625">
        <ele>880</ele>
        <time>2021-11-06T09:59:37.000Z</time>
      </trkpt>
      <trkpt lat="41.96811164729297161102294921875" lon="-6.89074910245835781097412109375">
        <ele>879.79998779296875</ele>
        <time>2021-11-06T09:59:47.000Z</time>
      </trkpt>
      <trkpt lat="41.96819814853370189666748046875" lon="-6.89090752042829990386962890625">
        <ele>879</ele>
        <time>2021-11-06T10:00:07.000Z</time>
      </trkpt>
      <trkpt lat="41.96823813021183013916015625" lon="-6.890968121588230133056640625">
        <ele>878.79998779296875</ele>
        <time>2021-11-06T10:00:13.000Z</time>
      </trkpt>
      <trkpt lat="41.96824508719146251678466796875" lon="-6.89097776077687740325927734375">
        <ele>878.79998779296875</ele>
        <time>2021-11-06T10:00:14.000Z</time>
      </trkpt>
      <trkpt lat="41.96838338859379291534423828125" lon="-6.891142465174198150634765625">
        <ele>878</ele>
        <time>2021-11-06T10:00:32.000Z</time>
      </trkpt>
      <trkpt lat="41.968405432999134063720703125" lon="-6.89117624424397945404052734375">
        <ele>877.79998779296875</ele>
        <time>2021-11-06T10:00:35.000Z</time>
      </trkpt>
      <trkpt lat="41.96841322816908359527587890625" lon="-6.89118429087102413177490234375">
        <ele>877.5999755859375</ele>
        <time>2021-11-06T10:00:36.000Z</time>
      </trkpt>
      <trkpt lat="41.9685256294906139373779296875" lon="-6.89135410822927951812744140625">
        <ele>876.5999755859375</ele>
        <time>2021-11-06T10:00:53.000Z</time>
      </trkpt>
      <trkpt lat="41.9685564748942852020263671875" lon="-6.89149995334446430206298828125">
        <ele>875.5999755859375</ele>
        <time>2021-11-06T10:01:04.000Z</time>
      </trkpt>
      <trkpt lat="41.96856661699712276458740234375" lon="-6.8916120193898677825927734375">
        <ele>874.5999755859375</ele>
        <time>2021-11-06T10:01:12.000Z</time>
      </trkpt>
      <trkpt lat="41.9685665331780910491943359375" lon="-6.89163104631006717681884765625">
        <ele>874.20001220703125</ele>
        <time>2021-11-06T10:01:13.000Z</time>
      </trkpt>
      <trkpt lat="41.96856477297842502593994140625" lon="-6.89169156365096569061279296875">
        <ele>873.5999755859375</ele>
        <time>2021-11-06T10:01:17.000Z</time>
      </trkpt>
      <trkpt lat="41.96856846101582050323486328125" lon="-6.8917535059154033660888671875">
        <ele>872.4000244140625</ele>
        <time>2021-11-06T10:01:23.000Z</time>
      </trkpt>
      <trkpt lat="41.96857399307191371917724609375" lon="-6.89182584173977375030517578125">
        <ele>871.20001220703125</ele>
        <time>2021-11-06T10:01:30.000Z</time>
      </trkpt>
      <trkpt lat="41.96857751347124576568603515625" lon="-6.89189851284027099609375">
        <ele>870.20001220703125</ele>
        <time>2021-11-06T10:01:37.000Z</time>
      </trkpt>
      <trkpt lat="41.9685957022011280059814453125" lon="-6.89199800603091716766357421875">
        <ele>869.5999755859375</ele>
        <time>2021-11-06T10:01:44.000Z</time>
      </trkpt>
      <trkpt lat="41.96861724369227886199951171875" lon="-6.89203203655779361724853515625">
        <ele>869.20001220703125</ele>
        <time>2021-11-06T10:01:47.000Z</time>
      </trkpt>
      <trkpt lat="41.968627385795116424560546875" lon="-6.8922594375908374786376953125">
        <ele>868.20001220703125</ele>
        <time>2021-11-06T10:02:02.000Z</time>
      </trkpt>
      <trkpt lat="41.96862897835671901702880859375" lon="-6.89234484918415546417236328125">
        <ele>868</ele>
        <time>2021-11-06T10:02:10.000Z</time>
      </trkpt>
      <trkpt lat="41.96861992590129375457763671875" lon="-6.892452053725719451904296875">
        <ele>867.20001220703125</ele>
        <time>2021-11-06T10:02:17.000Z</time>
      </trkpt>
      <trkpt lat="41.96862478740513324737548828125" lon="-6.89257870428264141082763671875">
        <ele>866.20001220703125</ele>
        <time>2021-11-06T10:02:26.000Z</time>
      </trkpt>
      <trkpt lat="41.96862168610095977783203125" lon="-6.89262530766427516937255859375">
        <ele>866</ele>
        <time>2021-11-06T10:02:28.000Z</time>
      </trkpt>
      <trkpt lat="41.96862629614770412445068359375" lon="-6.89264726825058460235595703125">
        <ele>866</ele>
        <time>2021-11-06T10:02:29.000Z</time>
      </trkpt>
      <trkpt lat="41.96863752789795398712158203125" lon="-6.892792694270610809326171875">
        <ele>865</ele>
        <time>2021-11-06T10:02:38.000Z</time>
      </trkpt>
      <trkpt lat="41.96864624507725238800048828125" lon="-6.89283795654773712158203125">
        <ele>864.5999755859375</ele>
        <time>2021-11-06T10:02:42.000Z</time>
      </trkpt>
      <trkpt lat="41.96864339523017406463623046875" lon="-6.89295488409698009490966796875">
        <ele>864</ele>
        <time>2021-11-06T10:02:49.000Z</time>
      </trkpt>
      <trkpt lat="41.96864456869661808013916015625" lon="-6.8929735757410526275634765625">
        <ele>863.79998779296875</ele>
        <time>2021-11-06T10:02:50.000Z</time>
      </trkpt>
      <trkpt lat="41.96864456869661808013916015625" lon="-6.8931066803634166717529296875">
        <ele>863</ele>
        <time>2021-11-06T10:02:59.000Z</time>
      </trkpt>
      <trkpt lat="41.96863853372633457183837890625" lon="-6.893143393099308013916015625">
        <ele>862.79998779296875</ele>
        <time>2021-11-06T10:03:01.000Z</time>
      </trkpt>
      <trkpt lat="41.96862814016640186309814453125" lon="-6.89327859319746494293212890625">
        <ele>861.79998779296875</ele>
        <time>2021-11-06T10:03:09.000Z</time>
      </trkpt>
      <trkpt lat="41.96862637996673583984375" lon="-6.8933655135333538055419921875">
        <ele>860.79998779296875</ele>
        <time>2021-11-06T10:03:17.000Z</time>
      </trkpt>
      <trkpt lat="41.96861523203551769256591796875" lon="-6.89344556070864200592041015625">
        <ele>860</ele>
        <time>2021-11-06T10:03:27.000Z</time>
      </trkpt>
      <trkpt lat="41.96863383986055850982666015625" lon="-6.8935059942305088043212890625">
        <ele>860</ele>
        <time>2021-11-06T10:03:30.000Z</time>
      </trkpt>
      <trkpt lat="41.9686912558972835540771484375" lon="-6.89374496228992938995361328125">
        <ele>860</ele>
        <time>2021-11-06T10:03:41.000Z</time>
      </trkpt>
      <trkpt lat="41.96855907328426837921142578125" lon="-6.89394411630928516387939453125">
        <ele>860</ele>
        <time>2021-11-06T10:03:57.000Z</time>
      </trkpt>
      <trkpt lat="41.96853987872600555419921875" lon="-6.89405475743114948272705078125">
        <ele>859.79998779296875</ele>
        <time>2021-11-06T10:04:03.000Z</time>
      </trkpt>
      <trkpt lat="41.96852906607091426849365234375" lon="-6.89425952732563018798828125">
        <ele>858.5999755859375</ele>
        <time>2021-11-06T10:04:15.000Z</time>
      </trkpt>
      <trkpt lat="41.9685444049537181854248046875" lon="-6.894347369670867919921875">
        <ele>858.20001220703125</ele>
        <time>2021-11-06T10:04:21.000Z</time>
      </trkpt>
      <trkpt lat="41.96859410963952541351318359375" lon="-6.89439623616635799407958984375">
        <ele>857.5999755859375</ele>
        <time>2021-11-06T10:04:27.000Z</time>
      </trkpt>
      <trkpt lat="41.96859628893435001373291015625" lon="-6.8944095633924007415771484375">
        <ele>857.4000244140625</ele>
        <time>2021-11-06T10:04:28.000Z</time>
      </trkpt>
      <trkpt lat="41.96860500611364841461181640625" lon="-6.89444728195667266845703125">
        <ele>857</ele>
        <time>2021-11-06T10:04:31.000Z</time>
      </trkpt>
      <trkpt lat="41.96863870136439800262451171875" lon="-6.89451592974364757537841796875">
        <ele>856.5999755859375</ele>
        <time>2021-11-06T10:04:36.000Z</time>
      </trkpt>
      <trkpt lat="41.968640796840190887451171875" lon="-6.89454979263246059417724609375">
        <ele>856.4000244140625</ele>
        <time>2021-11-06T10:04:39.000Z</time>
      </trkpt>
      <trkpt lat="41.9686386175453662872314453125" lon="-6.8946813046932220458984375">
        <ele>855.4000244140625</ele>
        <time>2021-11-06T10:04:49.000Z</time>
      </trkpt>
      <trkpt lat="41.9686335884034633636474609375" lon="-6.89469614066183567047119140625">
        <ele>855.4000244140625</ele>
        <time>2021-11-06T10:04:50.000Z</time>
      </trkpt>
      <trkpt lat="41.9686205126345157623291015625" lon="-6.894768811762332916259765625">
        <ele>854.79998779296875</ele>
        <time>2021-11-06T10:04:55.000Z</time>
      </trkpt>
      <trkpt lat="41.9686330854892730712890625" lon="-6.89480544067919254302978515625">
        <ele>854.4000244140625</ele>
        <time>2021-11-06T10:04:58.000Z</time>
      </trkpt>
      <trkpt lat="41.96864607743918895721435546875" lon="-6.8948551453649997711181640625">
        <ele>854</ele>
        <time>2021-11-06T10:05:01.000Z</time>
      </trkpt>
      <trkpt lat="41.9686366058886051177978515625" lon="-6.8949543870985507965087890625">
        <ele>853.4000244140625</ele>
        <time>2021-11-06T10:05:07.000Z</time>
      </trkpt>
      <trkpt lat="41.96866166777908802032470703125" lon="-6.895009540021419525146484375">
        <ele>852.4000244140625</ele>
        <time>2021-11-06T10:05:11.000Z</time>
      </trkpt>
      <trkpt lat="41.96866535581648349761962890625" lon="-6.89502303488552570343017578125">
        <ele>852.20001220703125</ele>
        <time>2021-11-06T10:05:12.000Z</time>
      </trkpt>
      <trkpt lat="41.9686322472989559173583984375" lon="-6.89521565102040767669677734375">
        <ele>851.20001220703125</ele>
        <time>2021-11-06T10:05:23.000Z</time>
      </trkpt>
      <trkpt lat="41.968614645302295684814453125" lon="-6.895242221653461456298828125">
        <ele>851.20001220703125</ele>
        <time>2021-11-06T10:05:25.000Z</time>
      </trkpt>
      <trkpt lat="41.96852252818644046783447265625" lon="-6.8953469954431056976318359375">
        <ele>851.79998779296875</ele>
        <time>2021-11-06T10:05:35.000Z</time>
      </trkpt>
      <trkpt lat="41.96851305663585662841796875" lon="-6.89536392688751220703125">
        <ele>851.79998779296875</ele>
        <time>2021-11-06T10:05:37.000Z</time>
      </trkpt>
      <trkpt lat="41.96849302388727664947509765625" lon="-6.89533819444477558135986328125">
        <ele>852</ele>
        <time>2021-11-06T10:05:40.000Z</time>
      </trkpt>
      <trkpt lat="41.96847760118544101715087890625" lon="-6.8953386135399341583251953125">
        <ele>852</ele>
        <time>2021-11-06T10:05:42.000Z</time>
      </trkpt>
      <trkpt lat="41.96843988262116909027099609375" lon="-6.8953748233616352081298828125">
        <ele>852</ele>
        <time>2021-11-06T10:05:45.000Z</time>
      </trkpt>
      <trkpt lat="41.9683982245624065399169921875" lon="-6.89543592743575572967529296875">
        <ele>852</ele>
        <time>2021-11-06T10:05:48.000Z</time>
      </trkpt>
      <trkpt lat="41.9683750905096530914306640625" lon="-6.89545637927949428558349609375">
        <ele>852.20001220703125</ele>
        <time>2021-11-06T10:05:50.000Z</time>
      </trkpt>
      <trkpt lat="41.96835053153336048126220703125" lon="-6.895465850830078125">
        <ele>852</ele>
        <time>2021-11-06T10:05:52.000Z</time>
      </trkpt>
      <trkpt lat="41.96825849823653697967529296875" lon="-6.895533911883831024169921875">
        <ele>851.5999755859375</ele>
        <time>2021-11-06T10:06:03.000Z</time>
      </trkpt>
      <trkpt lat="41.96815925650298595428466796875" lon="-6.89555369317531585693359375">
        <ele>851.20001220703125</ele>
        <time>2021-11-06T10:06:10.000Z</time>
      </trkpt>
      <trkpt lat="41.96809102781116962432861328125" lon="-6.8956044875085353851318359375">
        <ele>850.20001220703125</ele>
        <time>2021-11-06T10:06:17.000Z</time>
      </trkpt>
      <trkpt lat="41.9680488668382167816162109375" lon="-6.8957126140594482421875">
        <ele>849.20001220703125</ele>
        <time>2021-11-06T10:06:26.000Z</time>
      </trkpt>
      <trkpt lat="41.96800368838012218475341796875" lon="-6.89580422826111316680908203125">
        <ele>848.20001220703125</ele>
        <time>2021-11-06T10:06:32.000Z</time>
      </trkpt>
      <trkpt lat="41.96797066368162631988525390625" lon="-6.89586407504975795745849609375">
        <ele>847.79998779296875</ele>
        <time>2021-11-06T10:06:36.000Z</time>
      </trkpt>
      <trkpt lat="41.96790914051234722137451171875" lon="-6.89592006616294384002685546875">
        <ele>847</ele>
        <time>2021-11-06T10:06:42.000Z</time>
      </trkpt>
      <trkpt lat="41.96784895844757556915283203125" lon="-6.89596884883940219879150390625">
        <ele>845.79998779296875</ele>
        <time>2021-11-06T10:06:49.000Z</time>
      </trkpt>
      <trkpt lat="41.96780168451368808746337890625" lon="-6.89602400176227092742919921875">
        <ele>844.79998779296875</ele>
        <time>2021-11-06T10:06:55.000Z</time>
      </trkpt>
      <trkpt lat="41.96773630566895008087158203125" lon="-6.89606976695358753204345703125">
        <ele>843.79998779296875</ele>
        <time>2021-11-06T10:07:02.000Z</time>
      </trkpt>
      <trkpt lat="41.96767226792871952056884765625" lon="-6.89610798843204975128173828125">
        <ele>842.79998779296875</ele>
        <time>2021-11-06T10:07:09.000Z</time>
      </trkpt>
      <trkpt lat="41.96760739199817180633544921875" lon="-6.8961417675018310546875">
        <ele>841.79998779296875</ele>
        <time>2021-11-06T10:07:15.000Z</time>
      </trkpt>
      <trkpt lat="41.96759649552404880523681640625" lon="-6.89615174196660518646240234375">
        <ele>841.79998779296875</ele>
        <time>2021-11-06T10:07:16.000Z</time>
      </trkpt>
      <trkpt lat="41.967583335936069488525390625" lon="-6.8961592018604278564453125">
        <ele>841.5999755859375</ele>
        <time>2021-11-06T10:07:17.000Z</time>
      </trkpt>
      <trkpt lat="41.967454589903354644775390625" lon="-6.89625182189047336578369140625">
        <ele>840.5999755859375</ele>
        <time>2021-11-06T10:07:28.000Z</time>
      </trkpt>
      <trkpt lat="41.967356018722057342529296875" lon="-6.8964215554296970367431640625">
        <ele>839.5999755859375</ele>
        <time>2021-11-06T10:07:43.000Z</time>
      </trkpt>
      <trkpt lat="41.96734185330569744110107421875" lon="-6.89666815102100372314453125">
        <ele>838.79998779296875</ele>
        <time>2021-11-06T10:07:58.000Z</time>
      </trkpt>
      <trkpt lat="41.967302374541759490966796875" lon="-6.89687694422900676727294921875">
        <ele>838.5999755859375</ele>
        <time>2021-11-06T10:08:10.000Z</time>
      </trkpt>
      <trkpt lat="41.9673142768442630767822265625" lon="-6.89695137552917003631591796875">
        <ele>838.4000244140625</ele>
        <time>2021-11-06T10:08:15.000Z</time>
      </trkpt>
      <trkpt lat="41.96735442616045475006103515625" lon="-6.8971742503345012664794921875">
        <ele>838.20001220703125</ele>
        <time>2021-11-06T10:08:30.000Z</time>
      </trkpt>
      <trkpt lat="41.96735509671270847320556640625" lon="-6.89721456728875637054443359375">
        <ele>838</ele>
        <time>2021-11-06T10:08:33.000Z</time>
      </trkpt>
      <trkpt lat="41.96739801205694675445556640625" lon="-6.89746652729809284210205078125">
        <ele>837.5999755859375</ele>
        <time>2021-11-06T10:08:47.000Z</time>
      </trkpt>
      <trkpt lat="41.9673991017043590545654296875" lon="-6.89748580567538738250732421875">
        <ele>837.5999755859375</ele>
        <time>2021-11-06T10:08:48.000Z</time>
      </trkpt>
      <trkpt lat="41.96740723215043544769287109375" lon="-6.897576749324798583984375">
        <ele>837</ele>
        <time>2021-11-06T10:08:57.000Z</time>
      </trkpt>
      <trkpt lat="41.9674571044743061065673828125" lon="-6.89781337045133113861083984375">
        <ele>836.5999755859375</ele>
        <time>2021-11-06T10:09:10.000Z</time>
      </trkpt>
      <trkpt lat="41.96746322326362133026123046875" lon="-6.89782795496284961700439453125">
        <ele>836.5999755859375</ele>
        <time>2021-11-06T10:09:11.000Z</time>
      </trkpt>
      <trkpt lat="41.96755341254174709320068359375" lon="-6.8980513326823711395263671875">
        <ele>835.79998779296875</ele>
        <time>2021-11-06T10:09:26.000Z</time>
      </trkpt>
      <trkpt lat="41.967580653727054595947265625" lon="-6.8981091678142547607421875">
        <ele>835.4000244140625</ele>
        <time>2021-11-06T10:09:31.000Z</time>
      </trkpt>
      <trkpt lat="41.96761694736778736114501953125" lon="-6.89819457940757274627685546875">
        <ele>835.20001220703125</ele>
        <time>2021-11-06T10:09:36.000Z</time>
      </trkpt>
      <trkpt lat="41.96765181608498096466064453125" lon="-6.898263730108737945556640625">
        <ele>834.4000244140625</ele>
        <time>2021-11-06T10:09:41.000Z</time>
      </trkpt>
      <trkpt lat="41.9676740281283855438232421875" lon="-6.89834176562726497650146484375">
        <ele>834</ele>
        <time>2021-11-06T10:09:46.000Z</time>
      </trkpt>
      <trkpt lat="41.9677104055881500244140625" lon="-6.8983946554362773895263671875">
        <ele>833.4000244140625</ele>
        <time>2021-11-06T10:09:52.000Z</time>
      </trkpt>
      <trkpt lat="41.96776606142520904541015625" lon="-6.89855667762458324432373046875">
        <ele>832.20001220703125</ele>
        <time>2021-11-06T10:10:03.000Z</time>
      </trkpt>
      <trkpt lat="41.96782984770834445953369140625" lon="-6.89874392934143543243408203125">
        <ele>831.20001220703125</ele>
        <time>2021-11-06T10:10:15.000Z</time>
      </trkpt>
      <trkpt lat="41.96787075139582157135009765625" lon="-6.89877913333475589752197265625">
        <ele>831</ele>
        <time>2021-11-06T10:10:19.000Z</time>
      </trkpt>
      <trkpt lat="41.96789740584790706634521484375" lon="-6.89884451217949390411376953125">
        <ele>830.20001220703125</ele>
        <time>2021-11-06T10:10:26.000Z</time>
      </trkpt>
      <trkpt lat="41.9679281674325466156005859375" lon="-6.89892145805060863494873046875">
        <ele>830</ele>
        <time>2021-11-06T10:10:31.000Z</time>
      </trkpt>
      <trkpt lat="41.96795658208429813385009765625" lon="-6.8989964760839939117431640625">
        <ele>829.79998779296875</ele>
        <time>2021-11-06T10:10:38.000Z</time>
      </trkpt>
      <trkpt lat="41.967963874340057373046875" lon="-6.89900678582489490509033203125">
        <ele>829.79998779296875</ele>
        <time>2021-11-06T10:10:39.000Z</time>
      </trkpt>
      <trkpt lat="41.967967562377452850341796875" lon="-6.89917601644992828369140625">
        <ele>829.20001220703125</ele>
        <time>2021-11-06T10:10:51.000Z</time>
      </trkpt>
      <trkpt lat="41.9678959809243679046630859375" lon="-6.89939134754240512847900390625">
        <ele>828.4000244140625</ele>
        <time>2021-11-06T10:11:07.000Z</time>
      </trkpt>
      <trkpt lat="41.9678631238639354705810546875" lon="-6.89945538528263568878173828125">
        <ele>828</ele>
        <time>2021-11-06T10:11:12.000Z</time>
      </trkpt>
      <trkpt lat="41.9677400775253772735595703125" lon="-6.89953132532536983489990234375">
        <ele>827</ele>
        <time>2021-11-06T10:11:23.000Z</time>
      </trkpt>
      <trkpt lat="41.96764745749533176422119140625" lon="-6.899568624794483184814453125">
        <ele>826.20001220703125</ele>
        <time>2021-11-06T10:11:32.000Z</time>
      </trkpt>
      <trkpt lat="41.967627592384815216064453125" lon="-6.89957507885992527008056640625">
        <ele>826</ele>
        <time>2021-11-06T10:11:34.000Z</time>
      </trkpt>
      <trkpt lat="41.967617534101009368896484375" lon="-6.899582035839557647705078125">
        <ele>826</ele>
        <time>2021-11-06T10:11:35.000Z</time>
      </trkpt>
      <trkpt lat="41.9675328768789768218994140625" lon="-6.89965286292135715484619140625">
        <ele>824.79998779296875</ele>
        <time>2021-11-06T10:11:43.000Z</time>
      </trkpt>
      <trkpt lat="41.96744159795343875885009765625" lon="-6.89972050487995147705078125">
        <ele>823.79998779296875</ele>
        <time>2021-11-06T10:11:52.000Z</time>
      </trkpt>
      <trkpt lat="41.9673427753150463104248046875" lon="-6.89980826340615749359130859375">
        <ele>822.79998779296875</ele>
        <time>2021-11-06T10:12:01.000Z</time>
      </trkpt>
      <trkpt lat="41.9672985188663005828857421875" lon="-6.89983223564922809600830078125">
        <ele>822.4000244140625</ele>
        <time>2021-11-06T10:12:05.000Z</time>
      </trkpt>
      <trkpt lat="41.96727764792740345001220703125" lon="-6.8998557887971401214599609375">
        <ele>822.20001220703125</ele>
        <time>2021-11-06T10:12:07.000Z</time>
      </trkpt>
      <trkpt lat="41.967238672077655792236328125" lon="-6.89986861310899257659912109375">
        <ele>821.79998779296875</ele>
        <time>2021-11-06T10:12:10.000Z</time>
      </trkpt>
      <trkpt lat="41.967162229120731353759765625" lon="-6.89989375881850719451904296875">
        <ele>820.79998779296875</ele>
        <time>2021-11-06T10:12:17.000Z</time>
      </trkpt>
      <trkpt lat="41.96712962351739406585693359375" lon="-6.89990046434104442596435546875">
        <ele>820.5999755859375</ele>
        <time>2021-11-06T10:12:20.000Z</time>
      </trkpt>
      <trkpt lat="41.96706994436681270599365234375" lon="-6.89989979378879070281982421875">
        <ele>819.79998779296875</ele>
        <time>2021-11-06T10:12:26.000Z</time>
      </trkpt>
      <trkpt lat="41.96697439067065715789794921875" lon="-6.8999365903437137603759765625">
        <ele>818.79998779296875</ele>
        <time>2021-11-06T10:12:34.000Z</time>
      </trkpt>
      <trkpt lat="41.96696667931973934173583984375" lon="-6.89995209686458110809326171875">
        <ele>818.5999755859375</ele>
        <time>2021-11-06T10:12:35.000Z</time>
      </trkpt>
      <trkpt lat="41.96696081198751926422119140625" lon="-6.89995964057743549346923828125">
        <ele>818.5999755859375</ele>
        <time>2021-11-06T10:12:36.000Z</time>
      </trkpt>
      <trkpt lat="41.96692191995680332183837890625" lon="-6.89999945461750030517578125">
        <ele>818</ele>
        <time>2021-11-06T10:12:41.000Z</time>
      </trkpt>
      <trkpt lat="41.96687783114612102508544921875" lon="-6.89998746849596500396728515625">
        <ele>817.5999755859375</ele>
        <time>2021-11-06T10:12:46.000Z</time>
      </trkpt>
      <trkpt lat="41.96686743758618831634521484375" lon="-6.8999815173447132110595703125">
        <ele>817.5999755859375</ele>
        <time>2021-11-06T10:12:47.000Z</time>
      </trkpt>
      <trkpt lat="41.96683709509670734405517578125" lon="-6.89996433444321155548095703125">
        <ele>817.4000244140625</ele>
        <time>2021-11-06T10:12:50.000Z</time>
      </trkpt>
      <trkpt lat="41.96678697131574153900146484375" lon="-6.89996869303286075592041015625">
        <ele>816.79998779296875</ele>
        <time>2021-11-06T10:12:55.000Z</time>
      </trkpt>
      <trkpt lat="41.96676350198686122894287109375" lon="-6.89997824840247631072998046875">
        <ele>816.5999755859375</ele>
        <time>2021-11-06T10:12:57.000Z</time>
      </trkpt>
      <trkpt lat="41.9666544534265995025634765625" lon="-6.90002719871699810028076171875">
        <ele>815.5999755859375</ele>
        <time>2021-11-06T10:13:06.000Z</time>
      </trkpt>
      <trkpt lat="41.96655026637017726898193359375" lon="-6.9000891409814357757568359375">
        <ele>814.5999755859375</ele>
        <time>2021-11-06T10:13:16.000Z</time>
      </trkpt>
      <trkpt lat="41.96649008430540561676025390625" lon="-6.9001203216612339019775390625">
        <ele>814</ele>
        <time>2021-11-06T10:13:23.000Z</time>
      </trkpt>
      <trkpt lat="41.966446749866008758544921875" lon="-6.9001002050936222076416015625">
        <ele>813.79998779296875</ele>
        <time>2021-11-06T10:13:27.000Z</time>
      </trkpt>
      <trkpt lat="41.96640643291175365447998046875" lon="-6.90012861974537372589111328125">
        <ele>813.5999755859375</ele>
        <time>2021-11-06T10:13:31.000Z</time>
      </trkpt>
      <trkpt lat="41.96638698689639568328857421875" lon="-6.90014236606657505035400390625">
        <ele>813.5999755859375</ele>
        <time>2021-11-06T10:13:33.000Z</time>
      </trkpt>
      <trkpt lat="41.96634457446634769439697265625" lon="-6.90016952343285083770751953125">
        <ele>813.79998779296875</ele>
        <time>2021-11-06T10:13:38.000Z</time>
      </trkpt>
      <trkpt lat="41.96629679761826992034912109375" lon="-6.90018243156373500823974609375">
        <ele>813.79998779296875</ele>
        <time>2021-11-06T10:13:44.000Z</time>
      </trkpt>
      <trkpt lat="41.9662950374186038970947265625" lon="-6.9001744687557220458984375">
        <ele>813.79998779296875</ele>
        <time>2021-11-06T10:13:46.000Z</time>
      </trkpt>
      <trkpt lat="41.96627550758421421051025390625" lon="-6.900177486240863800048828125">
        <ele>814</ele>
        <time>2021-11-06T10:13:49.000Z</time>
      </trkpt>
      <trkpt lat="41.96624600328505039215087890625" lon="-6.900178156793117523193359375">
        <ele>814.20001220703125</ele>
        <time>2021-11-06T10:13:51.000Z</time>
      </trkpt>
      <trkpt lat="41.966172493994235992431640625" lon="-6.9001890532672405242919921875">
        <ele>814.4000244140625</ele>
        <time>2021-11-06T10:13:58.000Z</time>
      </trkpt>
      <trkpt lat="41.9661448337137699127197265625" lon="-6.90019399859011173248291015625">
        <ele>814.5999755859375</ele>
        <time>2021-11-06T10:14:01.000Z</time>
      </trkpt>
      <trkpt lat="41.96611113846302032470703125" lon="-6.90018813125789165496826171875">
        <ele>814.5999755859375</ele>
        <time>2021-11-06T10:14:05.000Z</time>
      </trkpt>
      <trkpt lat="41.96609370410442352294921875" lon="-6.90018964000046253204345703125">
        <ele>814.5999755859375</ele>
        <time>2021-11-06T10:14:07.000Z</time>
      </trkpt>
      <trkpt lat="41.96605774573981761932373046875" lon="-6.90018184483051300048828125">
        <ele>814.5999755859375</ele>
        <time>2021-11-06T10:14:12.000Z</time>
      </trkpt>
      <trkpt lat="41.96602388285100460052490234375" lon="-6.90018796361982822418212890625">
        <ele>814.5999755859375</ele>
        <time>2021-11-06T10:14:15.000Z</time>
      </trkpt>
      <trkpt lat="41.9659731723368167877197265625" lon="-6.9001947529613971710205078125">
        <ele>814.5999755859375</ele>
        <time>2021-11-06T10:14:22.000Z</time>
      </trkpt>
      <trkpt lat="41.96590729057788848876953125" lon="-6.9002115167677402496337890625">
        <ele>814.5999755859375</ele>
        <time>2021-11-06T10:14:28.000Z</time>
      </trkpt>
      <trkpt lat="41.965876109898090362548828125" lon="-6.90022333525121212005615234375">
        <ele>814.79998779296875</ele>
        <time>2021-11-06T10:14:31.000Z</time>
      </trkpt>
      <trkpt lat="41.96586529724299907684326171875" lon="-6.9002299569547176361083984375">
        <ele>814.79998779296875</ele>
        <time>2021-11-06T10:14:34.000Z</time>
      </trkpt>
      <trkpt lat="41.9658434204757213592529296875" lon="-6.90023540519177913665771484375">
        <ele>814.79998779296875</ele>
        <time>2021-11-06T10:14:37.000Z</time>
      </trkpt>
      <trkpt lat="41.9658155925571918487548828125" lon="-6.9002725370228290557861328125">
        <ele>815</ele>
        <time>2021-11-06T10:14:41.000Z</time>
      </trkpt>
      <trkpt lat="41.9657954759895801544189453125" lon="-6.90029156394302845001220703125">
        <ele>815</ele>
        <time>2021-11-06T10:14:44.000Z</time>
      </trkpt>
      <trkpt lat="41.96573336608707904815673828125" lon="-6.9003892131149768829345703125">
        <ele>814.79998779296875</ele>
        <time>2021-11-06T10:14:52.000Z</time>
      </trkpt>
      <trkpt lat="41.96555860340595245361328125" lon="-6.90048652701079845428466796875">
        <ele>815.4000244140625</ele>
        <time>2021-11-06T10:15:10.000Z</time>
      </trkpt>
      <trkpt lat="41.96538199670612812042236328125" lon="-6.90054117701947689056396484375">
        <ele>815</ele>
        <time>2021-11-06T10:15:26.000Z</time>
      </trkpt>
      <trkpt lat="41.96522089652717113494873046875" lon="-6.90066196024417877197265625">
        <ele>814.5999755859375</ele>
        <time>2021-11-06T10:15:39.000Z</time>
      </trkpt>
      <trkpt lat="41.96521419100463390350341796875" lon="-6.900667659938335418701171875">
        <ele>814.5999755859375</ele>
        <time>2021-11-06T10:15:40.000Z</time>
      </trkpt>
      <trkpt lat="41.96513540111482143402099609375" lon="-6.90070428885519504547119140625">
        <ele>814.79998779296875</ele>
        <time>2021-11-06T10:15:48.000Z</time>
      </trkpt>
      <trkpt lat="41.96508795954287052154541015625" lon="-6.90071736462414264678955078125">
        <ele>815</ele>
        <time>2021-11-06T10:15:53.000Z</time>
      </trkpt>
      <trkpt lat="41.96500514633953571319580078125" lon="-6.90075307153165340423583984375">
        <ele>815.4000244140625</ele>
        <time>2021-11-06T10:16:01.000Z</time>
      </trkpt>
      <trkpt lat="41.9649948365986347198486328125" lon="-6.90076027996838092803955078125">
        <ele>815.5999755859375</ele>
        <time>2021-11-06T10:16:02.000Z</time>
      </trkpt>
      <trkpt lat="41.96494060568511486053466796875" lon="-6.90076665021479129791259765625">
        <ele>816</ele>
        <time>2021-11-06T10:16:07.000Z</time>
      </trkpt>
      <trkpt lat="41.96487061679363250732421875" lon="-6.900807134807109832763671875">
        <ele>816.4000244140625</ele>
        <time>2021-11-06T10:16:15.000Z</time>
      </trkpt>
      <trkpt lat="41.96484974585473537445068359375" lon="-6.9008187018334865570068359375">
        <ele>816.4000244140625</ele>
        <time>2021-11-06T10:16:17.000Z</time>
      </trkpt>
      <trkpt lat="41.96482946164906024932861328125" lon="-6.90081979148089885711669921875">
        <ele>816.5999755859375</ele>
        <time>2021-11-06T10:16:19.000Z</time>
      </trkpt>
      <trkpt lat="41.9647936709225177764892578125" lon="-6.90082867629826068878173828125">
        <ele>816.79998779296875</ele>
        <time>2021-11-06T10:16:23.000Z</time>
      </trkpt>
      <trkpt lat="41.96476190350949764251708984375" lon="-6.90084225498139858245849609375">
        <ele>817</ele>
        <time>2021-11-06T10:16:27.000Z</time>
      </trkpt>
      <trkpt lat="41.96470188908278942108154296875" lon="-6.9008839130401611328125">
        <ele>817.4000244140625</ele>
        <time>2021-11-06T10:16:34.000Z</time>
      </trkpt>
      <trkpt lat="41.96468395181000232696533203125" lon="-6.9008800573647022247314453125">
        <ele>817.5999755859375</ele>
        <time>2021-11-06T10:16:36.000Z</time>
      </trkpt>
      <trkpt lat="41.9645834527909755706787109375" lon="-6.9008906185626983642578125">
        <ele>818.20001220703125</ele>
        <time>2021-11-06T10:16:45.000Z</time>
      </trkpt>
      <trkpt lat="41.96456559933722019195556640625" lon="-6.90089757554233074188232421875">
        <ele>818.20001220703125</ele>
        <time>2021-11-06T10:16:47.000Z</time>
      </trkpt>
      <trkpt lat="41.96452461183071136474609375" lon="-6.90090713091194629669189453125">
        <ele>818.20001220703125</ele>
        <time>2021-11-06T10:16:52.000Z</time>
      </trkpt>
      <trkpt lat="41.96447406895458698272705078125" lon="-6.90093177370727062225341796875">
        <ele>818.20001220703125</ele>
        <time>2021-11-06T10:16:56.000Z</time>
      </trkpt>
      <trkpt lat="41.96445562876760959625244140625" lon="-6.900943927466869354248046875">
        <ele>818.4000244140625</ele>
        <time>2021-11-06T10:16:58.000Z</time>
      </trkpt>
      <trkpt lat="41.9644193351268768310546875" lon="-6.9009595178067684173583984375">
        <ele>818.5999755859375</ele>
        <time>2021-11-06T10:17:01.000Z</time>
      </trkpt>
      <trkpt lat="41.96425144560635089874267578125" lon="-6.9010376371443271636962890625">
        <ele>818.5999755859375</ele>
        <time>2021-11-06T10:17:17.000Z</time>
      </trkpt>
      <trkpt lat="41.9640724919736385345458984375" lon="-6.90107158385217189788818359375">
        <ele>819.20001220703125</ele>
        <time>2021-11-06T10:17:32.000Z</time>
      </trkpt>
      <trkpt lat="41.96389404125511646270751953125" lon="-6.901106536388397216796875">
        <ele>819</ele>
        <time>2021-11-06T10:17:46.000Z</time>
      </trkpt>
      <trkpt lat="41.96386353112757205963134765625" lon="-6.90110276453197002410888671875">
        <ele>818.79998779296875</ele>
        <time>2021-11-06T10:17:49.000Z</time>
      </trkpt>
      <trkpt lat="41.96368449367582798004150390625" lon="-6.90110829658806324005126953125">
        <ele>819.4000244140625</ele>
        <time>2021-11-06T10:18:04.000Z</time>
      </trkpt>
      <trkpt lat="41.963674016296863555908203125" lon="-6.90111248753964900970458984375">
        <ele>819.4000244140625</ele>
        <time>2021-11-06T10:18:05.000Z</time>
      </trkpt>
      <trkpt lat="41.96360235102474689483642578125" lon="-6.90111198462545871734619140625">
        <ele>819.79998779296875</ele>
        <time>2021-11-06T10:18:10.000Z</time>
      </trkpt>
      <trkpt lat="41.963464803993701934814453125" lon="-6.90104844979941844940185546875">
        <ele>820.79998779296875</ele>
        <time>2021-11-06T10:18:22.000Z</time>
      </trkpt>
      <trkpt lat="41.9632793962955474853515625" lon="-6.90104744397103786468505859375">
        <ele>820.5999755859375</ele>
        <time>2021-11-06T10:18:36.000Z</time>
      </trkpt>
      <trkpt lat="41.96314184926450252532958984375" lon="-6.90108180977404117584228515625">
        <ele>819.5999755859375</ele>
        <time>2021-11-06T10:18:46.000Z</time>
      </trkpt>
      <trkpt lat="41.96306859143078327178955078125" lon="-6.90109455026686191558837890625">
        <ele>818.5999755859375</ele>
        <time>2021-11-06T10:18:52.000Z</time>
      </trkpt>
      <trkpt lat="41.9629231654107570648193359375" lon="-6.90113595686852931976318359375">
        <ele>817.5999755859375</ele>
        <time>2021-11-06T10:19:03.000Z</time>
      </trkpt>
      <trkpt lat="41.96277271024882793426513671875" lon="-6.9012686423957347869873046875">
        <ele>817.20001220703125</ele>
        <time>2021-11-06T10:19:17.000Z</time>
      </trkpt>
      <trkpt lat="41.96270431391894817352294921875" lon="-6.9013346917927265167236328125">
        <ele>816.5999755859375</ele>
        <time>2021-11-06T10:19:23.000Z</time>
      </trkpt>
      <trkpt lat="41.96256953291594982147216796875" lon="-6.90149822272360324859619140625">
        <ele>816</ele>
        <time>2021-11-06T10:19:39.000Z</time>
      </trkpt>
      <trkpt lat="41.96240139193832874298095703125" lon="-6.90161816775798797607421875">
        <ele>815.79998779296875</ele>
        <time>2021-11-06T10:19:54.000Z</time>
      </trkpt>
      <trkpt lat="41.96236350573599338531494140625" lon="-6.90165312029421329498291015625">
        <ele>815.5999755859375</ele>
        <time>2021-11-06T10:19:58.000Z</time>
      </trkpt>
      <trkpt lat="41.96231975220143795013427734375" lon="-6.90168899483978748321533203125">
        <ele>815.4000244140625</ele>
        <time>2021-11-06T10:20:02.000Z</time>
      </trkpt>
      <trkpt lat="41.9621423073112964630126953125" lon="-6.9017916731536388397216796875">
        <ele>814.79998779296875</ele>
        <time>2021-11-06T10:20:18.000Z</time>
      </trkpt>
      <trkpt lat="41.96199218742549419403076171875" lon="-6.901943050324916839599609375">
        <ele>815.4000244140625</ele>
        <time>2021-11-06T10:20:34.000Z</time>
      </trkpt>
      <trkpt lat="41.96182237006723880767822265625" lon="-6.90205000340938568115234375">
        <ele>816.4000244140625</ele>
        <time>2021-11-06T10:20:50.000Z</time>
      </trkpt>
      <trkpt lat="41.9617691449820995330810546875" lon="-6.90206785686314105987548828125">
        <ele>816.5999755859375</ele>
        <time>2021-11-06T10:20:55.000Z</time>
      </trkpt>
      <trkpt lat="41.96169261820614337921142578125" lon="-6.90211932174861431121826171875">
        <ele>817.5999755859375</ele>
        <time>2021-11-06T10:21:02.000Z</time>
      </trkpt>
      <trkpt lat="41.96152950637042522430419921875" lon="-6.9022573716938495635986328125">
        <ele>818.79998779296875</ele>
        <time>2021-11-06T10:21:17.000Z</time>
      </trkpt>
      <trkpt lat="41.96143546141684055328369140625" lon="-6.90234814770519733428955078125">
        <ele>819.79998779296875</ele>
        <time>2021-11-06T10:21:28.000Z</time>
      </trkpt>
      <trkpt lat="41.96133571676909923553466796875" lon="-6.90241344273090362548828125">
        <ele>820.79998779296875</ele>
        <time>2021-11-06T10:21:39.000Z</time>
      </trkpt>
      <trkpt lat="41.96124854497611522674560546875" lon="-6.90248024649918079376220703125">
        <ele>821.79998779296875</ele>
        <time>2021-11-06T10:21:47.000Z</time>
      </trkpt>
      <trkpt lat="41.96119708009064197540283203125" lon="-6.9025145284831523895263671875">
        <ele>823</ele>
        <time>2021-11-06T10:21:53.000Z</time>
      </trkpt>
      <trkpt lat="41.96116841398179531097412109375" lon="-6.9025240838527679443359375">
        <ele>823.4000244140625</ele>
        <time>2021-11-06T10:21:57.000Z</time>
      </trkpt>
      <trkpt lat="41.96111443452537059783935546875" lon="-6.90251293592154979705810546875">
        <ele>824</ele>
        <time>2021-11-06T10:22:03.000Z</time>
      </trkpt>
      <trkpt lat="41.9609695114195346832275390625" lon="-6.90249064005911350250244140625">
        <ele>824</ele>
        <time>2021-11-06T10:22:17.000Z</time>
      </trkpt>
      <trkpt lat="41.96090606041252613067626953125" lon="-6.90246096812188625335693359375">
        <ele>823.20001220703125</ele>
        <time>2021-11-06T10:22:23.000Z</time>
      </trkpt>
      <trkpt lat="41.9608870334923267364501953125" lon="-6.90244889818131923675537109375">
        <ele>822.79998779296875</ele>
        <time>2021-11-06T10:22:26.000Z</time>
      </trkpt>
      <trkpt lat="41.9608025439083576202392578125" lon="-6.9023961760103702545166015625">
        <ele>821.5999755859375</ele>
        <time>2021-11-06T10:22:35.000Z</time>
      </trkpt>
      <trkpt lat="41.9607339799404144287109375" lon="-6.902315206825733184814453125">
        <ele>820.5999755859375</ele>
        <time>2021-11-06T10:22:44.000Z</time>
      </trkpt>
      <trkpt lat="41.960709504783153533935546875" lon="-6.90229366533458232879638671875">
        <ele>820.20001220703125</ele>
        <time>2021-11-06T10:22:47.000Z</time>
      </trkpt>
      <trkpt lat="41.96067086420953273773193359375" lon="-6.9022523425519466400146484375">
        <ele>819.4000244140625</ele>
        <time>2021-11-06T10:22:51.000Z</time>
      </trkpt>
      <trkpt lat="41.96055628359317779541015625" lon="-6.90212502144277095794677734375">
        <ele>818.4000244140625</ele>
        <time>2021-11-06T10:23:02.000Z</time>
      </trkpt>
      <trkpt lat="41.96046249009668827056884765625" lon="-6.9020344130694866180419921875">
        <ele>817.20001220703125</ele>
        <time>2021-11-06T10:23:11.000Z</time>
      </trkpt>
      <trkpt lat="41.960295774042606353759765625" lon="-6.90192251466214656829833984375">
        <ele>816.20001220703125</ele>
        <time>2021-11-06T10:23:27.000Z</time>
      </trkpt>
      <trkpt lat="41.96013576351106166839599609375" lon="-6.901836097240447998046875">
        <ele>815.20001220703125</ele>
        <time>2021-11-06T10:23:42.000Z</time>
      </trkpt>
      <trkpt lat="41.96005445905029773712158203125" lon="-6.90180583856999874114990234375">
        <ele>814.20001220703125</ele>
        <time>2021-11-06T10:23:49.000Z</time>
      </trkpt>
      <trkpt lat="41.96001724340021610260009765625" lon="-6.90179024823009967803955078125">
        <ele>813.79998779296875</ele>
        <time>2021-11-06T10:23:53.000Z</time>
      </trkpt>
      <trkpt lat="41.95999561809003353118896484375" lon="-6.90177910029888153076171875">
        <ele>813.5999755859375</ele>
        <time>2021-11-06T10:23:55.000Z</time>
      </trkpt>
      <trkpt lat="41.95997424423694610595703125" lon="-6.90177415497601032257080078125">
        <ele>813.20001220703125</ele>
        <time>2021-11-06T10:23:57.000Z</time>
      </trkpt>
      <trkpt lat="41.95994180627167224884033203125" lon="-6.90177884884178638458251953125">
        <ele>813</ele>
        <time>2021-11-06T10:24:00.000Z</time>
      </trkpt>
      <trkpt lat="41.95993308909237384796142578125" lon="-6.90177532844245433807373046875">
        <ele>813</ele>
        <time>2021-11-06T10:24:01.000Z</time>
      </trkpt>
      <trkpt lat="41.95989335887134075164794921875" lon="-6.9017531163990497589111328125">
        <ele>812.5999755859375</ele>
        <time>2021-11-06T10:24:04.000Z</time>
      </trkpt>
      <trkpt lat="41.95985882543027400970458984375" lon="-6.90173685550689697265625">
        <ele>812</ele>
        <time>2021-11-06T10:24:07.000Z</time>
      </trkpt>
      <trkpt lat="41.9598114676773548126220703125" lon="-6.9017346762120723724365234375">
        <ele>811.20001220703125</ele>
        <time>2021-11-06T10:24:11.000Z</time>
      </trkpt>
      <trkpt lat="41.9598020799458026885986328125" lon="-6.90172755159437656402587890625">
        <ele>811</ele>
        <time>2021-11-06T10:24:12.000Z</time>
      </trkpt>
      <trkpt lat="41.9597227871417999267578125" lon="-6.90169670619070529937744140625">
        <ele>810</ele>
        <time>2021-11-06T10:24:20.000Z</time>
      </trkpt>
      <trkpt lat="41.9596468470990657806396484375" lon="-6.9017051719129085540771484375">
        <ele>809.79998779296875</ele>
        <time>2021-11-06T10:24:25.000Z</time>
      </trkpt>
      <trkpt lat="41.95957400836050510406494140625" lon="-6.90170089714229106903076171875">
        <ele>808.79998779296875</ele>
        <time>2021-11-06T10:24:31.000Z</time>
      </trkpt>
      <trkpt lat="41.9595170952379703521728515625" lon="-6.90168279223144054412841796875">
        <ele>808.4000244140625</ele>
        <time>2021-11-06T10:24:36.000Z</time>
      </trkpt>
      <trkpt lat="41.95941089652478694915771484375" lon="-6.90169435925781726837158203125">
        <ele>807.79998779296875</ele>
        <time>2021-11-06T10:24:44.000Z</time>
      </trkpt>
      <trkpt lat="41.95936580188572406768798828125" lon="-6.90168715082108974456787109375">
        <ele>806.79998779296875</ele>
        <time>2021-11-06T10:24:48.000Z</time>
      </trkpt>
      <trkpt lat="41.9593484513461589813232421875" lon="-6.901680529117584228515625">
        <ele>806.5999755859375</ele>
        <time>2021-11-06T10:24:50.000Z</time>
      </trkpt>
      <trkpt lat="41.959324143826961517333984375" lon="-6.9016763381659984588623046875">
        <ele>806.20001220703125</ele>
        <time>2021-11-06T10:24:53.000Z</time>
      </trkpt>
      <trkpt lat="41.95929472334682941436767578125" lon="-6.9016726501286029815673828125">
        <ele>805.5999755859375</ele>
        <time>2021-11-06T10:24:56.000Z</time>
      </trkpt>
      <trkpt lat="41.95928600616753101348876953125" lon="-6.90167021937668323516845703125">
        <ele>805.5999755859375</ele>
        <time>2021-11-06T10:24:57.000Z</time>
      </trkpt>
      <trkpt lat="41.95923336781561374664306640625" lon="-6.90169402398169040679931640625">
        <ele>805.20001220703125</ele>
        <time>2021-11-06T10:25:01.000Z</time>
      </trkpt>
      <trkpt lat="41.95920453406870365142822265625" lon="-6.9017071835696697235107421875">
        <ele>805</ele>
        <time>2021-11-06T10:25:03.000Z</time>
      </trkpt>
      <trkpt lat="41.95918441750109195709228515625" lon="-6.90172051079571247100830078125">
        <ele>804.5999755859375</ele>
        <time>2021-11-06T10:25:05.000Z</time>
      </trkpt>
      <trkpt lat="41.95908802561461925506591796875" lon="-6.90176409669220447540283203125">
        <ele>803.4000244140625</ele>
        <time>2021-11-06T10:25:12.000Z</time>
      </trkpt>
      <trkpt lat="41.95903304032981395721435546875" lon="-6.90181086771190166473388671875">
        <ele>802.4000244140625</ele>
        <time>2021-11-06T10:25:16.000Z</time>
      </trkpt>
      <trkpt lat="41.95895642973482608795166015625" lon="-6.901870630681514739990234375">
        <ele>801.20001220703125</ele>
        <time>2021-11-06T10:25:23.000Z</time>
      </trkpt>
      <trkpt lat="41.9588747061789035797119140625" lon="-6.901951767504215240478515625">
        <ele>800.20001220703125</ele>
        <time>2021-11-06T10:25:32.000Z</time>
      </trkpt>
      <trkpt lat="41.95871201343834400177001953125" lon="-6.9020709581673145294189453125">
        <ele>799.20001220703125</ele>
        <time>2021-11-06T10:25:47.000Z</time>
      </trkpt>
      <trkpt lat="41.95868569426238536834716796875" lon="-6.90208948217332363128662109375">
        <ele>799.20001220703125</ele>
        <time>2021-11-06T10:25:49.000Z</time>
      </trkpt>
      <trkpt lat="41.9585109315812587738037109375" lon="-6.90217128954827785491943359375">
        <ele>798.20001220703125</ele>
        <time>2021-11-06T10:26:04.000Z</time>
      </trkpt>
      <trkpt lat="41.95848486386239528656005859375" lon="-6.902173720300197601318359375">
        <ele>798</ele>
        <time>2021-11-06T10:26:06.000Z</time>
      </trkpt>
      <trkpt lat="41.95838495157659053802490234375" lon="-6.90209048800170421600341796875">
        <ele>797</ele>
        <time>2021-11-06T10:26:17.000Z</time>
      </trkpt>
      <trkpt lat="41.95837221108376979827880859375" lon="-6.90202653408050537109375">
        <ele>795.79998779296875</ele>
        <time>2021-11-06T10:26:22.000Z</time>
      </trkpt>
      <trkpt lat="41.95835284888744354248046875" lon="-6.90188881941139698028564453125">
        <ele>794.79998779296875</ele>
        <time>2021-11-06T10:26:31.000Z</time>
      </trkpt>
      <trkpt lat="41.95833717472851276397705078125" lon="-6.901835761964321136474609375">
        <ele>793.5999755859375</ele>
        <time>2021-11-06T10:26:35.000Z</time>
      </trkpt>
      <trkpt lat="41.95830213837325572967529296875" lon="-6.901762671768665313720703125">
        <ele>793</ele>
        <time>2021-11-06T10:26:40.000Z</time>
      </trkpt>
      <trkpt lat="41.95821873843669891357421875" lon="-6.901670806109905242919921875">
        <ele>793</ele>
        <time>2021-11-06T10:26:48.000Z</time>
      </trkpt>
      <trkpt lat="41.95817423053085803985595703125" lon="-6.90167449414730072021484375">
        <ele>792.5999755859375</ele>
        <time>2021-11-06T10:26:52.000Z</time>
      </trkpt>
      <trkpt lat="41.9580945186316967010498046875" lon="-6.901732496917247772216796875">
        <ele>792.5999755859375</ele>
        <time>2021-11-06T10:26:59.000Z</time>
      </trkpt>
      <trkpt lat="41.957915984094142913818359375" lon="-6.90180298872292041778564453125">
        <ele>793</ele>
        <time>2021-11-06T10:27:13.000Z</time>
      </trkpt>
      <trkpt lat="41.95784716866910457611083984375" lon="-6.90179594792425632476806640625">
        <ele>793.5999755859375</ele>
        <time>2021-11-06T10:27:19.000Z</time>
      </trkpt>
      <trkpt lat="41.9577954523265361785888671875" lon="-6.901786141097545623779296875">
        <ele>794</ele>
        <time>2021-11-06T10:27:24.000Z</time>
      </trkpt>
      <trkpt lat="41.95770635269582271575927734375" lon="-6.90180055797100067138671875">
        <ele>794.4000244140625</ele>
        <time>2021-11-06T10:27:32.000Z</time>
      </trkpt>
      <trkpt lat="41.95766762830317020416259765625" lon="-6.9018134661018848419189453125">
        <ele>794.79998779296875</ele>
        <time>2021-11-06T10:27:35.000Z</time>
      </trkpt>
      <trkpt lat="41.95759722031652927398681640625" lon="-6.90179251134395599365234375">
        <ele>795.5999755859375</ele>
        <time>2021-11-06T10:27:42.000Z</time>
      </trkpt>
      <trkpt lat="41.95757710374891757965087890625" lon="-6.90179795958101749420166015625">
        <ele>795.79998779296875</ele>
        <time>2021-11-06T10:27:44.000Z</time>
      </trkpt>
      <trkpt lat="41.9575059413909912109375" lon="-6.90181757323443889617919921875">
        <ele>796.20001220703125</ele>
        <time>2021-11-06T10:27:50.000Z</time>
      </trkpt>
      <trkpt lat="41.9574279896914958953857421875" lon="-6.90181262791156768798828125">
        <ele>796.79998779296875</ele>
        <time>2021-11-06T10:27:57.000Z</time>
      </trkpt>
      <trkpt lat="41.9573287479579448699951171875" lon="-6.90179594792425632476806640625">
        <ele>797.79998779296875</ele>
        <time>2021-11-06T10:28:05.000Z</time>
      </trkpt>
      <trkpt lat="41.95718944072723388671875" lon="-6.90169268287718296051025390625">
        <ele>798.79998779296875</ele>
        <time>2021-11-06T10:28:20.000Z</time>
      </trkpt>
      <trkpt lat="41.95718700997531414031982421875" lon="-6.901691257953643798828125">
        <ele>798.79998779296875</ele>
        <time>2021-11-06T10:28:21.000Z</time>
      </trkpt>
      <trkpt lat="41.95718667469918727874755859375" lon="-6.9016765058040618896484375">
        <ele>798.79998779296875</ele>
        <time>2021-11-06T10:28:26.000Z</time>
      </trkpt>
      <trkpt lat="41.95703680627048015594482421875" lon="-6.9015449099242687225341796875">
        <ele>799</ele>
        <time>2021-11-06T10:28:46.000Z</time>
      </trkpt>
      <trkpt lat="41.95686556398868560791015625" lon="-6.90160366706550121307373046875">
        <ele>798.79998779296875</ele>
        <time>2021-11-06T10:28:58.000Z</time>
      </trkpt>
      <trkpt lat="41.9567079842090606689453125" lon="-6.90173886716365814208984375">
        <ele>799.20001220703125</ele>
        <time>2021-11-06T10:29:12.000Z</time>
      </trkpt>
      <trkpt lat="41.9565234147012233734130859375" lon="-6.90174515359103679656982421875">
        <ele>799.5999755859375</ele>
        <time>2021-11-06T10:29:28.000Z</time>
      </trkpt>
      <trkpt lat="41.95648829452693462371826171875" lon="-6.9017329998314380645751953125">
        <ele>799.79998779296875</ele>
        <time>2021-11-06T10:29:31.000Z</time>
      </trkpt>
      <trkpt lat="41.95630121044814586639404296875" lon="-6.9017028249800205230712890625">
        <ele>800.5999755859375</ele>
        <time>2021-11-06T10:29:46.000Z</time>
      </trkpt>
      <trkpt lat="41.95612133480608463287353515625" lon="-6.90173861570656299591064453125">
        <ele>799.79998779296875</ele>
        <time>2021-11-06T10:30:01.000Z</time>
      </trkpt>
      <trkpt lat="41.95606333203613758087158203125" lon="-6.9017422199249267578125">
        <ele>799.4000244140625</ele>
        <time>2021-11-06T10:30:06.000Z</time>
      </trkpt>
      <trkpt lat="41.9560295529663562774658203125" lon="-6.90174959599971771240234375">
        <ele>799.20001220703125</ele>
        <time>2021-11-06T10:30:09.000Z</time>
      </trkpt>
      <trkpt lat="41.955992169678211212158203125" lon="-6.90173727460205554962158203125">
        <ele>798.79998779296875</ele>
        <time>2021-11-06T10:30:12.000Z</time>
      </trkpt>
      <trkpt lat="41.9558863900601863861083984375" lon="-6.90171380527317523956298828125">
        <ele>797.79998779296875</ele>
        <time>2021-11-06T10:30:21.000Z</time>
      </trkpt>
      <trkpt lat="41.9557888247072696685791015625" lon="-6.9017048366367816925048828125">
        <ele>796.79998779296875</ele>
        <time>2021-11-06T10:30:30.000Z</time>
      </trkpt>
      <trkpt lat="41.95573727600276470184326171875" lon="-6.9017038308084011077880859375">
        <ele>795.79998779296875</ele>
        <time>2021-11-06T10:30:35.000Z</time>
      </trkpt>
      <trkpt lat="41.95572319440543651580810546875" lon="-6.90170693211257457733154296875">
        <ele>795.79998779296875</ele>
        <time>2021-11-06T10:30:36.000Z</time>
      </trkpt>
      <trkpt lat="41.9556459970772266387939453125" lon="-6.9017247855663299560546875">
        <ele>794.5999755859375</ele>
        <time>2021-11-06T10:30:42.000Z</time>
      </trkpt>
      <trkpt lat="41.955572068691253662109375" lon="-6.9017497636377811431884765625">
        <ele>793.79998779296875</ele>
        <time>2021-11-06T10:30:49.000Z</time>
      </trkpt>
      <trkpt lat="41.95554784499108791351318359375" lon="-6.9017584808170795440673828125">
        <ele>793.5999755859375</ele>
        <time>2021-11-06T10:30:51.000Z</time>
      </trkpt>
      <trkpt lat="41.95543921552598476409912109375" lon="-6.90180047415196895599365234375">
        <ele>792.5999755859375</ele>
        <time>2021-11-06T10:31:01.000Z</time>
      </trkpt>
      <trkpt lat="41.955274008214473724365234375" lon="-6.901839114725589752197265625">
        <ele>791.5999755859375</ele>
        <time>2021-11-06T10:31:16.000Z</time>
      </trkpt>
      <trkpt lat="41.95519245229661464691162109375" lon="-6.90185596235096454620361328125">
        <ele>791.4000244140625</ele>
        <time>2021-11-06T10:31:23.000Z</time>
      </trkpt>
      <trkpt lat="41.9551699049770832061767578125" lon="-6.9018669426441192626953125">
        <ele>791.20001220703125</ele>
        <time>2021-11-06T10:31:25.000Z</time>
      </trkpt>
      <trkpt lat="41.955083906650543212890625" lon="-6.90190105699002742767333984375">
        <ele>791</ele>
        <time>2021-11-06T10:31:34.000Z</time>
      </trkpt>
      <trkpt lat="41.95503571070730686187744140625" lon="-6.90191396512091159820556640625">
        <ele>790.79998779296875</ele>
        <time>2021-11-06T10:31:40.000Z</time>
      </trkpt>
      <trkpt lat="41.95495591498911380767822265625" lon="-6.90194196067750453948974609375">
        <ele>790.79998779296875</ele>
        <time>2021-11-06T10:31:47.000Z</time>
      </trkpt>
      <trkpt lat="41.95480763912200927734375" lon="-6.9019693695008754730224609375">
        <ele>791.5999755859375</ele>
        <time>2021-11-06T10:32:00.000Z</time>
      </trkpt>
      <trkpt lat="41.95475910790264606475830078125" lon="-6.9020059145987033843994140625">
        <ele>791.79998779296875</ele>
        <time>2021-11-06T10:32:04.000Z</time>
      </trkpt>
      <trkpt lat="41.95458543486893177032470703125" lon="-6.90209065563976764678955078125">
        <ele>792</ele>
        <time>2021-11-06T10:32:17.000Z</time>
      </trkpt>
      <trkpt lat="41.9544661603868007659912109375" lon="-6.90215754322707653045654296875">
        <ele>792.5999755859375</ele>
        <time>2021-11-06T10:32:28.000Z</time>
      </trkpt>
      <trkpt lat="41.9543400965631008148193359375" lon="-6.90226349048316478729248046875">
        <ele>793.5999755859375</ele>
        <time>2021-11-06T10:32:42.000Z</time>
      </trkpt>
      <trkpt lat="41.9542274437844753265380859375" lon="-6.90233373083174228668212890625">
        <ele>794.5999755859375</ele>
        <time>2021-11-06T10:32:52.000Z</time>
      </trkpt>
      <trkpt lat="41.9541282020509243011474609375" lon="-6.9025428593158721923828125">
        <ele>795.4000244140625</ele>
        <time>2021-11-06T10:33:07.000Z</time>
      </trkpt>
      <trkpt lat="41.95411521010100841522216796875" lon="-6.9025832600891590118408203125">
        <ele>795.5999755859375</ele>
        <time>2021-11-06T10:33:11.000Z</time>
      </trkpt>
      <trkpt lat="41.95412510074675083160400390625" lon="-6.90259985625743865966796875">
        <ele>795.79998779296875</ele>
        <time>2021-11-06T10:33:12.000Z</time>
      </trkpt>
      <trkpt lat="41.9540561176836490631103515625" lon="-6.9028182886540889739990234375">
        <ele>796.79998779296875</ele>
        <time>2021-11-06T10:33:27.000Z</time>
      </trkpt>
      <trkpt lat="41.95405385456979274749755859375" lon="-6.9028286822140216827392578125">
        <ele>796.79998779296875</ele>
        <time>2021-11-06T10:33:28.000Z</time>
      </trkpt>
      <trkpt lat="41.954048573970794677734375" lon="-6.90290219150483608245849609375">
        <ele>797.5999755859375</ele>
        <time>2021-11-06T10:33:34.000Z</time>
      </trkpt>
      <trkpt lat="41.9540366716682910919189453125" lon="-6.90296488814055919647216796875">
        <ele>797.79998779296875</ele>
        <time>2021-11-06T10:33:39.000Z</time>
      </trkpt>
      <trkpt lat="41.95403189398348331451416015625" lon="-6.90298466943204402923583984375">
        <ele>798</ele>
        <time>2021-11-06T10:33:40.000Z</time>
      </trkpt>
      <trkpt lat="41.9540121965110301971435546875" lon="-6.903056167066097259521484375">
        <ele>798.4000244140625</ele>
        <time>2021-11-06T10:33:44.000Z</time>
      </trkpt>
      <trkpt lat="41.95399962365627288818359375" lon="-6.90318994224071502685546875">
        <ele>799</ele>
        <time>2021-11-06T10:33:53.000Z</time>
      </trkpt>
      <trkpt lat="41.953981183469295501708984375" lon="-6.9032695703208446502685546875">
        <ele>799</ele>
        <time>2021-11-06T10:33:58.000Z</time>
      </trkpt>
      <trkpt lat="41.95391647517681121826171875" lon="-6.90350250340998172760009765625">
        <ele>799.5999755859375</ele>
        <time>2021-11-06T10:34:09.000Z</time>
      </trkpt>
      <trkpt lat="41.95400188677012920379638671875" lon="-6.90363175235688686370849609375">
        <ele>799.79998779296875</ele>
        <time>2021-11-06T10:34:17.000Z</time>
      </trkpt>
      <trkpt lat="41.9540266133844852447509765625" lon="-6.90365186892449855804443359375">
        <ele>800</ele>
        <time>2021-11-06T10:34:19.000Z</time>
      </trkpt>
      <trkpt lat="41.95408537052571773529052734375" lon="-6.9038019888103008270263671875">
        <ele>800.4000244140625</ele>
        <time>2021-11-06T10:34:28.000Z</time>
      </trkpt>
      <trkpt lat="41.95411361753940582275390625" lon="-6.9038455747067928314208984375">
        <ele>801</ele>
        <time>2021-11-06T10:34:33.000Z</time>
      </trkpt>
      <trkpt lat="41.95411437191069126129150390625" lon="-6.9038563035428524017333984375">
        <ele>801</ele>
        <time>2021-11-06T10:34:34.000Z</time>
      </trkpt>
      <trkpt lat="41.954088471829891204833984375" lon="-6.9039495103061199188232421875">
        <ele>801.5999755859375</ele>
        <time>2021-11-06T10:34:39.000Z</time>
      </trkpt>
      <trkpt lat="41.95408738218247890472412109375" lon="-6.9039941020309925079345703125">
        <ele>802</ele>
        <time>2021-11-06T10:34:42.000Z</time>
      </trkpt>
      <trkpt lat="41.95408344268798828125" lon="-6.9040226005017757415771484375">
        <ele>802.4000244140625</ele>
        <time>2021-11-06T10:34:44.000Z</time>
      </trkpt>
      <trkpt lat="41.95407615043222904205322265625" lon="-6.90413349308073520660400390625">
        <ele>803</ele>
        <time>2021-11-06T10:34:51.000Z</time>
      </trkpt>
      <trkpt lat="41.9540735520422458648681640625" lon="-6.904234997928142547607421875">
        <ele>803.5999755859375</ele>
        <time>2021-11-06T10:34:59.000Z</time>
      </trkpt>
      <trkpt lat="41.9540525972843170166015625" lon="-6.90440204925835132598876953125">
        <ele>804</ele>
        <time>2021-11-06T10:35:09.000Z</time>
      </trkpt>
      <trkpt lat="41.9540564529597759246826171875" lon="-6.90445032902061939239501953125">
        <ele>804.20001220703125</ele>
        <time>2021-11-06T10:35:12.000Z</time>
      </trkpt>
      <trkpt lat="41.9541151262819766998291015625" lon="-6.90467697568237781524658203125">
        <ele>805.20001220703125</ele>
        <time>2021-11-06T10:35:27.000Z</time>
      </trkpt>
      <trkpt lat="41.9541285373270511627197265625" lon="-6.904729865491390228271484375">
        <ele>805.4000244140625</ele>
        <time>2021-11-06T10:35:31.000Z</time>
      </trkpt>
      <trkpt lat="41.95415175519883632659912109375" lon="-6.90479566343128681182861328125">
        <ele>806</ele>
        <time>2021-11-06T10:35:36.000Z</time>
      </trkpt>
      <trkpt lat="41.95417170412838459014892578125" lon="-6.90483950078487396240234375">
        <ele>806.20001220703125</ele>
        <time>2021-11-06T10:35:39.000Z</time>
      </trkpt>
      <trkpt lat="41.95419534109532833099365234375" lon="-6.90495659597218036651611328125">
        <ele>807.20001220703125</ele>
        <time>2021-11-06T10:35:47.000Z</time>
      </trkpt>
      <trkpt lat="41.95422769524157047271728515625" lon="-6.90506857819855213165283203125">
        <ele>808</ele>
        <time>2021-11-06T10:35:55.000Z</time>
      </trkpt>
      <trkpt lat="41.9542321376502513885498046875" lon="-6.90509498119354248046875">
        <ele>808.4000244140625</ele>
        <time>2021-11-06T10:35:57.000Z</time>
      </trkpt>
      <trkpt lat="41.954233646392822265625" lon="-6.90513295121490955352783203125">
        <ele>808.5999755859375</ele>
        <time>2021-11-06T10:35:59.000Z</time>
      </trkpt>
      <trkpt lat="41.954229958355426788330078125" lon="-6.90519212745130062103271484375">
        <ele>808.79998779296875</ele>
        <time>2021-11-06T10:36:03.000Z</time>
      </trkpt>
      <trkpt lat="41.9542247615754604339599609375" lon="-6.9052775390446186065673828125">
        <ele>809.20001220703125</ele>
        <time>2021-11-06T10:36:08.000Z</time>
      </trkpt>
      <trkpt lat="41.9542162120342254638671875" lon="-6.9054020941257476806640625">
        <ele>809.4000244140625</ele>
        <time>2021-11-06T10:36:15.000Z</time>
      </trkpt>
      <trkpt lat="41.95420506410300731658935546875" lon="-6.905615665018558502197265625">
        <ele>810</ele>
        <time>2021-11-06T10:36:27.000Z</time>
      </trkpt>
      <trkpt lat="41.9542130269110202789306640625" lon="-6.90564282238483428955078125">
        <ele>810.20001220703125</ele>
        <time>2021-11-06T10:36:29.000Z</time>
      </trkpt>
      <trkpt lat="41.95421378128230571746826171875" lon="-6.9056872464716434478759765625">
        <ele>810.20001220703125</ele>
        <time>2021-11-06T10:36:32.000Z</time>
      </trkpt>
      <trkpt lat="41.9542123563587665557861328125" lon="-6.9057722389698028564453125">
        <ele>810.20001220703125</ele>
        <time>2021-11-06T10:36:38.000Z</time>
      </trkpt>
      <trkpt lat="41.95421579293906688690185546875" lon="-6.90578321926295757293701171875">
        <ele>810.4000244140625</ele>
        <time>2021-11-06T10:36:39.000Z</time>
      </trkpt>
      <trkpt lat="41.9542180560529232025146484375" lon="-6.905795037746429443359375">
        <ele>810.5999755859375</ele>
        <time>2021-11-06T10:36:40.000Z</time>
      </trkpt>
      <trkpt lat="41.95422434248030185699462890625" lon="-6.90585060976445674896240234375">
        <ele>811.5999755859375</ele>
        <time>2021-11-06T10:36:44.000Z</time>
      </trkpt>
      <trkpt lat="41.95423901081085205078125" lon="-6.90591313876211643218994140625">
        <ele>812.5999755859375</ele>
        <time>2021-11-06T10:36:50.000Z</time>
      </trkpt>
      <trkpt lat="41.95424328558146953582763671875" lon="-6.9059742428362369537353515625">
        <ele>813.5999755859375</ele>
        <time>2021-11-06T10:36:56.000Z</time>
      </trkpt>
      <trkpt lat="41.95424647070467472076416015625" lon="-6.90598321147263050079345703125">
        <ele>813.79998779296875</ele>
        <time>2021-11-06T10:36:57.000Z</time>
      </trkpt>
      <trkpt lat="41.9542478956282138824462890625" lon="-6.90599595196545124053955078125">
        <ele>814</ele>
        <time>2021-11-06T10:36:58.000Z</time>
      </trkpt>
      <trkpt lat="41.95425309240818023681640625" lon="-6.90606250427663326263427734375">
        <ele>814.79998779296875</ele>
        <time>2021-11-06T10:37:03.000Z</time>
      </trkpt>
      <trkpt lat="41.95428192615509033203125" lon="-6.90612562000751495361328125">
        <ele>816</ele>
        <time>2021-11-06T10:37:11.000Z</time>
      </trkpt>
      <trkpt lat="41.95429106242954730987548828125" lon="-6.9061770848929882049560546875">
        <ele>816.79998779296875</ele>
        <time>2021-11-06T10:37:15.000Z</time>
      </trkpt>
      <trkpt lat="41.9542904756963253021240234375" lon="-6.90618999302387237548828125">
        <ele>817.20001220703125</ele>
        <time>2021-11-06T10:37:16.000Z</time>
      </trkpt>
      <trkpt lat="41.954296343028545379638671875" lon="-6.90627448260784149169921875">
        <ele>818.4000244140625</ele>
        <time>2021-11-06T10:37:22.000Z</time>
      </trkpt>
      <trkpt lat="41.9543022103607654571533203125" lon="-6.90628596581518650054931640625">
        <ele>818.5999755859375</ele>
        <time>2021-11-06T10:37:24.000Z</time>
      </trkpt>
      <trkpt lat="41.95430330000817775726318359375" lon="-6.90634514205157756805419921875">
        <ele>819.4000244140625</ele>
        <time>2021-11-06T10:37:28.000Z</time>
      </trkpt>
      <trkpt lat="41.95428796112537384033203125" lon="-6.906436420977115631103515625">
        <ele>820.5999755859375</ele>
        <time>2021-11-06T10:37:35.000Z</time>
      </trkpt>
      <trkpt lat="41.95427178405225276947021484375" lon="-6.90651546232402324676513671875">
        <ele>821.5999755859375</ele>
        <time>2021-11-06T10:37:43.000Z</time>
      </trkpt>
      <trkpt lat="41.95425636135041713714599609375" lon="-6.9065656699240207672119140625">
        <ele>822</ele>
        <time>2021-11-06T10:37:48.000Z</time>
      </trkpt>
      <trkpt lat="41.95424010045826435089111328125" lon="-6.90664554946124553680419921875">
        <ele>822.5999755859375</ele>
        <time>2021-11-06T10:37:54.000Z</time>
      </trkpt>
      <trkpt lat="41.9542462192475795745849609375" lon="-6.906710006296634674072265625">
        <ele>823.4000244140625</ele>
        <time>2021-11-06T10:38:00.000Z</time>
      </trkpt>
      <trkpt lat="41.954252757132053375244140625" lon="-6.9067457132041454315185546875">
        <ele>823.79998779296875</ele>
        <time>2021-11-06T10:38:04.000Z</time>
      </trkpt>
      <trkpt lat="41.95425988174974918365478515625" lon="-6.90680019557476043701171875">
        <ele>824.79998779296875</ele>
        <time>2021-11-06T10:38:10.000Z</time>
      </trkpt>
      <trkpt lat="41.9542636536061763763427734375" lon="-6.9068808294832706451416015625">
        <ele>826</ele>
        <time>2021-11-06T10:38:16.000Z</time>
      </trkpt>
      <trkpt lat="41.95427178405225276947021484375" lon="-6.9069552607834339141845703125">
        <ele>826.79998779296875</ele>
        <time>2021-11-06T10:38:21.000Z</time>
      </trkpt>
      <trkpt lat="41.954270862042903900146484375" lon="-6.906969845294952392578125">
        <ele>827</ele>
        <time>2021-11-06T10:38:22.000Z</time>
      </trkpt>
      <trkpt lat="41.95428133942186832427978515625" lon="-6.90704603679478168487548828125">
        <ele>828</ele>
        <time>2021-11-06T10:38:28.000Z</time>
      </trkpt>
      <trkpt lat="41.95429407991468906402587890625" lon="-6.90712449140846729278564453125">
        <ele>829</ele>
        <time>2021-11-06T10:38:35.000Z</time>
      </trkpt>
      <trkpt lat="41.95430447347462177276611328125" lon="-6.907170675694942474365234375">
        <ele>829.79998779296875</ele>
        <time>2021-11-06T10:38:40.000Z</time>
      </trkpt>
      <trkpt lat="41.95430547930300235748291015625" lon="-6.90718718804419040679931640625">
        <ele>830</ele>
        <time>2021-11-06T10:38:41.000Z</time>
      </trkpt>
      <trkpt lat="41.95432014763355255126953125" lon="-6.90729296766221523284912109375">
        <ele>831.20001220703125</ele>
        <time>2021-11-06T10:38:48.000Z</time>
      </trkpt>
      <trkpt lat="41.954319477081298828125" lon="-6.90730688162147998809814453125">
        <ele>831.4000244140625</ele>
        <time>2021-11-06T10:38:49.000Z</time>
      </trkpt>
      <trkpt lat="41.95432023145258426666259765625" lon="-6.90731258131563663482666015625">
        <ele>831.5999755859375</ele>
        <time>2021-11-06T10:38:51.000Z</time>
      </trkpt>
      <trkpt lat="41.954329200088977813720703125" lon="-6.90742020495235919952392578125">
        <ele>832.4000244140625</ele>
        <time>2021-11-06T10:39:02.000Z</time>
      </trkpt>
      <trkpt lat="41.954332888126373291015625" lon="-6.90766395069658756256103515625">
        <ele>833.20001220703125</ele>
        <time>2021-11-06T10:39:19.000Z</time>
      </trkpt>
      <trkpt lat="41.95433548651635646820068359375" lon="-6.90767568536102771759033203125">
        <ele>833.4000244140625</ele>
        <time>2021-11-06T10:39:20.000Z</time>
      </trkpt>
      <trkpt lat="41.95434085093438625335693359375" lon="-6.90776721574366092681884765625">
        <ele>834.5999755859375</ele>
        <time>2021-11-06T10:39:27.000Z</time>
      </trkpt>
      <trkpt lat="41.95434026420116424560546875" lon="-6.90788003616034984588623046875">
        <ele>835.5999755859375</ele>
        <time>2021-11-06T10:39:35.000Z</time>
      </trkpt>
      <trkpt lat="41.954330541193485260009765625" lon="-6.90798480994999408721923828125">
        <ele>836.5999755859375</ele>
        <time>2021-11-06T10:39:42.000Z</time>
      </trkpt>
      <trkpt lat="41.954320482909679412841796875" lon="-6.9081458263099193572998046875">
        <ele>837.5999755859375</ele>
        <time>2021-11-06T10:39:54.000Z</time>
      </trkpt>
      <trkpt lat="41.95431469939649105072021484375" lon="-6.90831639803946018218994140625">
        <ele>838.79998779296875</ele>
        <time>2021-11-06T10:40:06.000Z</time>
      </trkpt>
      <trkpt lat="41.9542643241584300994873046875" lon="-6.9085595570504665374755859375">
        <ele>839.20001220703125</ele>
        <time>2021-11-06T10:40:21.000Z</time>
      </trkpt>
      <trkpt lat="41.954159550368785858154296875" lon="-6.9087627343833446502685546875">
        <ele>839.5999755859375</ele>
        <time>2021-11-06T10:40:37.000Z</time>
      </trkpt>
      <trkpt lat="41.95413717068731784820556640625" lon="-6.90877002663910388946533203125">
        <ele>839.79998779296875</ele>
        <time>2021-11-06T10:40:40.000Z</time>
      </trkpt>
      <trkpt lat="41.95413063280284404754638671875" lon="-6.9087657518684864044189453125">
        <ele>839.79998779296875</ele>
        <time>2021-11-06T10:40:41.000Z</time>
      </trkpt>
      <trkpt lat="41.95411252789199352264404296875" lon="-6.90874773077666759490966796875">
        <ele>840</ele>
        <time>2021-11-06T10:40:44.000Z</time>
      </trkpt>
      <trkpt lat="41.95409140549600124359130859375" lon="-6.908781342208385467529296875">
        <ele>839.79998779296875</ele>
        <time>2021-11-06T10:41:38.000Z</time>
      </trkpt>
      <trkpt lat="41.95411470718681812286376953125" lon="-6.90877698361873626708984375">
        <ele>839.20001220703125</ele>
        <time>2021-11-06T10:42:06.000Z</time>
      </trkpt>
      <trkpt lat="41.95411252789199352264404296875" lon="-6.90877170301973819732666015625">
        <ele>839.4000244140625</ele>
        <time>2021-11-06T10:42:25.000Z</time>
      </trkpt>
      <trkpt lat="41.95410749875009059906005859375" lon="-6.9087647460401058197021484375">
        <ele>839.5999755859375</ele>
        <time>2021-11-06T10:44:24.000Z</time>
      </trkpt>
      <trkpt lat="41.95407070219516754150390625" lon="-6.90866977907717227935791015625">
        <ele>840</ele>
        <time>2021-11-06T10:44:38.000Z</time>
      </trkpt>
      <trkpt lat="41.954056955873966217041015625" lon="-6.90862803719937801361083984375">
        <ele>840.20001220703125</ele>
        <time>2021-11-06T10:44:42.000Z</time>
      </trkpt>
      <trkpt lat="41.95403507910668849945068359375" lon="-6.90858076326549053192138671875">
        <ele>840.5999755859375</ele>
        <time>2021-11-06T10:44:47.000Z</time>
      </trkpt>
      <trkpt lat="41.9540262781083583831787109375" lon="-6.90854958258569240570068359375">
        <ele>840.79998779296875</ele>
        <time>2021-11-06T10:44:50.000Z</time>
      </trkpt>
      <trkpt lat="41.95402233861386775970458984375" lon="-6.9085307233035564422607421875">
        <ele>841</ele>
        <time>2021-11-06T10:44:52.000Z</time>
      </trkpt>
      <trkpt lat="41.954018734395503997802734375" lon="-6.9085092656314373016357421875">
        <ele>841.20001220703125</ele>
        <time>2021-11-06T10:44:54.000Z</time>
      </trkpt>
      <trkpt lat="41.9540192373096942901611328125" lon="-6.90848336555063724517822265625">
        <ele>841.20001220703125</ele>
        <time>2021-11-06T10:44:56.000Z</time>
      </trkpt>
      <trkpt lat="41.95402284152805805206298828125" lon="-6.90843692980706691741943359375">
        <ele>841.5999755859375</ele>
        <time>2021-11-06T10:45:00.000Z</time>
      </trkpt>
      <trkpt lat="41.95402099750936031341552734375" lon="-6.9084083475172519683837890625">
        <ele>841.79998779296875</ele>
        <time>2021-11-06T10:45:02.000Z</time>
      </trkpt>
      <trkpt lat="41.95401965640485286712646484375" lon="-6.9083940982818603515625">
        <ele>841.79998779296875</ele>
        <time>2021-11-06T10:45:03.000Z</time>
      </trkpt>
      <trkpt lat="41.95401462726294994354248046875" lon="-6.90823492594063282012939453125">
        <ele>842.79998779296875</ele>
        <time>2021-11-06T10:45:15.000Z</time>
      </trkpt>
      <trkpt lat="41.95395008660852909088134765625" lon="-6.9080092012882232666015625">
        <ele>843.5999755859375</ele>
        <time>2021-11-06T10:45:32.000Z</time>
      </trkpt>
      <trkpt lat="41.953913457691669464111328125" lon="-6.90788271836936473846435546875">
        <ele>843.79998779296875</ele>
        <time>2021-11-06T10:45:43.000Z</time>
      </trkpt>
      <trkpt lat="41.9538985379040241241455078125" lon="-6.9078692235052585601806640625">
        <ele>844</ele>
        <time>2021-11-06T10:45:46.000Z</time>
      </trkpt>
      <trkpt lat="41.95385654456913471221923828125" lon="-6.90776268951594829559326171875">
        <ele>843.5999755859375</ele>
        <time>2021-11-06T10:46:55.000Z</time>
      </trkpt>
      <trkpt lat="41.95387045852839946746826171875" lon="-6.90759873948991298675537109375">
        <ele>843.5999755859375</ele>
        <time>2021-11-06T10:47:31.000Z</time>
      </trkpt>
      <trkpt lat="41.95386685431003570556640625" lon="-6.90752732567489147186279296875">
        <ele>842.79998779296875</ele>
        <time>2021-11-06T10:47:37.000Z</time>
      </trkpt>
      <trkpt lat="41.95387029089033603668212890625" lon="-6.9072741083800792694091796875">
        <ele>841.79998779296875</ele>
        <time>2021-11-06T10:47:56.000Z</time>
      </trkpt>
      <trkpt lat="41.95385939441621303558349609375" lon="-6.9072077237069606781005859375">
        <ele>841.5999755859375</ele>
        <time>2021-11-06T10:48:01.000Z</time>
      </trkpt>
      <trkpt lat="41.9538482464849948883056640625" lon="-6.9069686718285083770751953125">
        <ele>841</ele>
        <time>2021-11-06T10:48:19.000Z</time>
      </trkpt>
      <trkpt lat="41.95381161756813526153564453125" lon="-6.906728111207485198974609375">
        <ele>840.79998779296875</ele>
        <time>2021-11-06T10:48:34.000Z</time>
      </trkpt>
      <trkpt lat="41.953791417181491851806640625" lon="-6.906476318836212158203125">
        <ele>840.79998779296875</ele>
        <time>2021-11-06T10:48:51.000Z</time>
      </trkpt>
      <trkpt lat="41.953786052763462066650390625" lon="-6.90644681453704833984375">
        <ele>840.79998779296875</ele>
        <time>2021-11-06T10:48:53.000Z</time>
      </trkpt>
      <trkpt lat="41.95376836694777011871337890625" lon="-6.90635771490633487701416015625">
        <ele>840.5999755859375</ele>
        <time>2021-11-06T10:48:59.000Z</time>
      </trkpt>
      <trkpt lat="41.95367331616580486297607421875" lon="-6.906136013567447662353515625">
        <ele>840.4000244140625</ele>
        <time>2021-11-06T10:49:15.000Z</time>
      </trkpt>
      <trkpt lat="41.95359905250370502471923828125" lon="-6.905902661383152008056640625">
        <ele>840</ele>
        <time>2021-11-06T10:49:33.000Z</time>
      </trkpt>
      <trkpt lat="41.95354054681956768035888671875" lon="-6.9056604243814945220947265625">
        <ele>839.79998779296875</ele>
        <time>2021-11-06T10:49:49.000Z</time>
      </trkpt>
      <trkpt lat="41.953517831861972808837890625" lon="-6.9055564887821674346923828125">
        <ele>839.5999755859375</ele>
        <time>2021-11-06T10:49:56.000Z</time>
      </trkpt>
      <trkpt lat="41.95350869558751583099365234375" lon="-6.90550527535378932952880859375">
        <ele>839.4000244140625</ele>
        <time>2021-11-06T10:49:59.000Z</time>
      </trkpt>
      <trkpt lat="41.9534506089985370635986328125" lon="-6.905262954533100128173828125">
        <ele>839.20001220703125</ele>
        <time>2021-11-06T10:50:15.000Z</time>
      </trkpt>
      <trkpt lat="41.9534093700349330902099609375" lon="-6.90501828677952289581298828125">
        <ele>839.20001220703125</ele>
        <time>2021-11-06T10:50:30.000Z</time>
      </trkpt>
      <trkpt lat="41.95336318574845790863037109375" lon="-6.9047709368169307708740234375">
        <ele>838.5999755859375</ele>
        <time>2021-11-06T10:50:45.000Z</time>
      </trkpt>
      <trkpt lat="41.953364275395870208740234375" lon="-6.90475777722895145416259765625">
        <ele>838.5999755859375</ele>
        <time>2021-11-06T10:50:46.000Z</time>
      </trkpt>
      <trkpt lat="41.95333887822926044464111328125" lon="-6.9045134447515010833740234375">
        <ele>838.20001220703125</ele>
        <time>2021-11-06T10:51:04.000Z</time>
      </trkpt>
      <trkpt lat="41.95332865230739116668701171875" lon="-6.90448679029941558837890625">
        <ele>838.20001220703125</ele>
        <time>2021-11-06T10:51:07.000Z</time>
      </trkpt>
      <trkpt lat="41.95332697592675685882568359375" lon="-6.90447497181594371795654296875">
        <ele>838.20001220703125</ele>
        <time>2021-11-06T10:51:09.000Z</time>
      </trkpt>
      <trkpt lat="41.95329411886632442474365234375" lon="-6.9044058211147785186767578125">
        <ele>838.20001220703125</ele>
        <time>2021-11-06T10:52:40.000Z</time>
      </trkpt>
      <trkpt lat="41.953291185200214385986328125" lon="-6.90437237732112407684326171875">
        <ele>837.79998779296875</ele>
        <time>2021-11-06T10:53:40.000Z</time>
      </trkpt>
      <trkpt lat="41.953296549618244171142578125" lon="-6.90440439619123935699462890625">
        <ele>837.79998779296875</ele>
        <time>2021-11-06T10:55:38.000Z</time>
      </trkpt>
      <trkpt lat="41.9532839767634868621826171875" lon="-6.9043506681919097900390625">
        <ele>837.5999755859375</ele>
        <time>2021-11-06T10:55:43.000Z</time>
      </trkpt>
      <trkpt lat="41.95326511748135089874267578125" lon="-6.9042740575969219207763671875">
        <ele>837.20001220703125</ele>
        <time>2021-11-06T10:55:50.000Z</time>
      </trkpt>
      <trkpt lat="41.9532377086579799652099609375" lon="-6.9041691161692142486572265625">
        <ele>836.4000244140625</ele>
        <time>2021-11-06T10:55:58.000Z</time>
      </trkpt>
      <trkpt lat="41.95320979692041873931884765625" lon="-6.90408051945269107818603515625">
        <ele>835.5999755859375</ele>
        <time>2021-11-06T10:56:05.000Z</time>
      </trkpt>
      <trkpt lat="41.9532075338065624237060546875" lon="-6.9040668569505214691162109375">
        <ele>835.4000244140625</ele>
        <time>2021-11-06T10:56:06.000Z</time>
      </trkpt>
      <trkpt lat="41.9531642831861972808837890625" lon="-6.90392780117690563201904296875">
        <ele>834.20001220703125</ele>
        <time>2021-11-06T10:56:17.000Z</time>
      </trkpt>
      <trkpt lat="41.953155733644962310791015625" lon="-6.903834007680416107177734375">
        <ele>833.20001220703125</ele>
        <time>2021-11-06T10:56:24.000Z</time>
      </trkpt>
      <trkpt lat="41.95313637144863605499267578125" lon="-6.9037667848169803619384765625">
        <ele>832.20001220703125</ele>
        <time>2021-11-06T10:56:29.000Z</time>
      </trkpt>
      <trkpt lat="41.95313419215381145477294921875" lon="-6.90376460552215576171875">
        <ele>832</ele>
        <time>2021-11-06T10:56:30.000Z</time>
      </trkpt>
      <trkpt lat="41.95312899537384510040283203125" lon="-6.90375412814319133758544921875">
        <ele>831.5999755859375</ele>
        <time>2021-11-06T10:56:32.000Z</time>
      </trkpt>
      <trkpt lat="41.95310401730239391326904296875" lon="-6.9037069380283355712890625">
        <ele>831.20001220703125</ele>
        <time>2021-11-06T10:56:36.000Z</time>
      </trkpt>
      <trkpt lat="41.95309110917150974273681640625" lon="-6.90367567352950572967529296875">
        <ele>831.20001220703125</ele>
        <time>2021-11-06T10:56:38.000Z</time>
      </trkpt>
      <trkpt lat="41.95304450578987598419189453125" lon="-6.903593949973583221435546875">
        <ele>830</ele>
        <time>2021-11-06T10:56:45.000Z</time>
      </trkpt>
      <trkpt lat="41.95300980471074581146240234375" lon="-6.90353401936590671539306640625">
        <ele>828.79998779296875</ele>
        <time>2021-11-06T10:56:50.000Z</time>
      </trkpt>
      <trkpt lat="41.9529641233384609222412109375" lon="-6.90346495248377323150634765625">
        <ele>827.79998779296875</ele>
        <time>2021-11-06T10:56:56.000Z</time>
      </trkpt>
      <trkpt lat="41.95295196957886219024658203125" lon="-6.90343134105205535888671875">
        <ele>827.5999755859375</ele>
        <time>2021-11-06T10:56:59.000Z</time>
      </trkpt>
      <trkpt lat="41.9529373012483119964599609375" lon="-6.90339647233486175537109375">
        <ele>827</ele>
        <time>2021-11-06T10:57:02.000Z</time>
      </trkpt>
      <trkpt lat="41.9529265724122524261474609375" lon="-6.90337509848177433013916015625">
        <ele>826.79998779296875</ele>
        <time>2021-11-06T10:57:04.000Z</time>
      </trkpt>
      <trkpt lat="41.95290804840624332427978515625" lon="-6.9033510424196720123291015625">
        <ele>826.4000244140625</ele>
        <time>2021-11-06T10:57:07.000Z</time>
      </trkpt>
      <trkpt lat="41.95286680944263935089111328125" lon="-6.903289519250392913818359375">
        <ele>825.79998779296875</ele>
        <time>2021-11-06T10:57:13.000Z</time>
      </trkpt>
      <trkpt lat="41.9528281688690185546875" lon="-6.903235204517841339111328125">
        <ele>824.79998779296875</ele>
        <time>2021-11-06T10:57:19.000Z</time>
      </trkpt>
      <trkpt lat="41.9527659751474857330322265625" lon="-6.903161443769931793212890625">
        <ele>823.5999755859375</ele>
        <time>2021-11-06T10:57:28.000Z</time>
      </trkpt>
      <trkpt lat="41.95272423326969146728515625" lon="-6.903109811246395111083984375">
        <ele>822.5999755859375</ele>
        <time>2021-11-06T10:57:35.000Z</time>
      </trkpt>
      <trkpt lat="41.9526834972202777862548828125" lon="-6.903047449886798858642578125">
        <ele>821.4000244140625</ele>
        <time>2021-11-06T10:57:42.000Z</time>
      </trkpt>
      <trkpt lat="41.9526365585625171661376953125" lon="-6.90298869274556636810302734375">
        <ele>820.4000244140625</ele>
        <time>2021-11-06T10:57:49.000Z</time>
      </trkpt>
      <trkpt lat="41.95260487496852874755859375" lon="-6.90292448736727237701416015625">
        <ele>819.20001220703125</ele>
        <time>2021-11-06T10:57:56.000Z</time>
      </trkpt>
      <trkpt lat="41.95257176645100116729736328125" lon="-6.90287721343338489532470703125">
        <ele>818.20001220703125</ele>
        <time>2021-11-06T10:58:02.000Z</time>
      </trkpt>
      <trkpt lat="41.95250906981527805328369140625" lon="-6.9027824141085147857666015625">
        <ele>817</ele>
        <time>2021-11-06T10:58:11.000Z</time>
      </trkpt>
      <trkpt lat="41.95248057134449481964111328125" lon="-6.902695409953594207763671875">
        <ele>816</ele>
        <time>2021-11-06T10:58:18.000Z</time>
      </trkpt>
      <trkpt lat="41.952479146420955657958984375" lon="-6.90258904360234737396240234375">
        <ele>815</ele>
        <time>2021-11-06T10:58:26.000Z</time>
      </trkpt>
      <trkpt lat="41.95247168652713298797607421875" lon="-6.90248359926044940948486328125">
        <ele>814</ele>
        <time>2021-11-06T10:58:34.000Z</time>
      </trkpt>
      <trkpt lat="41.9524518214166164398193359375" lon="-6.90241537056863307952880859375">
        <ele>812.79998779296875</ele>
        <time>2021-11-06T10:58:40.000Z</time>
      </trkpt>
      <trkpt lat="41.95243312977254390716552734375" lon="-6.90235367976129055023193359375">
        <ele>811.79998779296875</ele>
        <time>2021-11-06T10:58:45.000Z</time>
      </trkpt>
      <trkpt lat="41.95242441259324550628662109375" lon="-6.90229986794292926788330078125">
        <ele>810.79998779296875</ele>
        <time>2021-11-06T10:58:50.000Z</time>
      </trkpt>
      <trkpt lat="41.95241846144199371337890625" lon="-6.90228763036429882049560546875">
        <ele>810.5999755859375</ele>
        <time>2021-11-06T10:58:51.000Z</time>
      </trkpt>
      <trkpt lat="41.9523887895047664642333984375" lon="-6.9021896459162235260009765625">
        <ele>809.5999755859375</ele>
        <time>2021-11-06T10:58:58.000Z</time>
      </trkpt>
      <trkpt lat="41.9523824192583560943603515625" lon="-6.902175731956958770751953125">
        <ele>809.20001220703125</ele>
        <time>2021-11-06T10:58:59.000Z</time>
      </trkpt>
      <trkpt lat="41.952367834746837615966796875" lon="-6.90214530564844608306884765625">
        <ele>808.4000244140625</ele>
        <time>2021-11-06T10:59:02.000Z</time>
      </trkpt>
      <trkpt lat="41.9523549266159534454345703125" lon="-6.90212351270020008087158203125">
        <ele>808</ele>
        <time>2021-11-06T10:59:04.000Z</time>
      </trkpt>
      <trkpt lat="41.95234931074082851409912109375" lon="-6.90208562649786472320556640625">
        <ele>807.4000244140625</ele>
        <time>2021-11-06T10:59:07.000Z</time>
      </trkpt>
      <trkpt lat="41.952332295477390289306640625" lon="-6.90200113691389560699462890625">
        <ele>806.4000244140625</ele>
        <time>2021-11-06T10:59:13.000Z</time>
      </trkpt>
      <trkpt lat="41.9523063115775585174560546875" lon="-6.90193760208785533905029296875">
        <ele>805.4000244140625</ele>
        <time>2021-11-06T10:59:19.000Z</time>
      </trkpt>
      <trkpt lat="41.9522992707788944244384765625" lon="-6.90192528069019317626953125">
        <ele>805.20001220703125</ele>
        <time>2021-11-06T10:59:20.000Z</time>
      </trkpt>
      <trkpt lat="41.9522918947041034698486328125" lon="-6.90189803950488567352294921875">
        <ele>804.79998779296875</ele>
        <time>2021-11-06T10:59:22.000Z</time>
      </trkpt>
      <trkpt lat="41.952286027371883392333984375" lon="-6.9018768332898616790771484375">
        <ele>804.20001220703125</ele>
        <time>2021-11-06T10:59:24.000Z</time>
      </trkpt>
      <trkpt lat="41.95227018557488918304443359375" lon="-6.9018443115055561065673828125">
        <ele>803.5999755859375</ele>
        <time>2021-11-06T10:59:27.000Z</time>
      </trkpt>
      <trkpt lat="41.9522452913224697113037109375" lon="-6.9018044136464595794677734375">
        <ele>803</ele>
        <time>2021-11-06T10:59:30.000Z</time>
      </trkpt>
      <trkpt lat="41.95223665796220302581787109375" lon="-6.9017920084297657012939453125">
        <ele>802.5999755859375</ele>
        <time>2021-11-06T10:59:31.000Z</time>
      </trkpt>
      <trkpt lat="41.952217631042003631591796875" lon="-6.90177239477634429931640625">
        <ele>801.79998779296875</ele>
        <time>2021-11-06T10:59:33.000Z</time>
      </trkpt>
      <trkpt lat="41.95218670181930065155029296875" lon="-6.901763342320919036865234375">
        <ele>801.4000244140625</ele>
        <time>2021-11-06T10:59:36.000Z</time>
      </trkpt>
      <trkpt lat="41.95215954445302486419677734375" lon="-6.9017467461526393890380859375">
        <ele>800.79998779296875</ele>
        <time>2021-11-06T10:59:39.000Z</time>
      </trkpt>
      <trkpt lat="41.9520800001919269561767578125" lon="-6.901723779737949371337890625">
        <ele>799.5999755859375</ele>
        <time>2021-11-06T10:59:46.000Z</time>
      </trkpt>
      <trkpt lat="41.95201906375586986541748046875" lon="-6.90171514637768268585205078125">
        <ele>798.79998779296875</ele>
        <time>2021-11-06T10:59:53.000Z</time>
      </trkpt>
      <trkpt lat="41.95201135240495204925537109375" lon="-6.90170978195965290069580078125">
        <ele>798.5999755859375</ele>
        <time>2021-11-06T10:59:54.000Z</time>
      </trkpt>
      <trkpt lat="41.95199106819927692413330078125" lon="-6.901694275438785552978515625">
        <ele>798</ele>
        <time>2021-11-06T10:59:57.000Z</time>
      </trkpt>
      <trkpt lat="41.9519717060029506683349609375" lon="-6.90167717635631561279296875">
        <ele>797.5999755859375</ele>
        <time>2021-11-06T11:00:00.000Z</time>
      </trkpt>
      <trkpt lat="41.9519631564617156982421875" lon="-6.9016719795763492584228515625">
        <ele>797.5999755859375</ele>
        <time>2021-11-06T11:00:01.000Z</time>
      </trkpt>
      <trkpt lat="41.95195552892982959747314453125" lon="-6.901668123900890350341796875">
        <ele>797.4000244140625</ele>
        <time>2021-11-06T11:00:02.000Z</time>
      </trkpt>
      <trkpt lat="41.95193021558225154876708984375" lon="-6.9016550481319427490234375">
        <ele>796.79998779296875</ele>
        <time>2021-11-06T11:00:05.000Z</time>
      </trkpt>
      <trkpt lat="41.9519093446433544158935546875" lon="-6.90164457075297832489013671875">
        <ele>796.5999755859375</ele>
        <time>2021-11-06T11:00:07.000Z</time>
      </trkpt>
      <trkpt lat="41.9518858753144741058349609375" lon="-6.901631914079189300537109375">
        <ele>796.4000244140625</ele>
        <time>2021-11-06T11:00:09.000Z</time>
      </trkpt>
      <trkpt lat="41.95186835713684558868408203125" lon="-6.90161691047251224517822265625">
        <ele>795.79998779296875</ele>
        <time>2021-11-06T11:00:11.000Z</time>
      </trkpt>
      <trkpt lat="41.9518476538360118865966796875" lon="-6.90160048194229602813720703125">
        <ele>795.20001220703125</ele>
        <time>2021-11-06T11:00:14.000Z</time>
      </trkpt>
      <trkpt lat="41.95183516480028629302978515625" lon="-6.90156108699738979339599609375">
        <ele>794.5999755859375</ele>
        <time>2021-11-06T11:00:17.000Z</time>
      </trkpt>
      <trkpt lat="41.951813958585262298583984375" lon="-6.90155438147485256195068359375">
        <ele>794.20001220703125</ele>
        <time>2021-11-06T11:00:19.000Z</time>
      </trkpt>
      <trkpt lat="41.95180616341531276702880859375" lon="-6.90154683776199817657470703125">
        <ele>794</ele>
        <time>2021-11-06T11:00:20.000Z</time>
      </trkpt>
      <trkpt lat="41.95178001187741756439208984375" lon="-6.901518590748310089111328125">
        <ele>793.5999755859375</ele>
        <time>2021-11-06T11:00:24.000Z</time>
      </trkpt>
      <trkpt lat="41.951771043241024017333984375" lon="-6.9015155732631683349609375">
        <ele>793.4000244140625</ele>
        <time>2021-11-06T11:00:25.000Z</time>
      </trkpt>
      <trkpt lat="41.9517564587295055389404296875" lon="-6.90150526352226734161376953125">
        <ele>793.20001220703125</ele>
        <time>2021-11-06T11:00:27.000Z</time>
      </trkpt>
      <trkpt lat="41.95173022337257862091064453125" lon="-6.90147642977535724639892578125">
        <ele>793</ele>
        <time>2021-11-06T11:00:29.000Z</time>
      </trkpt>
      <trkpt lat="41.95170700550079345703125" lon="-6.90144575200974941253662109375">
        <ele>792.5999755859375</ele>
        <time>2021-11-06T11:00:31.000Z</time>
      </trkpt>
      <trkpt lat="41.95167875848710536956787109375" lon="-6.90140317194163799285888671875">
        <ele>792.20001220703125</ele>
        <time>2021-11-06T11:00:34.000Z</time>
      </trkpt>
      <trkpt lat="41.9516672752797603607177734375" lon="-6.901374757289886474609375">
        <ele>792</ele>
        <time>2021-11-06T11:00:36.000Z</time>
      </trkpt>
      <trkpt lat="41.95156057365238666534423828125" lon="-6.901229918003082275390625">
        <ele>790.79998779296875</ele>
        <time>2021-11-06T11:00:48.000Z</time>
      </trkpt>
      <trkpt lat="41.9515288062393665313720703125" lon="-6.9011341966688632965087890625">
        <ele>790.4000244140625</ele>
        <time>2021-11-06T11:00:55.000Z</time>
      </trkpt>
      <trkpt lat="41.9515143893659114837646484375" lon="-6.9010755233466625213623046875">
        <ele>790.20001220703125</ele>
        <time>2021-11-06T11:01:00.000Z</time>
      </trkpt>
      <trkpt lat="41.95151514373719692230224609375" lon="-6.90106404013931751251220703125">
        <ele>790.20001220703125</ele>
        <time>2021-11-06T11:01:01.000Z</time>
      </trkpt>
      <trkpt lat="41.95152738131582736968994140625" lon="-6.90102011896669864654541015625">
        <ele>790.20001220703125</ele>
        <time>2021-11-06T11:01:06.000Z</time>
      </trkpt>
      <trkpt lat="41.95152335800230503082275390625" lon="-6.9010118208825588226318359375">
        <ele>790.20001220703125</ele>
        <time>2021-11-06T11:01:08.000Z</time>
      </trkpt>
      <trkpt lat="41.9515197537839412689208984375" lon="-6.9010037742555141448974609375">
        <ele>790.20001220703125</ele>
        <time>2021-11-06T11:01:12.000Z</time>
      </trkpt>
      <trkpt lat="41.95150089450180530548095703125" lon="-6.900923810899257659912109375">
        <ele>791</ele>
        <time>2021-11-06T11:01:37.000Z</time>
      </trkpt>
      <trkpt lat="41.95148698054254055023193359375" lon="-6.90090872347354888916015625">
        <ele>791</ele>
        <time>2021-11-06T11:01:39.000Z</time>
      </trkpt>
      <trkpt lat="41.9514749944210052490234375" lon="-6.90089170821011066436767578125">
        <ele>791</ele>
        <time>2021-11-06T11:01:41.000Z</time>
      </trkpt>
      <trkpt lat="41.9513779319822788238525390625" lon="-6.900981478393077850341796875">
        <ele>790.20001220703125</ele>
        <time>2021-11-06T11:02:17.000Z</time>
      </trkpt>
      <trkpt lat="41.95133459754288196563720703125" lon="-6.90090914256870746612548828125">
        <ele>791.79998779296875</ele>
        <time>2021-11-06T11:02:27.000Z</time>
      </trkpt>
      <trkpt lat="41.95132277905941009521484375" lon="-6.90085885114967823028564453125">
        <ele>793</ele>
        <time>2021-11-06T11:02:32.000Z</time>
      </trkpt>
      <trkpt lat="41.9513276405632495880126953125" lon="-6.900829933583736419677734375">
        <ele>793.20001220703125</ele>
        <time>2021-11-06T11:02:35.000Z</time>
      </trkpt>
      <trkpt lat="41.9513138942420482635498046875" lon="-6.90079607069492340087890625">
        <ele>794</ele>
        <time>2021-11-06T11:02:38.000Z</time>
      </trkpt>
      <trkpt lat="41.951308362185955047607421875" lon="-6.90078936517238616943359375">
        <ele>794</ele>
        <time>2021-11-06T11:02:39.000Z</time>
      </trkpt>
      <trkpt lat="41.951302997767925262451171875" lon="-6.90076597966253757476806640625">
        <ele>794.5999755859375</ele>
        <time>2021-11-06T11:02:42.000Z</time>
      </trkpt>
      <trkpt lat="41.9512939453125" lon="-6.90074569545686244964599609375">
        <ele>795</ele>
        <time>2021-11-06T11:02:44.000Z</time>
      </trkpt>
      <trkpt lat="41.95128983817994594573974609375" lon="-6.90073697827756404876708984375">
        <ele>795.20001220703125</ele>
        <time>2021-11-06T11:02:45.000Z</time>
      </trkpt>
      <trkpt lat="41.9512738287448883056640625" lon="-6.9006760418415069580078125">
        <ele>796</ele>
        <time>2021-11-06T11:02:51.000Z</time>
      </trkpt>
      <trkpt lat="41.95126645267009735107421875" lon="-6.90065793693065643310546875">
        <ele>796.20001220703125</ele>
        <time>2021-11-06T11:02:53.000Z</time>
      </trkpt>
      <trkpt lat="41.9512515328824520111083984375" lon="-6.90061636269092559814453125">
        <ele>796.4000244140625</ele>
        <time>2021-11-06T11:02:56.000Z</time>
      </trkpt>
      <trkpt lat="41.9512263871729373931884765625" lon="-6.90055064857006072998046875">
        <ele>797.20001220703125</ele>
        <time>2021-11-06T11:03:01.000Z</time>
      </trkpt>
      <trkpt lat="41.9512255489826202392578125" lon="-6.900540925562381744384765625">
        <ele>797.20001220703125</ele>
        <time>2021-11-06T11:03:02.000Z</time>
      </trkpt>
      <trkpt lat="41.951220519840717315673828125" lon="-6.9005159474909305572509765625">
        <ele>797.5999755859375</ele>
        <time>2021-11-06T11:03:04.000Z</time>
      </trkpt>
      <trkpt lat="41.95121557451784610748291015625" lon="-6.90048049204051494598388671875">
        <ele>798.20001220703125</ele>
        <time>2021-11-06T11:03:07.000Z</time>
      </trkpt>
      <trkpt lat="41.9512040913105010986328125" lon="-6.900457777082920074462890625">
        <ele>798.4000244140625</ele>
        <time>2021-11-06T11:03:09.000Z</time>
      </trkpt>
      <trkpt lat="41.95119545795023441314697265625" lon="-6.9004307873547077178955078125">
        <ele>798.5999755859375</ele>
        <time>2021-11-06T11:03:11.000Z</time>
      </trkpt>
      <trkpt lat="41.9511853158473968505859375" lon="-6.9003996066749095916748046875">
        <ele>798.79998779296875</ele>
        <time>2021-11-06T11:03:13.000Z</time>
      </trkpt>
      <trkpt lat="41.95117852650582790374755859375" lon="-6.90036314539611339569091796875">
        <ele>799.4000244140625</ele>
        <time>2021-11-06T11:03:16.000Z</time>
      </trkpt>
      <trkpt lat="41.9511740840971469879150390625" lon="-6.900333724915981292724609375">
        <ele>800</ele>
        <time>2021-11-06T11:03:19.000Z</time>
      </trkpt>
      <trkpt lat="41.9511707313358783721923828125" lon="-6.9003214873373508453369140625">
        <ele>800.20001220703125</ele>
        <time>2021-11-06T11:03:21.000Z</time>
      </trkpt>
      <trkpt lat="41.95115857757627964019775390625" lon="-6.9003047235310077667236328125">
        <ele>800.5999755859375</ele>
        <time>2021-11-06T11:03:23.000Z</time>
      </trkpt>
      <trkpt lat="41.9511526264250278472900390625" lon="-6.9002946652472019195556640625">
        <ele>800.5999755859375</ele>
        <time>2021-11-06T11:03:24.000Z</time>
      </trkpt>
      <trkpt lat="41.9511128962039947509765625" lon="-6.9002829305827617645263671875">
        <ele>801.4000244140625</ele>
        <time>2021-11-06T11:03:28.000Z</time>
      </trkpt>
      <trkpt lat="41.95110392756760120391845703125" lon="-6.90028670243918895721435546875">
        <ele>801.5999755859375</ele>
        <time>2021-11-06T11:03:29.000Z</time>
      </trkpt>
      <trkpt lat="41.95109671913087368011474609375" lon="-6.900291144847869873046875">
        <ele>801.79998779296875</ele>
        <time>2021-11-06T11:03:30.000Z</time>
      </trkpt>
      <trkpt lat="41.95108431391417980194091796875" lon="-6.90029692836105823516845703125">
        <ele>802.20001220703125</ele>
        <time>2021-11-06T11:03:32.000Z</time>
      </trkpt>
      <trkpt lat="41.95106620900332927703857421875" lon="-6.9003043882548809051513671875">
        <ele>802.5999755859375</ele>
        <time>2021-11-06T11:03:34.000Z</time>
      </trkpt>
      <trkpt lat="41.95104575715959072113037109375" lon="-6.90033447928726673126220703125">
        <ele>803</ele>
        <time>2021-11-06T11:03:37.000Z</time>
      </trkpt>
      <trkpt lat="41.95101927034556865692138671875" lon="-6.9003717787563800811767578125">
        <ele>803.79998779296875</ele>
        <time>2021-11-06T11:03:41.000Z</time>
      </trkpt>
      <trkpt lat="41.95096881128847599029541015625" lon="-6.9004284404218196868896484375">
        <ele>805</ele>
        <time>2021-11-06T11:03:49.000Z</time>
      </trkpt>
      <trkpt lat="41.95093243382871150970458984375" lon="-6.90047764219343662261962890625">
        <ele>806</ele>
        <time>2021-11-06T11:03:55.000Z</time>
      </trkpt>
      <trkpt lat="41.95089287124574184417724609375" lon="-6.90052374266088008880615234375">
        <ele>807.20001220703125</ele>
        <time>2021-11-06T11:04:01.000Z</time>
      </trkpt>
      <trkpt lat="41.95085381157696247100830078125" lon="-6.900579817593097686767578125">
        <ele>808.4000244140625</ele>
        <time>2021-11-06T11:04:07.000Z</time>
      </trkpt>
      <trkpt lat="41.95081978105008602142333984375" lon="-6.90066355280578136444091796875">
        <ele>809.5999755859375</ele>
        <time>2021-11-06T11:04:14.000Z</time>
      </trkpt>
      <trkpt lat="41.95078239776194095611572265625" lon="-6.90069146454334259033203125">
        <ele>810.4000244140625</ele>
        <time>2021-11-06T11:04:20.000Z</time>
      </trkpt>
      <trkpt lat="41.9507757760584354400634765625" lon="-6.90069817006587982177734375">
        <ele>810.5999755859375</ele>
        <time>2021-11-06T11:04:21.000Z</time>
      </trkpt>
      <trkpt lat="41.9507573358714580535888671875" lon="-6.90072071738541126251220703125">
        <ele>811.20001220703125</ele>
        <time>2021-11-06T11:04:24.000Z</time>
      </trkpt>
      <trkpt lat="41.95074518211185932159423828125" lon="-6.90074133686721324920654296875">
        <ele>811.5999755859375</ele>
        <time>2021-11-06T11:04:26.000Z</time>
      </trkpt>
      <trkpt lat="41.950739063322544097900390625" lon="-6.90074753947556018829345703125">
        <ele>811.79998779296875</ele>
        <time>2021-11-06T11:04:27.000Z</time>
      </trkpt>
      <trkpt lat="41.9507057033479213714599609375" lon="-6.900790371000766754150390625">
        <ele>813</ele>
        <time>2021-11-06T11:04:33.000Z</time>
      </trkpt>
      <trkpt lat="41.95068516768515110015869140625" lon="-6.90081308595836162567138671875">
        <ele>813.5999755859375</ele>
        <time>2021-11-06T11:04:36.000Z</time>
      </trkpt>
      <trkpt lat="41.9506730139255523681640625" lon="-6.900829933583736419677734375">
        <ele>814</ele>
        <time>2021-11-06T11:04:38.000Z</time>
      </trkpt>
      <trkpt lat="41.95061492733657360076904296875" lon="-6.9008974917232990264892578125">
        <ele>815.20001220703125</ele>
        <time>2021-11-06T11:04:45.000Z</time>
      </trkpt>
      <trkpt lat="41.95059916935861110687255859375" lon="-6.9009045325219631195068359375">
        <ele>815.5999755859375</ele>
        <time>2021-11-06T11:04:47.000Z</time>
      </trkpt>
      <trkpt lat="41.95056681521236896514892578125" lon="-6.90092758275568485260009765625">
        <ele>816.20001220703125</ele>
        <time>2021-11-06T11:04:51.000Z</time>
      </trkpt>
      <trkpt lat="41.9505300186574459075927734375" lon="-6.90096748061478137969970703125">
        <ele>817.4000244140625</ele>
        <time>2021-11-06T11:04:57.000Z</time>
      </trkpt>
      <trkpt lat="41.95051275193691253662109375" lon="-6.90098474733531475067138671875">
        <ele>817.79998779296875</ele>
        <time>2021-11-06T11:04:59.000Z</time>
      </trkpt>
      <trkpt lat="41.95048249326646327972412109375" lon="-6.90101106651127338409423828125">
        <ele>818.5999755859375</ele>
        <time>2021-11-06T11:05:03.000Z</time>
      </trkpt>
      <trkpt lat="41.95044930092990398406982421875" lon="-6.901047863066196441650390625">
        <ele>819.5999755859375</ele>
        <time>2021-11-06T11:05:08.000Z</time>
      </trkpt>
      <trkpt lat="41.950441338121891021728515625" lon="-6.90105314366519451141357421875">
        <ele>819.79998779296875</ele>
        <time>2021-11-06T11:05:09.000Z</time>
      </trkpt>
      <trkpt lat="41.95042482577264308929443359375" lon="-6.90106772817671298980712890625">
        <ele>820.20001220703125</ele>
        <time>2021-11-06T11:05:11.000Z</time>
      </trkpt>
      <trkpt lat="41.9504059664905071258544921875" lon="-6.901090778410434722900390625">
        <ele>821</ele>
        <time>2021-11-06T11:05:14.000Z</time>
      </trkpt>
      <trkpt lat="41.95037939585745334625244140625" lon="-6.90113134682178497314453125">
        <ele>821.79998779296875</ele>
        <time>2021-11-06T11:05:19.000Z</time>
      </trkpt>
      <trkpt lat="41.9503721036016941070556640625" lon="-6.901140399277210235595703125">
        <ele>822</ele>
        <time>2021-11-06T11:05:20.000Z</time>
      </trkpt>
      <trkpt lat="41.9503637216985225677490234375" lon="-6.9011519663035869598388671875">
        <ele>822.20001220703125</ele>
        <time>2021-11-06T11:05:21.000Z</time>
      </trkpt>
      <trkpt lat="41.9503462873399257659912109375" lon="-6.90116764046251773834228515625">
        <ele>822.5999755859375</ele>
        <time>2021-11-06T11:05:23.000Z</time>
      </trkpt>
      <trkpt lat="41.950315944850444793701171875" lon="-6.9012113101780414581298828125">
        <ele>823</ele>
        <time>2021-11-06T11:05:27.000Z</time>
      </trkpt>
      <trkpt lat="41.9502587802708148956298828125" lon="-6.90130409784615039825439453125">
        <ele>824.20001220703125</ele>
        <time>2021-11-06T11:05:35.000Z</time>
      </trkpt>
      <trkpt lat="41.95020538754761219024658203125" lon="-6.9013678841292858123779296875">
        <ele>825.4000244140625</ele>
        <time>2021-11-06T11:05:42.000Z</time>
      </trkpt>
      <trkpt lat="41.95015870034694671630859375" lon="-6.90142664127051830291748046875">
        <ele>826.4000244140625</ele>
        <time>2021-11-06T11:05:49.000Z</time>
      </trkpt>
      <trkpt lat="41.95014528930187225341796875" lon="-6.90144960768520832061767578125">
        <ele>826.79998779296875</ele>
        <time>2021-11-06T11:05:52.000Z</time>
      </trkpt>
      <trkpt lat="41.950148306787014007568359375" lon="-6.90146586857736110687255859375">
        <ele>827</ele>
        <time>2021-11-06T11:05:54.000Z</time>
      </trkpt>
      <trkpt lat="41.9501488097012042999267578125" lon="-6.90150761045515537261962890625">
        <ele>827.4000244140625</ele>
        <time>2021-11-06T11:05:58.000Z</time>
      </trkpt>
      <trkpt lat="41.95014738477766513824462890625" lon="-6.90152353607118129730224609375">
        <ele>827.5999755859375</ele>
        <time>2021-11-06T11:05:59.000Z</time>
      </trkpt>
      <trkpt lat="41.9501545093953609466552734375" lon="-6.901573576033115386962890625">
        <ele>828.20001220703125</ele>
        <time>2021-11-06T11:06:03.000Z</time>
      </trkpt>
      <trkpt lat="41.9501580297946929931640625" lon="-6.901598386466503143310546875">
        <ele>828.4000244140625</ele>
        <time>2021-11-06T11:06:05.000Z</time>
      </trkpt>
      <trkpt lat="41.95016146637499332427978515625" lon="-6.9016156531870365142822265625">
        <ele>828.5999755859375</ele>
        <time>2021-11-06T11:06:06.000Z</time>
      </trkpt>
      <trkpt lat="41.95016540586948394775390625" lon="-6.90165932290256023406982421875">
        <ele>829</ele>
        <time>2021-11-06T11:06:08.000Z</time>
      </trkpt>
      <trkpt lat="41.95018225349485874176025390625" lon="-6.90173895098268985748291015625">
        <ele>829.79998779296875</ele>
        <time>2021-11-06T11:06:13.000Z</time>
      </trkpt>
      <trkpt lat="41.95021075196564197540283203125" lon="-6.9018235243856906890869140625">
        <ele>831</ele>
        <time>2021-11-06T11:06:19.000Z</time>
      </trkpt>
      <trkpt lat="41.9502265937626361846923828125" lon="-6.90187239088118076324462890625">
        <ele>832</ele>
        <time>2021-11-06T11:06:23.000Z</time>
      </trkpt>
      <trkpt lat="41.9502312876284122467041015625" lon="-6.90193508751690387725830078125">
        <ele>833</ele>
        <time>2021-11-06T11:06:28.000Z</time>
      </trkpt>
      <trkpt lat="41.9502205587923526763916015625" lon="-6.9019941799342632293701171875">
        <ele>834</ele>
        <time>2021-11-06T11:06:33.000Z</time>
      </trkpt>
      <trkpt lat="41.95021226070821285247802734375" lon="-6.90201236866414546966552734375">
        <ele>834.4000244140625</ele>
        <time>2021-11-06T11:06:35.000Z</time>
      </trkpt>
      <trkpt lat="41.95019717328250408172607421875" lon="-6.9020347483456134796142578125">
        <ele>834.79998779296875</ele>
        <time>2021-11-06T11:06:37.000Z</time>
      </trkpt>
      <trkpt lat="41.95018292404711246490478515625" lon="-6.90205947495996952056884765625">
        <ele>835.20001220703125</ele>
        <time>2021-11-06T11:06:39.000Z</time>
      </trkpt>
      <trkpt lat="41.95017487742006778717041015625" lon="-6.90207104198634624481201171875">
        <ele>835.4000244140625</ele>
        <time>2021-11-06T11:06:40.000Z</time>
      </trkpt>
      <trkpt lat="41.950139589607715606689453125" lon="-6.90212552435696125030517578125">
        <ele>836.20001220703125</ele>
        <time>2021-11-06T11:06:45.000Z</time>
      </trkpt>
      <trkpt lat="41.9501219876110553741455078125" lon="-6.902169696986675262451171875">
        <ele>837.20001220703125</ele>
        <time>2021-11-06T11:06:50.000Z</time>
      </trkpt>
      <trkpt lat="41.95009768009185791015625" lon="-6.902236081659793853759765625">
        <ele>838.4000244140625</ele>
        <time>2021-11-06T11:06:56.000Z</time>
      </trkpt>
      <trkpt lat="41.95008703507483005523681640625" lon="-6.902264244854450225830078125">
        <ele>838.79998779296875</ele>
        <time>2021-11-06T11:06:59.000Z</time>
      </trkpt>
      <trkpt lat="41.95007446222007274627685546875" lon="-6.90229400061070919036865234375">
        <ele>839.4000244140625</ele>
        <time>2021-11-06T11:07:02.000Z</time>
      </trkpt>
      <trkpt lat="41.9500478915870189666748046875" lon="-6.90235887654125690460205078125">
        <ele>840.5999755859375</ele>
        <time>2021-11-06T11:07:08.000Z</time>
      </trkpt>
      <trkpt lat="41.95002467371523380279541015625" lon="-6.90244839526712894439697265625">
        <ele>841.5999755859375</ele>
        <time>2021-11-06T11:07:15.000Z</time>
      </trkpt>
      <trkpt lat="41.94999952800571918487548828125" lon="-6.9025051407516002655029296875">
        <ele>842.5999755859375</ele>
        <time>2021-11-06T11:07:20.000Z</time>
      </trkpt>
      <trkpt lat="41.94997362792491912841796875" lon="-6.90255803056061267852783203125">
        <ele>843.5999755859375</ele>
        <time>2021-11-06T11:07:25.000Z</time>
      </trkpt>
      <trkpt lat="41.949970610439777374267578125" lon="-6.90256238915026187896728515625">
        <ele>843.79998779296875</ele>
        <time>2021-11-06T11:07:26.000Z</time>
      </trkpt>
      <trkpt lat="41.94995895959436893463134765625" lon="-6.9025906361639499664306640625">
        <ele>844.4000244140625</ele>
        <time>2021-11-06T11:07:29.000Z</time>
      </trkpt>
      <trkpt lat="41.949953846633434295654296875" lon="-6.90260865725576877593994140625">
        <ele>844.79998779296875</ele>
        <time>2021-11-06T11:07:31.000Z</time>
      </trkpt>
      <trkpt lat="41.94993884302675724029541015625" lon="-6.90263070166110992431640625">
        <ele>845.20001220703125</ele>
        <time>2021-11-06T11:07:33.000Z</time>
      </trkpt>
      <trkpt lat="41.9499060697853565216064453125" lon="-6.90268702805042266845703125">
        <ele>846</ele>
        <time>2021-11-06T11:07:38.000Z</time>
      </trkpt>
      <trkpt lat="41.94986642338335514068603515625" lon="-6.9027572683990001678466796875">
        <ele>847</ele>
        <time>2021-11-06T11:07:44.000Z</time>
      </trkpt>
      <trkpt lat="41.94982367567718029022216796875" lon="-6.9028179533779621124267578125">
        <ele>848</ele>
        <time>2021-11-06T11:07:50.000Z</time>
      </trkpt>
      <trkpt lat="41.949783861637115478515625" lon="-6.902911663055419921875">
        <ele>849</ele>
        <time>2021-11-06T11:07:58.000Z</time>
      </trkpt>
      <trkpt lat="41.94977371953427791595458984375" lon="-6.90293035469949245452880859375">
        <ele>849.4000244140625</ele>
        <time>2021-11-06T11:08:00.000Z</time>
      </trkpt>
      <trkpt lat="41.9497424550354480743408203125" lon="-6.9030207954347133636474609375">
        <ele>850.20001220703125</ele>
        <time>2021-11-06T11:08:06.000Z</time>
      </trkpt>
      <trkpt lat="41.9496874697506427764892578125" lon="-6.903115846216678619384765625">
        <ele>851.4000244140625</ele>
        <time>2021-11-06T11:08:15.000Z</time>
      </trkpt>
      <trkpt lat="41.9496640004217624664306640625" lon="-6.90320829860866069793701171875">
        <ele>852.4000244140625</ele>
        <time>2021-11-06T11:08:22.000Z</time>
      </trkpt>
      <trkpt lat="41.9496623240411281585693359375" lon="-6.9032772816717624664306640625">
        <ele>852.79998779296875</ele>
        <time>2021-11-06T11:08:27.000Z</time>
      </trkpt>
      <trkpt lat="41.9496515952050685882568359375" lon="-6.9033366255462169647216796875">
        <ele>853.5999755859375</ele>
        <time>2021-11-06T11:08:31.000Z</time>
      </trkpt>
      <trkpt lat="41.9496457278728485107421875" lon="-6.90335263498127460479736328125">
        <ele>853.5999755859375</ele>
        <time>2021-11-06T11:08:32.000Z</time>
      </trkpt>
      <trkpt lat="41.94961345754563808441162109375" lon="-6.903455145657062530517578125">
        <ele>854.5999755859375</ele>
        <time>2021-11-06T11:08:40.000Z</time>
      </trkpt>
      <trkpt lat="41.9495865516364574432373046875" lon="-6.90358179621398448944091796875">
        <ele>855.5999755859375</ele>
        <time>2021-11-06T11:08:48.000Z</time>
      </trkpt>
      <trkpt lat="41.9495644234120845794677734375" lon="-6.9037444889545440673828125">
        <ele>856.79998779296875</ele>
        <time>2021-11-06T11:08:59.000Z</time>
      </trkpt>
      <trkpt lat="41.949546821415424346923828125" lon="-6.9039015658199787139892578125">
        <ele>857.79998779296875</ele>
        <time>2021-11-06T11:09:09.000Z</time>
      </trkpt>
      <trkpt lat="41.949543468654155731201171875" lon="-6.90399921499192714691162109375">
        <ele>858.5999755859375</ele>
        <time>2021-11-06T11:09:16.000Z</time>
      </trkpt>
      <trkpt lat="41.9495349191129207611083984375" lon="-6.9040556252002716064453125">
        <ele>859</ele>
        <time>2021-11-06T11:09:20.000Z</time>
      </trkpt>
      <trkpt lat="41.9495308957993984222412109375" lon="-6.90416970290243625640869140625">
        <ele>859.4000244140625</ele>
        <time>2021-11-06T11:09:28.000Z</time>
      </trkpt>
      <trkpt lat="41.94951974786818027496337890625" lon="-6.90441395156085491180419921875">
        <ele>859.79998779296875</ele>
        <time>2021-11-06T11:09:42.000Z</time>
      </trkpt>
      <trkpt lat="41.94952075369656085968017578125" lon="-6.90444429405033588409423828125">
        <ele>860</ele>
        <time>2021-11-06T11:09:44.000Z</time>
      </trkpt>
      <trkpt lat="41.94949862547218799591064453125" lon="-6.90469105727970600128173828125">
        <ele>860.5999755859375</ele>
        <time>2021-11-06T11:09:59.000Z</time>
      </trkpt>
      <trkpt lat="41.94936987943947315216064453125" lon="-6.90487034618854522705078125">
        <ele>860.79998779296875</ele>
        <time>2021-11-06T11:10:14.000Z</time>
      </trkpt>
      <trkpt lat="41.9491869024932384490966796875" lon="-6.9049429334700107574462890625">
        <ele>860.5999755859375</ele>
        <time>2021-11-06T11:10:29.000Z</time>
      </trkpt>
      <trkpt lat="41.9491305761039257049560546875" lon="-6.90496766008436679840087890625">
        <ele>860.4000244140625</ele>
        <time>2021-11-06T11:10:34.000Z</time>
      </trkpt>
      <trkpt lat="41.94896503351628780364990234375" lon="-6.90507821738719940185546875">
        <ele>860</ele>
        <time>2021-11-06T11:10:49.000Z</time>
      </trkpt>
      <trkpt lat="41.94879949092864990234375" lon="-6.90518307499587535858154296875">
        <ele>860.20001220703125</ele>
        <time>2021-11-06T11:11:02.000Z</time>
      </trkpt>
      <trkpt lat="41.9487874209880828857421875" lon="-6.90518726594746112823486328125">
        <ele>860.20001220703125</ele>
        <time>2021-11-06T11:11:03.000Z</time>
      </trkpt>
      <trkpt lat="41.9487403146922588348388671875" lon="-6.905204951763153076171875">
        <ele>859.79998779296875</ele>
        <time>2021-11-06T11:11:07.000Z</time>
      </trkpt>
      <trkpt lat="41.9486561603844165802001953125" lon="-6.90528206527233123779296875">
        <ele>859</ele>
        <time>2021-11-06T11:11:17.000Z</time>
      </trkpt>
      <trkpt lat="41.94860972464084625244140625" lon="-6.90535959787666797637939453125">
        <ele>857.79998779296875</ele>
        <time>2021-11-06T11:11:24.000Z</time>
      </trkpt>
      <trkpt lat="41.94858952425420284271240234375" lon="-6.90539513714611530303955078125">
        <ele>857.5999755859375</ele>
        <time>2021-11-06T11:11:27.000Z</time>
      </trkpt>
      <trkpt lat="41.94859405048191547393798828125" lon="-6.90544626675546169281005859375">
        <ele>857.5999755859375</ele>
        <time>2021-11-06T11:11:31.000Z</time>
      </trkpt>
      <trkpt lat="41.948620118200778961181640625" lon="-6.9055360369384288787841796875">
        <ele>857.4000244140625</ele>
        <time>2021-11-06T11:11:37.000Z</time>
      </trkpt>
      <trkpt lat="41.94869547151029109954833984375" lon="-6.90572337247431278228759765625">
        <ele>858.79998779296875</ele>
        <time>2021-11-06T11:11:50.000Z</time>
      </trkpt>
      <trkpt lat="41.94870083592832088470458984375" lon="-6.90573669970035552978515625">
        <ele>859</ele>
        <time>2021-11-06T11:11:51.000Z</time>
      </trkpt>
      <trkpt lat="41.948709972202777862548828125" lon="-6.9057465903460979461669921875">
        <ele>859.20001220703125</ele>
        <time>2021-11-06T11:11:52.000Z</time>
      </trkpt>
      <trkpt lat="41.94873738102614879608154296875" lon="-6.90578875131905078887939453125">
        <ele>860</ele>
        <time>2021-11-06T11:11:56.000Z</time>
      </trkpt>
      <trkpt lat="41.948744170367717742919921875" lon="-6.90579973161220550537109375">
        <ele>860.20001220703125</ele>
        <time>2021-11-06T11:11:57.000Z</time>
      </trkpt>
      <trkpt lat="41.948778368532657623291015625" lon="-6.90585698001086711883544921875">
        <ele>861</ele>
        <time>2021-11-06T11:12:03.000Z</time>
      </trkpt>
      <trkpt lat="41.94881097413599491119384765625" lon="-6.9058750011026859283447265625">
        <ele>861.4000244140625</ele>
        <time>2021-11-06T11:12:06.000Z</time>
      </trkpt>
      <trkpt lat="41.94883637130260467529296875" lon="-6.905932836234569549560546875">
        <ele>862.20001220703125</ele>
        <time>2021-11-06T11:12:11.000Z</time>
      </trkpt>
      <trkpt lat="41.9488583318889141082763671875" lon="-6.9059930182993412017822265625">
        <ele>863.20001220703125</ele>
        <time>2021-11-06T11:12:16.000Z</time>
      </trkpt>
      <trkpt lat="41.948875598609447479248046875" lon="-6.906057558953762054443359375">
        <ele>864.20001220703125</ele>
        <time>2021-11-06T11:12:21.000Z</time>
      </trkpt>
      <trkpt lat="41.94889697246253490447998046875" lon="-6.90610374324023723602294921875">
        <ele>865</ele>
        <time>2021-11-06T11:12:25.000Z</time>
      </trkpt>
      <trkpt lat="41.948913149535655975341796875" lon="-6.90613140352070331573486328125">
        <ele>865.4000244140625</ele>
        <time>2021-11-06T11:12:27.000Z</time>
      </trkpt>
      <trkpt lat="41.94897308014333248138427734375" lon="-6.9063534401357173919677734375">
        <ele>866.20001220703125</ele>
        <time>2021-11-06T11:12:42.000Z</time>
      </trkpt>
      <trkpt lat="41.948971487581729888916015625" lon="-6.90637598745524883270263671875">
        <ele>866.20001220703125</ele>
        <time>2021-11-06T11:12:44.000Z</time>
      </trkpt>
      <trkpt lat="41.9489585794508457183837890625" lon="-6.90647539682686328887939453125">
        <ele>866</ele>
        <time>2021-11-06T11:12:53.000Z</time>
      </trkpt>
      <trkpt lat="41.949015744030475616455078125" lon="-6.9066397659480571746826171875">
        <ele>864.20001220703125</ele>
        <time>2021-11-06T11:13:07.000Z</time>
      </trkpt>
      <trkpt lat="41.9490611739456653594970703125" lon="-6.906664073467254638671875">
        <ele>863.79998779296875</ele>
        <time>2021-11-06T11:13:11.000Z</time>
      </trkpt>
      <trkpt lat="41.9491175003349781036376953125" lon="-6.9066922366619110107421875">
        <ele>863.20001220703125</ele>
        <time>2021-11-06T11:13:17.000Z</time>
      </trkpt>
      <trkpt lat="41.9491855613887310028076171875" lon="-6.90674093551933765411376953125">
        <ele>862</ele>
        <time>2021-11-06T11:13:23.000Z</time>
      </trkpt>
      <trkpt lat="41.94925923831760883331298828125" lon="-6.90677647478878498077392578125">
        <ele>860.79998779296875</ele>
        <time>2021-11-06T11:13:30.000Z</time>
      </trkpt>
      <trkpt lat="41.949313469231128692626953125" lon="-6.9068053923547267913818359375">
        <ele>859.79998779296875</ele>
        <time>2021-11-06T11:13:36.000Z</time>
      </trkpt>
      <trkpt lat="41.9493882358074188232421875" lon="-6.90690002404153347015380859375">
        <ele>858.79998779296875</ele>
        <time>2021-11-06T11:13:46.000Z</time>
      </trkpt>
      <trkpt lat="41.9493964500725269317626953125" lon="-6.90691418945789337158203125">
        <ele>858.5999755859375</ele>
        <time>2021-11-06T11:13:47.000Z</time>
      </trkpt>
      <trkpt lat="41.94943643175065517425537109375" lon="-6.90699205733835697174072265625">
        <ele>857.4000244140625</ele>
        <time>2021-11-06T11:13:53.000Z</time>
      </trkpt>
      <trkpt lat="41.9494896568357944488525390625" lon="-6.9070769660174846649169921875">
        <ele>856</ele>
        <time>2021-11-06T11:14:00.000Z</time>
      </trkpt>
      <trkpt lat="41.94950935430824756622314453125" lon="-6.9071135111153125762939453125">
        <ele>855</ele>
        <time>2021-11-06T11:14:03.000Z</time>
      </trkpt>
      <trkpt lat="41.9495604000985622406005859375" lon="-6.907190792262554168701171875">
        <ele>854</ele>
        <time>2021-11-06T11:14:10.000Z</time>
      </trkpt>
      <trkpt lat="41.94958998821675777435302734375" lon="-6.9072382338345050811767578125">
        <ele>852.79998779296875</ele>
        <time>2021-11-06T11:14:15.000Z</time>
      </trkpt>
      <trkpt lat="41.949624605476856231689453125" lon="-6.90728425048291683197021484375">
        <ele>851.5999755859375</ele>
        <time>2021-11-06T11:14:20.000Z</time>
      </trkpt>
      <trkpt lat="41.9496455602347850799560546875" lon="-6.9073257409036159515380859375">
        <ele>850.5999755859375</ele>
        <time>2021-11-06T11:14:25.000Z</time>
      </trkpt>
      <trkpt lat="41.9496841169893741607666015625" lon="-6.90739003010094165802001953125">
        <ele>849.4000244140625</ele>
        <time>2021-11-06T11:14:31.000Z</time>
      </trkpt>
      <trkpt lat="41.949702389538288116455078125" lon="-6.9074326939880847930908203125">
        <ele>848.20001220703125</ele>
        <time>2021-11-06T11:14:35.000Z</time>
      </trkpt>
      <trkpt lat="41.949731893837451934814453125" lon="-6.90750184468924999237060546875">
        <ele>847.20001220703125</ele>
        <time>2021-11-06T11:14:41.000Z</time>
      </trkpt>
      <trkpt lat="41.9497588835656642913818359375" lon="-6.90758767537772655487060546875">
        <ele>845.79998779296875</ele>
        <time>2021-11-06T11:14:47.000Z</time>
      </trkpt>
      <trkpt lat="41.94976382888853549957275390625" lon="-6.907634027302265167236328125">
        <ele>844.5999755859375</ele>
        <time>2021-11-06T11:14:50.000Z</time>
      </trkpt>
      <trkpt lat="41.94976131431758403778076171875" lon="-6.90769965760409832000732421875">
        <ele>843.5999755859375</ele>
        <time>2021-11-06T11:14:55.000Z</time>
      </trkpt>
      <trkpt lat="41.949759386479854583740234375" lon="-6.90771390683948993682861328125">
        <ele>843.4000244140625</ele>
        <time>2021-11-06T11:14:56.000Z</time>
      </trkpt>
      <trkpt lat="41.94972845725715160369873046875" lon="-6.90777962096035480499267578125">
        <ele>842.5999755859375</ele>
        <time>2021-11-06T11:14:59.000Z</time>
      </trkpt>
      <trkpt lat="41.949712447822093963623046875" lon="-6.90781407058238983154296875">
        <ele>842.4000244140625</ele>
        <time>2021-11-06T11:15:01.000Z</time>
      </trkpt>
      <trkpt lat="41.94970733486115932464599609375" lon="-6.90782890655100345611572265625">
        <ele>842.4000244140625</ele>
        <time>2021-11-06T11:15:02.000Z</time>
      </trkpt>
      <trkpt lat="41.94969962351024150848388671875" lon="-6.90790803171694278717041015625">
        <ele>841.79998779296875</ele>
        <time>2021-11-06T11:15:08.000Z</time>
      </trkpt>
      <trkpt lat="41.9496428780257701873779296875" lon="-6.90800182521343231201171875">
        <ele>841.5999755859375</ele>
        <time>2021-11-06T11:15:16.000Z</time>
      </trkpt>
      <trkpt lat="41.94963240064680576324462890625" lon="-6.90804415382444858551025390625">
        <ele>841.20001220703125</ele>
        <time>2021-11-06T11:15:19.000Z</time>
      </trkpt>
      <trkpt lat="41.9495872221887111663818359375" lon="-6.90810785628855228424072265625">
        <ele>841</ele>
        <time>2021-11-06T11:15:24.000Z</time>
      </trkpt>
      <trkpt lat="41.949553526937961578369140625" lon="-6.90816569142043590545654296875">
        <ele>841.20001220703125</ele>
        <time>2021-11-06T11:15:29.000Z</time>
      </trkpt>
      <trkpt lat="41.9495050795376300811767578125" lon="-6.9083288870751857757568359375">
        <ele>840.4000244140625</ele>
        <time>2021-11-06T11:15:40.000Z</time>
      </trkpt>
      <trkpt lat="41.949472725391387939453125" lon="-6.9084304757416248321533203125">
        <ele>840.4000244140625</ele>
        <time>2021-11-06T11:15:46.000Z</time>
      </trkpt>
      <trkpt lat="41.949473060667514801025390625" lon="-6.90844028256833553314208984375">
        <ele>840.20001220703125</ele>
        <time>2021-11-06T11:15:47.000Z</time>
      </trkpt>
      <trkpt lat="41.94947398267686367034912109375" lon="-6.9084526039659976959228515625">
        <ele>840</ele>
        <time>2021-11-06T11:15:48.000Z</time>
      </trkpt>
      <trkpt lat="41.94948546588420867919921875" lon="-6.9085233472287654876708984375">
        <ele>839.4000244140625</ele>
        <time>2021-11-06T11:15:52.000Z</time>
      </trkpt>
      <trkpt lat="41.9494883157312870025634765625" lon="-6.90856282599270343780517578125">
        <ele>839.20001220703125</ele>
        <time>2021-11-06T11:15:54.000Z</time>
      </trkpt>
      <trkpt lat="41.94951220415532588958740234375" lon="-6.9087000377476215362548828125">
        <ele>838.79998779296875</ele>
        <time>2021-11-06T11:16:01.000Z</time>
      </trkpt>
      <trkpt lat="41.94958479143679141998291015625" lon="-6.90880238078534603118896484375">
        <ele>840</ele>
        <time>2021-11-06T11:16:09.000Z</time>
      </trkpt>
      <trkpt lat="41.949594430625438690185546875" lon="-6.90881528891623020172119140625">
        <ele>840.20001220703125</ele>
        <time>2021-11-06T11:16:10.000Z</time>
      </trkpt>
      <trkpt lat="41.9496713764965534210205078125" lon="-6.908902712166309356689453125">
        <ele>841.20001220703125</ele>
        <time>2021-11-06T11:16:18.000Z</time>
      </trkpt>
      <trkpt lat="41.9496951811015605926513671875" lon="-6.9089307077229022979736328125">
        <ele>841.79998779296875</ele>
        <time>2021-11-06T11:16:21.000Z</time>
      </trkpt>
      <trkpt lat="41.9497315585613250732421875" lon="-6.9089649058878421783447265625">
        <ele>842.20001220703125</ele>
        <time>2021-11-06T11:16:24.000Z</time>
      </trkpt>
      <trkpt lat="41.9497437961399555206298828125" lon="-6.908972449600696563720703125">
        <ele>842.4000244140625</ele>
        <time>2021-11-06T11:16:25.000Z</time>
      </trkpt>
      <trkpt lat="41.94980506785213947296142578125" lon="-6.9090242497622966766357421875">
        <ele>843.4000244140625</ele>
        <time>2021-11-06T11:16:31.000Z</time>
      </trkpt>
      <trkpt lat="41.94984890520572662353515625" lon="-6.9090901315212249755859375">
        <ele>844.4000244140625</ele>
        <time>2021-11-06T11:16:36.000Z</time>
      </trkpt>
      <trkpt lat="41.94988855160772800445556640625" lon="-6.90914972685277462005615234375">
        <ele>845.4000244140625</ele>
        <time>2021-11-06T11:16:41.000Z</time>
      </trkpt>
      <trkpt lat="41.94992090575397014617919921875" lon="-6.90923538990318775177001953125">
        <ele>846.5999755859375</ele>
        <time>2021-11-06T11:16:47.000Z</time>
      </trkpt>
      <trkpt lat="41.94996499456465244293212890625" lon="-6.90942599438130855560302734375">
        <ele>847.5999755859375</ele>
        <time>2021-11-06T11:16:58.000Z</time>
      </trkpt>
      <trkpt lat="41.94998259656131267547607421875" lon="-6.909555494785308837890625">
        <ele>848.79998779296875</ele>
        <time>2021-11-06T11:17:05.000Z</time>
      </trkpt>
      <trkpt lat="41.9499905593693256378173828125" lon="-6.90967275761067867279052734375">
        <ele>850</ele>
        <time>2021-11-06T11:17:13.000Z</time>
      </trkpt>
      <trkpt lat="41.94999131374061107635498046875" lon="-6.909740231931209564208984375">
        <ele>851</ele>
        <time>2021-11-06T11:17:17.000Z</time>
      </trkpt>
      <trkpt lat="41.94997899234294891357421875" lon="-6.9098865799605846405029296875">
        <ele>852.20001220703125</ele>
        <time>2021-11-06T11:17:26.000Z</time>
      </trkpt>
      <trkpt lat="41.9499714486300945281982421875" lon="-6.909959502518177032470703125">
        <ele>853.20001220703125</ele>
        <time>2021-11-06T11:17:31.000Z</time>
      </trkpt>
      <trkpt lat="41.94997857324779033660888671875" lon="-6.9100636057555675506591796875">
        <ele>854.20001220703125</ele>
        <time>2021-11-06T11:17:38.000Z</time>
      </trkpt>
      <trkpt lat="41.94997857324779033660888671875" lon="-6.91016444005072116851806640625">
        <ele>855.4000244140625</ele>
        <time>2021-11-06T11:17:44.000Z</time>
      </trkpt>
      <trkpt lat="41.94997572340071201324462890625" lon="-6.9102956168353557586669921875">
        <ele>856.5999755859375</ele>
        <time>2021-11-06T11:17:52.000Z</time>
      </trkpt>
      <trkpt lat="41.94995644502341747283935546875" lon="-6.910397373139858245849609375">
        <ele>857.5999755859375</ele>
        <time>2021-11-06T11:17:58.000Z</time>
      </trkpt>
      <trkpt lat="41.9499509967863559722900390625" lon="-6.91041489131748676300048828125">
        <ele>857.5999755859375</ele>
        <time>2021-11-06T11:17:59.000Z</time>
      </trkpt>
      <trkpt lat="41.94993498735129833221435546875" lon="-6.9105091877281665802001953125">
        <ele>858.5999755859375</ele>
        <time>2021-11-06T11:18:05.000Z</time>
      </trkpt>
      <trkpt lat="41.94992744363844394683837890625" lon="-6.91059996373951435089111328125">
        <ele>859.79998779296875</ele>
        <time>2021-11-06T11:18:11.000Z</time>
      </trkpt>
      <trkpt lat="41.9499107636511325836181640625" lon="-6.91070607863366603851318359375">
        <ele>860.79998779296875</ele>
        <time>2021-11-06T11:18:19.000Z</time>
      </trkpt>
      <trkpt lat="41.94990120828151702880859375" lon="-6.910782940685749053955078125">
        <ele>862</ele>
        <time>2021-11-06T11:18:24.000Z</time>
      </trkpt>
      <trkpt lat="41.9498846121132373809814453125" lon="-6.91088126040995121002197265625">
        <ele>863.20001220703125</ele>
        <time>2021-11-06T11:18:31.000Z</time>
      </trkpt>
      <trkpt lat="41.94987530820071697235107421875" lon="-6.91098737530410289764404296875">
        <ele>864.20001220703125</ele>
        <time>2021-11-06T11:18:38.000Z</time>
      </trkpt>
      <trkpt lat="41.94986508227884769439697265625" lon="-6.91106197424232959747314453125">
        <ele>865.20001220703125</ele>
        <time>2021-11-06T11:18:43.000Z</time>
      </trkpt>
      <trkpt lat="41.94986340589821338653564453125" lon="-6.91107773222029209136962890625">
        <ele>865.20001220703125</ele>
        <time>2021-11-06T11:18:44.000Z</time>
      </trkpt>
      <trkpt lat="41.94986105896532535552978515625" lon="-6.91111276857554912567138671875">
        <ele>865.4000244140625</ele>
        <time>2021-11-06T11:18:46.000Z</time>
      </trkpt>
      <trkpt lat="41.94985468871891498565673828125" lon="-6.91114663146436214447021484375">
        <ele>865.5999755859375</ele>
        <time>2021-11-06T11:18:49.000Z</time>
      </trkpt>
      <trkpt lat="41.94981093518435955047607421875" lon="-6.911259703338146209716796875">
        <ele>865.79998779296875</ele>
        <time>2021-11-06T11:19:00.000Z</time>
      </trkpt>
      <trkpt lat="41.94978796876966953277587890625" lon="-6.91128526814281940460205078125">
        <ele>866</ele>
        <time>2021-11-06T11:19:03.000Z</time>
      </trkpt>
      <trkpt lat="41.949770115315914154052734375" lon="-6.9113029539585113525390625">
        <ele>866.4000244140625</ele>
        <time>2021-11-06T11:19:06.000Z</time>
      </trkpt>
      <trkpt lat="41.949759386479854583740234375" lon="-6.9113319553434848785400390625">
        <ele>866.5999755859375</ele>
        <time>2021-11-06T11:19:09.000Z</time>
      </trkpt>
      <trkpt lat="41.9497551955282688140869140625" lon="-6.9113383255898952484130859375">
        <ele>866.5999755859375</ele>
        <time>2021-11-06T11:19:11.000Z</time>
      </trkpt>
      <trkpt lat="41.94974505342543125152587890625" lon="-6.91137679852545261383056640625">
        <ele>867</ele>
        <time>2021-11-06T11:19:14.000Z</time>
      </trkpt>
      <trkpt lat="41.94973885081708431243896484375" lon="-6.91143128089606761932373046875">
        <ele>867.5999755859375</ele>
        <time>2021-11-06T11:19:17.000Z</time>
      </trkpt>
      <trkpt lat="41.94974295794963836669921875" lon="-6.91144804470241069793701171875">
        <ele>867.79998779296875</ele>
        <time>2021-11-06T11:19:18.000Z</time>
      </trkpt>
      <trkpt lat="41.94975242950022220611572265625" lon="-6.9115103222429752349853515625">
        <ele>868.79998779296875</ele>
        <time>2021-11-06T11:19:22.000Z</time>
      </trkpt>
      <trkpt lat="41.949760057032108306884765625" lon="-6.911592297255992889404296875">
        <ele>870</ele>
        <time>2021-11-06T11:19:27.000Z</time>
      </trkpt>
      <trkpt lat="41.94974991492927074432373046875" lon="-6.9117151759564876556396484375">
        <ele>871</ele>
        <time>2021-11-06T11:19:34.000Z</time>
      </trkpt>
      <trkpt lat="41.9497317261993885040283203125" lon="-6.91186211071908473968505859375">
        <ele>872.20001220703125</ele>
        <time>2021-11-06T11:19:45.000Z</time>
      </trkpt>
      <trkpt lat="41.9497055746614933013916015625" lon="-6.91196956671774387359619140625">
        <ele>873.20001220703125</ele>
        <time>2021-11-06T11:19:51.000Z</time>
      </trkpt>
      <trkpt lat="41.94967414252460002899169921875" lon="-6.91210200078785419464111328125">
        <ele>874.4000244140625</ele>
        <time>2021-11-06T11:19:59.000Z</time>
      </trkpt>
      <trkpt lat="41.9496616534888744354248046875" lon="-6.91220392473042011260986328125">
        <ele>875.4000244140625</ele>
        <time>2021-11-06T11:20:07.000Z</time>
      </trkpt>
      <trkpt lat="41.9496375136077404022216796875" lon="-6.9123106263577938079833984375">
        <ele>876.5999755859375</ele>
        <time>2021-11-06T11:20:14.000Z</time>
      </trkpt>
      <trkpt lat="41.94959619082510471343994140625" lon="-6.91244088113307952880859375">
        <ele>877.5999755859375</ele>
        <time>2021-11-06T11:20:21.000Z</time>
      </trkpt>
      <trkpt lat="41.94959032349288463592529296875" lon="-6.91248714923858642578125">
        <ele>878.20001220703125</ele>
        <time>2021-11-06T11:20:24.000Z</time>
      </trkpt>
      <trkpt lat="41.9495751522481441497802734375" lon="-6.91258211620151996612548828125">
        <ele>878.79998779296875</ele>
        <time>2021-11-06T11:20:30.000Z</time>
      </trkpt>
      <trkpt lat="41.9495553709566593170166015625" lon="-6.91273466683924198150634765625">
        <ele>879.5999755859375</ele>
        <time>2021-11-06T11:20:41.000Z</time>
      </trkpt>
      <trkpt lat="41.94955361075699329376220703125" lon="-6.91274874843657016754150390625">
        <ele>879.79998779296875</ele>
        <time>2021-11-06T11:20:43.000Z</time>
      </trkpt>
      <trkpt lat="41.94950046949088573455810546875" lon="-6.91286106593906879425048828125">
        <ele>880.79998779296875</ele>
        <time>2021-11-06T11:20:52.000Z</time>
      </trkpt>
      <trkpt lat="41.94946140982210636138916015625" lon="-6.91301328130066394805908203125">
        <ele>882</ele>
        <time>2021-11-06T11:21:03.000Z</time>
      </trkpt>
      <trkpt lat="41.9494521059095859527587890625" lon="-6.9130428694188594818115234375">
        <ele>882.20001220703125</ele>
        <time>2021-11-06T11:21:05.000Z</time>
      </trkpt>
      <trkpt lat="41.94940768182277679443359375" lon="-6.913163401186466217041015625">
        <ele>883</ele>
        <time>2021-11-06T11:21:13.000Z</time>
      </trkpt>
      <trkpt lat="41.9493565522134304046630859375" lon="-6.91325099207460880279541015625">
        <ele>884</ele>
        <time>2021-11-06T11:21:20.000Z</time>
      </trkpt>
      <trkpt lat="41.94934724830090999603271484375" lon="-6.91327831707894802093505859375">
        <ele>884.20001220703125</ele>
        <time>2021-11-06T11:21:22.000Z</time>
      </trkpt>
      <trkpt lat="41.94931246340274810791015625" lon="-6.91334076225757598876953125">
        <ele>885.20001220703125</ele>
        <time>2021-11-06T11:21:29.000Z</time>
      </trkpt>
      <trkpt lat="41.9493065960705280303955078125" lon="-6.91334805451333522796630859375">
        <ele>885.20001220703125</ele>
        <time>2021-11-06T11:21:30.000Z</time>
      </trkpt>
      <trkpt lat="41.94925345480442047119140625" lon="-6.913399435579776763916015625">
        <ele>886.20001220703125</ele>
        <time>2021-11-06T11:21:37.000Z</time>
      </trkpt>
      <trkpt lat="41.94923107512295246124267578125" lon="-6.9134452007710933685302734375">
        <ele>887.4000244140625</ele>
        <time>2021-11-06T11:21:42.000Z</time>
      </trkpt>
      <trkpt lat="41.94919184781610965728759765625" lon="-6.91350169479846954345703125">
        <ele>888.5999755859375</ele>
        <time>2021-11-06T11:21:48.000Z</time>
      </trkpt>
      <trkpt lat="41.94914524443447589874267578125" lon="-6.91355994902551174163818359375">
        <ele>889.79998779296875</ele>
        <time>2021-11-06T11:21:57.000Z</time>
      </trkpt>
      <trkpt lat="41.94912345148622989654541015625" lon="-6.91359247080981731414794921875">
        <ele>890.20001220703125</ele>
        <time>2021-11-06T11:22:00.000Z</time>
      </trkpt>
      <trkpt lat="41.94909210316836833953857421875" lon="-6.9136150181293487548828125">
        <ele>890.79998779296875</ele>
        <time>2021-11-06T11:22:03.000Z</time>
      </trkpt>
      <trkpt lat="41.9490843079984188079833984375" lon="-6.91362298093736171722412109375">
        <ele>891</ele>
        <time>2021-11-06T11:22:04.000Z</time>
      </trkpt>
      <trkpt lat="41.94905631244182586669921875" lon="-6.91365131177008152008056640625">
        <ele>891.79998779296875</ele>
        <time>2021-11-06T11:22:07.000Z</time>
      </trkpt>
      <trkpt lat="41.9490154087543487548828125" lon="-6.9136668182909488677978515625">
        <ele>893</ele>
        <time>2021-11-06T11:22:11.000Z</time>
      </trkpt>
      <trkpt lat="41.94895631633698940277099609375" lon="-6.91369079053401947021484375">
        <ele>894.20001220703125</ele>
        <time>2021-11-06T11:22:16.000Z</time>
      </trkpt>
      <trkpt lat="41.9489000737667083740234375" lon="-6.9137110747396945953369140625">
        <ele>895.4000244140625</ele>
        <time>2021-11-06T11:22:21.000Z</time>
      </trkpt>
      <trkpt lat="41.94884466938674449920654296875" lon="-6.91373647190630435943603515625">
        <ele>896.4000244140625</ele>
        <time>2021-11-06T11:22:26.000Z</time>
      </trkpt>
      <trkpt lat="41.94878499023616313934326171875" lon="-6.9137623719871044158935546875">
        <ele>897.4000244140625</ele>
        <time>2021-11-06T11:22:32.000Z</time>
      </trkpt>
      <trkpt lat="41.948730088770389556884765625" lon="-6.91377972252666950225830078125">
        <ele>898.5999755859375</ele>
        <time>2021-11-06T11:22:37.000Z</time>
      </trkpt>
      <trkpt lat="41.94869781844317913055419921875" lon="-6.91380956210196018218994140625">
        <ele>899.5999755859375</ele>
        <time>2021-11-06T11:22:42.000Z</time>
      </trkpt>
      <trkpt lat="41.94865657947957515716552734375" lon="-6.91383638419210910797119140625">
        <ele>900.79998779296875</ele>
        <time>2021-11-06T11:22:47.000Z</time>
      </trkpt>
      <trkpt lat="41.948614418506622314453125" lon="-6.91386287100613117218017578125">
        <ele>901.79998779296875</ele>
        <time>2021-11-06T11:22:53.000Z</time>
      </trkpt>
      <trkpt lat="41.9485790468752384185791015625" lon="-6.91389136947691440582275390625">
        <ele>902.5999755859375</ele>
        <time>2021-11-06T11:22:58.000Z</time>
      </trkpt>
      <trkpt lat="41.94856169633567333221435546875" lon="-6.91389975138008594512939453125">
        <ele>903</ele>
        <time>2021-11-06T11:23:00.000Z</time>
      </trkpt>
      <trkpt lat="41.94854761473834514617919921875" lon="-6.91390293650329113006591796875">
        <ele>903.5999755859375</ele>
        <time>2021-11-06T11:23:03.000Z</time>
      </trkpt>
      <trkpt lat="41.94854795001447200775146484375" lon="-6.913907714188098907470703125">
        <ele>903.79998779296875</ele>
        <time>2021-11-06T11:23:05.000Z</time>
      </trkpt>
      <trkpt lat="41.948536299169063568115234375" lon="-6.91391467116773128509521484375">
        <ele>904</ele>
        <time>2021-11-06T11:23:09.000Z</time>
      </trkpt>
      <trkpt lat="41.9485361315310001373291015625" lon="-6.91391601227223873138427734375">
        <ele>904</ele>
        <time>2021-11-06T11:23:10.000Z</time>
      </trkpt>
      <trkpt lat="41.94845457561314105987548828125" lon="-6.91389757208526134490966796875">
        <ele>905.20001220703125</ele>
        <time>2021-11-06T11:23:29.000Z</time>
      </trkpt>
      <trkpt lat="41.9484172761440277099609375" lon="-6.9139189459383487701416015625">
        <ele>906.4000244140625</ele>
        <time>2021-11-06T11:23:34.000Z</time>
      </trkpt>
      <trkpt lat="41.94835960865020751953125" lon="-6.9139702431857585906982421875">
        <ele>907.4000244140625</ele>
        <time>2021-11-06T11:23:42.000Z</time>
      </trkpt>
      <trkpt lat="41.94830956868827342987060546875" lon="-6.91401709802448749542236328125">
        <ele>908.20001220703125</ele>
        <time>2021-11-06T11:23:50.000Z</time>
      </trkpt>
      <trkpt lat="41.94829246960580348968505859375" lon="-6.9140269048511981964111328125">
        <ele>908.5999755859375</ele>
        <time>2021-11-06T11:23:52.000Z</time>
      </trkpt>
      <trkpt lat="41.9482772983610630035400390625" lon="-6.9140406511723995208740234375">
        <ele>909</ele>
        <time>2021-11-06T11:23:54.000Z</time>
      </trkpt>
      <trkpt lat="41.94825810380280017852783203125" lon="-6.9140537269413471221923828125">
        <ele>909.4000244140625</ele>
        <time>2021-11-06T11:23:56.000Z</time>
      </trkpt>
      <trkpt lat="41.94824804551899433135986328125" lon="-6.91406202502548694610595703125">
        <ele>909.5999755859375</ele>
        <time>2021-11-06T11:23:57.000Z</time>
      </trkpt>
      <trkpt lat="41.94818903692066669464111328125" lon="-6.91409337334334850311279296875">
        <ele>910.79998779296875</ele>
        <time>2021-11-06T11:24:06.000Z</time>
      </trkpt>
      <trkpt lat="41.948182918131351470947265625" lon="-6.91409588791429996490478515625">
        <ele>911</ele>
        <time>2021-11-06T11:24:07.000Z</time>
      </trkpt>
      <trkpt lat="41.9481411762535572052001953125" lon="-6.91411726176738739013671875">
        <ele>911.5999755859375</ele>
        <time>2021-11-06T11:24:12.000Z</time>
      </trkpt>
      <trkpt lat="41.94812960922718048095703125" lon="-6.91413511522114276885986328125">
        <ele>911.79998779296875</ele>
        <time>2021-11-06T11:24:14.000Z</time>
      </trkpt>
      <trkpt lat="41.94811158813536167144775390625" lon="-6.91416512243449687957763671875">
        <ele>912</ele>
        <time>2021-11-06T11:24:18.000Z</time>
      </trkpt>
      <trkpt lat="41.94808225147426128387451171875" lon="-6.91419043578207492828369140625">
        <ele>912.5999755859375</ele>
        <time>2021-11-06T11:24:22.000Z</time>
      </trkpt>
      <trkpt lat="41.94806255400180816650390625" lon="-6.91419781185686588287353515625">
        <ele>912.79998779296875</ele>
        <time>2021-11-06T11:24:24.000Z</time>
      </trkpt>
      <trkpt lat="41.94805006496608257293701171875" lon="-6.91420351155102252960205078125">
        <ele>913</ele>
        <time>2021-11-06T11:24:25.000Z</time>
      </trkpt>
      <trkpt lat="41.94800446741282939910888671875" lon="-6.91422899253666400909423828125">
        <ele>913.79998779296875</ele>
        <time>2021-11-06T11:24:30.000Z</time>
      </trkpt>
      <trkpt lat="41.94793305359780788421630859375" lon="-6.91429118625819683074951171875">
        <ele>914.5999755859375</ele>
        <time>2021-11-06T11:24:39.000Z</time>
      </trkpt>
      <trkpt lat="41.94786264561116695404052734375" lon="-6.91435597836971282958984375">
        <ele>915</ele>
        <time>2021-11-06T11:24:46.000Z</time>
      </trkpt>
      <trkpt lat="41.9478270225226879119873046875" lon="-6.91438120789825916290283203125">
        <ele>916.20001220703125</ele>
        <time>2021-11-06T11:24:51.000Z</time>
      </trkpt>
      <trkpt lat="41.94776105694472789764404296875" lon="-6.91443753428757190704345703125">
        <ele>917.20001220703125</ele>
        <time>2021-11-06T11:24:59.000Z</time>
      </trkpt>
      <trkpt lat="41.9477381743490695953369140625" lon="-6.914459578692913055419921875">
        <ele>917.5999755859375</ele>
        <time>2021-11-06T11:25:02.000Z</time>
      </trkpt>
      <trkpt lat="41.94759861566126346588134765625" lon="-6.914640963077545166015625">
        <ele>918.20001220703125</ele>
        <time>2021-11-06T11:25:16.000Z</time>
      </trkpt>
      <trkpt lat="41.9475745595991611480712890625" lon="-6.9146706350147724151611328125">
        <ele>918.20001220703125</ele>
        <time>2021-11-06T11:25:18.000Z</time>
      </trkpt>
      <trkpt lat="41.9474280439317226409912109375" lon="-6.91481463611125946044921875">
        <ele>918</ele>
        <time>2021-11-06T11:25:33.000Z</time>
      </trkpt>
      <trkpt lat="41.947395019233226776123046875" lon="-6.91483098082244396209716796875">
        <ele>918.20001220703125</ele>
        <time>2021-11-06T11:25:36.000Z</time>
      </trkpt>
      <trkpt lat="41.94731530733406543731689453125" lon="-6.9149978645145893096923828125">
        <ele>918.4000244140625</ele>
        <time>2021-11-06T11:25:48.000Z</time>
      </trkpt>
      <trkpt lat="41.94732000119984149932861328125" lon="-6.91501311957836151123046875">
        <ele>918.4000244140625</ele>
        <time>2021-11-06T11:25:50.000Z</time>
      </trkpt>
      <trkpt lat="41.94732067175209522247314453125" lon="-6.915059052407741546630859375">
        <ele>918.4000244140625</ele>
        <time>2021-11-06T11:25:53.000Z</time>
      </trkpt>
      <trkpt lat="41.94739577360451221466064453125" lon="-6.91522543318569660186767578125">
        <ele>919.4000244140625</ele>
        <time>2021-11-06T11:26:11.000Z</time>
      </trkpt>
      <trkpt lat="41.94740599952638149261474609375" lon="-6.915275640785694122314453125">
        <ele>920.20001220703125</ele>
        <time>2021-11-06T11:26:14.000Z</time>
      </trkpt>
      <trkpt lat="41.94742578081786632537841796875" lon="-6.91530053503811359405517578125">
        <ele>920.5999755859375</ele>
        <time>2021-11-06T11:26:16.000Z</time>
      </trkpt>
      <trkpt lat="41.94746634922921657562255859375" lon="-6.91536608152091503143310546875">
        <ele>921.79998779296875</ele>
        <time>2021-11-06T11:26:22.000Z</time>
      </trkpt>
      <trkpt lat="41.9474769942462444305419921875" lon="-6.9154501520097255706787109375">
        <ele>922.79998779296875</ele>
        <time>2021-11-06T11:26:27.000Z</time>
      </trkpt>
      <trkpt lat="41.9474945962429046630859375" lon="-6.91549533046782016754150390625">
        <ele>923.79998779296875</ele>
        <time>2021-11-06T11:26:31.000Z</time>
      </trkpt>
      <trkpt lat="41.94751161150634288787841796875" lon="-6.91553749144077301025390625">
        <ele>925.20001220703125</ele>
        <time>2021-11-06T11:26:35.000Z</time>
      </trkpt>
      <trkpt lat="41.947511695325374603271484375" lon="-6.91554914228618144989013671875">
        <ele>925.4000244140625</ele>
        <time>2021-11-06T11:26:36.000Z</time>
      </trkpt>
      <trkpt lat="41.9475115276873111724853515625" lon="-6.91557764075696468353271484375">
        <ele>926.20001220703125</ele>
        <time>2021-11-06T11:26:38.000Z</time>
      </trkpt>
      <trkpt lat="41.947513706982135772705078125" lon="-6.915623657405376434326171875">
        <ele>927</ele>
        <time>2021-11-06T11:26:41.000Z</time>
      </trkpt>
      <trkpt lat="41.94750792346894741058349609375" lon="-6.91564553417265415191650390625">
        <ele>927.20001220703125</ele>
        <time>2021-11-06T11:26:43.000Z</time>
      </trkpt>
      <trkpt lat="41.94744925014674663543701171875" lon="-6.91573907621204853057861328125">
        <ele>928.20001220703125</ele>
        <time>2021-11-06T11:26:50.000Z</time>
      </trkpt>
      <trkpt lat="41.94738437421619892120361328125" lon="-6.9157860986888408660888671875">
        <ele>929.4000244140625</ele>
        <time>2021-11-06T11:26:56.000Z</time>
      </trkpt>
      <trkpt lat="41.94732628762722015380859375" lon="-6.9158142618834972381591796875">
        <ele>930.4000244140625</ele>
        <time>2021-11-06T11:27:01.000Z</time>
      </trkpt>
      <trkpt lat="41.94726434536278247833251953125" lon="-6.9158373959362506866455078125">
        <ele>931.4000244140625</ele>
        <time>2021-11-06T11:27:07.000Z</time>
      </trkpt>
      <trkpt lat="41.9472416304051876068115234375" lon="-6.9158407486975193023681640625">
        <ele>931.79998779296875</ele>
        <time>2021-11-06T11:27:09.000Z</time>
      </trkpt>
      <trkpt lat="41.9472131319344043731689453125" lon="-6.9158605299890041351318359375">
        <ele>932.5999755859375</ele>
        <time>2021-11-06T11:27:12.000Z</time>
      </trkpt>
      <trkpt lat="41.94716443307697772979736328125" lon="-6.9158890284597873687744140625">
        <ele>933.5999755859375</ele>
        <time>2021-11-06T11:27:17.000Z</time>
      </trkpt>
      <trkpt lat="41.94712453521788120269775390625" lon="-6.915914006531238555908203125">
        <ele>934.79998779296875</ele>
        <time>2021-11-06T11:27:22.000Z</time>
      </trkpt>
      <trkpt lat="41.94705395959317684173583984375" lon="-6.91596186719834804534912109375">
        <ele>936</ele>
        <time>2021-11-06T11:27:29.000Z</time>
      </trkpt>
      <trkpt lat="41.9469952024519443511962890625" lon="-6.9160093925893306732177734375">
        <ele>937.20001220703125</ele>
        <time>2021-11-06T11:27:35.000Z</time>
      </trkpt>
      <trkpt lat="41.94693661294877529144287109375" lon="-6.9160409085452556610107421875">
        <ele>938.20001220703125</ele>
        <time>2021-11-06T11:27:41.000Z</time>
      </trkpt>
      <trkpt lat="41.94692001678049564361572265625" lon="-6.91605155356228351593017578125">
        <ele>938.79998779296875</ele>
        <time>2021-11-06T11:27:43.000Z</time>
      </trkpt>
      <trkpt lat="41.946907527744770050048828125" lon="-6.91606580279767513275146484375">
        <ele>939.4000244140625</ele>
        <time>2021-11-06T11:27:45.000Z</time>
      </trkpt>
      <trkpt lat="41.94686452858150005340576171875" lon="-6.91609798930585384368896484375">
        <ele>940.4000244140625</ele>
        <time>2021-11-06T11:27:49.000Z</time>
      </trkpt>
      <trkpt lat="41.94682831875979900360107421875" lon="-6.916126906871795654296875">
        <ele>941.5999755859375</ele>
        <time>2021-11-06T11:27:53.000Z</time>
      </trkpt>
      <trkpt lat="41.94680099375545978546142578125" lon="-6.91614568233489990234375">
        <ele>942.4000244140625</ele>
        <time>2021-11-06T11:27:56.000Z</time>
      </trkpt>
      <trkpt lat="41.94679378531873226165771484375" lon="-6.91615439951419830322265625">
        <ele>942.5999755859375</ele>
        <time>2021-11-06T11:27:57.000Z</time>
      </trkpt>
      <trkpt lat="41.94676009006798267364501953125" lon="-6.916202008724212646484375">
        <ele>943.79998779296875</ele>
        <time>2021-11-06T11:28:02.000Z</time>
      </trkpt>
      <trkpt lat="41.94670493714511394500732421875" lon="-6.9162581674754619598388671875">
        <ele>944.79998779296875</ele>
        <time>2021-11-06T11:28:08.000Z</time>
      </trkpt>
      <trkpt lat="41.9466612674295902252197265625" lon="-6.916302926838397979736328125">
        <ele>945.79998779296875</ele>
        <time>2021-11-06T11:28:13.000Z</time>
      </trkpt>
      <trkpt lat="41.946590356528759002685546875" lon="-6.91639655269682407379150390625">
        <ele>947</ele>
        <time>2021-11-06T11:28:21.000Z</time>
      </trkpt>
      <trkpt lat="41.9465328566730022430419921875" lon="-6.91644600592553615570068359375">
        <ele>948.20001220703125</ele>
        <time>2021-11-06T11:28:27.000Z</time>
      </trkpt>
      <trkpt lat="41.9464949704706668853759765625" lon="-6.91645572893321514129638671875">
        <ele>949</ele>
        <time>2021-11-06T11:28:32.000Z</time>
      </trkpt>
      <trkpt lat="41.946489773690700531005859375" lon="-6.9164553098380565643310546875">
        <ele>949.20001220703125</ele>
        <time>2021-11-06T11:28:33.000Z</time>
      </trkpt>
      <trkpt lat="41.94648432545363903045654296875" lon="-6.916457824409008026123046875">
        <ele>949.5999755859375</ele>
        <time>2021-11-06T11:28:34.000Z</time>
      </trkpt>
      <trkpt lat="41.94647066295146942138671875" lon="-6.91645321436226367950439453125">
        <ele>950.20001220703125</ele>
        <time>2021-11-06T11:28:37.000Z</time>
      </trkpt>
      <trkpt lat="41.94646085612475872039794921875" lon="-6.91648297011852264404296875">
        <ele>951.20001220703125</ele>
        <time>2021-11-06T11:28:46.000Z</time>
      </trkpt>
      <trkpt lat="41.94646404124796390533447265625" lon="-6.916505433619022369384765625">
        <ele>950.79998779296875</ele>
        <time>2021-11-06T11:30:20.000Z</time>
      </trkpt>
      <trkpt lat="41.94647175259888172149658203125" lon="-6.9165062718093395233154296875">
        <ele>950.4000244140625</ele>
        <time>2021-11-06T11:30:37.000Z</time>
      </trkpt>
      <trkpt lat="41.94647795520722866058349609375" lon="-6.91630686633288860321044921875">
        <ele>953.5999755859375</ele>
        <time>2021-11-06T11:37:34.000Z</time>
      </trkpt>
      <trkpt lat="41.9464829005300998687744140625" lon="-6.916284151375293731689453125">
        <ele>953.79998779296875</ele>
        <time>2021-11-06T11:37:35.000Z</time>
      </trkpt>
      <trkpt lat="41.946484409272670745849609375" lon="-6.916251294314861297607421875">
        <ele>954.5999755859375</ele>
        <time>2021-11-06T11:37:37.000Z</time>
      </trkpt>
      <trkpt lat="41.94648063741624355316162109375" lon="-6.91623528487980365753173828125">
        <ele>954.79998779296875</ele>
        <time>2021-11-06T11:37:38.000Z</time>
      </trkpt>
      <trkpt lat="41.94647711701691150665283203125" lon="-6.9160697422921657562255859375">
        <ele>956</ele>
        <time>2021-11-06T11:38:05.000Z</time>
      </trkpt>
      <trkpt lat="41.94646622054278850555419921875" lon="-6.91597142256796360015869140625">
        <ele>957</ele>
        <time>2021-11-06T11:38:13.000Z</time>
      </trkpt>
      <trkpt lat="41.946447528898715972900390625" lon="-6.91588215529918670654296875">
        <ele>958</ele>
        <time>2021-11-06T11:38:19.000Z</time>
      </trkpt>
      <trkpt lat="41.94644643925130367279052734375" lon="-6.91581568680703639984130859375">
        <ele>958.5999755859375</ele>
        <time>2021-11-06T11:38:24.000Z</time>
      </trkpt>
      <trkpt lat="41.94643772207200527191162109375" lon="-6.91577277146279811859130859375">
        <ele>959.20001220703125</ele>
        <time>2021-11-06T11:38:27.000Z</time>
      </trkpt>
      <trkpt lat="41.94643755443394184112548828125" lon="-6.91576321609318256378173828125">
        <ele>959.4000244140625</ele>
        <time>2021-11-06T11:38:28.000Z</time>
      </trkpt>
      <trkpt lat="41.94643621332943439483642578125" lon="-6.915720216929912567138671875">
        <ele>960</ele>
        <time>2021-11-06T11:38:32.000Z</time>
      </trkpt>
      <trkpt lat="41.9464359618723392486572265625" lon="-6.915691383183002471923828125">
        <ele>960.20001220703125</ele>
        <time>2021-11-06T11:38:34.000Z</time>
      </trkpt>
      <trkpt lat="41.94643353112041950225830078125" lon="-6.91555333323776721954345703125">
        <ele>961.20001220703125</ele>
        <time>2021-11-06T11:38:45.000Z</time>
      </trkpt>
      <trkpt lat="41.94642162881791591644287109375" lon="-6.91544889472424983978271484375">
        <ele>962.4000244140625</ele>
        <time>2021-11-06T11:38:53.000Z</time>
      </trkpt>
      <trkpt lat="41.94639581255614757537841796875" lon="-6.9153260998427867889404296875">
        <ele>963.4000244140625</ele>
        <time>2021-11-06T11:39:01.000Z</time>
      </trkpt>
      <trkpt lat="41.9463575072586536407470703125" lon="-6.9151782430708408355712890625">
        <ele>963.4000244140625</ele>
        <time>2021-11-06T11:39:10.000Z</time>
      </trkpt>
      <trkpt lat="41.94635105319321155548095703125" lon="-6.91515234299004077911376953125">
        <ele>963.4000244140625</ele>
        <time>2021-11-06T11:39:12.000Z</time>
      </trkpt>
      <trkpt lat="41.9462361373007297515869140625" lon="-6.914959810674190521240234375">
        <ele>963.79998779296875</ele>
        <time>2021-11-06T11:39:26.000Z</time>
      </trkpt>
      <trkpt lat="41.94621375761926174163818359375" lon="-6.91488143987953662872314453125">
        <ele>964.4000244140625</ele>
        <time>2021-11-06T11:39:32.000Z</time>
      </trkpt>
      <trkpt lat="41.9462126679718494415283203125" lon="-6.91485445015132427215576171875">
        <ele>964.79998779296875</ele>
        <time>2021-11-06T11:39:35.000Z</time>
      </trkpt>
      <trkpt lat="41.94621107541024684906005859375" lon="-6.91482461057603359222412109375">
        <ele>965</ele>
        <time>2021-11-06T11:39:38.000Z</time>
      </trkpt>
      <trkpt lat="41.94622918032109737396240234375" lon="-6.91479183733463287353515625">
        <ele>965.20001220703125</ele>
        <time>2021-11-06T11:39:40.000Z</time>
      </trkpt>
      <trkpt lat="41.94623772986233234405517578125" lon="-6.91476107574999332427978515625">
        <ele>965.4000244140625</ele>
        <time>2021-11-06T11:39:42.000Z</time>
      </trkpt>
      <trkpt lat="41.9462592713534832000732421875" lon="-6.91469930112361907958984375">
        <ele>966</ele>
        <time>2021-11-06T11:39:46.000Z</time>
      </trkpt>
      <trkpt lat="41.9463611952960491180419921875" lon="-6.91448614932596683502197265625">
        <ele>966</ele>
        <time>2021-11-06T11:40:02.000Z</time>
      </trkpt>
      <trkpt lat="41.94637686945497989654541015625" lon="-6.9144131429493427276611328125">
        <ele>966.20001220703125</ele>
        <time>2021-11-06T11:40:07.000Z</time>
      </trkpt>
      <trkpt lat="41.94639447145164012908935546875" lon="-6.9143568165600299835205078125">
        <ele>966.20001220703125</ele>
        <time>2021-11-06T11:40:11.000Z</time>
      </trkpt>
      <trkpt lat="41.946393884718418121337890625" lon="-6.91434524953365325927734375">
        <ele>966.4000244140625</ele>
        <time>2021-11-06T11:40:13.000Z</time>
      </trkpt>
      <trkpt lat="41.94641743786633014678955078125" lon="-6.9142706505954265594482421875">
        <ele>966.20001220703125</ele>
        <time>2021-11-06T11:40:22.000Z</time>
      </trkpt>
      <trkpt lat="41.9464265741407871246337890625" lon="-6.914247684180736541748046875">
        <ele>966.5999755859375</ele>
        <time>2021-11-06T11:40:24.000Z</time>
      </trkpt>
      <trkpt lat="41.94643420167267322540283203125" lon="-6.9142273999750614166259765625">
        <ele>966.5999755859375</ele>
        <time>2021-11-06T11:40:26.000Z</time>
      </trkpt>
      <trkpt lat="41.94645331241190433502197265625" lon="-6.91418155096471309661865234375">
        <ele>967.4000244140625</ele>
        <time>2021-11-06T11:40:30.000Z</time>
      </trkpt>
      <trkpt lat="41.9464604370296001434326171875" lon="-6.914168559014797210693359375">
        <ele>967.5999755859375</ele>
        <time>2021-11-06T11:40:31.000Z</time>
      </trkpt>
      <trkpt lat="41.946479715406894683837890625" lon="-6.9141056947410106658935546875">
        <ele>968.5999755859375</ele>
        <time>2021-11-06T11:40:37.000Z</time>
      </trkpt>
      <trkpt lat="41.946480385959148406982421875" lon="-6.914097480475902557373046875">
        <ele>968.5999755859375</ele>
        <time>2021-11-06T11:40:38.000Z</time>
      </trkpt>
      <trkpt lat="41.9464986585080623626708984375" lon="-6.9140218757092952728271484375">
        <ele>969.4000244140625</ele>
        <time>2021-11-06T11:40:46.000Z</time>
      </trkpt>
      <trkpt lat="41.94650058634579181671142578125" lon="-6.9140000827610492706298828125">
        <ele>969.5999755859375</ele>
        <time>2021-11-06T11:40:48.000Z</time>
      </trkpt>
      <trkpt lat="41.9465155899524688720703125" lon="-6.91392925567924976348876953125">
        <ele>970.79998779296875</ele>
        <time>2021-11-06T11:40:55.000Z</time>
      </trkpt>
      <trkpt lat="41.9465196132659912109375" lon="-6.91389539279043674468994140625">
        <ele>971.5999755859375</ele>
        <time>2021-11-06T11:40:59.000Z</time>
      </trkpt>
      <trkpt lat="41.9465410709381103515625" lon="-6.9138644635677337646484375">
        <ele>972</ele>
        <time>2021-11-06T11:41:03.000Z</time>
      </trkpt>
      <trkpt lat="41.946554146707057952880859375" lon="-6.9138354621827602386474609375">
        <ele>972.5999755859375</ele>
        <time>2021-11-06T11:41:07.000Z</time>
      </trkpt>
      <trkpt lat="41.94655775092542171478271484375" lon="-6.91381727345287799835205078125">
        <ele>973.20001220703125</ele>
        <time>2021-11-06T11:41:09.000Z</time>
      </trkpt>
      <trkpt lat="41.94657015614211559295654296875" lon="-6.91377653740346431732177734375">
        <ele>974.20001220703125</ele>
        <time>2021-11-06T11:41:13.000Z</time>
      </trkpt>
      <trkpt lat="41.94658490829169750213623046875" lon="-6.913752816617488861083984375">
        <ele>975.20001220703125</ele>
        <time>2021-11-06T11:41:17.000Z</time>
      </trkpt>
      <trkpt lat="41.9465861655771732330322265625" lon="-6.91369481384754180908203125">
        <ele>976.20001220703125</ele>
        <time>2021-11-06T11:41:24.000Z</time>
      </trkpt>
      <trkpt lat="41.94660301320254802703857421875" lon="-6.91362784244120121002197265625">
        <ele>977.4000244140625</ele>
        <time>2021-11-06T11:41:31.000Z</time>
      </trkpt>
      <trkpt lat="41.94660385139286518096923828125" lon="-6.91359297372400760650634765625">
        <ele>977.79998779296875</ele>
        <time>2021-11-06T11:41:34.000Z</time>
      </trkpt>
      <trkpt lat="41.94659982807934284210205078125" lon="-6.91355139948427677154541015625">
        <ele>978.4000244140625</ele>
        <time>2021-11-06T11:41:38.000Z</time>
      </trkpt>
      <trkpt lat="41.94660167209804058074951171875" lon="-6.91353329457342624664306640625">
        <ele>978.79998779296875</ele>
        <time>2021-11-06T11:41:40.000Z</time>
      </trkpt>
      <trkpt lat="41.9466190226376056671142578125" lon="-6.9135260023176670074462890625">
        <ele>979.20001220703125</ele>
        <time>2021-11-06T11:41:42.000Z</time>
      </trkpt>
      <trkpt lat="41.9466260634362697601318359375" lon="-6.91351820714771747589111328125">
        <ele>979.4000244140625</ele>
        <time>2021-11-06T11:41:44.000Z</time>
      </trkpt>
      <trkpt lat="41.946637630462646484375" lon="-6.9134460389614105224609375">
        <ele>980.5999755859375</ele>
        <time>2021-11-06T11:41:51.000Z</time>
      </trkpt>
      <trkpt lat="41.9466448388993740081787109375" lon="-6.91339281387627124786376953125">
        <ele>981.5999755859375</ele>
        <time>2021-11-06T11:41:56.000Z</time>
      </trkpt>
      <trkpt lat="41.9466599263250827789306640625" lon="-6.91334352828562259674072265625">
        <ele>982.5999755859375</ele>
        <time>2021-11-06T11:42:01.000Z</time>
      </trkpt>
      <trkpt lat="41.94666973315179347991943359375" lon="-6.91332810558378696441650390625">
        <ele>983</ele>
        <time>2021-11-06T11:42:03.000Z</time>
      </trkpt>
      <trkpt lat="41.94667174480855464935302734375" lon="-6.9133107550442218780517578125">
        <ele>983.4000244140625</ele>
        <time>2021-11-06T11:42:05.000Z</time>
      </trkpt>
      <trkpt lat="41.94667861796915531158447265625" lon="-6.91329181194305419921875">
        <ele>983.5999755859375</ele>
        <time>2021-11-06T11:42:07.000Z</time>
      </trkpt>
      <trkpt lat="41.9466830603778362274169921875" lon="-6.9132772274315357208251953125">
        <ele>984</ele>
        <time>2021-11-06T11:42:09.000Z</time>
      </trkpt>
      <trkpt lat="41.94669337011873722076416015625" lon="-6.91325493156909942626953125">
        <ele>984.79998779296875</ele>
        <time>2021-11-06T11:42:12.000Z</time>
      </trkpt>
      <trkpt lat="41.9467061944305896759033203125" lon="-6.91320757381618022918701171875">
        <ele>986</ele>
        <time>2021-11-06T11:42:17.000Z</time>
      </trkpt>
      <trkpt lat="41.94670091383159160614013671875" lon="-6.91318695433437824249267578125">
        <ele>986.4000244140625</ele>
        <time>2021-11-06T11:42:19.000Z</time>
      </trkpt>
      <trkpt lat="41.94670527242124080657958984375" lon="-6.913172788918018341064453125">
        <ele>987</ele>
        <time>2021-11-06T11:42:24.000Z</time>
      </trkpt>
      <trkpt lat="41.94669990800321102142333984375" lon="-6.9131119363009929656982421875">
        <ele>988</ele>
        <time>2021-11-06T11:42:34.000Z</time>
      </trkpt>
      <trkpt lat="41.94669722579419612884521484375" lon="-6.913044713437557220458984375">
        <ele>989.20001220703125</ele>
        <time>2021-11-06T11:42:40.000Z</time>
      </trkpt>
      <trkpt lat="41.94670326076447963714599609375" lon="-6.9130274467170238494873046875">
        <ele>989.5999755859375</ele>
        <time>2021-11-06T11:42:42.000Z</time>
      </trkpt>
      <trkpt lat="41.94671717472374439239501953125" lon="-6.91298805177211761474609375">
        <ele>990.20001220703125</ele>
        <time>2021-11-06T11:42:46.000Z</time>
      </trkpt>
      <trkpt lat="41.94671549834311008453369140625" lon="-6.91296433098614215850830078125">
        <ele>990.4000244140625</ele>
        <time>2021-11-06T11:42:48.000Z</time>
      </trkpt>
      <trkpt lat="41.94672035984694957733154296875" lon="-6.912931390106678009033203125">
        <ele>991</ele>
        <time>2021-11-06T11:42:51.000Z</time>
      </trkpt>
      <trkpt lat="41.94672320969402790069580078125" lon="-6.91292175091803073883056640625">
        <ele>991.4000244140625</ele>
        <time>2021-11-06T11:42:52.000Z</time>
      </trkpt>
      <trkpt lat="41.9467383809387683868408203125" lon="-6.91289342008531093597412109375">
        <ele>991.79998779296875</ele>
        <time>2021-11-06T11:42:55.000Z</time>
      </trkpt>
      <trkpt lat="41.94675640203058719635009765625" lon="-6.91285838373005390167236328125">
        <ele>992.4000244140625</ele>
        <time>2021-11-06T11:42:59.000Z</time>
      </trkpt>
      <trkpt lat="41.94677165709435939788818359375" lon="-6.91279099322855472564697265625">
        <ele>992.79998779296875</ele>
        <time>2021-11-06T11:43:05.000Z</time>
      </trkpt>
      <trkpt lat="41.94677283056080341339111328125" lon="-6.9127712957561016082763671875">
        <ele>993.20001220703125</ele>
        <time>2021-11-06T11:43:07.000Z</time>
      </trkpt>
      <trkpt lat="41.94677836261689662933349609375" lon="-6.91276299767196178436279296875">
        <ele>993.4000244140625</ele>
        <time>2021-11-06T11:43:09.000Z</time>
      </trkpt>
      <trkpt lat="41.9467916898429393768310546875" lon="-6.9127381034195423126220703125">
        <ele>993.5999755859375</ele>
        <time>2021-11-06T11:43:12.000Z</time>
      </trkpt>
      <trkpt lat="41.94680116139352321624755859375" lon="-6.9126730598509311676025390625">
        <ele>994.5999755859375</ele>
        <time>2021-11-06T11:43:18.000Z</time>
      </trkpt>
      <trkpt lat="41.9468104653060436248779296875" lon="-6.91264447756111621856689453125">
        <ele>995</ele>
        <time>2021-11-06T11:43:21.000Z</time>
      </trkpt>
      <trkpt lat="41.94681859575212001800537109375" lon="-6.91261296160519123077392578125">
        <ele>995.5999755859375</ele>
        <time>2021-11-06T11:43:26.000Z</time>
      </trkpt>
      <trkpt lat="41.9468258880078792572021484375" lon="-6.912540458142757415771484375">
        <ele>996.79998779296875</ele>
        <time>2021-11-06T11:43:35.000Z</time>
      </trkpt>
      <trkpt lat="41.9468349404633045196533203125" lon="-6.912497542798519134521484375">
        <ele>997.79998779296875</ele>
        <time>2021-11-06T11:43:40.000Z</time>
      </trkpt>
      <trkpt lat="41.94682261906564235687255859375" lon="-6.9124321639537811279296875">
        <ele>999</ele>
        <time>2021-11-06T11:43:47.000Z</time>
      </trkpt>
      <trkpt lat="41.94679965265095233917236328125" lon="-6.912386231124401092529296875">
        <ele>1000</ele>
        <time>2021-11-06T11:43:52.000Z</time>
      </trkpt>
      <trkpt lat="41.94678171537816524505615234375" lon="-6.91234960220754146575927734375">
        <ele>1001</ele>
        <time>2021-11-06T11:43:57.000Z</time>
      </trkpt>
      <trkpt lat="41.94676126353442668914794921875" lon="-6.912299729883670806884765625">
        <ele>1002</ele>
        <time>2021-11-06T11:44:03.000Z</time>
      </trkpt>
      <trkpt lat="41.94674131460487842559814453125" lon="-6.9122569821774959564208984375">
        <ele>1003</ele>
        <time>2021-11-06T11:44:08.000Z</time>
      </trkpt>
      <trkpt lat="41.94672287441790103912353515625" lon="-6.912205852568149566650390625">
        <ele>1004.20001220703125</ele>
        <time>2021-11-06T11:44:15.000Z</time>
      </trkpt>
      <trkpt lat="41.9467108882963657379150390625" lon="-6.91215044818818569183349609375">
        <ele>1005.20001220703125</ele>
        <time>2021-11-06T11:44:21.000Z</time>
      </trkpt>
      <trkpt lat="41.946681551635265350341796875" lon="-6.91209294833242893218994140625">
        <ele>1006.4000244140625</ele>
        <time>2021-11-06T11:44:28.000Z</time>
      </trkpt>
      <trkpt lat="41.94666671566665172576904296875" lon="-6.9120517931878566741943359375">
        <ele>1007.5999755859375</ele>
        <time>2021-11-06T11:44:33.000Z</time>
      </trkpt>
      <trkpt lat="41.94666453637182712554931640625" lon="-6.91201449371874332427978515625">
        <ele>1008.4000244140625</ele>
        <time>2021-11-06T11:44:37.000Z</time>
      </trkpt>
      <trkpt lat="41.94665246643126010894775390625" lon="-6.91199856810271739959716796875">
        <ele>1008.79998779296875</ele>
        <time>2021-11-06T11:44:39.000Z</time>
      </trkpt>
      <trkpt lat="41.94664492271840572357177734375" lon="-6.9119284115731716156005859375">
        <ele>1009.5999755859375</ele>
        <time>2021-11-06T11:44:46.000Z</time>
      </trkpt>
      <trkpt lat="41.94664458744227886199951171875" lon="-6.9119109772145748138427734375">
        <ele>1010</ele>
        <time>2021-11-06T11:44:48.000Z</time>
      </trkpt>
      <trkpt lat="41.94662933237850666046142578125" lon="-6.91185993142426013946533203125">
        <ele>1011</ele>
        <time>2021-11-06T11:44:54.000Z</time>
      </trkpt>
      <trkpt lat="41.94659479893743991851806640625" lon="-6.91179589368402957916259765625">
        <ele>1012.20001220703125</ele>
        <time>2021-11-06T11:45:01.000Z</time>
      </trkpt>
      <trkpt lat="41.946578286588191986083984375" lon="-6.91171534359455108642578125">
        <ele>1013.20001220703125</ele>
        <time>2021-11-06T11:45:08.000Z</time>
      </trkpt>
      <trkpt lat="41.94657803513109683990478515625" lon="-6.91168449819087982177734375">
        <ele>1013.5999755859375</ele>
        <time>2021-11-06T11:45:11.000Z</time>
      </trkpt>
      <trkpt lat="41.9465948827564716339111328125" lon="-6.91167016513645648956298828125">
        <ele>1014.20001220703125</ele>
        <time>2021-11-06T11:45:21.000Z</time>
      </trkpt>
      <trkpt lat="41.9465630315244197845458984375" lon="-6.91159439273178577423095703125">
        <ele>1014.79998779296875</ele>
        <time>2021-11-06T11:45:32.000Z</time>
      </trkpt>
      <trkpt lat="41.9465472735464572906494140625" lon="-6.9115750305354595184326171875">
        <ele>1015</ele>
        <time>2021-11-06T11:45:34.000Z</time>
      </trkpt>
      <trkpt lat="41.9465217925608158111572265625" lon="-6.91153354011476039886474609375">
        <ele>1015.20001220703125</ele>
        <time>2021-11-06T11:45:38.000Z</time>
      </trkpt>
      <trkpt lat="41.9465147517621517181396484375" lon="-6.91149045713245868682861328125">
        <ele>1015.5999755859375</ele>
        <time>2021-11-06T11:45:42.000Z</time>
      </trkpt>
      <trkpt lat="41.94650980643928050994873046875" lon="-6.91141669638454914093017578125">
        <ele>1016.20001220703125</ele>
        <time>2021-11-06T11:45:49.000Z</time>
      </trkpt>
      <trkpt lat="41.9465083815157413482666015625" lon="-6.91141367889940738677978515625">
        <ele>1016.4000244140625</ele>
        <time>2021-11-06T11:45:50.000Z</time>
      </trkpt>
      <trkpt lat="41.946459598839282989501953125" lon="-6.9113084860146045684814453125">
        <ele>1017.4000244140625</ele>
        <time>2021-11-06T11:46:05.000Z</time>
      </trkpt>
      <trkpt lat="41.9464134983718395233154296875" lon="-6.9112400896847248077392578125">
        <ele>1018.4000244140625</ele>
        <time>2021-11-06T11:46:10.000Z</time>
      </trkpt>
      <trkpt lat="41.946351639926433563232421875" lon="-6.91114562563598155975341796875">
        <ele>1019.4000244140625</ele>
        <time>2021-11-06T11:46:18.000Z</time>
      </trkpt>
      <trkpt lat="41.94629573263227939605712890625" lon="-6.911057196557521820068359375">
        <ele>1020.4000244140625</ele>
        <time>2021-11-06T11:46:27.000Z</time>
      </trkpt>
      <trkpt lat="41.9462559185922145843505859375" lon="-6.91098653711378574371337890625">
        <ele>1021.5999755859375</ele>
        <time>2021-11-06T11:46:36.000Z</time>
      </trkpt>
      <trkpt lat="41.9461848400533199310302734375" lon="-6.91092786379158496856689453125">
        <ele>1022.5999755859375</ele>
        <time>2021-11-06T11:46:44.000Z</time>
      </trkpt>
      <trkpt lat="41.94611719809472560882568359375" lon="-6.91086851991713047027587890625">
        <ele>1023.5999755859375</ele>
        <time>2021-11-06T11:46:53.000Z</time>
      </trkpt>
      <trkpt lat="41.94607780314981937408447265625" lon="-6.91081772558391094207763671875">
        <ele>1024.800048828125</ele>
        <time>2021-11-06T11:47:01.000Z</time>
      </trkpt>
      <trkpt lat="41.9460131786763668060302734375" lon="-6.91079534590244293212890625">
        <ele>1025.800048828125</ele>
        <time>2021-11-06T11:47:08.000Z</time>
      </trkpt>
      <trkpt lat="41.94595810957252979278564453125" lon="-6.91074765287339687347412109375">
        <ele>1026.800048828125</ele>
        <time>2021-11-06T11:47:14.000Z</time>
      </trkpt>
      <trkpt lat="41.94588518701493740081787109375" lon="-6.91067808307707309722900390625">
        <ele>1028</ele>
        <time>2021-11-06T11:47:22.000Z</time>
      </trkpt>
      <trkpt lat="41.94580170325934886932373046875" lon="-6.91059007309377193450927734375">
        <ele>1029</ele>
        <time>2021-11-06T11:47:31.000Z</time>
      </trkpt>
      <trkpt lat="41.94573129527270793914794921875" lon="-6.910544224083423614501953125">
        <ele>1030</ele>
        <time>2021-11-06T11:47:40.000Z</time>
      </trkpt>
      <trkpt lat="41.9456893019378185272216796875" lon="-6.91054145805537700653076171875">
        <ele>1030.4000244140625</ele>
        <time>2021-11-06T11:47:46.000Z</time>
      </trkpt>
      <trkpt lat="41.945681087672710418701171875" lon="-6.9105521030724048614501953125">
        <ele>1030.4000244140625</ele>
        <time>2021-11-06T11:47:48.000Z</time>
      </trkpt>
      <trkpt lat="41.94568133912980556488037109375" lon="-6.9105735607445240020751953125">
        <ele>1031.199951171875</ele>
        <time>2021-11-06T11:47:51.000Z</time>
      </trkpt>
      <trkpt lat="41.94570413790643215179443359375" lon="-6.9106335751712322235107421875">
        <ele>1032.199951171875</ele>
        <time>2021-11-06T11:47:56.000Z</time>
      </trkpt>
      <trkpt lat="41.9457216560840606689453125" lon="-6.91066416911780834197998046875">
        <ele>1032.800048828125</ele>
        <time>2021-11-06T11:47:59.000Z</time>
      </trkpt>
      <trkpt lat="41.94573196582496166229248046875" lon="-6.9107046537101268768310546875">
        <ele>1033.199951171875</ele>
        <time>2021-11-06T11:48:02.000Z</time>
      </trkpt>
      <trkpt lat="41.94573565386235713958740234375" lon="-6.910714544355869293212890625">
        <ele>1033.4000244140625</ele>
        <time>2021-11-06T11:48:03.000Z</time>
      </trkpt>
      <trkpt lat="41.9457731209695339202880859375" lon="-6.91078729927539825439453125">
        <ele>1034.199951171875</ele>
        <time>2021-11-06T11:48:09.000Z</time>
      </trkpt>
      <trkpt lat="41.9458128511905670166015625" lon="-6.91103330813348293304443359375">
        <ele>1035.4000244140625</ele>
        <time>2021-11-06T11:48:27.000Z</time>
      </trkpt>
      <trkpt lat="41.94581109099090099334716796875" lon="-6.91124587319791316986083984375">
        <ele>1036.4000244140625</ele>
        <time>2021-11-06T11:48:42.000Z</time>
      </trkpt>
      <trkpt lat="41.9457784853875637054443359375" lon="-6.911377049982547760009765625">
        <ele>1037.4000244140625</ele>
        <time>2021-11-06T11:48:51.000Z</time>
      </trkpt>
      <trkpt lat="41.94576524198055267333984375" lon="-6.91148039884865283966064453125">
        <ele>1038.5999755859375</ele>
        <time>2021-11-06T11:48:59.000Z</time>
      </trkpt>
      <trkpt lat="41.94576314650475978851318359375" lon="-6.91156405024230480194091796875">
        <ele>1039.800048828125</ele>
        <time>2021-11-06T11:49:07.000Z</time>
      </trkpt>
      <trkpt lat="41.94575761444866657257080078125" lon="-6.9116615317761898040771484375">
        <ele>1040.800048828125</ele>
        <time>2021-11-06T11:49:14.000Z</time>
      </trkpt>
      <trkpt lat="41.94574051536619663238525390625" lon="-6.911761946976184844970703125">
        <ele>1041.800048828125</ele>
        <time>2021-11-06T11:49:21.000Z</time>
      </trkpt>
      <trkpt lat="41.94560221396386623382568359375" lon="-6.911929585039615631103515625">
        <ele>1041.800048828125</ele>
        <time>2021-11-06T11:49:38.000Z</time>
      </trkpt>
      <trkpt lat="41.94559131748974323272705078125" lon="-6.91193218342959880828857421875">
        <ele>1042</ele>
        <time>2021-11-06T11:49:39.000Z</time>
      </trkpt>
      <trkpt lat="41.94551621563732624053955078125" lon="-6.91195867024362087249755859375">
        <ele>1042.800048828125</ele>
        <time>2021-11-06T11:49:46.000Z</time>
      </trkpt>
      <trkpt lat="41.94544295780360698699951171875" lon="-6.9119760207831859588623046875">
        <ele>1043.800048828125</ele>
        <time>2021-11-06T11:49:54.000Z</time>
      </trkpt>
      <trkpt lat="41.94537908770143985748291015625" lon="-6.91199295222759246826171875">
        <ele>1045</ele>
        <time>2021-11-06T11:50:02.000Z</time>
      </trkpt>
      <trkpt lat="41.94532242603600025177001953125" lon="-6.9120273180305957794189453125">
        <ele>1046</ele>
        <time>2021-11-06T11:50:09.000Z</time>
      </trkpt>
      <trkpt lat="41.94527246989309787750244140625" lon="-6.91205740906298160552978515625">
        <ele>1047</ele>
        <time>2021-11-06T11:50:16.000Z</time>
      </trkpt>
      <trkpt lat="41.94523290731012821197509765625" lon="-6.91209848038852214813232421875">
        <ele>1048.199951171875</ele>
        <time>2021-11-06T11:50:22.000Z</time>
      </trkpt>
      <trkpt lat="41.9452013075351715087890625" lon="-6.91214072518050670623779296875">
        <ele>1049</ele>
        <time>2021-11-06T11:50:27.000Z</time>
      </trkpt>
      <trkpt lat="41.94520122371613979339599609375" lon="-6.9121478497982025146484375">
        <ele>1049.199951171875</ele>
        <time>2021-11-06T11:50:28.000Z</time>
      </trkpt>
      <trkpt lat="41.945195607841014862060546875" lon="-6.91216268576681613922119140625">
        <ele>1049.4000244140625</ele>
        <time>2021-11-06T11:50:30.000Z</time>
      </trkpt>
      <trkpt lat="41.94516350515186786651611328125" lon="-6.91220493055880069732666015625">
        <ele>1050.199951171875</ele>
        <time>2021-11-06T11:50:35.000Z</time>
      </trkpt>
      <trkpt lat="41.9451099447906017303466796875" lon="-6.91223778761923313140869140625">
        <ele>1051.4000244140625</ele>
        <time>2021-11-06T11:50:42.000Z</time>
      </trkpt>
      <trkpt lat="41.94510231725871562957763671875" lon="-6.91223829053342342376708984375">
        <ele>1051.5999755859375</ele>
        <time>2021-11-06T11:50:43.000Z</time>
      </trkpt>
      <trkpt lat="41.9450884871184825897216796875" lon="-6.91225069575011730194091796875">
        <ele>1051.800048828125</ele>
        <time>2021-11-06T11:50:45.000Z</time>
      </trkpt>
      <trkpt lat="41.9450636766850948333740234375" lon="-6.9122593291103839874267578125">
        <ele>1052.4000244140625</ele>
        <time>2021-11-06T11:50:48.000Z</time>
      </trkpt>
      <trkpt lat="41.9449959509074687957763671875" lon="-6.91229897551238536834716796875">
        <ele>1053.5999755859375</ele>
        <time>2021-11-06T11:50:56.000Z</time>
      </trkpt>
      <trkpt lat="41.94490517489612102508544921875" lon="-6.91232311539351940155029296875">
        <ele>1054.5999755859375</ele>
        <time>2021-11-06T11:51:06.000Z</time>
      </trkpt>
      <trkpt lat="41.9448189251124858856201171875" lon="-6.91235211677849292755126953125">
        <ele>1055.5999755859375</ele>
        <time>2021-11-06T11:51:16.000Z</time>
      </trkpt>
      <trkpt lat="41.944722197949886322021484375" lon="-6.91243375651538372039794921875">
        <ele>1056.5999755859375</ele>
        <time>2021-11-06T11:51:28.000Z</time>
      </trkpt>
      <trkpt lat="41.94465355016291141510009765625" lon="-6.9124729000031948089599609375">
        <ele>1057.5999755859375</ele>
        <time>2021-11-06T11:51:36.000Z</time>
      </trkpt>
      <trkpt lat="41.9446492753922939300537109375" lon="-6.91247952170670032501220703125">
        <ele>1057.800048828125</ele>
        <time>2021-11-06T11:51:37.000Z</time>
      </trkpt>
      <trkpt lat="41.9446177594363689422607421875" lon="-6.91252562217414379119873046875">
        <ele>1058</ele>
        <time>2021-11-06T11:51:42.000Z</time>
      </trkpt>
      <trkpt lat="41.9445245526731014251708984375" lon="-6.91261388361454010009765625">
        <ele>1058.800048828125</ele>
        <time>2021-11-06T11:51:51.000Z</time>
      </trkpt>
      <trkpt lat="41.9444340281188488006591796875" lon="-6.91268806345760822296142578125">
        <ele>1059.800048828125</ele>
        <time>2021-11-06T11:52:00.000Z</time>
      </trkpt>
      <trkpt lat="41.944319866597652435302734375" lon="-6.912767775356769561767578125">
        <ele>1060.4000244140625</ele>
        <time>2021-11-06T11:52:12.000Z</time>
      </trkpt>
      <trkpt lat="41.9442801363766193389892578125" lon="-6.91277758218348026275634765625">
        <ele>1061</ele>
        <time>2021-11-06T11:52:16.000Z</time>
      </trkpt>
      <trkpt lat="41.94416798651218414306640625" lon="-6.91273064352571964263916015625">
        <ele>1061.800048828125</ele>
        <time>2021-11-06T11:52:27.000Z</time>
      </trkpt>
      <trkpt lat="41.9441611133515834808349609375" lon="-6.9127159751951694488525390625">
        <ele>1062</ele>
        <time>2021-11-06T11:52:29.000Z</time>
      </trkpt>
      <trkpt lat="41.9441570900380611419677734375" lon="-6.9126985408365726470947265625">
        <ele>1062.199951171875</ele>
        <time>2021-11-06T11:52:31.000Z</time>
      </trkpt>
      <trkpt lat="41.94415298290550708770751953125" lon="-6.912662498652935028076171875">
        <ele>1062.4000244140625</ele>
        <time>2021-11-06T11:52:34.000Z</time>
      </trkpt>
      <trkpt lat="41.944150887429714202880859375" lon="-6.9126415438950061798095703125">
        <ele>1062.5999755859375</ele>
        <time>2021-11-06T11:52:36.000Z</time>
      </trkpt>
      <trkpt lat="41.94414476864039897918701171875" lon="-6.91258169710636138916015625">
        <ele>1063.199951171875</ele>
        <time>2021-11-06T11:52:40.000Z</time>
      </trkpt>
      <trkpt lat="41.94412616081535816192626953125" lon="-6.9124826230108737945556640625">
        <ele>1064.199951171875</ele>
        <time>2021-11-06T11:52:48.000Z</time>
      </trkpt>
      <trkpt lat="41.94413789547979831695556640625" lon="-6.91240794025361537933349609375">
        <ele>1065</ele>
        <time>2021-11-06T11:52:55.000Z</time>
      </trkpt>
      <trkpt lat="41.944146193563938140869140625" lon="-6.91235949285328388214111328125">
        <ele>1065.4000244140625</ele>
        <time>2021-11-06T11:52:59.000Z</time>
      </trkpt>
      <trkpt lat="41.94414627738296985626220703125" lon="-6.91226519644260406494140625">
        <ele>1066.4000244140625</ele>
        <time>2021-11-06T11:53:07.000Z</time>
      </trkpt>
      <trkpt lat="41.94414250552654266357421875" lon="-6.91213720478117465972900390625">
        <ele>1067.4000244140625</ele>
        <time>2021-11-06T11:53:17.000Z</time>
      </trkpt>
      <trkpt lat="41.94414074532687664031982421875" lon="-6.9120481051504611968994140625">
        <ele>1068.4000244140625</ele>
        <time>2021-11-06T11:53:24.000Z</time>
      </trkpt>
      <trkpt lat="41.9441430084407329559326171875" lon="-6.9120360352098941802978515625">
        <ele>1068.5999755859375</ele>
        <time>2021-11-06T11:53:25.000Z</time>
      </trkpt>
      <trkpt lat="41.944146864116191864013671875" lon="-6.91192497499287128448486328125">
        <ele>1069.5999755859375</ele>
        <time>2021-11-06T11:53:33.000Z</time>
      </trkpt>
      <trkpt lat="41.944154240190982818603515625" lon="-6.91184685565531253814697265625">
        <ele>1070.800048828125</ele>
        <time>2021-11-06T11:53:40.000Z</time>
      </trkpt>
      <trkpt lat="41.94418768398463726043701171875" lon="-6.9117805548012256622314453125">
        <ele>1071.5999755859375</ele>
        <time>2021-11-06T11:53:46.000Z</time>
      </trkpt>
      <trkpt lat="41.94419707171618938446044921875" lon="-6.9117436744272708892822265625">
        <ele>1071.800048828125</ele>
        <time>2021-11-06T11:53:50.000Z</time>
      </trkpt>
      <trkpt lat="41.9442040286958217620849609375" lon="-6.91158265806734561920166015625">
        <ele>1072.800048828125</ele>
        <time>2021-11-06T11:54:02.000Z</time>
      </trkpt>
      <trkpt lat="41.9441993348300457000732421875" lon="-6.911569498479366302490234375">
        <ele>1073</ele>
        <time>2021-11-06T11:54:03.000Z</time>
      </trkpt>
      <trkpt lat="41.944186426699161529541015625" lon="-6.91152222454547882080078125">
        <ele>1073.5999755859375</ele>
        <time>2021-11-06T11:54:08.000Z</time>
      </trkpt>
      <trkpt lat="41.94418516941368579864501953125" lon="-6.9114989228546619415283203125">
        <ele>1074</ele>
        <time>2021-11-06T11:54:10.000Z</time>
      </trkpt>
      <trkpt lat="41.944116689264774322509765625" lon="-6.91135215573012828826904296875">
        <ele>1075</ele>
        <time>2021-11-06T11:54:22.000Z</time>
      </trkpt>
      <trkpt lat="41.94404460489749908447265625" lon="-6.91119256429374217987060546875">
        <ele>1076.199951171875</ele>
        <time>2021-11-06T11:54:34.000Z</time>
      </trkpt>
      <trkpt lat="41.94393597543239593505859375" lon="-6.91099575720727443695068359375">
        <ele>1077</ele>
        <time>2021-11-06T11:54:48.000Z</time>
      </trkpt>
      <trkpt lat="41.943931616842746734619140625" lon="-6.9109846092760562896728515625">
        <ele>1077.199951171875</ele>
        <time>2021-11-06T11:54:49.000Z</time>
      </trkpt>
      <trkpt lat="41.94383136928081512451171875" lon="-6.9107884727418422698974609375">
        <ele>1078.199951171875</ele>
        <time>2021-11-06T11:55:05.000Z</time>
      </trkpt>
      <trkpt lat="41.94372475147247314453125" lon="-6.91058638505637645721435546875">
        <ele>1078.800048828125</ele>
        <time>2021-11-06T11:55:20.000Z</time>
      </trkpt>
      <trkpt lat="41.9437131844460964202880859375" lon="-6.91052905283868312835693359375">
        <ele>1079.199951171875</ele>
        <time>2021-11-06T11:55:24.000Z</time>
      </trkpt>
      <trkpt lat="41.9436434470117092132568359375" lon="-6.910392343997955322265625">
        <ele>1080.199951171875</ele>
        <time>2021-11-06T11:55:36.000Z</time>
      </trkpt>
      <trkpt lat="41.94360279478132724761962890625" lon="-6.91025982610881328582763671875">
        <ele>1081.199951171875</ele>
        <time>2021-11-06T11:55:46.000Z</time>
      </trkpt>
      <trkpt lat="41.94352668710052967071533203125" lon="-6.91008682362735271453857421875">
        <ele>1082.199951171875</ele>
        <time>2021-11-06T11:55:58.000Z</time>
      </trkpt>
      <trkpt lat="41.9434359110891819000244140625" lon="-6.909899823367595672607421875">
        <ele>1083.4000244140625</ele>
        <time>2021-11-06T11:56:11.000Z</time>
      </trkpt>
      <trkpt lat="41.9433745555579662322998046875" lon="-6.90977669321000576019287109375">
        <ele>1084.4000244140625</ele>
        <time>2021-11-06T11:56:21.000Z</time>
      </trkpt>
      <trkpt lat="41.94330825470387935638427734375" lon="-6.9096150062978267669677734375">
        <ele>1085.5999755859375</ele>
        <time>2021-11-06T11:56:34.000Z</time>
      </trkpt>
      <trkpt lat="41.9432317279279232025146484375" lon="-6.9094580970704555511474609375">
        <ele>1086.5999755859375</ele>
        <time>2021-11-06T11:56:46.000Z</time>
      </trkpt>
      <trkpt lat="41.943166516721248626708984375" lon="-6.90925081260502338409423828125">
        <ele>1087.5999755859375</ele>
        <time>2021-11-06T11:57:02.000Z</time>
      </trkpt>
      <trkpt lat="41.9431167282164096832275390625" lon="-6.9090078212320804595947265625">
        <ele>1088.5999755859375</ele>
        <time>2021-11-06T11:57:20.000Z</time>
      </trkpt>
      <trkpt lat="41.94311982952058315277099609375" lon="-6.90892844460904598236083984375">
        <ele>1088.800048828125</ele>
        <time>2021-11-06T11:57:25.000Z</time>
      </trkpt>
      <trkpt lat="41.9431110285222530364990234375" lon="-6.90887480042874813079833984375">
        <ele>1088.800048828125</ele>
        <time>2021-11-06T11:57:29.000Z</time>
      </trkpt>
      <trkpt lat="41.94308429025113582611083984375" lon="-6.9086839444935321807861328125">
        <ele>1089.5999755859375</ele>
        <time>2021-11-06T11:57:42.000Z</time>
      </trkpt>
      <trkpt lat="41.94308076985180377960205078125" lon="-6.908651925623416900634765625">
        <ele>1089.800048828125</ele>
        <time>2021-11-06T11:57:44.000Z</time>
      </trkpt>
      <trkpt lat="41.9430436380207538604736328125" lon="-6.9084130413830280303955078125">
        <ele>1090.4000244140625</ele>
        <time>2021-11-06T11:58:00.000Z</time>
      </trkpt>
      <trkpt lat="41.94302863441407680511474609375" lon="-6.90829141996800899505615234375">
        <ele>1090.800048828125</ele>
        <time>2021-11-06T11:58:08.000Z</time>
      </trkpt>
      <trkpt lat="41.94298320449888706207275390625" lon="-6.9081218540668487548828125">
        <ele>1092</ele>
        <time>2021-11-06T11:58:20.000Z</time>
      </trkpt>
      <trkpt lat="41.9429437257349491119384765625" lon="-6.907880119979381561279296875">
        <ele>1092.5999755859375</ele>
        <time>2021-11-06T11:58:35.000Z</time>
      </trkpt>
      <trkpt lat="41.9429360143840312957763671875" lon="-6.90783175639808177947998046875">
        <ele>1093</ele>
        <time>2021-11-06T11:58:38.000Z</time>
      </trkpt>
      <trkpt lat="41.94288463331758975982666015625" lon="-6.907591111958026885986328125">
        <ele>1093.800048828125</ele>
        <time>2021-11-06T11:58:54.000Z</time>
      </trkpt>
      <trkpt lat="41.9428746588528156280517578125" lon="-6.907566301524639129638671875">
        <ele>1094</ele>
        <time>2021-11-06T11:58:56.000Z</time>
      </trkpt>
      <trkpt lat="41.94284490309655666351318359375" lon="-6.9074164330959320068359375">
        <ele>1095.199951171875</ele>
        <time>2021-11-06T11:59:08.000Z</time>
      </trkpt>
      <trkpt lat="41.9427690468728542327880859375" lon="-6.90718685276806354522705078125">
        <ele>1095.4000244140625</ele>
        <time>2021-11-06T11:59:24.000Z</time>
      </trkpt>
      <trkpt lat="41.94272764027118682861328125" lon="-6.906944699585437774658203125">
        <ele>1095.800048828125</ele>
        <time>2021-11-06T11:59:40.000Z</time>
      </trkpt>
      <trkpt lat="41.94265077821910381317138671875" lon="-6.9067212380468845367431640625">
        <ele>1095.800048828125</ele>
        <time>2021-11-06T11:59:55.000Z</time>
      </trkpt>
      <trkpt lat="41.94260836578905582427978515625" lon="-6.90647221170365810394287109375">
        <ele>1095.800048828125</ele>
        <time>2021-11-06T12:00:10.000Z</time>
      </trkpt>
      <trkpt lat="41.94257341325283050537109375" lon="-6.9063078425824642181396484375">
        <ele>1096.199951171875</ele>
        <time>2021-11-06T12:00:21.000Z</time>
      </trkpt>
      <trkpt lat="41.94253041408956050872802734375" lon="-6.90610072575509548187255859375">
        <ele>1097.199951171875</ele>
        <time>2021-11-06T12:00:36.000Z</time>
      </trkpt>
      <trkpt lat="41.94249889813363552093505859375" lon="-6.9059264659881591796875">
        <ele>1098.199951171875</ele>
        <time>2021-11-06T12:00:48.000Z</time>
      </trkpt>
      <trkpt lat="41.9424585811793804168701171875" lon="-6.90573862753808498382568359375">
        <ele>1099.4000244140625</ele>
        <time>2021-11-06T12:01:02.000Z</time>
      </trkpt>
      <trkpt lat="41.94241650402545928955078125" lon="-6.90560217015445232391357421875">
        <ele>1100.4000244140625</ele>
        <time>2021-11-06T12:01:13.000Z</time>
      </trkpt>
      <trkpt lat="41.9423663802444934844970703125" lon="-6.905454061925411224365234375">
        <ele>1101.4000244140625</ele>
        <time>2021-11-06T12:01:24.000Z</time>
      </trkpt>
      <trkpt lat="41.942343078553676605224609375" lon="-6.90530360676348209381103515625">
        <ele>1102.5999755859375</ele>
        <time>2021-11-06T12:01:37.000Z</time>
      </trkpt>
      <trkpt lat="41.94233226589858531951904296875" lon="-6.90524007193744182586669921875">
        <ele>1103.199951171875</ele>
        <time>2021-11-06T12:01:43.000Z</time>
      </trkpt>
      <trkpt lat="41.9423281587660312652587890625" lon="-6.9052074663341045379638671875">
        <ele>1103.5999755859375</ele>
        <time>2021-11-06T12:01:46.000Z</time>
      </trkpt>
      <trkpt lat="41.9422852434217929840087890625" lon="-6.9051125831902027130126953125">
        <ele>1104.5999755859375</ele>
        <time>2021-11-06T12:01:54.000Z</time>
      </trkpt>
      <trkpt lat="41.94226403720676898956298828125" lon="-6.90502851270139217376708984375">
        <ele>1105.5999755859375</ele>
        <time>2021-11-06T12:02:03.000Z</time>
      </trkpt>
      <trkpt lat="41.94227007217705249786376953125" lon="-6.9050270877778530120849609375">
        <ele>1105.5999755859375</ele>
        <time>2021-11-06T12:02:04.000Z</time>
      </trkpt>
      <trkpt lat="41.9422708265483379364013671875" lon="-6.905024908483028411865234375">
        <ele>1105.800048828125</ele>
        <time>2021-11-06T12:02:05.000Z</time>
      </trkpt>
      <trkpt lat="41.94227526895701885223388671875" lon="-6.90492801368236541748046875">
        <ele>1106.800048828125</ele>
        <time>2021-11-06T12:02:25.000Z</time>
      </trkpt>
      <trkpt lat="41.94227577187120914459228515625" lon="-6.9049167819321155548095703125">
        <ele>1107</ele>
        <time>2021-11-06T12:02:26.000Z</time>
      </trkpt>
      <trkpt lat="41.94223277270793914794921875" lon="-6.90477521158754825592041015625">
        <ele>1107.800048828125</ele>
        <time>2021-11-06T12:02:35.000Z</time>
      </trkpt>
      <trkpt lat="41.94219681434333324432373046875" lon="-6.90465099178254604339599609375">
        <ele>1109</ele>
        <time>2021-11-06T12:02:43.000Z</time>
      </trkpt>
      <trkpt lat="41.94215255789458751678466796875" lon="-6.90458946861326694488525390625">
        <ele>1110</ele>
        <time>2021-11-06T12:02:49.000Z</time>
      </trkpt>
      <trkpt lat="41.94213998503983020782470703125" lon="-6.90457798540592193603515625">
        <ele>1110.4000244140625</ele>
        <time>2021-11-06T12:02:51.000Z</time>
      </trkpt>
      <trkpt lat="41.9421119056642055511474609375" lon="-6.9045573659241199493408203125">
        <ele>1110.5999755859375</ele>
        <time>2021-11-06T12:02:55.000Z</time>
      </trkpt>
      <trkpt lat="41.94210176356136798858642578125" lon="-6.9045411050319671630859375">
        <ele>1110.5999755859375</ele>
        <time>2021-11-06T12:02:57.000Z</time>
      </trkpt>
      <trkpt lat="41.942053735256195068359375" lon="-6.90449416637420654296875">
        <ele>1111.199951171875</ele>
        <time>2021-11-06T12:03:02.000Z</time>
      </trkpt>
      <trkpt lat="41.9420046173036098480224609375" lon="-6.9044292904436588287353515625">
        <ele>1112.199951171875</ele>
        <time>2021-11-06T12:03:08.000Z</time>
      </trkpt>
      <trkpt lat="41.9419097341597080230712890625" lon="-6.9043129496276378631591796875">
        <ele>1113.199951171875</ele>
        <time>2021-11-06T12:03:19.000Z</time>
      </trkpt>
      <trkpt lat="41.94184008054435253143310546875" lon="-6.9041741453111171722412109375">
        <ele>1114.199951171875</ele>
        <time>2021-11-06T12:03:30.000Z</time>
      </trkpt>
      <trkpt lat="41.94174268282949924468994140625" lon="-6.903989575803279876708984375">
        <ele>1115.199951171875</ele>
        <time>2021-11-06T12:03:45.000Z</time>
      </trkpt>
      <trkpt lat="41.9416619651019573211669921875" lon="-6.90379075706005096435546875">
        <ele>1116.4000244140625</ele>
        <time>2021-11-06T12:03:58.000Z</time>
      </trkpt>
      <trkpt lat="41.94161091931164264678955078125" lon="-6.903622448444366455078125">
        <ele>1117.4000244140625</ele>
        <time>2021-11-06T12:04:09.000Z</time>
      </trkpt>
      <trkpt lat="41.94157873280346393585205078125" lon="-6.90340451896190643310546875">
        <ele>1118.4000244140625</ele>
        <time>2021-11-06T12:04:23.000Z</time>
      </trkpt>
      <trkpt lat="41.94157638587057590484619140625" lon="-6.903223805129528045654296875">
        <ele>1119.4000244140625</ele>
        <time>2021-11-06T12:04:35.000Z</time>
      </trkpt>
      <trkpt lat="41.94157739169895648956298828125" lon="-6.90299489535391330718994140625">
        <ele>1120.5999755859375</ele>
        <time>2021-11-06T12:04:49.000Z</time>
      </trkpt>
      <trkpt lat="41.9415322132408618927001953125" lon="-6.9027628004550933837890625">
        <ele>1121.5999755859375</ele>
        <time>2021-11-06T12:05:03.000Z</time>
      </trkpt>
      <trkpt lat="41.94152425043284893035888671875" lon="-6.90274746157228946685791015625">
        <ele>1121.5999755859375</ele>
        <time>2021-11-06T12:05:04.000Z</time>
      </trkpt>
      <trkpt lat="41.94153078831732273101806640625" lon="-6.90252232365310192108154296875">
        <ele>1122.5999755859375</ele>
        <time>2021-11-06T12:05:19.000Z</time>
      </trkpt>
      <trkpt lat="41.94153615273535251617431640625" lon="-6.902513690292835235595703125">
        <ele>1122.800048828125</ele>
        <time>2021-11-06T12:05:20.000Z</time>
      </trkpt>
      <trkpt lat="41.94167361594736576080322265625" lon="-6.9023425318300724029541015625">
        <ele>1123.4000244140625</ele>
        <time>2021-11-06T12:05:34.000Z</time>
      </trkpt>
      <trkpt lat="41.94175508804619312286376953125" lon="-6.90212401561439037322998046875">
        <ele>1122.800048828125</ele>
        <time>2021-11-06T12:05:49.000Z</time>
      </trkpt>
      <trkpt lat="41.94177436642348766326904296875" lon="-6.90209585241973400115966796875">
        <ele>1122.800048828125</ele>
        <time>2021-11-06T12:05:51.000Z</time>
      </trkpt>
      <trkpt lat="41.94180387072265148162841796875" lon="-6.90205243416130542755126953125">
        <ele>1122.800048828125</ele>
        <time>2021-11-06T12:05:55.000Z</time>
      </trkpt>
      <trkpt lat="41.94181811995804309844970703125" lon="-6.90180935896933078765869140625">
        <ele>1123.199951171875</ele>
        <time>2021-11-06T12:06:10.000Z</time>
      </trkpt>
      <trkpt lat="41.94184142164885997772216796875" lon="-6.901557482779026031494140625">
        <ele>1123.5999755859375</ele>
        <time>2021-11-06T12:06:25.000Z</time>
      </trkpt>
      <trkpt lat="41.941846199333667755126953125" lon="-6.9015130586922168731689453125">
        <ele>1123.800048828125</ele>
        <time>2021-11-06T12:06:28.000Z</time>
      </trkpt>
      <trkpt lat="41.941895820200443267822265625" lon="-6.90127124078571796417236328125">
        <ele>1124.4000244140625</ele>
        <time>2021-11-06T12:06:44.000Z</time>
      </trkpt>
      <trkpt lat="41.9419499672949314117431640625" lon="-6.90114383585751056671142578125">
        <ele>1124.800048828125</ele>
        <time>2021-11-06T12:06:52.000Z</time>
      </trkpt>
      <trkpt lat="41.94199481047689914703369140625" lon="-6.900906376540660858154296875">
        <ele>1125.5999755859375</ele>
        <time>2021-11-06T12:07:08.000Z</time>
      </trkpt>
      <trkpt lat="41.94201190955936908721923828125" lon="-6.9008555822074413299560546875">
        <ele>1126</ele>
        <time>2021-11-06T12:07:12.000Z</time>
      </trkpt>
      <trkpt lat="41.94204711355268955230712890625" lon="-6.90068450756371021270751953125">
        <ele>1127</ele>
        <time>2021-11-06T12:07:24.000Z</time>
      </trkpt>
      <trkpt lat="41.94205163978040218353271484375" lon="-6.90051284618675708770751953125">
        <ele>1128</ele>
        <time>2021-11-06T12:07:36.000Z</time>
      </trkpt>
      <trkpt lat="41.94208868779242038726806640625" lon="-6.90032609738409519195556640625">
        <ele>1129.199951171875</ele>
        <time>2021-11-06T12:07:48.000Z</time>
      </trkpt>
      <trkpt lat="41.94210360758006572723388671875" lon="-6.90026692114770412445068359375">
        <ele>1129.4000244140625</ele>
        <time>2021-11-06T12:07:52.000Z</time>
      </trkpt>
      <trkpt lat="41.94210327230393886566162109375" lon="-6.90015971660614013671875">
        <ele>1130.199951171875</ele>
        <time>2021-11-06T12:07:59.000Z</time>
      </trkpt>
      <trkpt lat="41.942104361951351165771484375" lon="-6.8999178148806095123291015625">
        <ele>1131</ele>
        <time>2021-11-06T12:08:14.000Z</time>
      </trkpt>
      <trkpt lat="41.94208583794534206390380859375" lon="-6.8998903222382068634033203125">
        <ele>1131.199951171875</ele>
        <time>2021-11-06T12:08:16.000Z</time>
      </trkpt>
      <trkpt lat="41.94195491261780261993408203125" lon="-6.8997069261968135833740234375">
        <ele>1131.4000244140625</ele>
        <time>2021-11-06T12:08:31.000Z</time>
      </trkpt>
      <trkpt lat="41.94180420599877834320068359375" lon="-6.8995677866041660308837890625">
        <ele>1131.199951171875</ele>
        <time>2021-11-06T12:08:45.000Z</time>
      </trkpt>
      <trkpt lat="41.941657774150371551513671875" lon="-6.8994179181754589080810546875">
        <ele>1131</ele>
        <time>2021-11-06T12:09:00.000Z</time>
      </trkpt>
      <trkpt lat="41.9415213167667388916015625" lon="-6.8992517888545989990234375">
        <ele>1131.800048828125</ele>
        <time>2021-11-06T12:09:16.000Z</time>
      </trkpt>
      <trkpt lat="41.9414349831640720367431640625" lon="-6.89915112219750881195068359375">
        <ele>1132.199951171875</ele>
        <time>2021-11-06T12:09:26.000Z</time>
      </trkpt>
      <trkpt lat="41.9413112662732601165771484375" lon="-6.8989626131951808929443359375">
        <ele>1132.800048828125</ele>
        <time>2021-11-06T12:09:41.000Z</time>
      </trkpt>
      <trkpt lat="41.94119618274271488189697265625" lon="-6.898763291537761688232421875">
        <ele>1132.5999755859375</ele>
        <time>2021-11-06T12:09:56.000Z</time>
      </trkpt>
      <trkpt lat="41.94110381416976451873779296875" lon="-6.8985384888947010040283203125">
        <ele>1132.800048828125</ele>
        <time>2021-11-06T12:10:10.000Z</time>
      </trkpt>
      <trkpt lat="41.941005997359752655029296875" lon="-6.898322068154811859130859375">
        <ele>1132.5999755859375</ele>
        <time>2021-11-06T12:10:24.000Z</time>
      </trkpt>
      <trkpt lat="41.94091639481484889984130859375" lon="-6.89810623414814472198486328125">
        <ele>1133</ele>
        <time>2021-11-06T12:10:39.000Z</time>
      </trkpt>
      <trkpt lat="41.9408663548529148101806640625" lon="-6.89798469655215740203857421875">
        <ele>1133.199951171875</ele>
        <time>2021-11-06T12:10:47.000Z</time>
      </trkpt>
      <trkpt lat="41.940766610205173492431640625" lon="-6.89776609651744365692138671875">
        <ele>1133.4000244140625</ele>
        <time>2021-11-06T12:11:02.000Z</time>
      </trkpt>
      <trkpt lat="41.94071522913873195648193359375" lon="-6.89753190614283084869384765625">
        <ele>1132.5999755859375</ele>
        <time>2021-11-06T12:11:17.000Z</time>
      </trkpt>
      <trkpt lat="41.94068321026861667633056640625" lon="-6.89732261002063751220703125">
        <ele>1132.199951171875</ele>
        <time>2021-11-06T12:11:30.000Z</time>
      </trkpt>
      <trkpt lat="41.9406514428555965423583984375" lon="-6.8971092067658901214599609375">
        <ele>1131.199951171875</ele>
        <time>2021-11-06T12:11:43.000Z</time>
      </trkpt>
      <trkpt lat="41.9406018219888210296630859375" lon="-6.896872334182262420654296875">
        <ele>1130.199951171875</ele>
        <time>2021-11-06T12:11:58.000Z</time>
      </trkpt>
      <trkpt lat="41.94057743065059185028076171875" lon="-6.896621547639369964599609375">
        <ele>1130.4000244140625</ele>
        <time>2021-11-06T12:12:14.000Z</time>
      </trkpt>
      <trkpt lat="41.94051305763423442840576171875" lon="-6.8963903747498989105224609375">
        <ele>1131.199951171875</ele>
        <time>2021-11-06T12:12:28.000Z</time>
      </trkpt>
      <trkpt lat="41.94046595133841037750244140625" lon="-6.89615643583238124847412109375">
        <ele>1132</ele>
        <time>2021-11-06T12:12:45.000Z</time>
      </trkpt>
      <trkpt lat="41.94044650532305240631103515625" lon="-6.89611502923071384429931640625">
        <ele>1132.199951171875</ele>
        <time>2021-11-06T12:12:48.000Z</time>
      </trkpt>
      <trkpt lat="41.9403835572302341461181640625" lon="-6.89588838256895542144775390625">
        <ele>1133.199951171875</ele>
        <time>2021-11-06T12:13:06.000Z</time>
      </trkpt>
      <trkpt lat="41.9403714872896671295166015625" lon="-6.89585535787045955657958984375">
        <ele>1133.4000244140625</ele>
        <time>2021-11-06T12:13:09.000Z</time>
      </trkpt>
      <trkpt lat="41.9403393007814884185791015625" lon="-6.8956873007118701934814453125">
        <ele>1134.199951171875</ele>
        <time>2021-11-06T12:13:21.000Z</time>
      </trkpt>
      <trkpt lat="41.94033552892506122589111328125" lon="-6.8956764042377471923828125">
        <ele>1134.4000244140625</ele>
        <time>2021-11-06T12:13:22.000Z</time>
      </trkpt>
      <trkpt lat="41.94031792692840099334716796875" lon="-6.89563457854092121124267578125">
        <ele>1134.5999755859375</ele>
        <time>2021-11-06T12:13:26.000Z</time>
      </trkpt>
      <trkpt lat="41.94031055085361003875732421875" lon="-6.895600967109203338623046875">
        <ele>1134.800048828125</ele>
        <time>2021-11-06T12:13:29.000Z</time>
      </trkpt>
      <trkpt lat="41.9402836449444293975830078125" lon="-6.89551237039268016815185546875">
        <ele>1135.199951171875</ele>
        <time>2021-11-06T12:13:35.000Z</time>
      </trkpt>
      <trkpt lat="41.940231509506702423095703125" lon="-6.8953630886971950531005859375">
        <ele>1136.4000244140625</ele>
        <time>2021-11-06T12:13:46.000Z</time>
      </trkpt>
      <trkpt lat="41.94018733687698841094970703125" lon="-6.89517684280872344970703125">
        <ele>1137.5999755859375</ele>
        <time>2021-11-06T12:13:59.000Z</time>
      </trkpt>
      <trkpt lat="41.940189935266971588134765625" lon="-6.8950730748474597930908203125">
        <ele>1138</ele>
        <time>2021-11-06T12:14:07.000Z</time>
      </trkpt>
      <trkpt lat="41.9401676394045352935791015625" lon="-6.89500509761273860931396484375">
        <ele>1138.5999755859375</ele>
        <time>2021-11-06T12:14:12.000Z</time>
      </trkpt>
      <trkpt lat="41.94016822613775730133056640625" lon="-6.89481675624847412109375">
        <ele>1139.5999755859375</ele>
        <time>2021-11-06T12:14:26.000Z</time>
      </trkpt>
      <trkpt lat="41.94010368548333644866943359375" lon="-6.89462875016033649444580078125">
        <ele>1140.800048828125</ele>
        <time>2021-11-06T12:14:41.000Z</time>
      </trkpt>
      <trkpt lat="41.940093375742435455322265625" lon="-6.89450235106050968170166015625">
        <ele>1141.800048828125</ele>
        <time>2021-11-06T12:14:50.000Z</time>
      </trkpt>
      <trkpt lat="41.94009982980787754058837890625" lon="-6.89442674629390239715576171875">
        <ele>1142.199951171875</ele>
        <time>2021-11-06T12:14:55.000Z</time>
      </trkpt>
      <trkpt lat="41.94010033272206783294677734375" lon="-6.8942868523299694061279296875">
        <ele>1142.800048828125</ele>
        <time>2021-11-06T12:15:07.000Z</time>
      </trkpt>
      <trkpt lat="41.94009949453175067901611328125" lon="-6.89427386038005352020263671875">
        <ele>1142.800048828125</ele>
        <time>2021-11-06T12:15:08.000Z</time>
      </trkpt>
      <trkpt lat="41.94008834660053253173828125" lon="-6.89422591589391231536865234375">
        <ele>1142.800048828125</ele>
        <time>2021-11-06T12:15:11.000Z</time>
      </trkpt>
      <trkpt lat="41.94008055143058300018310546875" lon="-6.8940538354218006134033203125">
        <ele>1143.5999755859375</ele>
        <time>2021-11-06T12:15:22.000Z</time>
      </trkpt>
      <trkpt lat="41.94007200188934803009033203125" lon="-6.89402215182781219482421875">
        <ele>1144</ele>
        <time>2021-11-06T12:15:24.000Z</time>
      </trkpt>
      <trkpt lat="41.9399983249604701995849609375" lon="-6.893788464367389678955078125">
        <ele>1144</ele>
        <time>2021-11-06T12:15:39.000Z</time>
      </trkpt>
      <trkpt lat="41.93996085785329341888427734375" lon="-6.89354463480412960052490234375">
        <ele>1144.800048828125</ele>
        <time>2021-11-06T12:15:55.000Z</time>
      </trkpt>
      <trkpt lat="41.93996069021522998809814453125" lon="-6.89350004307925701141357421875">
        <ele>1145</ele>
        <time>2021-11-06T12:15:58.000Z</time>
      </trkpt>
      <trkpt lat="41.93994996137917041778564453125" lon="-6.8933920003473758697509765625">
        <ele>1146</ele>
        <time>2021-11-06T12:16:05.000Z</time>
      </trkpt>
      <trkpt lat="41.9399413280189037322998046875" lon="-6.8931422196328639984130859375">
        <ele>1147</ele>
        <time>2021-11-06T12:16:22.000Z</time>
      </trkpt>
      <trkpt lat="41.93993948400020599365234375" lon="-6.8931254558265209197998046875">
        <ele>1147</ele>
        <time>2021-11-06T12:16:23.000Z</time>
      </trkpt>
      <trkpt lat="41.9399084709584712982177734375" lon="-6.89288581721484661102294921875">
        <ele>1147.4000244140625</ele>
        <time>2021-11-06T12:16:38.000Z</time>
      </trkpt>
      <trkpt lat="41.93988508544862270355224609375" lon="-6.892672665417194366455078125">
        <ele>1147.5999755859375</ele>
        <time>2021-11-06T12:16:53.000Z</time>
      </trkpt>
      <trkpt lat="41.9399078004062175750732421875" lon="-6.89243101514875888824462890625">
        <ele>1148</ele>
        <time>2021-11-06T12:17:10.000Z</time>
      </trkpt>
      <trkpt lat="41.939906962215900421142578125" lon="-6.8923898600041866302490234375">
        <ele>1148</ele>
        <time>2021-11-06T12:17:13.000Z</time>
      </trkpt>
      <trkpt lat="41.93991358391940593719482421875" lon="-6.8923321925103664398193359375">
        <ele>1148</ele>
        <time>2021-11-06T12:17:17.000Z</time>
      </trkpt>
      <trkpt lat="41.93993185646831989288330078125" lon="-6.892117448151111602783203125">
        <ele>1148.5999755859375</ele>
        <time>2021-11-06T12:17:33.000Z</time>
      </trkpt>
      <trkpt lat="41.9399332813918590545654296875" lon="-6.8921092338860034942626953125">
        <ele>1148.5999755859375</ele>
        <time>2021-11-06T12:17:35.000Z</time>
      </trkpt>
      <trkpt lat="41.93991710431873798370361328125" lon="-6.89211954362690448760986328125">
        <ele>1148.5999755859375</ele>
        <time>2021-11-06T12:17:41.000Z</time>
      </trkpt>
      <trkpt lat="41.93992196582257747650146484375" lon="-6.89207352697849273681640625">
        <ele>1149.800048828125</ele>
        <time>2021-11-06T12:36:12.000Z</time>
      </trkpt>
      <trkpt lat="41.93994820117950439453125" lon="-6.89201728440821170806884765625">
        <ele>1149.800048828125</ele>
        <time>2021-11-06T12:36:19.000Z</time>
      </trkpt>
      <trkpt lat="41.939968653023242950439453125" lon="-6.891974620521068572998046875">
        <ele>1149.800048828125</ele>
        <time>2021-11-06T12:36:23.000Z</time>
      </trkpt>
      <trkpt lat="41.93996940739452838897705078125" lon="-6.89196623861789703369140625">
        <ele>1149.800048828125</ele>
        <time>2021-11-06T12:36:24.000Z</time>
      </trkpt>
      <trkpt lat="41.939973346889019012451171875" lon="-6.89190882258117198944091796875">
        <ele>1149.800048828125</ele>
        <time>2021-11-06T12:36:28.000Z</time>
      </trkpt>
      <trkpt lat="41.93996571935713291168212890625" lon="-6.89179130829870700836181640625">
        <ele>1149.199951171875</ele>
        <time>2021-11-06T12:36:37.000Z</time>
      </trkpt>
      <trkpt lat="41.9399896077811717987060546875" lon="-6.89166993834078311920166015625">
        <ele>1148.5999755859375</ele>
        <time>2021-11-06T12:36:47.000Z</time>
      </trkpt>
      <trkpt lat="41.940004192292690277099609375" lon="-6.8915878795087337493896484375">
        <ele>1147.5999755859375</ele>
        <time>2021-11-06T12:36:54.000Z</time>
      </trkpt>
      <trkpt lat="41.94000779651105403900146484375" lon="-6.8914832733571529388427734375">
        <ele>1146.5999755859375</ele>
        <time>2021-11-06T12:37:03.000Z</time>
      </trkpt>
      <trkpt lat="41.94004333578050136566162109375" lon="-6.89138394780457019805908203125">
        <ele>1145.4000244140625</ele>
        <time>2021-11-06T12:37:11.000Z</time>
      </trkpt>
      <trkpt lat="41.94007166661322116851806640625" lon="-6.8912992067635059356689453125">
        <ele>1144.199951171875</ele>
        <time>2021-11-06T12:37:18.000Z</time>
      </trkpt>
      <trkpt lat="41.9401002489030361175537109375" lon="-6.89122519455850124359130859375">
        <ele>1143.199951171875</ele>
        <time>2021-11-06T12:37:24.000Z</time>
      </trkpt>
      <trkpt lat="41.94013939239084720611572265625" lon="-6.89112075604498386383056640625">
        <ele>1142</ele>
        <time>2021-11-06T12:37:31.000Z</time>
      </trkpt>
      <trkpt lat="41.94015950895845890045166015625" lon="-6.891015730798244476318359375">
        <ele>1141</ele>
        <time>2021-11-06T12:37:38.000Z</time>
      </trkpt>
      <trkpt lat="41.94016437046229839324951171875" lon="-6.89087902195751667022705078125">
        <ele>1139.800048828125</ele>
        <time>2021-11-06T12:37:46.000Z</time>
      </trkpt>
      <trkpt lat="41.940192617475986480712890625" lon="-6.8907563947141170501708984375">
        <ele>1138.800048828125</ele>
        <time>2021-11-06T12:37:54.000Z</time>
      </trkpt>
      <trkpt lat="41.94020636379718780517578125" lon="-6.8905776925384998321533203125">
        <ele>1137.800048828125</ele>
        <time>2021-11-06T12:38:05.000Z</time>
      </trkpt>
      <trkpt lat="41.94020326249301433563232421875" lon="-6.8905488587915897369384765625">
        <ele>1137.4000244140625</ele>
        <time>2021-11-06T12:38:07.000Z</time>
      </trkpt>
      <trkpt lat="41.94021784700453281402587890625" lon="-6.8904911912977695465087890625">
        <ele>1136.5999755859375</ele>
        <time>2021-11-06T12:38:11.000Z</time>
      </trkpt>
      <trkpt lat="41.9402380473911762237548828125" lon="-6.890371330082416534423828125">
        <ele>1135.5999755859375</ele>
        <time>2021-11-06T12:38:18.000Z</time>
      </trkpt>
      <trkpt lat="41.94024483673274517059326171875" lon="-6.8902752734720706939697265625">
        <ele>1134.5999755859375</ele>
        <time>2021-11-06T12:38:24.000Z</time>
      </trkpt>
      <trkpt lat="41.94027132354676723480224609375" lon="-6.89013697206974029541015625">
        <ele>1133.4000244140625</ele>
        <time>2021-11-06T12:38:33.000Z</time>
      </trkpt>
      <trkpt lat="41.94029764272272586822509765625" lon="-6.8900392390787601470947265625">
        <ele>1132.4000244140625</ele>
        <time>2021-11-06T12:38:40.000Z</time>
      </trkpt>
      <trkpt lat="41.940331757068634033203125" lon="-6.88994175754487514495849609375">
        <ele>1131.4000244140625</ele>
        <time>2021-11-06T12:38:47.000Z</time>
      </trkpt>
      <trkpt lat="41.9403426535427570343017578125" lon="-6.8898494727909564971923828125">
        <ele>1130.199951171875</ele>
        <time>2021-11-06T12:38:54.000Z</time>
      </trkpt>
      <trkpt lat="41.94036486558616161346435546875" lon="-6.8897540867328643798828125">
        <ele>1129.199951171875</ele>
        <time>2021-11-06T12:39:00.000Z</time>
      </trkpt>
      <trkpt lat="41.94036788307130336761474609375" lon="-6.88974042423069477081298828125">
        <ele>1129</ele>
        <time>2021-11-06T12:39:01.000Z</time>
      </trkpt>
      <trkpt lat="41.94038699381053447723388671875" lon="-6.8895832635462284088134765625">
        <ele>1128.199951171875</ele>
        <time>2021-11-06T12:39:11.000Z</time>
      </trkpt>
      <trkpt lat="41.94041515700519084930419921875" lon="-6.88937363214790821075439453125">
        <ele>1127</ele>
        <time>2021-11-06T12:39:24.000Z</time>
      </trkpt>
      <trkpt lat="41.94044650532305240631103515625" lon="-6.8892122805118560791015625">
        <ele>1125.800048828125</ele>
        <time>2021-11-06T12:39:34.000Z</time>
      </trkpt>
      <trkpt lat="41.94047148339450359344482421875" lon="-6.889051683247089385986328125">
        <ele>1124.800048828125</ele>
        <time>2021-11-06T12:39:44.000Z</time>
      </trkpt>
      <trkpt lat="41.94047751836478710174560546875" lon="-6.88896224834024906158447265625">
        <ele>1124.5999755859375</ele>
        <time>2021-11-06T12:39:49.000Z</time>
      </trkpt>
      <trkpt lat="41.9405039213597774505615234375" lon="-6.88889049924910068511962890625">
        <ele>1124</ele>
        <time>2021-11-06T12:39:54.000Z</time>
      </trkpt>
      <trkpt lat="41.9405186735093593597412109375" lon="-6.88886250369250774383544921875">
        <ele>1123.800048828125</ele>
        <time>2021-11-06T12:39:56.000Z</time>
      </trkpt>
      <trkpt lat="41.94057508371770381927490234375" lon="-6.8886414729058742523193359375">
        <ele>1122.800048828125</ele>
        <time>2021-11-06T12:40:11.000Z</time>
      </trkpt>
      <trkpt lat="41.94061137735843658447265625" lon="-6.88839345239102840423583984375">
        <ele>1122.199951171875</ele>
        <time>2021-11-06T12:40:27.000Z</time>
      </trkpt>
      <trkpt lat="41.940648257732391357421875" lon="-6.88815741799771785736083984375">
        <ele>1122</ele>
        <time>2021-11-06T12:40:43.000Z</time>
      </trkpt>
      <trkpt lat="41.9406682066619396209716796875" lon="-6.88812254928052425384521484375">
        <ele>1122.199951171875</ele>
        <time>2021-11-06T12:40:46.000Z</time>
      </trkpt>
      <trkpt lat="41.94069050252437591552734375" lon="-6.888032443821430206298828125">
        <ele>1122.5999755859375</ele>
        <time>2021-11-06T12:40:54.000Z</time>
      </trkpt>
      <trkpt lat="41.9406967051327228546142578125" lon="-6.88808466307818889617919921875">
        <ele>1122.5999755859375</ele>
        <time>2021-11-06T12:42:08.000Z</time>
      </trkpt>
      <trkpt lat="41.9407282210886478424072265625" lon="-6.88799179159104824066162109375">
        <ele>1122.5999755859375</ele>
        <time>2021-11-06T12:43:53.000Z</time>
      </trkpt>
      <trkpt lat="41.94074875675141811370849609375" lon="-6.88795901834964752197265625">
        <ele>1122.5999755859375</ele>
        <time>2021-11-06T12:44:02.000Z</time>
      </trkpt>
      <trkpt lat="41.940858475863933563232421875" lon="-6.887764893472194671630859375">
        <ele>1122</ele>
        <time>2021-11-06T12:44:35.000Z</time>
      </trkpt>
      <trkpt lat="41.9408683665096759796142578125" lon="-6.88773614354431629180908203125">
        <ele>1121.800048828125</ele>
        <time>2021-11-06T12:44:38.000Z</time>
      </trkpt>
      <trkpt lat="41.940877921879291534423828125" lon="-6.887713931500911712646484375">
        <ele>1121.5999755859375</ele>
        <time>2021-11-06T12:44:40.000Z</time>
      </trkpt>
      <trkpt lat="41.94088571704924106597900390625" lon="-6.88768451102077960968017578125">
        <ele>1121.199951171875</ele>
        <time>2021-11-06T12:44:43.000Z</time>
      </trkpt>
      <trkpt lat="41.9408992119133472442626953125" lon="-6.8876510672271251678466796875">
        <ele>1120.5999755859375</ele>
        <time>2021-11-06T12:44:47.000Z</time>
      </trkpt>
      <trkpt lat="41.94090767763555049896240234375" lon="-6.88763690181076526641845703125">
        <ele>1120.4000244140625</ele>
        <time>2021-11-06T12:44:49.000Z</time>
      </trkpt>
      <trkpt lat="41.9409136287868022918701171875" lon="-6.88761770725250244140625">
        <ele>1120.199951171875</ele>
        <time>2021-11-06T12:44:51.000Z</time>
      </trkpt>
      <trkpt lat="41.9409246928989887237548828125" lon="-6.887575797736644744873046875">
        <ele>1119.800048828125</ele>
        <time>2021-11-06T12:44:54.000Z</time>
      </trkpt>
      <trkpt lat="41.940929889678955078125" lon="-6.8875655718147754669189453125">
        <ele>1119.5999755859375</ele>
        <time>2021-11-06T12:44:55.000Z</time>
      </trkpt>
      <trkpt lat="41.94094405509531497955322265625" lon="-6.88751050271093845367431640625">
        <ele>1118.5999755859375</ele>
        <time>2021-11-06T12:45:00.000Z</time>
      </trkpt>
      <trkpt lat="41.9409464858472347259521484375" lon="-6.88749893568456172943115234375">
        <ele>1118.4000244140625</ele>
        <time>2021-11-06T12:45:01.000Z</time>
      </trkpt>
      <trkpt lat="41.940967105329036712646484375" lon="-6.8873597122728824615478515625">
        <ele>1117.5999755859375</ele>
        <time>2021-11-06T12:45:11.000Z</time>
      </trkpt>
      <trkpt lat="41.94099686108529567718505859375" lon="-6.88722032122313976287841796875">
        <ele>1116.5999755859375</ele>
        <time>2021-11-06T12:45:21.000Z</time>
      </trkpt>
      <trkpt lat="41.941021420061588287353515625" lon="-6.8870935030281543731689453125">
        <ele>1115.5999755859375</ele>
        <time>2021-11-06T12:45:31.000Z</time>
      </trkpt>
      <trkpt lat="41.94102284498512744903564453125" lon="-6.887036673724651336669921875">
        <ele>1115</ele>
        <time>2021-11-06T12:45:36.000Z</time>
      </trkpt>
      <trkpt lat="41.94102217443287372589111328125" lon="-6.8869305588304996490478515625">
        <ele>1114.4000244140625</ele>
        <time>2021-11-06T12:45:44.000Z</time>
      </trkpt>
      <trkpt lat="41.941018402576446533203125" lon="-6.886905245482921600341796875">
        <ele>1114.199951171875</ele>
        <time>2021-11-06T12:45:47.000Z</time>
      </trkpt>
      <trkpt lat="41.94101345725357532501220703125" lon="-6.886888481676578521728515625">
        <ele>1114</ele>
        <time>2021-11-06T12:45:49.000Z</time>
      </trkpt>
      <trkpt lat="41.941007673740386962890625" lon="-6.8868621625006198883056640625">
        <ele>1113.800048828125</ele>
        <time>2021-11-06T12:45:52.000Z</time>
      </trkpt>
      <trkpt lat="41.94100239314138889312744140625" lon="-6.8868051655590534210205078125">
        <ele>1113.4000244140625</ele>
        <time>2021-11-06T12:45:57.000Z</time>
      </trkpt>
      <trkpt lat="41.94100432097911834716796875" lon="-6.88679083250463008880615234375">
        <ele>1113.199951171875</ele>
        <time>2021-11-06T12:45:58.000Z</time>
      </trkpt>
      <trkpt lat="41.9409927539527416229248046875" lon="-6.886716149747371673583984375">
        <ele>1112.4000244140625</ele>
        <time>2021-11-06T12:46:05.000Z</time>
      </trkpt>
      <trkpt lat="41.94099367596209049224853515625" lon="-6.88671003095805644989013671875">
        <ele>1112.4000244140625</ele>
        <time>2021-11-06T12:46:06.000Z</time>
      </trkpt>
      <trkpt lat="41.94100742228329181671142578125" lon="-6.8866348452866077423095703125">
        <ele>1111.4000244140625</ele>
        <time>2021-11-06T12:46:32.000Z</time>
      </trkpt>
      <trkpt lat="41.94097221828997135162353515625" lon="-6.8864913471043109893798828125">
        <ele>1110.199951171875</ele>
        <time>2021-11-06T12:46:48.000Z</time>
      </trkpt>
      <trkpt lat="41.9409501738846302032470703125" lon="-6.886403672397136688232421875">
        <ele>1109.199951171875</ele>
        <time>2021-11-06T12:46:57.000Z</time>
      </trkpt>
      <trkpt lat="41.9409186579287052154541015625" lon="-6.88634592108428478240966796875">
        <ele>1108.4000244140625</ele>
        <time>2021-11-06T12:47:02.000Z</time>
      </trkpt>
      <trkpt lat="41.94090767763555049896240234375" lon="-6.8863099627196788787841796875">
        <ele>1108</ele>
        <time>2021-11-06T12:47:05.000Z</time>
      </trkpt>
      <trkpt lat="41.94088202901184558868408203125" lon="-6.88624240458011627197265625">
        <ele>1107.4000244140625</ele>
        <time>2021-11-06T12:47:11.000Z</time>
      </trkpt>
      <trkpt lat="41.940873563289642333984375" lon="-6.88621918670833110809326171875">
        <ele>1107</ele>
        <time>2021-11-06T12:47:13.000Z</time>
      </trkpt>
      <trkpt lat="41.94085470400750637054443359375" lon="-6.88618473708629608154296875">
        <ele>1107</ele>
        <time>2021-11-06T12:47:15.000Z</time>
      </trkpt>
      <trkpt lat="41.940810866653919219970703125" lon="-6.886125393211841583251953125">
        <ele>1106.4000244140625</ele>
        <time>2021-11-06T12:47:20.000Z</time>
      </trkpt>
      <trkpt lat="41.9407899118959903717041015625" lon="-6.88609798438847064971923828125">
        <ele>1106.4000244140625</ele>
        <time>2021-11-06T12:47:22.000Z</time>
      </trkpt>
      <trkpt lat="41.94062621332705020904541015625" lon="-6.88597829081118106842041015625">
        <ele>1106.4000244140625</ele>
        <time>2021-11-06T12:47:36.000Z</time>
      </trkpt>
      <trkpt lat="41.9405793584883213043212890625" lon="-6.8859515525400638580322265625">
        <ele>1106</ele>
        <time>2021-11-06T12:47:40.000Z</time>
      </trkpt>
      <trkpt lat="41.94048489443957805633544921875" lon="-6.88588567078113555908203125">
        <ele>1104.800048828125</ele>
        <time>2021-11-06T12:47:48.000Z</time>
      </trkpt>
      <trkpt lat="41.940412558615207672119140625" lon="-6.885764300823211669921875">
        <ele>1104</ele>
        <time>2021-11-06T12:47:57.000Z</time>
      </trkpt>
      <trkpt lat="41.94040593691170215606689453125" lon="-6.88573370687663555145263671875">
        <ele>1103.800048828125</ele>
        <time>2021-11-06T12:47:59.000Z</time>
      </trkpt>
      <trkpt lat="41.940425969660282135009765625" lon="-6.8854892067611217498779296875">
        <ele>1103.4000244140625</ele>
        <time>2021-11-06T12:48:14.000Z</time>
      </trkpt>
      <trkpt lat="41.94047634489834308624267578125" lon="-6.8852474726736545562744140625">
        <ele>1103.5999755859375</ele>
        <time>2021-11-06T12:48:31.000Z</time>
      </trkpt>
      <trkpt lat="41.94050836376845836639404296875" lon="-6.8850074149668216705322265625">
        <ele>1103.800048828125</ele>
        <time>2021-11-06T12:48:46.000Z</time>
      </trkpt>
      <trkpt lat="41.940498054027557373046875" lon="-6.8847599811851978302001953125">
        <ele>1103.5999755859375</ele>
        <time>2021-11-06T12:49:03.000Z</time>
      </trkpt>
      <trkpt lat="41.94049537181854248046875" lon="-6.88470306806266307830810546875">
        <ele>1103.4000244140625</ele>
        <time>2021-11-06T12:49:09.000Z</time>
      </trkpt>
      <trkpt lat="41.9404982216656208038330078125" lon="-6.88469217158854007720947265625">
        <ele>1103</ele>
        <time>2021-11-06T12:49:13.000Z</time>
      </trkpt>
      <trkpt lat="41.94049394689500331878662109375" lon="-6.88466853462159633636474609375">
        <ele>1103</ele>
        <time>2021-11-06T12:49:15.000Z</time>
      </trkpt>
      <trkpt lat="41.9404945336282253265380859375" lon="-6.88463835977017879486083984375">
        <ele>1103</ele>
        <time>2021-11-06T12:49:17.000Z</time>
      </trkpt>
      <trkpt lat="41.9404915161430835723876953125" lon="-6.88459812663495540618896484375">
        <ele>1102.800048828125</ele>
        <time>2021-11-06T12:49:20.000Z</time>
      </trkpt>
      <trkpt lat="41.940484307706356048583984375" lon="-6.88449335284531116485595703125">
        <ele>1101.5999755859375</ele>
        <time>2021-11-06T12:49:28.000Z</time>
      </trkpt>
      <trkpt lat="41.94048472680151462554931640625" lon="-6.88435421325266361236572265625">
        <ele>1100.5999755859375</ele>
        <time>2021-11-06T12:49:38.000Z</time>
      </trkpt>
      <trkpt lat="41.9405012391507625579833984375" lon="-6.884214989840984344482421875">
        <ele>1099.4000244140625</ele>
        <time>2021-11-06T12:49:48.000Z</time>
      </trkpt>
      <trkpt lat="41.94049797020852565765380859375" lon="-6.88410409726202487945556640625">
        <ele>1098.4000244140625</ele>
        <time>2021-11-06T12:49:56.000Z</time>
      </trkpt>
      <trkpt lat="41.9405273906886577606201171875" lon="-6.88391751609742641448974609375">
        <ele>1097.199951171875</ele>
        <time>2021-11-06T12:50:09.000Z</time>
      </trkpt>
      <trkpt lat="41.94052697159349918365478515625" lon="-6.8838907778263092041015625">
        <ele>1096.800048828125</ele>
        <time>2021-11-06T12:50:12.000Z</time>
      </trkpt>
      <trkpt lat="41.940541975200176239013671875" lon="-6.88386018387973308563232421875">
        <ele>1096.4000244140625</ele>
        <time>2021-11-06T12:50:16.000Z</time>
      </trkpt>
      <trkpt lat="41.9405444897711277008056640625" lon="-6.88384853303432464599609375">
        <ele>1096</ele>
        <time>2021-11-06T12:50:17.000Z</time>
      </trkpt>
      <trkpt lat="41.9405853934586048126220703125" lon="-6.88380117528140544891357421875">
        <ele>1095.199951171875</ele>
        <time>2021-11-06T12:50:22.000Z</time>
      </trkpt>
      <trkpt lat="41.940581537783145904541015625" lon="-6.88379731960594654083251953125">
        <ele>1095</ele>
        <time>2021-11-06T12:50:26.000Z</time>
      </trkpt>
      <trkpt lat="41.94059955887496471405029296875" lon="-6.8836413323879241943359375">
        <ele>1094.199951171875</ele>
        <time>2021-11-06T12:50:47.000Z</time>
      </trkpt>
      <trkpt lat="41.94060207344591617584228515625" lon="-6.883630938827991485595703125">
        <ele>1094</ele>
        <time>2021-11-06T12:50:48.000Z</time>
      </trkpt>
      <trkpt lat="41.9406487606465816497802734375" lon="-6.883527003228664398193359375">
        <ele>1093</ele>
        <time>2021-11-06T12:51:06.000Z</time>
      </trkpt>
      <trkpt lat="41.940767280757427215576171875" lon="-6.8833229877054691314697265625">
        <ele>1091.800048828125</ele>
        <time>2021-11-06T12:51:19.000Z</time>
      </trkpt>
      <trkpt lat="41.94079670123755931854248046875" lon="-6.88327143900096416473388671875">
        <ele>1090.5999755859375</ele>
        <time>2021-11-06T12:51:23.000Z</time>
      </trkpt>
      <trkpt lat="41.94079804234206676483154296875" lon="-6.883262135088443756103515625">
        <ele>1090.199951171875</ele>
        <time>2021-11-06T12:51:25.000Z</time>
      </trkpt>
      <trkpt lat="41.94079720415174961090087890625" lon="-6.883258782327175140380859375">
        <ele>1089.800048828125</ele>
        <time>2021-11-06T12:51:27.000Z</time>
      </trkpt>
      <trkpt lat="41.9407962821424007415771484375" lon="-6.88326247036457061767578125">
        <ele>1089.800048828125</ele>
        <time>2021-11-06T12:51:30.000Z</time>
      </trkpt>
      <trkpt lat="41.9407785125076770782470703125" lon="-6.88327051699161529541015625">
        <ele>1090.800048828125</ele>
        <time>2021-11-06T12:52:15.000Z</time>
      </trkpt>
      <trkpt lat="41.940836347639560699462890625" lon="-6.883156858384609222412109375">
        <ele>1089.4000244140625</ele>
        <time>2021-11-06T12:52:31.000Z</time>
      </trkpt>
      <trkpt lat="41.9409285485744476318359375" lon="-6.8830209039151668548583984375">
        <ele>1088.4000244140625</ele>
        <time>2021-11-06T12:52:41.000Z</time>
      </trkpt>
      <trkpt lat="41.9409411214292049407958984375" lon="-6.88301143236458301544189453125">
        <ele>1088.199951171875</ele>
        <time>2021-11-06T12:52:42.000Z</time>
      </trkpt>
      <trkpt lat="41.9410809315741062164306640625" lon="-6.88294705934822559356689453125">
        <ele>1087.199951171875</ele>
        <time>2021-11-06T12:52:51.000Z</time>
      </trkpt>
      <trkpt lat="41.941159553825855255126953125" lon="-6.88291571103036403656005859375">
        <ele>1086.199951171875</ele>
        <time>2021-11-06T12:52:56.000Z</time>
      </trkpt>
      <trkpt lat="41.9412364996969699859619140625" lon="-6.8828911520540714263916015625">
        <ele>1085.199951171875</ele>
        <time>2021-11-06T12:53:01.000Z</time>
      </trkpt>
      <trkpt lat="41.94132291711866855621337890625" lon="-6.88285871408879756927490234375">
        <ele>1084</ele>
        <time>2021-11-06T12:53:05.000Z</time>
      </trkpt>
      <trkpt lat="41.94149382412433624267578125" lon="-6.8827697820961475372314453125">
        <ele>1083.199951171875</ele>
        <time>2021-11-06T12:53:12.000Z</time>
      </trkpt>
      <trkpt lat="41.94151486270129680633544921875" lon="-6.88274974934756755828857421875">
        <ele>1083</ele>
        <time>2021-11-06T12:53:13.000Z</time>
      </trkpt>
      <trkpt lat="41.94156917743384838104248046875" lon="-6.88267372548580169677734375">
        <ele>1082</ele>
        <time>2021-11-06T12:53:17.000Z</time>
      </trkpt>
      <trkpt lat="41.94161242805421352386474609375" lon="-6.8825468234717845916748046875">
        <ele>1080.800048828125</ele>
        <time>2021-11-06T12:53:23.000Z</time>
      </trkpt>
      <trkpt lat="41.941655091941356658935546875" lon="-6.88242034055292606353759765625">
        <ele>1079.5999755859375</ele>
        <time>2021-11-06T12:53:30.000Z</time>
      </trkpt>
      <trkpt lat="41.941715441644191741943359375" lon="-6.88223442994058132171630859375">
        <ele>1078.5999755859375</ele>
        <time>2021-11-06T12:53:40.000Z</time>
      </trkpt>
      <trkpt lat="41.94174352101981639862060546875" lon="-6.88219201751053333282470703125">
        <ele>1077.4000244140625</ele>
        <time>2021-11-06T12:53:43.000Z</time>
      </trkpt>
      <trkpt lat="41.9417709298431873321533203125" lon="-6.88213837333023548126220703125">
        <ele>1076</ele>
        <time>2021-11-06T12:53:47.000Z</time>
      </trkpt>
      <trkpt lat="41.94182314909994602203369140625" lon="-6.8820019997656345367431640625">
        <ele>1075.199951171875</ele>
        <time>2021-11-06T12:53:56.000Z</time>
      </trkpt>
      <trkpt lat="41.94183982908725738525390625" lon="-6.88196369446814060211181640625">
        <ele>1075</ele>
        <time>2021-11-06T12:53:58.000Z</time>
      </trkpt>
      <trkpt lat="41.9419224746525287628173828125" lon="-6.88178214244544506072998046875">
        <ele>1074</ele>
        <time>2021-11-06T12:54:08.000Z</time>
      </trkpt>
      <trkpt lat="41.941977627575397491455078125" lon="-6.8816838227212429046630859375">
        <ele>1072.800048828125</ele>
        <time>2021-11-06T12:54:14.000Z</time>
      </trkpt>
      <trkpt lat="41.9420321099460124969482421875" lon="-6.881596148014068603515625">
        <ele>1071.5999755859375</ele>
        <time>2021-11-06T12:54:20.000Z</time>
      </trkpt>
      <trkpt lat="41.942072845995426177978515625" lon="-6.8815265782177448272705078125">
        <ele>1070.4000244140625</ele>
        <time>2021-11-06T12:54:25.000Z</time>
      </trkpt>
      <trkpt lat="41.94209790788590908050537109375" lon="-6.8814833275973796844482421875">
        <ele>1069.4000244140625</ele>
        <time>2021-11-06T12:54:28.000Z</time>
      </trkpt>
      <trkpt lat="41.94216060452163219451904296875" lon="-6.8813941441476345062255859375">
        <ele>1068.199951171875</ele>
        <time>2021-11-06T12:54:35.000Z</time>
      </trkpt>
      <trkpt lat="41.94218315184116363525390625" lon="-6.88135407865047454833984375">
        <ele>1067</ele>
        <time>2021-11-06T12:54:38.000Z</time>
      </trkpt>
      <trkpt lat="41.94224207662045955657958984375" lon="-6.8812888674437999725341796875">
        <ele>1065.800048828125</ele>
        <time>2021-11-06T12:54:45.000Z</time>
      </trkpt>
      <trkpt lat="41.942283399403095245361328125" lon="-6.8812311999499797821044921875">
        <ele>1064.800048828125</ele>
        <time>2021-11-06T12:54:50.000Z</time>
      </trkpt>
      <trkpt lat="41.9423308409750461578369140625" lon="-6.881108321249485015869140625">
        <ele>1063.5999755859375</ele>
        <time>2021-11-06T12:54:58.000Z</time>
      </trkpt>
      <trkpt lat="41.9423258118331432342529296875" lon="-6.88109717331826686859130859375">
        <ele>1063.199951171875</ele>
        <time>2021-11-06T12:55:00.000Z</time>
      </trkpt>
      <trkpt lat="41.9423315115272998809814453125" lon="-6.88105409033596515655517578125">
        <ele>1062.800048828125</ele>
        <time>2021-11-06T12:55:03.000Z</time>
      </trkpt>
      <trkpt lat="41.94233067333698272705078125" lon="-6.88101318664848804473876953125">
        <ele>1062.800048828125</ele>
        <time>2021-11-06T12:55:05.000Z</time>
      </trkpt>
      <trkpt lat="41.94232321344316005706787109375" lon="-6.8809747137129306793212890625">
        <ele>1062.5999755859375</ele>
        <time>2021-11-06T12:55:07.000Z</time>
      </trkpt>
      <trkpt lat="41.9423244707286357879638671875" lon="-6.880956105887889862060546875">
        <ele>1062.5999755859375</ele>
        <time>2021-11-06T12:55:08.000Z</time>
      </trkpt>
      <trkpt lat="41.94236629642546176910400390625" lon="-6.88086750917136669158935546875">
        <ele>1061.5999755859375</ele>
        <time>2021-11-06T12:55:14.000Z</time>
      </trkpt>
      <trkpt lat="41.94248917512595653533935546875" lon="-6.880673132836818695068359375">
        <ele>1061.4000244140625</ele>
        <time>2021-11-06T12:55:29.000Z</time>
      </trkpt>
      <trkpt lat="41.94259277544915676116943359375" lon="-6.880463249981403350830078125">
        <ele>1060.800048828125</ele>
        <time>2021-11-06T12:55:44.000Z</time>
      </trkpt>
      <trkpt lat="41.94261339493095874786376953125" lon="-6.880387477576732635498046875">
        <ele>1060.5999755859375</ele>
        <time>2021-11-06T12:55:49.000Z</time>
      </trkpt>
      <trkpt lat="41.94264859892427921295166015625" lon="-6.880314387381076812744140625">
        <ele>1060</ele>
        <time>2021-11-06T12:55:54.000Z</time>
      </trkpt>
      <trkpt lat="41.942684389650821685791015625" lon="-6.88025294803082942962646484375">
        <ele>1059.5999755859375</ele>
        <time>2021-11-06T12:55:59.000Z</time>
      </trkpt>
      <trkpt lat="41.9427227787673473358154296875" lon="-6.88013761304318904876708984375">
        <ele>1058.4000244140625</ele>
        <time>2021-11-06T12:56:07.000Z</time>
      </trkpt>
      <trkpt lat="41.94277751259505748748779296875" lon="-6.87989789061248302459716796875">
        <ele>1057.5999755859375</ele>
        <time>2021-11-06T12:56:22.000Z</time>
      </trkpt>
      <trkpt lat="41.9427837990224361419677734375" lon="-6.879842318594455718994140625">
        <ele>1057.4000244140625</ele>
        <time>2021-11-06T12:56:25.000Z</time>
      </trkpt>
      <trkpt lat="41.942844651639461517333984375" lon="-6.87961491756141185760498046875">
        <ele>1057.4000244140625</ele>
        <time>2021-11-06T12:56:40.000Z</time>
      </trkpt>
      <trkpt lat="41.9428629241883754730224609375" lon="-6.879577450454235076904296875">
        <ele>1057</ele>
        <time>2021-11-06T12:56:43.000Z</time>
      </trkpt>
      <trkpt lat="41.94292922504246234893798828125" lon="-6.87952271662652492523193359375">
        <ele>1056.4000244140625</ele>
        <time>2021-11-06T12:56:50.000Z</time>
      </trkpt>
      <trkpt lat="41.94299158640205860137939453125" lon="-6.879421211779117584228515625">
        <ele>1055.4000244140625</ele>
        <time>2021-11-06T12:56:58.000Z</time>
      </trkpt>
      <trkpt lat="41.94305528886616230010986328125" lon="-6.87918811105191707611083984375">
        <ele>1054.4000244140625</ele>
        <time>2021-11-06T12:57:12.000Z</time>
      </trkpt>
      <trkpt lat="41.9430662691593170166015625" lon="-6.87913857400417327880859375">
        <ele>1054.199951171875</ele>
        <time>2021-11-06T12:57:15.000Z</time>
      </trkpt>
      <trkpt lat="41.943126283586025238037109375" lon="-6.87890128232538700103759765625">
        <ele>1053.4000244140625</ele>
        <time>2021-11-06T12:57:30.000Z</time>
      </trkpt>
      <trkpt lat="41.94314246065914630889892578125" lon="-6.878824420273303985595703125">
        <ele>1053.199951171875</ele>
        <time>2021-11-06T12:57:35.000Z</time>
      </trkpt>
      <trkpt lat="41.943165846168994903564453125" lon="-6.87857606448233127593994140625">
        <ele>1053.800048828125</ele>
        <time>2021-11-06T12:57:49.000Z</time>
      </trkpt>
      <trkpt lat="41.943161822855472564697265625" lon="-6.87849710695445537567138671875">
        <ele>1054.199951171875</ele>
        <time>2021-11-06T12:57:54.000Z</time>
      </trkpt>
      <trkpt lat="41.9431257806718349456787109375" lon="-6.87830717302858829498291015625">
        <ele>1055.4000244140625</ele>
        <time>2021-11-06T12:58:06.000Z</time>
      </trkpt>
      <trkpt lat="41.94308169186115264892578125" lon="-6.8780648522078990936279296875">
        <ele>1056.199951171875</ele>
        <time>2021-11-06T12:58:21.000Z</time>
      </trkpt>
      <trkpt lat="41.943070627748966217041015625" lon="-6.878020763397216796875">
        <ele>1056.199951171875</ele>
        <time>2021-11-06T12:58:24.000Z</time>
      </trkpt>
      <trkpt lat="41.94306551478803157806396484375" lon="-6.8779582343995571136474609375">
        <ele>1056.199951171875</ele>
        <time>2021-11-06T12:58:29.000Z</time>
      </trkpt>
      <trkpt lat="41.943063922226428985595703125" lon="-6.8779414705932140350341796875">
        <ele>1056</ele>
        <time>2021-11-06T12:58:31.000Z</time>
      </trkpt>
      <trkpt lat="41.94306585006415843963623046875" lon="-6.87787651084363460540771484375">
        <ele>1056</ele>
        <time>2021-11-06T12:58:35.000Z</time>
      </trkpt>
      <trkpt lat="41.943067945539951324462890625" lon="-6.87784306704998016357421875">
        <ele>1056</ele>
        <time>2021-11-06T12:58:37.000Z</time>
      </trkpt>
      <trkpt lat="41.9430930912494659423828125" lon="-6.8776015006005764007568359375">
        <ele>1055.4000244140625</ele>
        <time>2021-11-06T12:58:55.000Z</time>
      </trkpt>
      <trkpt lat="41.94321571849286556243896484375" lon="-6.87742237932980060577392578125">
        <ele>1054.5999755859375</ele>
        <time>2021-11-06T12:59:11.000Z</time>
      </trkpt>
      <trkpt lat="41.94328729994595050811767578125" lon="-6.8773580901324748992919921875">
        <ele>1054.4000244140625</ele>
        <time>2021-11-06T12:59:18.000Z</time>
      </trkpt>
      <trkpt lat="41.9433289580047130584716796875" lon="-6.877312995493412017822265625">
        <ele>1054.4000244140625</ele>
        <time>2021-11-06T12:59:23.000Z</time>
      </trkpt>
      <trkpt lat="41.943481005728244781494140625" lon="-6.87717377208173274993896484375">
        <ele>1053.5999755859375</ele>
        <time>2021-11-06T12:59:39.000Z</time>
      </trkpt>
      <trkpt lat="41.94355132989585399627685546875" lon="-6.8770821578800678253173828125">
        <ele>1053.199951171875</ele>
        <time>2021-11-06T12:59:48.000Z</time>
      </trkpt>
      <trkpt lat="41.94369046948850154876708984375" lon="-6.876909993588924407958984375">
        <ele>1052.5999755859375</ele>
        <time>2021-11-06T13:00:04.000Z</time>
      </trkpt>
      <trkpt lat="41.94373338483273983001708984375" lon="-6.876820139586925506591796875">
        <ele>1052.199951171875</ele>
        <time>2021-11-06T13:00:11.000Z</time>
      </trkpt>
      <trkpt lat="41.94375316612422466278076171875" lon="-6.876726932823657989501953125">
        <ele>1052</ele>
        <time>2021-11-06T13:00:17.000Z</time>
      </trkpt>
      <trkpt lat="41.943837739527225494384765625" lon="-6.87663632445037364959716796875">
        <ele>1051.199951171875</ele>
        <time>2021-11-06T13:00:28.000Z</time>
      </trkpt>
      <trkpt lat="41.94389465264976024627685546875" lon="-6.87661654315888881683349609375">
        <ele>1050</ele>
        <time>2021-11-06T13:00:34.000Z</time>
      </trkpt>
      <trkpt lat="41.94393136538565158843994140625" lon="-6.87661017291247844696044921875">
        <ele>1049.5999755859375</ele>
        <time>2021-11-06T13:00:39.000Z</time>
      </trkpt>
      <trkpt lat="41.9439488835632801055908203125" lon="-6.87660430558025836944580078125">
        <ele>1049.4000244140625</ele>
        <time>2021-11-06T13:00:41.000Z</time>
      </trkpt>
      <trkpt lat="41.94397461600601673126220703125" lon="-6.8765859492123126983642578125">
        <ele>1049</ele>
        <time>2021-11-06T13:00:44.000Z</time>
      </trkpt>
      <trkpt lat="41.94401510059833526611328125" lon="-6.87656641937792301177978515625">
        <ele>1048.4000244140625</ele>
        <time>2021-11-06T13:00:48.000Z</time>
      </trkpt>
      <trkpt lat="41.94407100789248943328857421875" lon="-6.87655820511281490325927734375">
        <ele>1047.800048828125</ele>
        <time>2021-11-06T13:00:53.000Z</time>
      </trkpt>
      <trkpt lat="41.9441606104373931884765625" lon="-6.8765120208263397216796875">
        <ele>1046.5999755859375</ele>
        <time>2021-11-06T13:01:02.000Z</time>
      </trkpt>
      <trkpt lat="41.944204866886138916015625" lon="-6.8764957599341869354248046875">
        <ele>1046</ele>
        <time>2021-11-06T13:01:07.000Z</time>
      </trkpt>
      <trkpt lat="41.94422171451151371002197265625" lon="-6.87648779712617397308349609375">
        <ele>1045.5999755859375</ele>
        <time>2021-11-06T13:01:09.000Z</time>
      </trkpt>
      <trkpt lat="41.9442598521709442138671875" lon="-6.87646181322634220123291015625">
        <ele>1044.800048828125</ele>
        <time>2021-11-06T13:01:13.000Z</time>
      </trkpt>
      <trkpt lat="41.94429581053555011749267578125" lon="-6.87644538469612598419189453125">
        <ele>1044.4000244140625</ele>
        <time>2021-11-06T13:01:17.000Z</time>
      </trkpt>
      <trkpt lat="41.94431961514055728912353515625" lon="-6.8764276988804340362548828125">
        <ele>1044</ele>
        <time>2021-11-06T13:01:20.000Z</time>
      </trkpt>
      <trkpt lat="41.94433922879397869110107421875" lon="-6.87641923315823078155517578125">
        <ele>1043.800048828125</ele>
        <time>2021-11-06T13:01:22.000Z</time>
      </trkpt>
      <trkpt lat="41.94437208585441112518310546875" lon="-6.876392327249050140380859375">
        <ele>1043.4000244140625</ele>
        <time>2021-11-06T13:01:26.000Z</time>
      </trkpt>
      <trkpt lat="41.94442656822502613067626953125" lon="-6.87634178437292575836181640625">
        <ele>1042.199951171875</ele>
        <time>2021-11-06T13:01:33.000Z</time>
      </trkpt>
      <trkpt lat="41.9444729201495647430419921875" lon="-6.8762979470193386077880859375">
        <ele>1041.5999755859375</ele>
        <time>2021-11-06T13:01:38.000Z</time>
      </trkpt>
      <trkpt lat="41.94448960013687610626220703125" lon="-6.876279003918170928955078125">
        <ele>1041.199951171875</ele>
        <time>2021-11-06T13:01:40.000Z</time>
      </trkpt>
      <trkpt lat="41.944564618170261383056640625" lon="-6.876198537647724151611328125">
        <ele>1040.199951171875</ele>
        <time>2021-11-06T13:01:48.000Z</time>
      </trkpt>
      <trkpt lat="41.94464868865907192230224609375" lon="-6.87610725872218608856201171875">
        <ele>1039.199951171875</ele>
        <time>2021-11-06T13:01:57.000Z</time>
      </trkpt>
      <trkpt lat="41.94471775554120540618896484375" lon="-6.87600784935057163238525390625">
        <ele>1038</ele>
        <time>2021-11-06T13:02:06.000Z</time>
      </trkpt>
      <trkpt lat="41.94480769336223602294921875" lon="-6.87589871697127819061279296875">
        <ele>1037</ele>
        <time>2021-11-06T13:02:15.000Z</time>
      </trkpt>
      <trkpt lat="41.9448792748153209686279296875" lon="-6.8758124671876430511474609375">
        <ele>1036</ele>
        <time>2021-11-06T13:02:23.000Z</time>
      </trkpt>
      <trkpt lat="41.94492110051214694976806640625" lon="-6.87570878304541110992431640625">
        <ele>1035.199951171875</ele>
        <time>2021-11-06T13:02:30.000Z</time>
      </trkpt>
      <trkpt lat="41.94493887014687061309814453125" lon="-6.87566402368247509002685546875">
        <ele>1035</ele>
        <time>2021-11-06T13:02:33.000Z</time>
      </trkpt>
      <trkpt lat="41.945076249539852142333984375" lon="-6.8755435757339000701904296875">
        <ele>1034</ele>
        <time>2021-11-06T13:02:47.000Z</time>
      </trkpt>
      <trkpt lat="41.94526006467640399932861328125" lon="-6.87557014636695384979248046875">
        <ele>1033.800048828125</ele>
        <time>2021-11-06T13:03:01.000Z</time>
      </trkpt>
      <trkpt lat="41.94545066915452480316162109375" lon="-6.8755732476711273193359375">
        <ele>1033.5999755859375</ele>
        <time>2021-11-06T13:03:19.000Z</time>
      </trkpt>
      <trkpt lat="41.94546525366604328155517578125" lon="-6.8755817972123622894287109375">
        <ele>1033.5999755859375</ele>
        <time>2021-11-06T13:03:20.000Z</time>
      </trkpt>
      <trkpt lat="41.94558561779558658599853515625" lon="-6.87576142139732837677001953125">
        <ele>1033.5999755859375</ele>
        <time>2021-11-06T13:03:36.000Z</time>
      </trkpt>
      <trkpt lat="41.94559332914650440216064453125" lon="-6.8758419714868068695068359375">
        <ele>1033.4000244140625</ele>
        <time>2021-11-06T13:03:41.000Z</time>
      </trkpt>
      <trkpt lat="41.9456028006970882415771484375" lon="-6.8759623356163501739501953125">
        <ele>1032.800048828125</ele>
        <time>2021-11-06T13:03:49.000Z</time>
      </trkpt>
      <trkpt lat="41.9456644915044307708740234375" lon="-6.87615604139864444732666015625">
        <ele>1031.800048828125</ele>
        <time>2021-11-06T13:04:03.000Z</time>
      </trkpt>
      <trkpt lat="41.94568200968205928802490234375" lon="-6.87619677744805812835693359375">
        <ele>1031.199951171875</ele>
        <time>2021-11-06T13:04:06.000Z</time>
      </trkpt>
      <trkpt lat="41.94570212624967098236083984375" lon="-6.87623483128845691680908203125">
        <ele>1030.800048828125</ele>
        <time>2021-11-06T13:04:09.000Z</time>
      </trkpt>
      <trkpt lat="41.94578946568071842193603515625" lon="-6.87636726535856723785400390625">
        <ele>1029.5999755859375</ele>
        <time>2021-11-06T13:04:22.000Z</time>
      </trkpt>
      <trkpt lat="41.9458361528813838958740234375" lon="-6.87648310326039791107177734375">
        <ele>1028.5999755859375</ele>
        <time>2021-11-06T13:04:32.000Z</time>
      </trkpt>
      <trkpt lat="41.94590203464031219482421875" lon="-6.8765695206820964813232421875">
        <ele>1027.4000244140625</ele>
        <time>2021-11-06T13:04:41.000Z</time>
      </trkpt>
      <trkpt lat="41.94594536907970905303955078125" lon="-6.87664143741130828857421875">
        <ele>1026.4000244140625</ele>
        <time>2021-11-06T13:04:47.000Z</time>
      </trkpt>
      <trkpt lat="41.945998929440975189208984375" lon="-6.8767131865024566650390625">
        <ele>1025.4000244140625</ele>
        <time>2021-11-06T13:04:54.000Z</time>
      </trkpt>
      <trkpt lat="41.94608065299689769744873046875" lon="-6.87678434886038303375244140625">
        <ele>1024.199951171875</ele>
        <time>2021-11-06T13:05:04.000Z</time>
      </trkpt>
      <trkpt lat="41.9461050443351268768310546875" lon="-6.876800023019313812255859375">
        <ele>1024.199951171875</ele>
        <time>2021-11-06T13:05:06.000Z</time>
      </trkpt>
      <trkpt lat="41.94613412953913211822509765625" lon="-6.87683464027941226959228515625">
        <ele>1024.199951171875</ele>
        <time>2021-11-06T13:05:09.000Z</time>
      </trkpt>
      <trkpt lat="41.946269161999225616455078125" lon="-6.87691091559827327728271484375">
        <ele>1023.20001220703125</ele>
        <time>2021-11-06T13:05:22.000Z</time>
      </trkpt>
      <trkpt lat="41.9464419968426227569580078125" lon="-6.8769792281091213226318359375">
        <ele>1023.20001220703125</ele>
        <time>2021-11-06T13:05:37.000Z</time>
      </trkpt>
      <trkpt lat="41.9466149993240833282470703125" lon="-6.87707335688173770904541015625">
        <ele>1023.4000244140625</ele>
        <time>2021-11-06T13:05:52.000Z</time>
      </trkpt>
      <trkpt lat="41.94679160602390766143798828125" lon="-6.87713655643165111541748046875">
        <ele>1022.79998779296875</ele>
        <time>2021-11-06T13:06:08.000Z</time>
      </trkpt>
      <trkpt lat="41.9469371996819972991943359375" lon="-6.8771914578974246978759765625">
        <ele>1022.20001220703125</ele>
        <time>2021-11-06T13:06:21.000Z</time>
      </trkpt>
      <trkpt lat="41.94709352217614650726318359375" lon="-6.87727888114750385284423828125">
        <ele>1021.20001220703125</ele>
        <time>2021-11-06T13:06:37.000Z</time>
      </trkpt>
      <trkpt lat="41.94724037311971187591552734375" lon="-6.87733688391745090484619140625">
        <ele>1020.20001220703125</ele>
        <time>2021-11-06T13:06:50.000Z</time>
      </trkpt>
      <trkpt lat="41.94741320796310901641845703125" lon="-6.87733210623264312744140625">
        <ele>1019.20001220703125</ele>
        <time>2021-11-06T13:07:05.000Z</time>
      </trkpt>
      <trkpt lat="41.9474199973046779632568359375" lon="-6.87732162885367870330810546875">
        <ele>1019.20001220703125</ele>
        <time>2021-11-06T13:07:06.000Z</time>
      </trkpt>
      <trkpt lat="41.94742125459015369415283203125" lon="-6.8773218803107738494873046875">
        <ele>1019.20001220703125</ele>
        <time>2021-11-06T13:07:07.000Z</time>
      </trkpt>
      <trkpt lat="41.94741890765726566314697265625" lon="-6.8773202039301395416259765625">
        <ele>1019.20001220703125</ele>
        <time>2021-11-06T13:07:10.000Z</time>
      </trkpt>
      <trkpt lat="41.9474793411791324615478515625" lon="-6.87734685838222503662109375">
        <ele>1019.4000244140625</ele>
        <time>2021-11-06T13:08:40.000Z</time>
      </trkpt>
      <trkpt lat="41.947654522955417633056640625" lon="-6.877429671585559844970703125">
        <ele>1019.5999755859375</ele>
        <time>2021-11-06T13:08:53.000Z</time>
      </trkpt>
      <trkpt lat="41.94783498533070087432861328125" lon="-6.8774694018065929412841796875">
        <ele>1018.4000244140625</ele>
        <time>2021-11-06T13:09:05.000Z</time>
      </trkpt>
      <trkpt lat="41.9479782320559024810791015625" lon="-6.87746294774115085601806640625">
        <ele>1018</ele>
        <time>2021-11-06T13:09:17.000Z</time>
      </trkpt>
      <trkpt lat="41.94811896421015262603759765625" lon="-6.8774687312543392181396484375">
        <ele>1017</ele>
        <time>2021-11-06T13:09:29.000Z</time>
      </trkpt>
      <trkpt lat="41.94819959811866283416748046875" lon="-6.87741315923631191253662109375">
        <ele>1016</ele>
        <time>2021-11-06T13:09:36.000Z</time>
      </trkpt>
      <trkpt lat="41.948206387460231781005859375" lon="-6.87740326859056949615478515625">
        <ele>1015.79998779296875</ele>
        <time>2021-11-06T13:09:37.000Z</time>
      </trkpt>
      <trkpt lat="41.9482568465173244476318359375" lon="-6.8773342855274677276611328125">
        <ele>1014.79998779296875</ele>
        <time>2021-11-06T13:09:42.000Z</time>
      </trkpt>
      <trkpt lat="41.94833655841648578643798828125" lon="-6.877192296087741851806640625">
        <ele>1013.79998779296875</ele>
        <time>2021-11-06T13:09:52.000Z</time>
      </trkpt>
      <trkpt lat="41.948387436568737030029296875" lon="-6.87710587866604328155517578125">
        <ele>1012.5999755859375</ele>
        <time>2021-11-06T13:09:58.000Z</time>
      </trkpt>
      <trkpt lat="41.94841501303017139434814453125" lon="-6.87694880180060863494873046875">
        <ele>1011.5999755859375</ele>
        <time>2021-11-06T13:10:06.000Z</time>
      </trkpt>
      <trkpt lat="41.94840990006923675537109375" lon="-6.87668862752616405487060546875">
        <ele>1011.4000244140625</ele>
        <time>2021-11-06T13:10:20.000Z</time>
      </trkpt>
      <trkpt lat="41.94845507852733135223388671875" lon="-6.8764905631542205810546875">
        <ele>1010.5999755859375</ele>
        <time>2021-11-06T13:10:32.000Z</time>
      </trkpt>
      <trkpt lat="41.9485057890415191650390625" lon="-6.8763774074614048004150390625">
        <ele>1009.4000244140625</ele>
        <time>2021-11-06T13:10:39.000Z</time>
      </trkpt>
      <trkpt lat="41.94853051565587520599365234375" lon="-6.876323260366916656494140625">
        <ele>1008.20001220703125</ele>
        <time>2021-11-06T13:10:43.000Z</time>
      </trkpt>
      <trkpt lat="41.94855733774602413177490234375" lon="-6.8762520141899585723876953125">
        <ele>1007.79998779296875</ele>
        <time>2021-11-06T13:10:48.000Z</time>
      </trkpt>
      <trkpt lat="41.94857376627624034881591796875" lon="-6.8761899881064891815185546875">
        <ele>1007</ele>
        <time>2021-11-06T13:10:52.000Z</time>
      </trkpt>
      <trkpt lat="41.9485994987189769744873046875" lon="-6.876103989779949188232421875">
        <ele>1006</ele>
        <time>2021-11-06T13:10:57.000Z</time>
      </trkpt>
      <trkpt lat="41.9486524723470211029052734375" lon="-6.87599242664873600006103515625">
        <ele>1004.79998779296875</ele>
        <time>2021-11-06T13:11:04.000Z</time>
      </trkpt>
      <trkpt lat="41.94867820478975772857666015625" lon="-6.8759241141378879547119140625">
        <ele>1004.5999755859375</ele>
        <time>2021-11-06T13:11:08.000Z</time>
      </trkpt>
      <trkpt lat="41.9486881792545318603515625" lon="-6.8758889101445674896240234375">
        <ele>1003.79998779296875</ele>
        <time>2021-11-06T13:11:10.000Z</time>
      </trkpt>
      <trkpt lat="41.94873805157840251922607421875" lon="-6.87579964287579059600830078125">
        <ele>1002.5999755859375</ele>
        <time>2021-11-06T13:11:16.000Z</time>
      </trkpt>
      <trkpt lat="41.94876571185886859893798828125" lon="-6.8757430650293827056884765625">
        <ele>1001.79998779296875</ele>
        <time>2021-11-06T13:11:21.000Z</time>
      </trkpt>
      <trkpt lat="41.94877677597105503082275390625" lon="-6.875724457204341888427734375">
        <ele>1001.5999755859375</ele>
        <time>2021-11-06T13:11:23.000Z</time>
      </trkpt>
      <trkpt lat="41.94878163747489452362060546875" lon="-6.8757175840437412261962890625">
        <ele>1001.4000244140625</ele>
        <time>2021-11-06T13:11:24.000Z</time>
      </trkpt>
      <trkpt lat="41.94879655726253986358642578125" lon="-6.87569729983806610107421875">
        <ele>1000.4000244140625</ele>
        <time>2021-11-06T13:11:26.000Z</time>
      </trkpt>
      <trkpt lat="41.9488315097987651824951171875" lon="-6.875643990933895111083984375">
        <ele>999.4000244140625</ele>
        <time>2021-11-06T13:11:30.000Z</time>
      </trkpt>
      <trkpt lat="41.9488652050495147705078125" lon="-6.8756180070340633392333984375">
        <ele>998.5999755859375</ele>
        <time>2021-11-06T13:11:33.000Z</time>
      </trkpt>
      <trkpt lat="41.94889135658740997314453125" lon="-6.8755828030407428741455078125">
        <ele>998.4000244140625</ele>
        <time>2021-11-06T13:11:36.000Z</time>
      </trkpt>
      <trkpt lat="41.94896905682981014251708984375" lon="-6.8755281530320644378662109375">
        <ele>997.20001220703125</ele>
        <time>2021-11-06T13:11:44.000Z</time>
      </trkpt>
      <trkpt lat="41.949053294956684112548828125" lon="-6.87550191767513751983642578125">
        <ele>996.20001220703125</ele>
        <time>2021-11-06T13:11:51.000Z</time>
      </trkpt>
      <trkpt lat="41.94916334934532642364501953125" lon="-6.87541726045310497283935546875">
        <ele>995.5999755859375</ele>
        <time>2021-11-06T13:12:00.000Z</time>
      </trkpt>
      <trkpt lat="41.94918950088322162628173828125" lon="-6.8753561563789844512939453125">
        <ele>995.20001220703125</ele>
        <time>2021-11-06T13:12:03.000Z</time>
      </trkpt>
      <trkpt lat="41.9491976313292980194091796875" lon="-6.87527443282306194305419921875">
        <ele>994.5999755859375</ele>
        <time>2021-11-06T13:12:07.000Z</time>
      </trkpt>
      <trkpt lat="41.9491822086274623870849609375" lon="-6.87523118220269680023193359375">
        <ele>994.4000244140625</ele>
        <time>2021-11-06T13:12:09.000Z</time>
      </trkpt>
      <trkpt lat="41.94916619919240474700927734375" lon="-6.8751908652484416961669921875">
        <ele>994</ele>
        <time>2021-11-06T13:12:11.000Z</time>
      </trkpt>
      <trkpt lat="41.9491366110742092132568359375" lon="-6.87511953525245189666748046875">
        <ele>992.79998779296875</ele>
        <time>2021-11-06T13:12:16.000Z</time>
      </trkpt>
      <trkpt lat="41.94909512065351009368896484375" lon="-6.8750094808638095855712890625">
        <ele>991.5999755859375</ele>
        <time>2021-11-06T13:12:23.000Z</time>
      </trkpt>
      <trkpt lat="41.9490849785506725311279296875" lon="-6.8749447725713253021240234375">
        <ele>990.5999755859375</ele>
        <time>2021-11-06T13:12:27.000Z</time>
      </trkpt>
      <trkpt lat="41.94903460331261157989501953125" lon="-6.87485801987349987030029296875">
        <ele>989.5999755859375</ele>
        <time>2021-11-06T13:12:33.000Z</time>
      </trkpt>
      <trkpt lat="41.9489709846675395965576171875" lon="-6.87478358857333660125732421875">
        <ele>988.4000244140625</ele>
        <time>2021-11-06T13:12:39.000Z</time>
      </trkpt>
      <trkpt lat="41.94897056557238101959228515625" lon="-6.874759197235107421875">
        <ele>988</ele>
        <time>2021-11-06T13:12:41.000Z</time>
      </trkpt>
      <trkpt lat="41.9489766843616962432861328125" lon="-6.87473145313560962677001953125">
        <ele>987.5999755859375</ele>
        <time>2021-11-06T13:12:44.000Z</time>
      </trkpt>
      <trkpt lat="41.94899353198707103729248046875" lon="-6.87471385113894939422607421875">
        <ele>987.4000244140625</ele>
        <time>2021-11-06T13:12:47.000Z</time>
      </trkpt>
      <trkpt lat="41.948999650776386260986328125" lon="-6.87471167184412479400634765625">
        <ele>987.20001220703125</ele>
        <time>2021-11-06T13:12:48.000Z</time>
      </trkpt>
      <trkpt lat="41.94907399825751781463623046875" lon="-6.874724328517913818359375">
        <ele>986.79998779296875</ele>
        <time>2021-11-06T13:12:54.000Z</time>
      </trkpt>
      <trkpt lat="41.949104927480220794677734375" lon="-6.87473480589687824249267578125">
        <ele>986.4000244140625</ele>
        <time>2021-11-06T13:12:57.000Z</time>
      </trkpt>
      <trkpt lat="41.94911397993564605712890625" lon="-6.874738074839115142822265625">
        <ele>986.20001220703125</ele>
        <time>2021-11-06T13:12:58.000Z</time>
      </trkpt>
      <trkpt lat="41.9491476751863956451416015625" lon="-6.87474084086716175079345703125">
        <ele>986</ele>
        <time>2021-11-06T13:13:02.000Z</time>
      </trkpt>
      <trkpt lat="41.949206851422786712646484375" lon="-6.87474511563777923583984375">
        <ele>985.20001220703125</ele>
        <time>2021-11-06T13:13:06.000Z</time>
      </trkpt>
      <trkpt lat="41.949272565543651580810546875" lon="-6.87473916448652744293212890625">
        <ele>984</ele>
        <time>2021-11-06T13:13:11.000Z</time>
      </trkpt>
      <trkpt lat="41.9493076018989086151123046875" lon="-6.8747308664023876190185546875">
        <ele>983.4000244140625</ele>
        <time>2021-11-06T13:13:15.000Z</time>
      </trkpt>
      <trkpt lat="41.9493305683135986328125" lon="-6.87470949254930019378662109375">
        <ele>983</ele>
        <time>2021-11-06T13:13:17.000Z</time>
      </trkpt>
      <trkpt lat="41.94934557192027568817138671875" lon="-6.8747053854167461395263671875">
        <ele>983</ele>
        <time>2021-11-06T13:13:18.000Z</time>
      </trkpt>
      <trkpt lat="41.94938597269356250762939453125" lon="-6.87467579729855060577392578125">
        <ele>982.5999755859375</ele>
        <time>2021-11-06T13:13:21.000Z</time>
      </trkpt>
      <trkpt lat="41.9495250284671783447265625" lon="-6.87456750310957431793212890625">
        <ele>981.79998779296875</ele>
        <time>2021-11-06T13:13:32.000Z</time>
      </trkpt>
      <trkpt lat="41.94958495907485485076904296875" lon="-6.87451218254864215850830078125">
        <ele>981.20001220703125</ele>
        <time>2021-11-06T13:13:37.000Z</time>
      </trkpt>
      <trkpt lat="41.9496184028685092926025390625" lon="-6.874487958848476409912109375">
        <ele>981.20001220703125</ele>
        <time>2021-11-06T13:13:40.000Z</time>
      </trkpt>
      <trkpt lat="41.9496650062501430511474609375" lon="-6.8744064867496490478515625">
        <ele>980.79998779296875</ele>
        <time>2021-11-06T13:13:45.000Z</time>
      </trkpt>
      <trkpt lat="41.94979735650122165679931640625" lon="-6.8742242641746997833251953125">
        <ele>980.4000244140625</ele>
        <time>2021-11-06T13:13:59.000Z</time>
      </trkpt>
      <trkpt lat="41.94982367567718029022216796875" lon="-6.87416316010057926177978515625">
        <ele>980.5999755859375</ele>
        <time>2021-11-06T13:14:03.000Z</time>
      </trkpt>
      <trkpt lat="41.94992266595363616943359375" lon="-6.8740378506481647491455078125">
        <ele>979.79998779296875</ele>
        <time>2021-11-06T13:14:12.000Z</time>
      </trkpt>
      <trkpt lat="41.95002601481974124908447265625" lon="-6.87396685592830181121826171875">
        <ele>978.5999755859375</ele>
        <time>2021-11-06T13:14:21.000Z</time>
      </trkpt>
      <trkpt lat="41.950038336217403411865234375" lon="-6.8739612400531768798828125">
        <ele>978.4000244140625</ele>
        <time>2021-11-06T13:14:22.000Z</time>
      </trkpt>
      <trkpt lat="41.95006750524044036865234375" lon="-6.87395260669291019439697265625">
        <ele>978</ele>
        <time>2021-11-06T13:14:24.000Z</time>
      </trkpt>
      <trkpt lat="41.95010371506214141845703125" lon="-6.8739268742501735687255859375">
        <ele>977.5999755859375</ele>
        <time>2021-11-06T13:14:28.000Z</time>
      </trkpt>
      <trkpt lat="41.95018460042774677276611328125" lon="-6.87391773797571659088134765625">
        <ele>976.5999755859375</ele>
        <time>2021-11-06T13:14:35.000Z</time>
      </trkpt>
      <trkpt lat="41.95029146969318389892578125" lon="-6.8739223480224609375">
        <ele>975.4000244140625</ele>
        <time>2021-11-06T13:14:43.000Z</time>
      </trkpt>
      <trkpt lat="41.95045667700469493865966796875" lon="-6.8738635070621967315673828125">
        <ele>974.4000244140625</ele>
        <time>2021-11-06T13:14:57.000Z</time>
      </trkpt>
      <trkpt lat="41.9504700042307376861572265625" lon="-6.87385571189224720001220703125">
        <ele>974.20001220703125</ele>
        <time>2021-11-06T13:14:59.000Z</time>
      </trkpt>
      <trkpt lat="41.95049623958766460418701171875" lon="-6.8738625012338161468505859375">
        <ele>973.79998779296875</ele>
        <time>2021-11-06T13:15:03.000Z</time>
      </trkpt>
      <trkpt lat="41.95052389986813068389892578125" lon="-6.87388479709625244140625">
        <ele>973.5999755859375</ele>
        <time>2021-11-06T13:15:05.000Z</time>
      </trkpt>
      <trkpt lat="41.95054183714091777801513671875" lon="-6.87391228973865509033203125">
        <ele>973.4000244140625</ele>
        <time>2021-11-06T13:15:07.000Z</time>
      </trkpt>
      <trkpt lat="41.95046556182205677032470703125" lon="-6.87402200885117053985595703125">
        <ele>972.20001220703125</ele>
        <time>2021-11-06T13:15:20.000Z</time>
      </trkpt>
      <trkpt lat="41.95043320767581462860107421875" lon="-6.8740267865359783172607421875">
        <ele>972</ele>
        <time>2021-11-06T13:15:23.000Z</time>
      </trkpt>
      <trkpt lat="41.95037302561104297637939453125" lon="-6.87405520118772983551025390625">
        <ele>971.20001220703125</ele>
        <time>2021-11-06T13:15:28.000Z</time>
      </trkpt>
      <trkpt lat="41.95032340474426746368408203125" lon="-6.87419048510491847991943359375">
        <ele>970.5999755859375</ele>
        <time>2021-11-06T13:15:35.000Z</time>
      </trkpt>
      <trkpt lat="41.95040068589150905609130859375" lon="-6.8744301237165927886962890625">
        <ele>970.20001220703125</ele>
        <time>2021-11-06T13:15:46.000Z</time>
      </trkpt>
      <trkpt lat="41.95052892901003360748291015625" lon="-6.87460564076900482177734375">
        <ele>969.5999755859375</ele>
        <time>2021-11-06T13:15:59.000Z</time>
      </trkpt>
      <trkpt lat="41.9505454413592815399169921875" lon="-6.87462734989821910858154296875">
        <ele>969</ele>
        <time>2021-11-06T13:16:01.000Z</time>
      </trkpt>
      <trkpt lat="41.95058357901871204376220703125" lon="-6.87465727329254150390625">
        <ele>968.79998779296875</ele>
        <time>2021-11-06T13:16:05.000Z</time>
      </trkpt>
      <trkpt lat="41.950694806873798370361328125" lon="-6.8747607059776782989501953125">
        <ele>968</ele>
        <time>2021-11-06T13:16:16.000Z</time>
      </trkpt>
      <trkpt lat="41.95071534253656864166259765625" lon="-6.87483153305947780609130859375">
        <ele>967</ele>
        <time>2021-11-06T13:16:22.000Z</time>
      </trkpt>
      <trkpt lat="41.95076622068881988525390625" lon="-6.8750694952905178070068359375">
        <ele>966.20001220703125</ele>
        <time>2021-11-06T13:16:39.000Z</time>
      </trkpt>
      <trkpt lat="41.95088750682771205902099609375" lon="-6.87525180168449878692626953125">
        <ele>966.5999755859375</ele>
        <time>2021-11-06T13:16:55.000Z</time>
      </trkpt>
      <trkpt lat="41.95094467140734195709228515625" lon="-6.8753747642040252685546875">
        <ele>966.5999755859375</ele>
        <time>2021-11-06T13:17:04.000Z</time>
      </trkpt>
      <trkpt lat="41.95098607800900936126708984375" lon="-6.875615157186985015869140625">
        <ele>966.5999755859375</ele>
        <time>2021-11-06T13:17:19.000Z</time>
      </trkpt>
      <trkpt lat="41.9510295800864696502685546875" lon="-6.87585747800767421722412109375">
        <ele>966.79998779296875</ele>
        <time>2021-11-06T13:17:34.000Z</time>
      </trkpt>
      <trkpt lat="41.95104575715959072113037109375" lon="-6.8759502656757831573486328125">
        <ele>966.79998779296875</ele>
        <time>2021-11-06T13:17:40.000Z</time>
      </trkpt>
      <trkpt lat="41.95109219290316104888916015625" lon="-6.87620063312351703643798828125">
        <ele>966.79998779296875</ele>
        <time>2021-11-06T13:17:56.000Z</time>
      </trkpt>
      <trkpt lat="41.9511828012764453887939453125" lon="-6.8764126114547252655029296875">
        <ele>966.79998779296875</ele>
        <time>2021-11-06T13:18:10.000Z</time>
      </trkpt>
      <trkpt lat="41.95126838050782680511474609375" lon="-6.87662928365170955657958984375">
        <ele>967</ele>
        <time>2021-11-06T13:18:25.000Z</time>
      </trkpt>
      <trkpt lat="41.9513856433331966400146484375" lon="-6.87682894058525562286376953125">
        <ele>966.5999755859375</ele>
        <time>2021-11-06T13:18:41.000Z</time>
      </trkpt>
      <trkpt lat="41.95154414512217044830322265625" lon="-6.876973696053028106689453125">
        <ele>966.79998779296875</ele>
        <time>2021-11-06T13:18:57.000Z</time>
      </trkpt>
      <trkpt lat="41.951716728508472442626953125" lon="-6.87708324752748012542724609375">
        <ele>967.20001220703125</ele>
        <time>2021-11-06T13:19:12.000Z</time>
      </trkpt>
      <trkpt lat="41.951891742646694183349609375" lon="-6.877154409885406494140625">
        <ele>967.4000244140625</ele>
        <time>2021-11-06T13:19:27.000Z</time>
      </trkpt>
      <trkpt lat="41.95206885226070880889892578125" lon="-6.87723495997488498687744140625">
        <ele>967.4000244140625</ele>
        <time>2021-11-06T13:19:42.000Z</time>
      </trkpt>
      <trkpt lat="41.9522312097251415252685546875" lon="-6.87734258361160755157470703125">
        <ele>967.20001220703125</ele>
        <time>2021-11-06T13:19:56.000Z</time>
      </trkpt>
      <trkpt lat="41.95237152278423309326171875" lon="-6.8775165081024169921875">
        <ele>966.4000244140625</ele>
        <time>2021-11-06T13:20:12.000Z</time>
      </trkpt>
      <trkpt lat="41.95243011228740215301513671875" lon="-6.877646259963512420654296875">
        <ele>966</ele>
        <time>2021-11-06T13:20:21.000Z</time>
      </trkpt>
      <trkpt lat="41.95248107425868511199951171875" lon="-6.87788455747067928314208984375">
        <ele>965.4000244140625</ele>
        <time>2021-11-06T13:20:36.000Z</time>
      </trkpt>
      <trkpt lat="41.95252466015517711639404296875" lon="-6.87806912697851657867431640625">
        <ele>964.79998779296875</ele>
        <time>2021-11-06T13:20:48.000Z</time>
      </trkpt>
      <trkpt lat="41.95257612504065036773681640625" lon="-6.87822352163493633270263671875">
        <ele>963.5999755859375</ele>
        <time>2021-11-06T13:20:58.000Z</time>
      </trkpt>
      <trkpt lat="41.95260747335851192474365234375" lon="-6.87831102870404720306396484375">
        <ele>962.79998779296875</ele>
        <time>2021-11-06T13:21:04.000Z</time>
      </trkpt>
      <trkpt lat="41.9526140950620174407958984375" lon="-6.87832175754010677337646484375">
        <ele>962.5999755859375</ele>
        <time>2021-11-06T13:21:05.000Z</time>
      </trkpt>
      <trkpt lat="41.95265810005366802215576171875" lon="-6.87840172089636325836181640625">
        <ele>961.4000244140625</ele>
        <time>2021-11-06T13:21:12.000Z</time>
      </trkpt>
      <trkpt lat="41.952702440321445465087890625" lon="-6.87846140004694461822509765625">
        <ele>960.4000244140625</ele>
        <time>2021-11-06T13:21:19.000Z</time>
      </trkpt>
      <trkpt lat="41.95275784470140933990478515625" lon="-6.8785416148602962493896484375">
        <ele>959.4000244140625</ele>
        <time>2021-11-06T13:21:27.000Z</time>
      </trkpt>
      <trkpt lat="41.95284870453178882598876953125" lon="-6.8786147050559520721435546875">
        <ele>958.20001220703125</ele>
        <time>2021-11-06T13:21:37.000Z</time>
      </trkpt>
      <trkpt lat="41.9529191963374614715576171875" lon="-6.87867245636880397796630859375">
        <ele>957</ele>
        <time>2021-11-06T13:21:45.000Z</time>
      </trkpt>
      <trkpt lat="41.9529999978840351104736328125" lon="-6.87874554656445980072021484375">
        <ele>956</ele>
        <time>2021-11-06T13:21:53.000Z</time>
      </trkpt>
      <trkpt lat="41.953100748360157012939453125" lon="-6.8788053095340728759765625">
        <ele>955</ele>
        <time>2021-11-06T13:22:02.000Z</time>
      </trkpt>
      <trkpt lat="41.9531843997538089752197265625" lon="-6.87882433645427227020263671875">
        <ele>954</ele>
        <time>2021-11-06T13:22:09.000Z</time>
      </trkpt>
      <trkpt lat="41.95328590460121631622314453125" lon="-6.87885694205760955810546875">
        <ele>952.79998779296875</ele>
        <time>2021-11-06T13:22:18.000Z</time>
      </trkpt>
      <trkpt lat="41.953393109142780303955078125" lon="-6.87885937280952930450439453125">
        <ele>951.79998779296875</ele>
        <time>2021-11-06T13:22:27.000Z</time>
      </trkpt>
      <trkpt lat="41.95358128286898136138916015625" lon="-6.87884881161153316497802734375">
        <ele>951</ele>
        <time>2021-11-06T13:22:42.000Z</time>
      </trkpt>
      <trkpt lat="41.95361346937716007232666015625" lon="-6.87884277664124965667724609375">
        <ele>950.79998779296875</ele>
        <time>2021-11-06T13:22:45.000Z</time>
      </trkpt>
      <trkpt lat="41.953713633120059967041015625" lon="-6.87879835255444049835205078125">
        <ele>949.5999755859375</ele>
        <time>2021-11-06T13:22:55.000Z</time>
      </trkpt>
      <trkpt lat="41.953874565660953521728515625" lon="-6.878898181021213531494140625">
        <ele>948.79998779296875</ele>
        <time>2021-11-06T13:23:09.000Z</time>
      </trkpt>
      <trkpt lat="41.95392577908933162689208984375" lon="-6.87914586625993251800537109375">
        <ele>950.20001220703125</ele>
        <time>2021-11-06T13:23:24.000Z</time>
      </trkpt>
      <trkpt lat="41.95393013767898082733154296875" lon="-6.87921325676143169403076171875">
        <ele>950.5999755859375</ele>
        <time>2021-11-06T13:23:28.000Z</time>
      </trkpt>
      <trkpt lat="41.95393952541053295135498046875" lon="-6.87945507466793060302734375">
        <ele>951.4000244140625</ele>
        <time>2021-11-06T13:23:43.000Z</time>
      </trkpt>
      <trkpt lat="41.953965090215206146240234375" lon="-6.879681050777435302734375">
        <ele>949.4000244140625</ele>
        <time>2021-11-06T13:23:58.000Z</time>
      </trkpt>
      <trkpt lat="41.95397154428064823150634765625" lon="-6.87971013598144054412841796875">
        <ele>948.4000244140625</ele>
        <time>2021-11-06T13:24:00.000Z</time>
      </trkpt>
      <trkpt lat="41.95397690869867801666259765625" lon="-6.87974165193736553192138671875">
        <ele>947.79998779296875</ele>
        <time>2021-11-06T13:24:02.000Z</time>
      </trkpt>
      <trkpt lat="41.954053938388824462890625" lon="-6.87996796332299709320068359375">
        <ele>947.5999755859375</ele>
        <time>2021-11-06T13:24:16.000Z</time>
      </trkpt>
      <trkpt lat="41.95407514460384845733642578125" lon="-6.88001020811498165130615234375">
        <ele>947.20001220703125</ele>
        <time>2021-11-06T13:24:19.000Z</time>
      </trkpt>
      <trkpt lat="41.95418109185993671417236328125" lon="-6.8801056779921054840087890625">
        <ele>946</ele>
        <time>2021-11-06T13:24:30.000Z</time>
      </trkpt>
      <trkpt lat="41.9543089158833026885986328125" lon="-6.88012084923684597015380859375">
        <ele>945.20001220703125</ele>
        <time>2021-11-06T13:24:40.000Z</time>
      </trkpt>
      <trkpt lat="41.954331211745738983154296875" lon="-6.88011850230395793914794921875">
        <ele>945</ele>
        <time>2021-11-06T13:24:42.000Z</time>
      </trkpt>
      <trkpt lat="41.9544785656034946441650390625" lon="-6.88012805767357349395751953125">
        <ele>944</ele>
        <time>2021-11-06T13:24:54.000Z</time>
      </trkpt>
      <trkpt lat="41.95456347428262233734130859375" lon="-6.88011749647557735443115234375">
        <ele>942.79998779296875</ele>
        <time>2021-11-06T13:25:01.000Z</time>
      </trkpt>
      <trkpt lat="41.9546321220695972442626953125" lon="-6.8800845555961132049560546875">
        <ele>941.79998779296875</ele>
        <time>2021-11-06T13:25:07.000Z</time>
      </trkpt>
      <trkpt lat="41.9547263346612453460693359375" lon="-6.88002931885421276092529296875">
        <ele>940.5999755859375</ele>
        <time>2021-11-06T13:25:14.000Z</time>
      </trkpt>
      <trkpt lat="41.95475064218044281005859375" lon="-6.8800203502178192138671875">
        <ele>940.20001220703125</ele>
        <time>2021-11-06T13:25:16.000Z</time>
      </trkpt>
      <trkpt lat="41.95481635630130767822265625" lon="-6.8800074420869350433349609375">
        <ele>939.5999755859375</ele>
        <time>2021-11-06T13:25:22.000Z</time>
      </trkpt>
      <trkpt lat="41.954887099564075469970703125" lon="-6.87997936271131038665771484375">
        <ele>938.5999755859375</ele>
        <time>2021-11-06T13:25:28.000Z</time>
      </trkpt>
      <trkpt lat="41.95499916560947895050048828125" lon="-6.87991029582917690277099609375">
        <ele>937.5999755859375</ele>
        <time>2021-11-06T13:25:38.000Z</time>
      </trkpt>
      <trkpt lat="41.9551125727593898773193359375" lon="-6.8798460066318511962890625">
        <ele>936.79998779296875</ele>
        <time>2021-11-06T13:25:50.000Z</time>
      </trkpt>
      <trkpt lat="41.95513595826923847198486328125" lon="-6.87982630915939807891845703125">
        <ele>936.4000244140625</ele>
        <time>2021-11-06T13:25:53.000Z</time>
      </trkpt>
      <trkpt lat="41.95513956248760223388671875" lon="-6.87982027418911457061767578125">
        <ele>936.20001220703125</ele>
        <time>2021-11-06T13:25:54.000Z</time>
      </trkpt>
      <trkpt lat="41.95514953695237636566162109375" lon="-6.87980786897242069244384765625">
        <ele>935.79998779296875</ele>
        <time>2021-11-06T13:25:56.000Z</time>
      </trkpt>
      <trkpt lat="41.955181472003459930419921875" lon="-6.8797811307013034820556640625">
        <ele>935.4000244140625</ele>
        <time>2021-11-06T13:25:59.000Z</time>
      </trkpt>
      <trkpt lat="41.95519496686756610870361328125" lon="-6.8797693960368633270263671875">
        <ele>935.4000244140625</ele>
        <time>2021-11-06T13:26:00.000Z</time>
      </trkpt>
      <trkpt lat="41.9552554003894329071044921875" lon="-6.87973159365355968475341796875">
        <ele>934.4000244140625</ele>
        <time>2021-11-06T13:26:06.000Z</time>
      </trkpt>
      <trkpt lat="41.95526973344385623931884765625" lon="-6.87972673214972019195556640625">
        <ele>934.20001220703125</ele>
        <time>2021-11-06T13:26:07.000Z</time>
      </trkpt>
      <trkpt lat="41.9552822224795818328857421875" lon="-6.87971600331366062164306640625">
        <ele>934</ele>
        <time>2021-11-06T13:26:08.000Z</time>
      </trkpt>
      <trkpt lat="41.95531524717807769775390625" lon="-6.87969890423119068145751953125">
        <ele>933</ele>
        <time>2021-11-06T13:26:12.000Z</time>
      </trkpt>
      <trkpt lat="41.95533108897507190704345703125" lon="-6.87968549318611621856689453125">
        <ele>932.79998779296875</ele>
        <time>2021-11-06T13:26:14.000Z</time>
      </trkpt>
      <trkpt lat="41.9553673826158046722412109375" lon="-6.8796597607433795928955078125">
        <ele>932</ele>
        <time>2021-11-06T13:26:18.000Z</time>
      </trkpt>
      <trkpt lat="41.9553925283253192901611328125" lon="-6.879629753530025482177734375">
        <ele>931.4000244140625</ele>
        <time>2021-11-06T13:26:22.000Z</time>
      </trkpt>
      <trkpt lat="41.9554099626839160919189453125" lon="-6.87961491756141185760498046875">
        <ele>931</ele>
        <time>2021-11-06T13:26:24.000Z</time>
      </trkpt>
      <trkpt lat="41.955416500568389892578125" lon="-6.87960687093436717987060546875">
        <ele>930.79998779296875</ele>
        <time>2021-11-06T13:26:25.000Z</time>
      </trkpt>
      <trkpt lat="41.95546234957873821258544921875" lon="-6.87956999056041240692138671875">
        <ele>930</ele>
        <time>2021-11-06T13:26:30.000Z</time>
      </trkpt>
      <trkpt lat="41.9554956257343292236328125" lon="-6.8795481137931346893310546875">
        <ele>929.4000244140625</ele>
        <time>2021-11-06T13:26:33.000Z</time>
      </trkpt>
      <trkpt lat="41.95551507174968719482421875" lon="-6.87951651401817798614501953125">
        <ele>928.79998779296875</ele>
        <time>2021-11-06T13:26:36.000Z</time>
      </trkpt>
      <trkpt lat="41.955573745071887969970703125" lon="-6.8794544041156768798828125">
        <ele>927.79998779296875</ele>
        <time>2021-11-06T13:26:42.000Z</time>
      </trkpt>
      <trkpt lat="41.9556168280541896820068359375" lon="-6.87938776798546314239501953125">
        <ele>926.79998779296875</ele>
        <time>2021-11-06T13:26:48.000Z</time>
      </trkpt>
      <trkpt lat="41.95567332208156585693359375" lon="-6.8793090619146823883056640625">
        <ele>925.5999755859375</ele>
        <time>2021-11-06T13:26:55.000Z</time>
      </trkpt>
      <trkpt lat="41.9557048380374908447265625" lon="-6.87926656566560268402099609375">
        <ele>924.79998779296875</ele>
        <time>2021-11-06T13:26:59.000Z</time>
      </trkpt>
      <trkpt lat="41.95571196265518665313720703125" lon="-6.87925986014306545257568359375">
        <ele>924.5999755859375</ele>
        <time>2021-11-06T13:27:00.000Z</time>
      </trkpt>
      <trkpt lat="41.95572135038673877716064453125" lon="-6.8792467005550861358642578125">
        <ele>924.20001220703125</ele>
        <time>2021-11-06T13:27:02.000Z</time>
      </trkpt>
      <trkpt lat="41.9557388685643672943115234375" lon="-6.87922281213104724884033203125">
        <ele>923.5999755859375</ele>
        <time>2021-11-06T13:27:04.000Z</time>
      </trkpt>
      <trkpt lat="41.955748759210109710693359375" lon="-6.879210658371448516845703125">
        <ele>923.4000244140625</ele>
        <time>2021-11-06T13:27:05.000Z</time>
      </trkpt>
      <trkpt lat="41.9558079354465007781982421875" lon="-6.8791249953210353851318359375">
        <ele>922.4000244140625</ele>
        <time>2021-11-06T13:27:12.000Z</time>
      </trkpt>
      <trkpt lat="41.95586903952062129974365234375" lon="-6.87905685044825077056884765625">
        <ele>921.20001220703125</ele>
        <time>2021-11-06T13:27:18.000Z</time>
      </trkpt>
      <trkpt lat="41.9559309817850589752197265625" lon="-6.8789687566459178924560546875">
        <ele>920.20001220703125</ele>
        <time>2021-11-06T13:27:25.000Z</time>
      </trkpt>
      <trkpt lat="41.95601153187453746795654296875" lon="-6.8788504041731357574462890625">
        <ele>919.20001220703125</ele>
        <time>2021-11-06T13:27:34.000Z</time>
      </trkpt>
      <trkpt lat="41.95602175779640674591064453125" lon="-6.87883892096579074859619140625">
        <ele>918.79998779296875</ele>
        <time>2021-11-06T13:27:35.000Z</time>
      </trkpt>
      <trkpt lat="41.9560610689222812652587890625" lon="-6.87878527678549289703369140625">
        <ele>918</ele>
        <time>2021-11-06T13:27:39.000Z</time>
      </trkpt>
      <trkpt lat="41.95609937421977519989013671875" lon="-6.878721155226230621337890625">
        <ele>917</ele>
        <time>2021-11-06T13:27:45.000Z</time>
      </trkpt>
      <trkpt lat="41.95612485520541667938232421875" lon="-6.87866424210369586944580078125">
        <ele>916.4000244140625</ele>
        <time>2021-11-06T13:27:49.000Z</time>
      </trkpt>
      <trkpt lat="41.9561361707746982574462890625" lon="-6.8786381743848323822021484375">
        <ele>916.20001220703125</ele>
        <time>2021-11-06T13:27:51.000Z</time>
      </trkpt>
      <trkpt lat="41.95615067146718502044677734375" lon="-6.878589056432247161865234375">
        <ele>915.79998779296875</ele>
        <time>2021-11-06T13:27:54.000Z</time>
      </trkpt>
      <trkpt lat="41.9561961852014064788818359375" lon="-6.87848545610904693603515625">
        <ele>914.79998779296875</ele>
        <time>2021-11-06T13:28:01.000Z</time>
      </trkpt>
      <trkpt lat="41.95620481856167316436767578125" lon="-6.87846793793141841888427734375">
        <ele>914.79998779296875</ele>
        <time>2021-11-06T13:28:02.000Z</time>
      </trkpt>
      <trkpt lat="41.9562136195600032806396484375" lon="-6.8784199096262454986572265625">
        <ele>914</ele>
        <time>2021-11-06T13:28:05.000Z</time>
      </trkpt>
      <trkpt lat="41.95621755905449390411376953125" lon="-6.87838730402290821075439453125">
        <ele>913.79998779296875</ele>
        <time>2021-11-06T13:28:07.000Z</time>
      </trkpt>
      <trkpt lat="41.95627053268253803253173828125" lon="-6.87829610891640186309814453125">
        <ele>912.5999755859375</ele>
        <time>2021-11-06T13:28:14.000Z</time>
      </trkpt>
      <trkpt lat="41.956291235983371734619140625" lon="-6.87822570092976093292236328125">
        <ele>911.5999755859375</ele>
        <time>2021-11-06T13:28:19.000Z</time>
      </trkpt>
      <trkpt lat="41.956297941505908966064453125" lon="-6.878192760050296783447265625">
        <ele>911</ele>
        <time>2021-11-06T13:28:21.000Z</time>
      </trkpt>
      <trkpt lat="41.95630908943712711334228515625" lon="-6.87814406119287014007568359375">
        <ele>910.5999755859375</ele>
        <time>2021-11-06T13:28:24.000Z</time>
      </trkpt>
      <trkpt lat="41.95635569281876087188720703125" lon="-6.87807298265397548675537109375">
        <ele>909.79998779296875</ele>
        <time>2021-11-06T13:28:30.000Z</time>
      </trkpt>
      <trkpt lat="41.95637078024446964263916015625" lon="-6.87806074507534503936767578125">
        <ele>909.5999755859375</ele>
        <time>2021-11-06T13:28:32.000Z</time>
      </trkpt>
      <trkpt lat="41.95637798868119716644287109375" lon="-6.8780537880957126617431640625">
        <ele>909.4000244140625</ele>
        <time>2021-11-06T13:28:33.000Z</time>
      </trkpt>
      <trkpt lat="41.956382431089878082275390625" lon="-6.8780460767447948455810546875">
        <ele>909.20001220703125</ele>
        <time>2021-11-06T13:28:34.000Z</time>
      </trkpt>
      <trkpt lat="41.95639475248754024505615234375" lon="-6.8780229426920413970947265625">
        <ele>908.5999755859375</ele>
        <time>2021-11-06T13:28:36.000Z</time>
      </trkpt>
      <trkpt lat="41.95644378662109375" lon="-6.8779977969825267791748046875">
        <ele>908.4000244140625</ele>
        <time>2021-11-06T13:28:40.000Z</time>
      </trkpt>
      <trkpt lat="41.95651025511324405670166015625" lon="-6.87797122634947299957275390625">
        <ele>907.20001220703125</ele>
        <time>2021-11-06T13:28:46.000Z</time>
      </trkpt>
      <trkpt lat="41.95655652321875095367431640625" lon="-6.87795530073344707489013671875">
        <ele>906.79998779296875</ele>
        <time>2021-11-06T13:28:50.000Z</time>
      </trkpt>
      <trkpt lat="41.95659055374562740325927734375" lon="-6.87796351499855518341064453125">
        <ele>906.20001220703125</ele>
        <time>2021-11-06T13:28:53.000Z</time>
      </trkpt>
      <trkpt lat="41.95664428174495697021484375" lon="-6.87795463018119335174560546875">
        <ele>905.4000244140625</ele>
        <time>2021-11-06T13:28:59.000Z</time>
      </trkpt>
      <trkpt lat="41.9566665776073932647705078125" lon="-6.8779525347054004669189453125">
        <ele>904.79998779296875</ele>
        <time>2021-11-06T13:29:01.000Z</time>
      </trkpt>
      <trkpt lat="41.95673757232725620269775390625" lon="-6.87793987803161144256591796875">
        <ele>903.79998779296875</ele>
        <time>2021-11-06T13:29:09.000Z</time>
      </trkpt>
      <trkpt lat="41.95674327202141284942626953125" lon="-6.87793669290840625762939453125">
        <ele>903.79998779296875</ele>
        <time>2021-11-06T13:29:10.000Z</time>
      </trkpt>
      <trkpt lat="41.95677763782441616058349609375" lon="-6.877925209701061248779296875">
        <ele>903</ele>
        <time>2021-11-06T13:29:13.000Z</time>
      </trkpt>
      <trkpt lat="41.9567996822297573089599609375" lon="-6.87791548669338226318359375">
        <ele>902.5999755859375</ele>
        <time>2021-11-06T13:29:15.000Z</time>
      </trkpt>
      <trkpt lat="41.95681686513125896453857421875" lon="-6.87791146337985992431640625">
        <ele>902.20001220703125</ele>
        <time>2021-11-06T13:29:17.000Z</time>
      </trkpt>
      <trkpt lat="41.95683681406080722808837890625" lon="-6.877909116446971893310546875">
        <ele>902</ele>
        <time>2021-11-06T13:29:19.000Z</time>
      </trkpt>
      <trkpt lat="41.9568580202758312225341796875" lon="-6.8779039196670055389404296875">
        <ele>901.5999755859375</ele>
        <time>2021-11-06T13:29:21.000Z</time>
      </trkpt>
      <trkpt lat="41.95689146406948566436767578125" lon="-6.87787986360490322113037109375">
        <ele>901.20001220703125</ele>
        <time>2021-11-06T13:29:24.000Z</time>
      </trkpt>
      <trkpt lat="41.956937313079833984375" lon="-6.877870894968509674072265625">
        <ele>900.5999755859375</ele>
        <time>2021-11-06T13:29:27.000Z</time>
      </trkpt>
      <trkpt lat="41.9569884426891803741455078125" lon="-6.87786863185465335845947265625">
        <ele>899.79998779296875</ele>
        <time>2021-11-06T13:29:31.000Z</time>
      </trkpt>
      <trkpt lat="41.95703244768083095550537109375" lon="-6.87787265516817569732666015625">
        <ele>899.4000244140625</ele>
        <time>2021-11-06T13:29:34.000Z</time>
      </trkpt>
      <trkpt lat="41.95705960504710674285888671875" lon="-6.8778770975768566131591796875">
        <ele>898.79998779296875</ele>
        <time>2021-11-06T13:29:37.000Z</time>
      </trkpt>
      <trkpt lat="41.95709623396396636962890625" lon="-6.8778826296329498291015625">
        <ele>898.4000244140625</ele>
        <time>2021-11-06T13:29:40.000Z</time>
      </trkpt>
      <trkpt lat="41.9571064598858356475830078125" lon="-6.8778844736516475677490234375">
        <ele>898.20001220703125</ele>
        <time>2021-11-06T13:29:41.000Z</time>
      </trkpt>
      <trkpt lat="41.9571151770651340484619140625" lon="-6.8778879940509796142578125">
        <ele>897.79998779296875</ele>
        <time>2021-11-06T13:29:42.000Z</time>
      </trkpt>
      <trkpt lat="41.95714241825044155120849609375" lon="-6.87788732349872589111328125">
        <ele>897</ele>
        <time>2021-11-06T13:29:45.000Z</time>
      </trkpt>
      <trkpt lat="41.9572197832167148590087890625" lon="-6.87788992188870906829833984375">
        <ele>896</ele>
        <time>2021-11-06T13:29:52.000Z</time>
      </trkpt>
      <trkpt lat="41.957264877855777740478515625" lon="-6.87787952832877635955810546875">
        <ele>894.79998779296875</ele>
        <time>2021-11-06T13:29:57.000Z</time>
      </trkpt>
      <trkpt lat="41.95728289894759654998779296875" lon="-6.87787483446300029754638671875">
        <ele>894.5999755859375</ele>
        <time>2021-11-06T13:29:59.000Z</time>
      </trkpt>
      <trkpt lat="41.9573082961142063140869140625" lon="-6.87786988914012908935546875">
        <ele>894.4000244140625</ele>
        <time>2021-11-06T13:30:01.000Z</time>
      </trkpt>
      <trkpt lat="41.95733838714659214019775390625" lon="-6.877865530550479888916015625">
        <ele>894</ele>
        <time>2021-11-06T13:30:03.000Z</time>
      </trkpt>
      <trkpt lat="41.95735682733356952667236328125" lon="-6.87785672955214977264404296875">
        <ele>893.79998779296875</ele>
        <time>2021-11-06T13:30:05.000Z</time>
      </trkpt>
      <trkpt lat="41.95737912319600582122802734375" lon="-6.877841390669345855712890625">
        <ele>893.4000244140625</ele>
        <time>2021-11-06T13:30:07.000Z</time>
      </trkpt>
      <trkpt lat="41.9574430771172046661376953125" lon="-6.87780861742794513702392578125">
        <ele>892.5999755859375</ele>
        <time>2021-11-06T13:30:12.000Z</time>
      </trkpt>
      <trkpt lat="41.957507617771625518798828125" lon="-6.87775363214313983917236328125">
        <ele>891.79998779296875</ele>
        <time>2021-11-06T13:30:18.000Z</time>
      </trkpt>
      <trkpt lat="41.9575255550444126129150390625" lon="-6.87770971097052097320556640625">
        <ele>891.4000244140625</ele>
        <time>2021-11-06T13:30:21.000Z</time>
      </trkpt>
      <trkpt lat="41.9575818814337253570556640625" lon="-6.877669729292392730712890625">
        <ele>890.4000244140625</ele>
        <time>2021-11-06T13:30:27.000Z</time>
      </trkpt>
      <trkpt lat="41.9575904309749603271484375" lon="-6.87766738235950469970703125">
        <ele>890.4000244140625</ele>
        <time>2021-11-06T13:30:28.000Z</time>
      </trkpt>
      <trkpt lat="41.95767634548246860504150390625" lon="-6.877620778977870941162109375">
        <ele>889.4000244140625</ele>
        <time>2021-11-06T13:30:38.000Z</time>
      </trkpt>
      <trkpt lat="41.95770065300166606903076171875" lon="-6.8776009976863861083984375">
        <ele>888.79998779296875</ele>
        <time>2021-11-06T13:30:42.000Z</time>
      </trkpt>
      <trkpt lat="41.957746334373950958251953125" lon="-6.87758582644164562225341796875">
        <ele>888.20001220703125</ele>
        <time>2021-11-06T13:30:46.000Z</time>
      </trkpt>
      <trkpt lat="41.95779436267912387847900390625" lon="-6.87757811509072780609130859375">
        <ele>887.5999755859375</ele>
        <time>2021-11-06T13:30:50.000Z</time>
      </trkpt>
      <trkpt lat="41.957843564450740814208984375" lon="-6.8775515444576740264892578125">
        <ele>887</ele>
        <time>2021-11-06T13:30:54.000Z</time>
      </trkpt>
      <trkpt lat="41.95787717588245868682861328125" lon="-6.87753117643296718597412109375">
        <ele>886.5999755859375</ele>
        <time>2021-11-06T13:30:57.000Z</time>
      </trkpt>
      <trkpt lat="41.95793040096759796142578125" lon="-6.87748859636485576629638671875">
        <ele>886</ele>
        <time>2021-11-06T13:31:02.000Z</time>
      </trkpt>
      <trkpt lat="41.95793434046208858489990234375" lon="-6.87748004682362079620361328125">
        <ele>885.79998779296875</ele>
        <time>2021-11-06T13:31:03.000Z</time>
      </trkpt>
      <trkpt lat="41.95796987973153591156005859375" lon="-6.87740880064666271209716796875">
        <ele>884.79998779296875</ele>
        <time>2021-11-06T13:31:09.000Z</time>
      </trkpt>
      <trkpt lat="41.95801279507577419281005859375" lon="-6.8773453496396541595458984375">
        <ele>883.5999755859375</ele>
        <time>2021-11-06T13:31:15.000Z</time>
      </trkpt>
      <trkpt lat="41.958040036261081695556640625" lon="-6.8772742711007595062255859375">
        <ele>882.5999755859375</ele>
        <time>2021-11-06T13:31:21.000Z</time>
      </trkpt>
      <trkpt lat="41.958052106201648712158203125" lon="-6.8772528134286403656005859375">
        <ele>881.79998779296875</ele>
        <time>2021-11-06T13:31:24.000Z</time>
      </trkpt>
      <trkpt lat="41.9580656848847866058349609375" lon="-6.87724200077354907989501953125">
        <ele>881.4000244140625</ele>
        <time>2021-11-06T13:31:26.000Z</time>
      </trkpt>
      <trkpt lat="41.95809057913720607757568359375" lon="-6.877219118177890777587890625">
        <ele>881</ele>
        <time>2021-11-06T13:31:29.000Z</time>
      </trkpt>
      <trkpt lat="41.95810248143970966339111328125" lon="-6.87721149064600467681884765625">
        <ele>880.79998779296875</ele>
        <time>2021-11-06T13:31:31.000Z</time>
      </trkpt>
      <trkpt lat="41.958119831979274749755859375" lon="-6.8771995045244693756103515625">
        <ele>880.4000244140625</ele>
        <time>2021-11-06T13:31:33.000Z</time>
      </trkpt>
      <trkpt lat="41.9581595622003078460693359375" lon="-6.87718324363231658935546875">
        <ele>879.5999755859375</ele>
        <time>2021-11-06T13:31:38.000Z</time>
      </trkpt>
      <trkpt lat="41.9581746496260166168212890625" lon="-6.87718751840293407440185546875">
        <ele>879.4000244140625</ele>
        <time>2021-11-06T13:31:40.000Z</time>
      </trkpt>
      <trkpt lat="41.95818252861499786376953125" lon="-6.877193637192249298095703125">
        <ele>879.4000244140625</ele>
        <time>2021-11-06T13:31:41.000Z</time>
      </trkpt>
      <trkpt lat="41.958248578011989593505859375" lon="-6.8772333674132823944091796875">
        <ele>878.4000244140625</ele>
        <time>2021-11-06T13:31:49.000Z</time>
      </trkpt>
      <trkpt lat="41.95816014893352985382080078125" lon="-6.87721618451178073883056640625">
        <ele>878</ele>
        <time>2021-11-06T13:32:03.000Z</time>
      </trkpt>
      <trkpt lat="41.95814472623169422149658203125" lon="-6.87722071073949337005615234375">
        <ele>878</ele>
        <time>2021-11-06T13:32:05.000Z</time>
      </trkpt>
      <trkpt lat="41.95825553499162197113037109375" lon="-6.877176873385906219482421875">
        <ele>878.20001220703125</ele>
        <time>2021-11-06T13:32:32.000Z</time>
      </trkpt>
      <trkpt lat="41.95842702873051166534423828125" lon="-6.877170503139495849609375">
        <ele>877.79998779296875</ele>
        <time>2021-11-06T13:32:46.000Z</time>
      </trkpt>
      <trkpt lat="41.95844270288944244384765625" lon="-6.87718835659325122833251953125">
        <ele>877.79998779296875</ele>
        <time>2021-11-06T13:32:48.000Z</time>
      </trkpt>
      <trkpt lat="41.9585873745381832122802734375" lon="-6.87722624279558658599853515625">
        <ele>878</ele>
        <time>2021-11-06T13:33:00.000Z</time>
      </trkpt>
      <trkpt lat="41.95861612446606159210205078125" lon="-6.87723730690777301788330078125">
        <ele>878</ele>
        <time>2021-11-06T13:33:03.000Z</time>
      </trkpt>
      <trkpt lat="41.9587640650570392608642578125" lon="-6.8773252330720424652099609375">
        <ele>877.4000244140625</ele>
        <time>2021-11-06T13:33:18.000Z</time>
      </trkpt>
      <trkpt lat="41.9587918929755687713623046875" lon="-6.87733571045100688934326171875">
        <ele>877.20001220703125</ele>
        <time>2021-11-06T13:33:21.000Z</time>
      </trkpt>
      <trkpt lat="41.95891116745769977569580078125" lon="-6.87730528414249420166015625">
        <ele>877</ele>
        <time>2021-11-06T13:33:31.000Z</time>
      </trkpt>
      <trkpt lat="41.9589471258223056793212890625" lon="-6.8772910349071025848388671875">
        <ele>877</ele>
        <time>2021-11-06T13:33:34.000Z</time>
      </trkpt>
      <trkpt lat="41.9590597786009311676025390625" lon="-6.87722884118556976318359375">
        <ele>876.4000244140625</ele>
        <time>2021-11-06T13:33:43.000Z</time>
      </trkpt>
      <trkpt lat="41.9592039473354816436767578125" lon="-6.87710755504667758941650390625">
        <ele>875.79998779296875</ele>
        <time>2021-11-06T13:33:59.000Z</time>
      </trkpt>
      <trkpt lat="41.9592492096126079559326171875" lon="-6.87705022282898426055908203125">
        <ele>875.20001220703125</ele>
        <time>2021-11-06T13:34:05.000Z</time>
      </trkpt>
      <trkpt lat="41.9593011774122714996337890625" lon="-6.87699892558157444000244140625">
        <ele>874.5999755859375</ele>
        <time>2021-11-06T13:34:12.000Z</time>
      </trkpt>
      <trkpt lat="41.95932112634181976318359375" lon="-6.87697294168174266815185546875">
        <ele>874.20001220703125</ele>
        <time>2021-11-06T13:34:15.000Z</time>
      </trkpt>
      <trkpt lat="41.95932623930275440216064453125" lon="-6.87696271575987339019775390625">
        <ele>874</ele>
        <time>2021-11-06T13:34:16.000Z</time>
      </trkpt>
      <trkpt lat="41.9593568332493305206298828125" lon="-6.876914016902446746826171875">
        <ele>873.20001220703125</ele>
        <time>2021-11-06T13:34:21.000Z</time>
      </trkpt>
      <trkpt lat="41.9593632034957408905029296875" lon="-6.87690588645637035369873046875">
        <ele>873</ele>
        <time>2021-11-06T13:34:22.000Z</time>
      </trkpt>
      <trkpt lat="41.95937971584498882293701171875" lon="-6.87688727863132953643798828125">
        <ele>872.79998779296875</ele>
        <time>2021-11-06T13:34:24.000Z</time>
      </trkpt>
      <trkpt lat="41.9594493694603443145751953125" lon="-6.8768392503261566162109375">
        <ele>872</ele>
        <time>2021-11-06T13:34:31.000Z</time>
      </trkpt>
      <trkpt lat="41.959489770233631134033203125" lon="-6.8767981790006160736083984375">
        <ele>871.20001220703125</ele>
        <time>2021-11-06T13:34:36.000Z</time>
      </trkpt>
      <trkpt lat="41.9595154188573360443115234375" lon="-6.8767894618213176727294921875">
        <ele>871.20001220703125</ele>
        <time>2021-11-06T13:34:38.000Z</time>
      </trkpt>
      <trkpt lat="41.95953377522528171539306640625" lon="-6.87677278183400630950927734375">
        <ele>871</ele>
        <time>2021-11-06T13:34:40.000Z</time>
      </trkpt>
      <trkpt lat="41.95965506136417388916015625" lon="-6.87673774547874927520751953125">
        <ele>870</ele>
        <time>2021-11-06T13:34:53.000Z</time>
      </trkpt>
      <trkpt lat="41.95975639857351779937744140625" lon="-6.87671226449310779571533203125">
        <ele>869.5999755859375</ele>
        <time>2021-11-06T13:35:02.000Z</time>
      </trkpt>
      <trkpt lat="41.9597782753407955169677734375" lon="-6.87671058811247348785400390625">
        <ele>869.79998779296875</ele>
        <time>2021-11-06T13:35:04.000Z</time>
      </trkpt>
      <trkpt lat="41.95979780517518520355224609375" lon="-6.876703463494777679443359375">
        <ele>869.5999755859375</ele>
        <time>2021-11-06T13:35:06.000Z</time>
      </trkpt>
      <trkpt lat="41.9598392955958843231201171875" lon="-6.87669164501130580902099609375">
        <ele>869.4000244140625</ele>
        <time>2021-11-06T13:35:11.000Z</time>
      </trkpt>
      <trkpt lat="41.95987827144563198089599609375" lon="-6.87668443657457828521728515625">
        <ele>869.20001220703125</ele>
        <time>2021-11-06T13:35:16.000Z</time>
      </trkpt>
      <trkpt lat="41.9598944485187530517578125" lon="-6.87668393366038799285888671875">
        <ele>869.20001220703125</ele>
        <time>2021-11-06T13:35:18.000Z</time>
      </trkpt>
      <trkpt lat="41.95992353372275829315185546875" lon="-6.87668007798492908477783203125">
        <ele>869.20001220703125</ele>
        <time>2021-11-06T13:35:21.000Z</time>
      </trkpt>
      <trkpt lat="41.959930323064327239990234375" lon="-6.8766796588897705078125">
        <ele>869.20001220703125</ele>
        <time>2021-11-06T13:35:23.000Z</time>
      </trkpt>
      <trkpt lat="41.95993409492075443267822265625" lon="-6.876690387725830078125">
        <ele>869.4000244140625</ele>
        <time>2021-11-06T13:35:26.000Z</time>
      </trkpt>
      <trkpt lat="41.959949098527431488037109375" lon="-6.8766982667148113250732421875">
        <ele>869.4000244140625</ele>
        <time>2021-11-06T13:35:29.000Z</time>
      </trkpt>
      <trkpt lat="41.9600002281367778778076171875" lon="-6.8767029605805873870849609375">
        <ele>868.79998779296875</ele>
        <time>2021-11-06T13:35:34.000Z</time>
      </trkpt>
      <trkpt lat="41.96001808159053325653076171875" lon="-6.87670086510479450225830078125">
        <ele>868.4000244140625</ele>
        <time>2021-11-06T13:35:36.000Z</time>
      </trkpt>
      <trkpt lat="41.9600441493093967437744140625" lon="-6.87668477185070514678955078125">
        <ele>867.5999755859375</ele>
        <time>2021-11-06T13:35:40.000Z</time>
      </trkpt>
      <trkpt lat="41.960048340260982513427734375" lon="-6.87668309547007083892822265625">
        <ele>867.4000244140625</ele>
        <time>2021-11-06T13:35:41.000Z</time>
      </trkpt>
      <trkpt lat="41.9600713066756725311279296875" lon="-6.87668125145137310028076171875">
        <ele>867.20001220703125</ele>
        <time>2021-11-06T13:35:43.000Z</time>
      </trkpt>
      <trkpt lat="41.96012419648468494415283203125" lon="-6.87667136080563068389892578125">
        <ele>866.5999755859375</ele>
        <time>2021-11-06T13:35:48.000Z</time>
      </trkpt>
      <trkpt lat="41.96013249456882476806640625" lon="-6.87666716985404491424560546875">
        <ele>866.4000244140625</ele>
        <time>2021-11-06T13:35:52.000Z</time>
      </trkpt>
      <trkpt lat="41.9603361748158931732177734375" lon="-6.87659625895321369171142578125">
        <ele>866.20001220703125</ele>
        <time>2021-11-06T13:36:45.000Z</time>
      </trkpt>
      <trkpt lat="41.9603717140853404998779296875" lon="-6.87657547183334827423095703125">
        <ele>866.20001220703125</ele>
        <time>2021-11-06T13:36:50.000Z</time>
      </trkpt>
      <trkpt lat="41.96040281094610691070556640625" lon="-6.8764530122280120849609375">
        <ele>867.5999755859375</ele>
        <time>2021-11-06T13:37:04.000Z</time>
      </trkpt>
      <trkpt lat="41.96041010320186614990234375" lon="-6.876418478786945343017578125">
        <ele>868.79998779296875</ele>
        <time>2021-11-06T13:37:21.000Z</time>
      </trkpt>
      <trkpt lat="41.96042141877114772796630859375" lon="-6.87639526091516017913818359375">
        <ele>869.4000244140625</ele>
        <time>2021-11-06T13:37:24.000Z</time>
      </trkpt>
      <trkpt lat="41.96043047122657299041748046875" lon="-6.87637983821332454681396484375">
        <ele>869.79998779296875</ele>
        <time>2021-11-06T13:37:26.000Z</time>
      </trkpt>
      <trkpt lat="41.96043868549168109893798828125" lon="-6.8763713724911212921142578125">
        <ele>869.79998779296875</ele>
        <time>2021-11-06T13:37:27.000Z</time>
      </trkpt>
      <trkpt lat="41.960447989404201507568359375" lon="-6.876361481845378875732421875">
        <ele>869.79998779296875</ele>
        <time>2021-11-06T13:37:28.000Z</time>
      </trkpt>
      <trkpt lat="41.96046198718249797821044921875" lon="-6.87629945576190948486328125">
        <ele>870.5999755859375</ele>
        <time>2021-11-06T13:37:34.000Z</time>
      </trkpt>
      <trkpt lat="41.96046165190637111663818359375" lon="-6.8762882240116596221923828125">
        <ele>870.79998779296875</ele>
        <time>2021-11-06T13:37:35.000Z</time>
      </trkpt>
      <trkpt lat="41.9604684412479400634765625" lon="-6.87626768834888935089111328125">
        <ele>871.20001220703125</ele>
        <time>2021-11-06T13:37:37.000Z</time>
      </trkpt>
      <trkpt lat="41.96048143319785594940185546875" lon="-6.876238100230693817138671875">
        <ele>871.79998779296875</ele>
        <time>2021-11-06T13:37:40.000Z</time>
      </trkpt>
      <trkpt lat="41.96049249731004238128662109375" lon="-6.87621756456792354583740234375">
        <ele>872</ele>
        <time>2021-11-06T13:37:42.000Z</time>
      </trkpt>
      <trkpt lat="41.9605004601180553436279296875" lon="-6.87619526870548725128173828125">
        <ele>872.20001220703125</ele>
        <time>2021-11-06T13:37:44.000Z</time>
      </trkpt>
      <trkpt lat="41.96052552200853824615478515625" lon="-6.8760989606380462646484375">
        <ele>872.79998779296875</ele>
        <time>2021-11-06T13:37:52.000Z</time>
      </trkpt>
      <trkpt lat="41.96054144762456417083740234375" lon="-6.87609150074422359466552734375">
        <ele>873</ele>
        <time>2021-11-06T13:37:53.000Z</time>
      </trkpt>
      <trkpt lat="41.9605484046041965484619140625" lon="-6.876081526279449462890625">
        <ele>873</ele>
        <time>2021-11-06T13:37:54.000Z</time>
      </trkpt>
      <trkpt lat="41.96056039072573184967041015625" lon="-6.8760444782674312591552734375">
        <ele>873.5999755859375</ele>
        <time>2021-11-06T13:37:57.000Z</time>
      </trkpt>
      <trkpt lat="41.96056994609534740447998046875" lon="-6.8760238587856292724609375">
        <ele>873.79998779296875</ele>
        <time>2021-11-06T13:37:59.000Z</time>
      </trkpt>
      <trkpt lat="41.96057480759918689727783203125" lon="-6.8760132975876331329345703125">
        <ele>874</ele>
        <time>2021-11-06T13:38:00.000Z</time>
      </trkpt>
      <trkpt lat="41.960593163967132568359375" lon="-6.8759975396096706390380859375">
        <ele>874.20001220703125</ele>
        <time>2021-11-06T13:38:02.000Z</time>
      </trkpt>
      <trkpt lat="41.9606164656579494476318359375" lon="-6.87595621682703495025634765625">
        <ele>874.5999755859375</ele>
        <time>2021-11-06T13:38:06.000Z</time>
      </trkpt>
      <trkpt lat="41.96062476374208927154541015625" lon="-6.8759345076978206634521484375">
        <ele>875</ele>
        <time>2021-11-06T13:38:08.000Z</time>
      </trkpt>
      <trkpt lat="41.96063918061554431915283203125" lon="-6.875882036983966827392578125">
        <ele>875.79998779296875</ele>
        <time>2021-11-06T13:38:12.000Z</time>
      </trkpt>
      <trkpt lat="41.9606426171958446502685546875" lon="-6.87586083076894283294677734375">
        <ele>876.20001220703125</ele>
        <time>2021-11-06T13:38:14.000Z</time>
      </trkpt>
      <trkpt lat="41.960653848946094512939453125" lon="-6.87582931481301784515380859375">
        <ele>876.79998779296875</ele>
        <time>2021-11-06T13:38:18.000Z</time>
      </trkpt>
      <trkpt lat="41.9606669247150421142578125" lon="-6.87581322155892848968505859375">
        <ele>877</ele>
        <time>2021-11-06T13:38:21.000Z</time>
      </trkpt>
      <trkpt lat="41.9606734625995159149169921875" lon="-6.87580400146543979644775390625">
        <ele>877.20001220703125</ele>
        <time>2021-11-06T13:38:22.000Z</time>
      </trkpt>
      <trkpt lat="41.96067321114242076873779296875" lon="-6.8757876567542552947998046875">
        <ele>877.20001220703125</ele>
        <time>2021-11-06T13:38:23.000Z</time>
      </trkpt>
      <trkpt lat="41.96068930439651012420654296875" lon="-6.8757636845111846923828125">
        <ele>877.79998779296875</ele>
        <time>2021-11-06T13:38:26.000Z</time>
      </trkpt>
      <trkpt lat="41.960704140365123748779296875" lon="-6.87573174946010112762451171875">
        <ele>878.20001220703125</ele>
        <time>2021-11-06T13:38:29.000Z</time>
      </trkpt>
      <trkpt lat="41.96073423139750957489013671875" lon="-6.87567056156694889068603515625">
        <ele>879.20001220703125</ele>
        <time>2021-11-06T13:38:35.000Z</time>
      </trkpt>
      <trkpt lat="41.960796006023883819580078125" lon="-6.87561406753957271575927734375">
        <ele>879.79998779296875</ele>
        <time>2021-11-06T13:38:41.000Z</time>
      </trkpt>
      <trkpt lat="41.960817463696002960205078125" lon="-6.8755794502794742584228515625">
        <ele>880.20001220703125</ele>
        <time>2021-11-06T13:38:44.000Z</time>
      </trkpt>
      <trkpt lat="41.96085476316511631011962890625" lon="-6.875477693974971771240234375">
        <ele>881.4000244140625</ele>
        <time>2021-11-06T13:38:54.000Z</time>
      </trkpt>
      <trkpt lat="41.960890553891658782958984375" lon="-6.8754077889025211334228515625">
        <ele>882.4000244140625</ele>
        <time>2021-11-06T13:39:02.000Z</time>
      </trkpt>
      <trkpt lat="41.9608947448432445526123046875" lon="-6.875391863286495208740234375">
        <ele>882.79998779296875</ele>
        <time>2021-11-06T13:39:04.000Z</time>
      </trkpt>
      <trkpt lat="41.96090455166995525360107421875" lon="-6.8753668852150440216064453125">
        <ele>883.20001220703125</ele>
        <time>2021-11-06T13:39:07.000Z</time>
      </trkpt>
      <trkpt lat="41.9609083235263824462890625" lon="-6.87534484080970287322998046875">
        <ele>883.4000244140625</ele>
        <time>2021-11-06T13:39:09.000Z</time>
      </trkpt>
      <trkpt lat="41.96090974844992160797119140625" lon="-6.87530301511287689208984375">
        <ele>884</ele>
        <time>2021-11-06T13:39:13.000Z</time>
      </trkpt>
      <trkpt lat="41.960907317698001861572265625" lon="-6.8752424977719783782958984375">
        <ele>884.4000244140625</ele>
        <time>2021-11-06T13:39:21.000Z</time>
      </trkpt>
      <trkpt lat="41.96091008372604846954345703125" lon="-6.875237636268138885498046875">
        <ele>884.4000244140625</ele>
        <time>2021-11-06T13:39:22.000Z</time>
      </trkpt>
      <trkpt lat="41.96094009093940258026123046875" lon="-6.8751814775168895721435546875">
        <ele>885.5999755859375</ele>
        <time>2021-11-06T13:39:27.000Z</time>
      </trkpt>
      <trkpt lat="41.96095568127930164337158203125" lon="-6.87513579614460468292236328125">
        <ele>886.20001220703125</ele>
        <time>2021-11-06T13:39:30.000Z</time>
      </trkpt>
      <trkpt lat="41.960968337953090667724609375" lon="-6.87510989606380462646484375">
        <ele>886.4000244140625</ele>
        <time>2021-11-06T13:39:32.000Z</time>
      </trkpt>
      <trkpt lat="41.96098501794040203094482421875" lon="-6.8750855885446071624755859375">
        <ele>886.5999755859375</ele>
        <time>2021-11-06T13:39:34.000Z</time>
      </trkpt>
      <trkpt lat="41.961009241640567779541015625" lon="-6.87504141591489315032958984375">
        <ele>887.20001220703125</ele>
        <time>2021-11-06T13:39:38.000Z</time>
      </trkpt>
      <trkpt lat="41.96101971901953220367431640625" lon="-6.87500604428350925445556640625">
        <ele>887.5999755859375</ele>
        <time>2021-11-06T13:39:41.000Z</time>
      </trkpt>
      <trkpt lat="41.96102424524724483489990234375" lon="-6.874994225800037384033203125">
        <ele>887.79998779296875</ele>
        <time>2021-11-06T13:39:42.000Z</time>
      </trkpt>
      <trkpt lat="41.96107453666627407073974609375" lon="-6.874930858612060546875">
        <ele>888.79998779296875</ele>
        <time>2021-11-06T13:39:49.000Z</time>
      </trkpt>
      <trkpt lat="41.9611606188118457794189453125" lon="-6.874841339886188507080078125">
        <ele>889.79998779296875</ele>
        <time>2021-11-06T13:40:00.000Z</time>
      </trkpt>
      <trkpt lat="41.9613275863230228424072265625" lon="-6.8748166970908641815185546875">
        <ele>890.79998779296875</ele>
        <time>2021-11-06T13:40:18.000Z</time>
      </trkpt>
      <trkpt lat="41.96138500235974788665771484375" lon="-6.87490764074027538299560546875">
        <ele>892</ele>
        <time>2021-11-06T13:40:27.000Z</time>
      </trkpt>
      <trkpt lat="41.9614117406308650970458984375" lon="-6.87496371567249298095703125">
        <ele>892.20001220703125</ele>
        <time>2021-11-06T13:40:32.000Z</time>
      </trkpt>
      <trkpt lat="41.961431689560413360595703125" lon="-6.87500403262674808502197265625">
        <ele>892.5999755859375</ele>
        <time>2021-11-06T13:40:35.000Z</time>
      </trkpt>
      <trkpt lat="41.9614459387958049774169921875" lon="-6.8750274181365966796875">
        <ele>893</ele>
        <time>2021-11-06T13:40:37.000Z</time>
      </trkpt>
      <trkpt lat="41.96148139424622058868408203125" lon="-6.87507544644176959991455078125">
        <ele>894</ele>
        <time>2021-11-06T13:40:42.000Z</time>
      </trkpt>
      <trkpt lat="41.9615196995437145233154296875" lon="-6.87513210810720920562744140625">
        <ele>895.20001220703125</ele>
        <time>2021-11-06T13:40:48.000Z</time>
      </trkpt>
      <trkpt lat="41.96153621189296245574951171875" lon="-6.87513495795428752899169921875">
        <ele>895.5999755859375</ele>
        <time>2021-11-06T13:40:51.000Z</time>
      </trkpt>
      <trkpt lat="41.96155901066958904266357421875" lon="-6.87522917054593563079833984375">
        <ele>896.20001220703125</ele>
        <time>2021-11-06T13:41:00.000Z</time>
      </trkpt>
      <trkpt lat="41.9616712443530559539794921875" lon="-6.87533142976462841033935546875">
        <ele>897.20001220703125</ele>
        <time>2021-11-06T13:41:13.000Z</time>
      </trkpt>
      <trkpt lat="41.9617693126201629638671875" lon="-6.8753910250961780548095703125">
        <ele>898.4000244140625</ele>
        <time>2021-11-06T13:41:24.000Z</time>
      </trkpt>
      <trkpt lat="41.961848773062229156494140625" lon="-6.8754044361412525177001953125">
        <ele>899.4000244140625</ele>
        <time>2021-11-06T13:41:31.000Z</time>
      </trkpt>
      <trkpt lat="41.96200911886990070343017578125" lon="-6.87539462931454181671142578125">
        <ele>900.5999755859375</ele>
        <time>2021-11-06T13:41:45.000Z</time>
      </trkpt>
      <trkpt lat="41.962088830769062042236328125" lon="-6.8753836490213871002197265625">
        <ele>901</ele>
        <time>2021-11-06T13:41:54.000Z</time>
      </trkpt>
      <trkpt lat="41.96211271919310092926025390625" lon="-6.87537669204175472259521484375">
        <ele>901.20001220703125</ele>
        <time>2021-11-06T13:41:56.000Z</time>
      </trkpt>
      <trkpt lat="41.962150521576404571533203125" lon="-6.875373758375644683837890625">
        <ele>901.5999755859375</ele>
        <time>2021-11-06T13:42:00.000Z</time>
      </trkpt>
      <trkpt lat="41.96229896508157253265380859375" lon="-6.87534702010452747344970703125">
        <ele>902.5999755859375</ele>
        <time>2021-11-06T13:42:14.000Z</time>
      </trkpt>
      <trkpt lat="41.962426118552684783935546875" lon="-6.87532204203307628631591796875">
        <ele>903.5999755859375</ele>
        <time>2021-11-06T13:42:26.000Z</time>
      </trkpt>
      <trkpt lat="41.96254958398640155792236328125" lon="-6.87531776726245880126953125">
        <ele>904.4000244140625</ele>
        <time>2021-11-06T13:42:37.000Z</time>
      </trkpt>
      <trkpt lat="41.9625922478735446929931640625" lon="-6.87530879862606525421142578125">
        <ele>904.79998779296875</ele>
        <time>2021-11-06T13:42:41.000Z</time>
      </trkpt>
      <trkpt lat="41.96262359619140625" lon="-6.8753051944077014923095703125">
        <ele>904.79998779296875</ele>
        <time>2021-11-06T13:42:44.000Z</time>
      </trkpt>
      <trkpt lat="41.9627940841019153594970703125" lon="-6.875325143337249755859375">
        <ele>905.5999755859375</ele>
        <time>2021-11-06T13:43:00.000Z</time>
      </trkpt>
      <trkpt lat="41.962805651128292083740234375" lon="-6.87532355077564716339111328125">
        <ele>905.79998779296875</ele>
        <time>2021-11-06T13:43:01.000Z</time>
      </trkpt>
      <trkpt lat="41.962853930890560150146484375" lon="-6.87533578835427761077880859375">
        <ele>906</ele>
        <time>2021-11-06T13:43:05.000Z</time>
      </trkpt>
      <trkpt lat="41.962875388562679290771484375" lon="-6.8753479421138763427734375">
        <ele>906.4000244140625</ele>
        <time>2021-11-06T13:43:08.000Z</time>
      </trkpt>
      <trkpt lat="41.96291436441242694854736328125" lon="-6.87537216581404209136962890625">
        <ele>906.79998779296875</ele>
        <time>2021-11-06T13:43:12.000Z</time>
      </trkpt>
      <trkpt lat="41.962927021086215972900390625" lon="-6.87537719495594501495361328125">
        <ele>906.79998779296875</ele>
        <time>2021-11-06T13:43:13.000Z</time>
      </trkpt>
      <trkpt lat="41.9631052203476428985595703125" lon="-6.87546989880502223968505859375">
        <ele>907</ele>
        <time>2021-11-06T13:43:28.000Z</time>
      </trkpt>
      <trkpt lat="41.96319951675832271575927734375" lon="-6.87566972337663173675537109375">
        <ele>906.4000244140625</ele>
        <time>2021-11-06T13:43:43.000Z</time>
      </trkpt>
      <trkpt lat="41.9631746225059032440185546875" lon="-6.87587742693722248077392578125">
        <ele>905.79998779296875</ele>
        <time>2021-11-06T13:43:57.000Z</time>
      </trkpt>
      <trkpt lat="41.963221393525600433349609375" lon="-6.87611974775791168212890625">
        <ele>905.79998779296875</ele>
        <time>2021-11-06T13:44:12.000Z</time>
      </trkpt>
      <trkpt lat="41.963256262242794036865234375" lon="-6.87618236057460308074951171875">
        <ele>906.20001220703125</ele>
        <time>2021-11-06T13:44:17.000Z</time>
      </trkpt>
      <trkpt lat="41.9632772170007228851318359375" lon="-6.87626802362501621246337890625">
        <ele>906.79998779296875</ele>
        <time>2021-11-06T13:44:23.000Z</time>
      </trkpt>
      <trkpt lat="41.9634200446307659149169921875" lon="-6.87641051597893238067626953125">
        <ele>907</ele>
        <time>2021-11-06T13:44:43.000Z</time>
      </trkpt>
      <trkpt lat="41.9635508023202419281005859375" lon="-6.87650674022734165191650390625">
        <ele>907.79998779296875</ele>
        <time>2021-11-06T13:44:56.000Z</time>
      </trkpt>
      <trkpt lat="41.963672675192356109619140625" lon="-6.87664001248776912689208984375">
        <ele>908.79998779296875</ele>
        <time>2021-11-06T13:45:12.000Z</time>
      </trkpt>
      <trkpt lat="41.963700838387012481689453125" lon="-6.876659207046031951904296875">
        <ele>909</ele>
        <time>2021-11-06T13:45:15.000Z</time>
      </trkpt>
      <trkpt lat="41.96378809399902820587158203125" lon="-6.87676884233951568603515625">
        <ele>909.79998779296875</ele>
        <time>2021-11-06T13:45:28.000Z</time>
      </trkpt>
      <trkpt lat="41.963884569704532623291015625" lon="-6.87684402801096439361572265625">
        <ele>911</ele>
        <time>2021-11-06T13:45:43.000Z</time>
      </trkpt>
      <trkpt lat="41.9638937897980213165283203125" lon="-6.87684469856321811676025390625">
        <ele>911.20001220703125</ele>
        <time>2021-11-06T13:45:45.000Z</time>
      </trkpt>
      <trkpt lat="41.9638954661786556243896484375" lon="-6.876877807080745697021484375">
        <ele>911.4000244140625</ele>
        <time>2021-11-06T13:45:50.000Z</time>
      </trkpt>
      <trkpt lat="41.96398573927581310272216796875" lon="-6.87695316039025783538818359375">
        <ele>912</ele>
        <time>2021-11-06T13:46:09.000Z</time>
      </trkpt>
      <trkpt lat="41.96402178145945072174072265625" lon="-6.87695617787539958953857421875">
        <ele>912.20001220703125</ele>
        <time>2021-11-06T13:46:13.000Z</time>
      </trkpt>
      <trkpt lat="41.9640517048537731170654296875" lon="-6.87696464359760284423828125">
        <ele>912.4000244140625</ele>
        <time>2021-11-06T13:46:16.000Z</time>
      </trkpt>
      <trkpt lat="41.96407911367714405059814453125" lon="-6.87697629444301128387451171875">
        <ele>913</ele>
        <time>2021-11-06T13:46:20.000Z</time>
      </trkpt>
      <trkpt lat="41.96415186859667301177978515625" lon="-6.877002529799938201904296875">
        <ele>914</ele>
        <time>2021-11-06T13:46:29.000Z</time>
      </trkpt>
      <trkpt lat="41.96422881446778774261474609375" lon="-6.87705315649509429931640625">
        <ele>915.20001220703125</ele>
        <time>2021-11-06T13:46:39.000Z</time>
      </trkpt>
      <trkpt lat="41.96429167874157428741455078125" lon="-6.87708358280360698699951171875">
        <ele>916.4000244140625</ele>
        <time>2021-11-06T13:46:46.000Z</time>
      </trkpt>
      <trkpt lat="41.96433878503739833831787109375" lon="-6.87713437713682651519775390625">
        <ele>917.4000244140625</ele>
        <time>2021-11-06T13:46:55.000Z</time>
      </trkpt>
      <trkpt lat="41.96437449194490909576416015625" lon="-6.87714728526771068572998046875">
        <ele>917.79998779296875</ele>
        <time>2021-11-06T13:46:59.000Z</time>
      </trkpt>
      <trkpt lat="41.96442000567913055419921875" lon="-6.87716756947338581085205078125">
        <ele>918.4000244140625</ele>
        <time>2021-11-06T13:47:09.000Z</time>
      </trkpt>
      <trkpt lat="41.964546740055084228515625" lon="-6.87725038267672061920166015625">
        <ele>919.5999755859375</ele>
        <time>2021-11-06T13:47:36.000Z</time>
      </trkpt>
      <trkpt lat="41.9646082632243633270263671875" lon="-6.8773077987134456634521484375">
        <ele>920.5999755859375</ele>
        <time>2021-11-06T13:47:44.000Z</time>
      </trkpt>
      <trkpt lat="41.9646883942186832427978515625" lon="-6.8773155100643634796142578125">
        <ele>921.4000244140625</ele>
        <time>2021-11-06T13:47:52.000Z</time>
      </trkpt>
      <trkpt lat="41.9647121988236904144287109375" lon="-6.87732296995818614959716796875">
        <ele>921.5999755859375</ele>
        <time>2021-11-06T13:47:54.000Z</time>
      </trkpt>
      <trkpt lat="41.96482007391750812530517578125" lon="-6.8773530609905719757080078125">
        <ele>922.79998779296875</ele>
        <time>2021-11-06T13:48:02.000Z</time>
      </trkpt>
      <trkpt lat="41.96489064954221248626708984375" lon="-6.87739354558289051055908203125">
        <ele>923.79998779296875</ele>
        <time>2021-11-06T13:48:08.000Z</time>
      </trkpt>
      <trkpt lat="41.96490674279630184173583984375" lon="-6.87740678898990154266357421875">
        <ele>924.20001220703125</ele>
        <time>2021-11-06T13:48:10.000Z</time>
      </trkpt>
      <trkpt lat="41.96492618881165981292724609375" lon="-6.87744475901126861572265625">
        <ele>924.79998779296875</ele>
        <time>2021-11-06T13:48:16.000Z</time>
      </trkpt>
      <trkpt lat="41.96494127623736858367919921875" lon="-6.8774885125458240509033203125">
        <ele>925.20001220703125</ele>
        <time>2021-11-06T13:48:20.000Z</time>
      </trkpt>
      <trkpt lat="41.96502207778394222259521484375" lon="-6.8776206113398075103759765625">
        <ele>926</ele>
        <time>2021-11-06T13:48:31.000Z</time>
      </trkpt>
      <trkpt lat="41.96506968699395656585693359375" lon="-6.877835355699062347412109375">
        <ele>927</ele>
        <time>2021-11-06T13:48:44.000Z</time>
      </trkpt>
      <trkpt lat="41.9650722853839397430419921875" lon="-6.8778506107628345489501953125">
        <ele>927.20001220703125</ele>
        <time>2021-11-06T13:48:45.000Z</time>
      </trkpt>
      <trkpt lat="41.96506650187075138092041015625" lon="-6.87808974646031856536865234375">
        <ele>927.79998779296875</ele>
        <time>2021-11-06T13:49:01.000Z</time>
      </trkpt>
      <trkpt lat="41.9650431163609027862548828125" lon="-6.87816359102725982666015625">
        <ele>928.20001220703125</ele>
        <time>2021-11-06T13:49:06.000Z</time>
      </trkpt>
      <trkpt lat="41.96504873223602771759033203125" lon="-6.878218241035938262939453125">
        <ele>928.20001220703125</ele>
        <time>2021-11-06T13:49:10.000Z</time>
      </trkpt>
      <trkpt lat="41.96504496037960052490234375" lon="-6.87828739173710346221923828125">
        <ele>928.4000244140625</ele>
        <time>2021-11-06T13:49:15.000Z</time>
      </trkpt>
      <trkpt lat="41.96502149105072021484375" lon="-6.8783548660576343536376953125">
        <ele>928.79998779296875</ele>
        <time>2021-11-06T13:49:21.000Z</time>
      </trkpt>
      <trkpt lat="41.96499944664537906646728515625" lon="-6.8784484080970287322998046875">
        <ele>929.20001220703125</ele>
        <time>2021-11-06T13:49:26.000Z</time>
      </trkpt>
      <trkpt lat="41.96500598452985286712646484375" lon="-6.8784889765083789825439453125">
        <ele>929.5999755859375</ele>
        <time>2021-11-06T13:49:29.000Z</time>
      </trkpt>
      <trkpt lat="41.96500598452985286712646484375" lon="-6.8785647489130496978759765625">
        <ele>930</ele>
        <time>2021-11-06T13:49:34.000Z</time>
      </trkpt>
      <trkpt lat="41.9650013744831085205078125" lon="-6.8785912357270717620849609375">
        <ele>930.20001220703125</ele>
        <time>2021-11-06T13:49:36.000Z</time>
      </trkpt>
      <trkpt lat="41.96499642916023731231689453125" lon="-6.878607831895351409912109375">
        <ele>930.4000244140625</ele>
        <time>2021-11-06T13:49:37.000Z</time>
      </trkpt>
      <trkpt lat="41.965005397796630859375" lon="-6.878634653985500335693359375">
        <ele>930.79998779296875</ele>
        <time>2021-11-06T13:49:39.000Z</time>
      </trkpt>
      <trkpt lat="41.96500732563436031341552734375" lon="-6.87869911082088947296142578125">
        <ele>931.4000244140625</ele>
        <time>2021-11-06T13:49:44.000Z</time>
      </trkpt>
      <trkpt lat="41.96500732563436031341552734375" lon="-6.87870849855244159698486328125">
        <ele>931.4000244140625</ele>
        <time>2021-11-06T13:49:45.000Z</time>
      </trkpt>
      <trkpt lat="41.96502274833619594573974609375" lon="-6.8788778968155384063720703125">
        <ele>932.4000244140625</ele>
        <time>2021-11-06T13:50:02.000Z</time>
      </trkpt>
      <trkpt lat="41.96502140723168849945068359375" lon="-6.87889516353607177734375">
        <ele>932.4000244140625</ele>
        <time>2021-11-06T13:50:03.000Z</time>
      </trkpt>
      <trkpt lat="41.96505703032016754150390625" lon="-6.87908736057579517364501953125">
        <ele>932.4000244140625</ele>
        <time>2021-11-06T13:50:20.000Z</time>
      </trkpt>
      <trkpt lat="41.965045630931854248046875" lon="-6.87911770306527614593505859375">
        <ele>932.5999755859375</ele>
        <time>2021-11-06T13:50:22.000Z</time>
      </trkpt>
      <trkpt lat="41.96504605002701282501220703125" lon="-6.87913949601352214813232421875">
        <ele>932.5999755859375</ele>
        <time>2021-11-06T13:50:25.000Z</time>
      </trkpt>
      <trkpt lat="41.96504621766507625579833984375" lon="-6.87913966365158557891845703125">
        <ele>932.79998779296875</ele>
        <time>2021-11-06T13:50:27.000Z</time>
      </trkpt>
      <trkpt lat="41.965109668672084808349609375" lon="-6.87918090261518955230712890625">
        <ele>932.79998779296875</ele>
        <time>2021-11-06T13:50:35.000Z</time>
      </trkpt>
      <trkpt lat="41.9651316292583942413330078125" lon="-6.8792577646672725677490234375">
        <ele>932.79998779296875</ele>
        <time>2021-11-06T13:50:41.000Z</time>
      </trkpt>
      <trkpt lat="41.96514361537992954254150390625" lon="-6.87933110632002353668212890625">
        <ele>933.20001220703125</ele>
        <time>2021-11-06T13:50:48.000Z</time>
      </trkpt>
      <trkpt lat="41.96513322181999683380126953125" lon="-6.879366226494312286376953125">
        <ele>933.4000244140625</ele>
        <time>2021-11-06T13:50:50.000Z</time>
      </trkpt>
      <trkpt lat="41.9651758857071399688720703125" lon="-6.87952472828328609466552734375">
        <ele>933.79998779296875</ele>
        <time>2021-11-06T13:51:34.000Z</time>
      </trkpt>
      <trkpt lat="41.96521435864269733428955078125" lon="-6.8795963935554027557373046875">
        <ele>934</ele>
        <time>2021-11-06T13:51:40.000Z</time>
      </trkpt>
      <trkpt lat="41.96524704806506633758544921875" lon="-6.87963352538645267486572265625">
        <ele>934.20001220703125</ele>
        <time>2021-11-06T13:51:44.000Z</time>
      </trkpt>
      <trkpt lat="41.965279318392276763916015625" lon="-6.87969605438411235809326171875">
        <ele>934.20001220703125</ele>
        <time>2021-11-06T13:51:50.000Z</time>
      </trkpt>
      <trkpt lat="41.9653795659542083740234375" lon="-6.87990778125822544097900390625">
        <ele>933.5999755859375</ele>
        <time>2021-11-06T13:52:15.000Z</time>
      </trkpt>
      <trkpt lat="41.96547570638358592987060546875" lon="-6.88001691363751888275146484375">
        <ele>933.20001220703125</ele>
        <time>2021-11-06T13:52:38.000Z</time>
      </trkpt>
      <trkpt lat="41.96546740829944610595703125" lon="-6.880041472613811492919921875">
        <ele>933</ele>
        <time>2021-11-06T13:52:41.000Z</time>
      </trkpt>
      <trkpt lat="41.96551409550011157989501953125" lon="-6.880137361586093902587890625">
        <ele>932.4000244140625</ele>
        <time>2021-11-06T13:52:54.000Z</time>
      </trkpt>
      <trkpt lat="41.96559841744601726531982421875" lon="-6.88020165078341960906982421875">
        <ele>931.20001220703125</ele>
        <time>2021-11-06T13:53:04.000Z</time>
      </trkpt>
      <trkpt lat="41.96562842465937137603759765625" lon="-6.88025831244885921478271484375">
        <ele>930.79998779296875</ele>
        <time>2021-11-06T13:53:09.000Z</time>
      </trkpt>
      <trkpt lat="41.96566664613783359527587890625" lon="-6.88031447120010852813720703125">
        <ele>930.20001220703125</ele>
        <time>2021-11-06T13:53:14.000Z</time>
      </trkpt>
      <trkpt lat="41.9656744413077831268310546875" lon="-6.88032385893166065216064453125">
        <ele>930.20001220703125</ele>
        <time>2021-11-06T13:53:15.000Z</time>
      </trkpt>
      <trkpt lat="41.9656982459127902984619140625" lon="-6.88034565187990665435791015625">
        <ele>929.79998779296875</ele>
        <time>2021-11-06T13:53:18.000Z</time>
      </trkpt>
      <trkpt lat="41.9657175242900848388671875" lon="-6.88038043677806854248046875">
        <ele>929.5999755859375</ele>
        <time>2021-11-06T13:53:21.000Z</time>
      </trkpt>
      <trkpt lat="41.9657374732196331024169921875" lon="-6.8804151378571987152099609375">
        <ele>929.20001220703125</ele>
        <time>2021-11-06T13:53:24.000Z</time>
      </trkpt>
      <trkpt lat="41.96573906578123569488525390625" lon="-6.88044204376637935638427734375">
        <ele>929.20001220703125</ele>
        <time>2021-11-06T13:53:26.000Z</time>
      </trkpt>
      <trkpt lat="41.96574443019926548004150390625" lon="-6.8804614059627056121826171875">
        <ele>929.4000244140625</ele>
        <time>2021-11-06T13:53:30.000Z</time>
      </trkpt>
      <trkpt lat="41.96583864279091358184814453125" lon="-6.88057363964617252349853515625">
        <ele>928.79998779296875</ele>
        <time>2021-11-06T13:54:03.000Z</time>
      </trkpt>
      <trkpt lat="41.9658722542226314544677734375" lon="-6.88063667155802249908447265625">
        <ele>928.79998779296875</ele>
        <time>2021-11-06T13:54:09.000Z</time>
      </trkpt>
      <trkpt lat="41.96593679487705230712890625" lon="-6.88075720332562923431396484375">
        <ele>928.4000244140625</ele>
        <time>2021-11-06T13:54:19.000Z</time>
      </trkpt>
      <trkpt lat="41.96594827808439731597900390625" lon="-6.88078318722546100616455078125">
        <ele>928.4000244140625</ele>
        <time>2021-11-06T13:54:21.000Z</time>
      </trkpt>
      <trkpt lat="41.96596437133848667144775390625" lon="-6.8808033876121044158935546875">
        <ele>928.4000244140625</ele>
        <time>2021-11-06T13:54:23.000Z</time>
      </trkpt>
      <trkpt lat="41.96598918177187442779541015625" lon="-6.88081973232328891754150390625">
        <ele>928.5999755859375</ele>
        <time>2021-11-06T13:54:25.000Z</time>
      </trkpt>
      <trkpt lat="41.96613033302128314971923828125" lon="-6.88096440397202968597412109375">
        <ele>928.79998779296875</ele>
        <time>2021-11-06T13:54:41.000Z</time>
      </trkpt>
      <trkpt lat="41.96610552258789539337158203125" lon="-6.88099156133830547332763671875">
        <ele>929</ele>
        <time>2021-11-06T13:54:47.000Z</time>
      </trkpt>
      <trkpt lat="41.96622236631810665130615234375" lon="-6.881113685667514801025390625">
        <ele>929.4000244140625</ele>
        <time>2021-11-06T13:55:29.000Z</time>
      </trkpt>
      <trkpt lat="41.9663024134933948516845703125" lon="-6.88126632012426853179931640625">
        <ele>930</ele>
        <time>2021-11-06T13:55:50.000Z</time>
      </trkpt>
      <trkpt lat="41.9663614220917224884033203125" lon="-6.88135801814496517181396484375">
        <ele>930.20001220703125</ele>
        <time>2021-11-06T13:56:11.000Z</time>
      </trkpt>
      <trkpt lat="41.96650282479822635650634765625" lon="-6.88150436617434024810791015625">
        <ele>931</ele>
        <time>2021-11-06T13:56:27.000Z</time>
      </trkpt>
      <trkpt lat="41.966560743749141693115234375" lon="-6.8815547414124011993408203125">
        <ele>931.20001220703125</ele>
        <time>2021-11-06T13:56:33.000Z</time>
      </trkpt>
      <trkpt lat="41.9665642641484737396240234375" lon="-6.8815671466290950775146484375">
        <ele>931.4000244140625</ele>
        <time>2021-11-06T13:56:34.000Z</time>
      </trkpt>
      <trkpt lat="41.96657692082226276397705078125" lon="-6.8815983273088932037353515625">
        <ele>931.5999755859375</ele>
        <time>2021-11-06T13:56:37.000Z</time>
      </trkpt>
      <trkpt lat="41.9665894098579883575439453125" lon="-6.88162875361740589141845703125">
        <ele>932</ele>
        <time>2021-11-06T13:56:40.000Z</time>
      </trkpt>
      <trkpt lat="41.9665843807160854339599609375" lon="-6.88163763843476772308349609375">
        <ele>932.20001220703125</ele>
        <time>2021-11-06T13:56:42.000Z</time>
      </trkpt>
      <trkpt lat="41.96655479259788990020751953125" lon="-6.881730258464813232421875">
        <ele>933</ele>
        <time>2021-11-06T13:58:27.000Z</time>
      </trkpt>
      <trkpt lat="41.9666413776576519012451171875" lon="-6.88181349076330661773681640625">
        <ele>933.20001220703125</ele>
        <time>2021-11-06T13:58:54.000Z</time>
      </trkpt>
      <trkpt lat="41.9666497595608234405517578125" lon="-6.8818201124668121337890625">
        <ele>933.20001220703125</ele>
        <time>2021-11-06T13:58:55.000Z</time>
      </trkpt>
      <trkpt lat="41.9667047448456287384033203125" lon="-6.8818509578704833984375">
        <ele>933.4000244140625</ele>
        <time>2021-11-06T13:59:00.000Z</time>
      </trkpt>
      <trkpt lat="41.9667402841150760650634765625" lon="-6.88186679966747760772705078125">
        <ele>933.4000244140625</ele>
        <time>2021-11-06T13:59:03.000Z</time>
      </trkpt>
      <trkpt lat="41.9668898172676563262939453125" lon="-6.88202060759067535400390625">
        <ele>933.79998779296875</ele>
        <time>2021-11-06T13:59:21.000Z</time>
      </trkpt>
      <trkpt lat="41.96699165739119052886962890625" lon="-6.8821240402758121490478515625">
        <ele>934.20001220703125</ele>
        <time>2021-11-06T13:59:32.000Z</time>
      </trkpt>
      <trkpt lat="41.96704848669469356536865234375" lon="-6.8821783550083637237548828125">
        <ele>934.4000244140625</ele>
        <time>2021-11-06T13:59:38.000Z</time>
      </trkpt>
      <trkpt lat="41.96705938316881656646728515625" lon="-6.8821840547025203704833984375">
        <ele>934.4000244140625</ele>
        <time>2021-11-06T13:59:39.000Z</time>
      </trkpt>
      <trkpt lat="41.96711570955812931060791015625" lon="-6.88221716322004795074462890625">
        <ele>934.4000244140625</ele>
        <time>2021-11-06T13:59:47.000Z</time>
      </trkpt>
      <trkpt lat="41.96712526492774486541748046875" lon="-6.8822185881435871124267578125">
        <ele>934.5999755859375</ele>
        <time>2021-11-06T13:59:52.000Z</time>
      </trkpt>
      <trkpt lat="41.96712509728968143463134765625" lon="-6.8822172470390796661376953125">
        <ele>934.5999755859375</ele>
        <time>2021-11-06T13:59:53.000Z</time>
      </trkpt>
      <trkpt lat="41.96710028685629367828369140625" lon="-6.8822031654417514801025390625">
        <ele>934.79998779296875</ele>
        <time>2021-11-06T14:34:23.000Z</time>
      </trkpt>
      <trkpt lat="41.96710623800754547119140625" lon="-6.882202662527561187744140625">
        <ele>935.4000244140625</ele>
        <time>2021-11-06T14:34:26.000Z</time>
      </trkpt>
      <trkpt lat="41.9672301225364208221435546875" lon="-6.88231565058231353759765625">
        <ele>935.79998779296875</ele>
        <time>2021-11-06T14:34:53.000Z</time>
      </trkpt>
      <trkpt lat="41.9672690145671367645263671875" lon="-6.88234456814825534820556640625">
        <ele>935.5999755859375</ele>
        <time>2021-11-06T14:34:59.000Z</time>
      </trkpt>
      <trkpt lat="41.96734361350536346435546875" lon="-6.88253550790250301361083984375">
        <ele>935.79998779296875</ele>
        <time>2021-11-06T14:35:17.000Z</time>
      </trkpt>
      <trkpt lat="41.967351995408535003662109375" lon="-6.8825746513903141021728515625">
        <ele>935.79998779296875</ele>
        <time>2021-11-06T14:35:21.000Z</time>
      </trkpt>
      <trkpt lat="41.96735627017915248870849609375" lon="-6.8825927563011646270751953125">
        <ele>935.79998779296875</ele>
        <time>2021-11-06T14:35:23.000Z</time>
      </trkpt>
      <trkpt lat="41.96738258935511112213134765625" lon="-6.882661990821361541748046875">
        <ele>935.4000244140625</ele>
        <time>2021-11-06T14:35:34.000Z</time>
      </trkpt>
      <trkpt lat="41.96740287356078624725341796875" lon="-6.88271102495491504669189453125">
        <ele>935.4000244140625</ele>
        <time>2021-11-06T14:35:39.000Z</time>
      </trkpt>
      <trkpt lat="41.9674091599881649017333984375" lon="-6.8827389366924762725830078125">
        <ele>935.20001220703125</ele>
        <time>2021-11-06T14:35:41.000Z</time>
      </trkpt>
      <trkpt lat="41.96743539534509181976318359375" lon="-6.882936246693134307861328125">
        <ele>934.4000244140625</ele>
        <time>2021-11-06T14:35:58.000Z</time>
      </trkpt>
      <trkpt lat="41.967433802783489227294921875" lon="-6.88295359723269939422607421875">
        <ele>934.20001220703125</ele>
        <time>2021-11-06T14:36:00.000Z</time>
      </trkpt>
      <trkpt lat="41.96743153966963291168212890625" lon="-6.88295829109847545623779296875">
        <ele>934.20001220703125</ele>
        <time>2021-11-06T14:36:02.000Z</time>
      </trkpt>
      <trkpt lat="41.967429779469966888427734375" lon="-6.88297019340097904205322265625">
        <ele>934</ele>
        <time>2021-11-06T14:36:04.000Z</time>
      </trkpt>
      <trkpt lat="41.96743212640285491943359375" lon="-6.8830136954784393310546875">
        <ele>933.79998779296875</ele>
        <time>2021-11-06T14:36:07.000Z</time>
      </trkpt>
      <trkpt lat="41.9674368202686309814453125" lon="-6.8830745480954647064208984375">
        <ele>933.4000244140625</ele>
        <time>2021-11-06T14:36:11.000Z</time>
      </trkpt>
      <trkpt lat="41.967457942664623260498046875" lon="-6.8833216466009616851806640625">
        <ele>932.5999755859375</ele>
        <time>2021-11-06T14:36:28.000Z</time>
      </trkpt>
      <trkpt lat="41.967471353709697723388671875" lon="-6.8833970837295055389404296875">
        <ele>932.20001220703125</ele>
        <time>2021-11-06T14:36:34.000Z</time>
      </trkpt>
      <trkpt lat="41.9674664922058582305908203125" lon="-6.88364275731146335601806640625">
        <ele>931.20001220703125</ele>
        <time>2021-11-06T14:36:51.000Z</time>
      </trkpt>
      <trkpt lat="41.9675000198185443878173828125" lon="-6.883817017078399658203125">
        <ele>930.20001220703125</ele>
        <time>2021-11-06T14:37:03.000Z</time>
      </trkpt>
      <trkpt lat="41.9675271771848201751708984375" lon="-6.8839720822870731353759765625">
        <ele>929</ele>
        <time>2021-11-06T14:37:15.000Z</time>
      </trkpt>
      <trkpt lat="41.9675519876182079315185546875" lon="-6.88407124020159244537353515625">
        <ele>928</ele>
        <time>2021-11-06T14:37:25.000Z</time>
      </trkpt>
      <trkpt lat="41.96756246499717235565185546875" lon="-6.88412119634449481964111328125">
        <ele>927.5999755859375</ele>
        <time>2021-11-06T14:37:29.000Z</time>
      </trkpt>
      <trkpt lat="41.96759280748665332794189453125" lon="-6.88427324406802654266357421875">
        <ele>926.79998779296875</ele>
        <time>2021-11-06T14:37:41.000Z</time>
      </trkpt>
      <trkpt lat="41.96763052605092525482177734375" lon="-6.884456388652324676513671875">
        <ele>925.79998779296875</ele>
        <time>2021-11-06T14:37:57.000Z</time>
      </trkpt>
      <trkpt lat="41.9676348008215427398681640625" lon="-6.88448614440858364105224609375">
        <ele>925.5999755859375</ele>
        <time>2021-11-06T14:37:59.000Z</time>
      </trkpt>
      <trkpt lat="41.96765248663723468780517578125" lon="-6.88454280607402324676513671875">
        <ele>925.20001220703125</ele>
        <time>2021-11-06T14:38:04.000Z</time>
      </trkpt>
      <trkpt lat="41.9676626287400722503662109375" lon="-6.88459259457886219024658203125">
        <ele>925</ele>
        <time>2021-11-06T14:38:08.000Z</time>
      </trkpt>
      <trkpt lat="41.96767880581319332122802734375" lon="-6.884646825492382049560546875">
        <ele>924.79998779296875</ele>
        <time>2021-11-06T14:38:13.000Z</time>
      </trkpt>
      <trkpt lat="41.96773446165025234222412109375" lon="-6.88487422652542591094970703125">
        <ele>923.79998779296875</ele>
        <time>2021-11-06T14:38:27.000Z</time>
      </trkpt>
      <trkpt lat="41.96775726042687892913818359375" lon="-6.88494748435914516448974609375">
        <ele>923.20001220703125</ele>
        <time>2021-11-06T14:38:32.000Z</time>
      </trkpt>
      <trkpt lat="41.96777083911001682281494140625" lon="-6.88496123068034648895263671875">
        <ele>923</ele>
        <time>2021-11-06T14:38:34.000Z</time>
      </trkpt>
      <trkpt lat="41.96778089739382266998291015625" lon="-6.88497506082057952880859375">
        <ele>922.79998779296875</ele>
        <time>2021-11-06T14:38:36.000Z</time>
      </trkpt>
      <trkpt lat="41.96779020130634307861328125" lon="-6.88502443023025989532470703125">
        <ele>922.5999755859375</ele>
        <time>2021-11-06T14:38:40.000Z</time>
      </trkpt>
      <trkpt lat="41.967797577381134033203125" lon="-6.8850510008633136749267578125">
        <ele>922.5999755859375</ele>
        <time>2021-11-06T14:38:42.000Z</time>
      </trkpt>
      <trkpt lat="41.96783043444156646728515625" lon="-6.88523900695145130157470703125">
        <ele>921.79998779296875</ele>
        <time>2021-11-06T14:38:55.000Z</time>
      </trkpt>
      <trkpt lat="41.96784459985792636871337890625" lon="-6.88528426922857761383056640625">
        <ele>921.5999755859375</ele>
        <time>2021-11-06T14:38:59.000Z</time>
      </trkpt>
      <trkpt lat="41.967923641204833984375" lon="-6.88544687815010547637939453125">
        <ele>920.5999755859375</ele>
        <time>2021-11-06T14:39:12.000Z</time>
      </trkpt>
      <trkpt lat="41.9679509662091732025146484375" lon="-6.88551611267030239105224609375">
        <ele>919.79998779296875</ele>
        <time>2021-11-06T14:39:18.000Z</time>
      </trkpt>
      <trkpt lat="41.967969574034214019775390625" lon="-6.8855753727257251739501953125">
        <ele>919.5999755859375</ele>
        <time>2021-11-06T14:39:23.000Z</time>
      </trkpt>
      <trkpt lat="41.96797234006226062774658203125" lon="-6.88558937050402164459228515625">
        <ele>919.4000244140625</ele>
        <time>2021-11-06T14:39:24.000Z</time>
      </trkpt>
      <trkpt lat="41.9679764471948146820068359375" lon="-6.88560261391103267669677734375">
        <ele>919.4000244140625</ele>
        <time>2021-11-06T14:39:25.000Z</time>
      </trkpt>
      <trkpt lat="41.96798558346927165985107421875" lon="-6.88563765026628971099853515625">
        <ele>919.20001220703125</ele>
        <time>2021-11-06T14:39:28.000Z</time>
      </trkpt>
      <trkpt lat="41.9680341146886348724365234375" lon="-6.885725744068622589111328125">
        <ele>918.4000244140625</ele>
        <time>2021-11-06T14:39:38.000Z</time>
      </trkpt>
      <trkpt lat="41.96805800311267375946044921875" lon="-6.8857805617153644561767578125">
        <ele>918.20001220703125</ele>
        <time>2021-11-06T14:39:42.000Z</time>
      </trkpt>
      <trkpt lat="41.96806454099714756011962890625" lon="-6.8858087249100208282470703125">
        <ele>918</ele>
        <time>2021-11-06T14:39:44.000Z</time>
      </trkpt>
      <trkpt lat="41.96807183325290679931640625" lon="-6.88583009876310825347900390625">
        <ele>917.79998779296875</ele>
        <time>2021-11-06T14:39:46.000Z</time>
      </trkpt>
      <trkpt lat="41.9680683128535747528076171875" lon="-6.8858539871871471405029296875">
        <ele>917.4000244140625</ele>
        <time>2021-11-06T14:39:49.000Z</time>
      </trkpt>
      <trkpt lat="41.96806848049163818359375" lon="-6.88586957752704620361328125">
        <ele>917.4000244140625</ele>
        <time>2021-11-06T14:39:51.000Z</time>
      </trkpt>
      <trkpt lat="41.96807510219514369964599609375" lon="-6.88599295914173126220703125">
        <ele>916.5999755859375</ele>
        <time>2021-11-06T14:40:00.000Z</time>
      </trkpt>
      <trkpt lat="41.96807845495641231536865234375" lon="-6.886004693806171417236328125">
        <ele>916.20001220703125</ele>
        <time>2021-11-06T14:40:02.000Z</time>
      </trkpt>
      <trkpt lat="41.96808801032602787017822265625" lon="-6.88601969741284847259521484375">
        <ele>916</ele>
        <time>2021-11-06T14:40:04.000Z</time>
      </trkpt>
      <trkpt lat="41.9681095518171787261962890625" lon="-6.8860638700425624847412109375">
        <ele>915.5999755859375</ele>
        <time>2021-11-06T14:40:08.000Z</time>
      </trkpt>
      <trkpt lat="41.96811466477811336517333984375" lon="-6.88608071766793727874755859375">
        <ele>915.4000244140625</ele>
        <time>2021-11-06T14:40:10.000Z</time>
      </trkpt>
      <trkpt lat="41.96812279522418975830078125" lon="-6.88613419421017169952392578125">
        <ele>915.20001220703125</ele>
        <time>2021-11-06T14:40:15.000Z</time>
      </trkpt>
      <trkpt lat="41.9681564904749393463134765625" lon="-6.886327564716339111328125">
        <ele>914</ele>
        <time>2021-11-06T14:40:27.000Z</time>
      </trkpt>
      <trkpt lat="41.9681598432362079620361328125" lon="-6.88645455054938793182373046875">
        <ele>913</ele>
        <time>2021-11-06T14:40:35.000Z</time>
      </trkpt>
      <trkpt lat="41.96816436946392059326171875" lon="-6.88646846450865268707275390625">
        <ele>913</ele>
        <time>2021-11-06T14:40:36.000Z</time>
      </trkpt>
      <trkpt lat="41.96817241609096527099609375" lon="-6.8864913471043109893798828125">
        <ele>912.79998779296875</ele>
        <time>2021-11-06T14:40:38.000Z</time>
      </trkpt>
      <trkpt lat="41.96819127537310123443603515625" lon="-6.88655622303485870361328125">
        <ele>912.4000244140625</ele>
        <time>2021-11-06T14:40:44.000Z</time>
      </trkpt>
      <trkpt lat="41.96820250712335109710693359375" lon="-6.88660274259746074676513671875">
        <ele>912</ele>
        <time>2021-11-06T14:40:48.000Z</time>
      </trkpt>
      <trkpt lat="41.96820334531366825103759765625" lon="-6.8866231106221675872802734375">
        <ele>911.79998779296875</ele>
        <time>2021-11-06T14:40:50.000Z</time>
      </trkpt>
      <trkpt lat="41.96820116601884365081787109375" lon="-6.88667465932667255401611328125">
        <ele>911.4000244140625</ele>
        <time>2021-11-06T14:40:54.000Z</time>
      </trkpt>
      <trkpt lat="41.96817643940448760986328125" lon="-6.88677616417407989501953125">
        <ele>911</ele>
        <time>2021-11-06T14:41:01.000Z</time>
      </trkpt>
      <trkpt lat="41.96817736141383647918701171875" lon="-6.8867944367229938507080078125">
        <ele>910.79998779296875</ele>
        <time>2021-11-06T14:41:02.000Z</time>
      </trkpt>
      <trkpt lat="41.9681675545871257781982421875" lon="-6.88687498681247234344482421875">
        <ele>910.5999755859375</ele>
        <time>2021-11-06T14:41:07.000Z</time>
      </trkpt>
      <trkpt lat="41.968145929276943206787109375" lon="-6.88703231513500213623046875">
        <ele>909.79998779296875</ele>
        <time>2021-11-06T14:41:18.000Z</time>
      </trkpt>
      <trkpt lat="41.96815707720816135406494140625" lon="-6.88714102841913700103759765625">
        <ele>909.4000244140625</ele>
        <time>2021-11-06T14:41:26.000Z</time>
      </trkpt>
      <trkpt lat="41.9681571610271930694580078125" lon="-6.887163408100605010986328125">
        <ele>909.20001220703125</ele>
        <time>2021-11-06T14:41:28.000Z</time>
      </trkpt>
      <trkpt lat="41.96815229952335357666015625" lon="-6.887225098907947540283203125">
        <ele>909</ele>
        <time>2021-11-06T14:41:32.000Z</time>
      </trkpt>
      <trkpt lat="41.96813930757343769073486328125" lon="-6.88732626847922801971435546875">
        <ele>908.79998779296875</ele>
        <time>2021-11-06T14:41:39.000Z</time>
      </trkpt>
      <trkpt lat="41.96813888847827911376953125" lon="-6.88734906725585460662841796875">
        <ele>908.5999755859375</ele>
        <time>2021-11-06T14:41:41.000Z</time>
      </trkpt>
      <trkpt lat="41.96814333088696002960205078125" lon="-6.8873637355864048004150390625">
        <ele>908.4000244140625</ele>
        <time>2021-11-06T14:41:43.000Z</time>
      </trkpt>
      <trkpt lat="41.96814048103988170623779296875" lon="-6.887388043105602264404296875">
        <ele>908.20001220703125</ele>
        <time>2021-11-06T14:41:45.000Z</time>
      </trkpt>
      <trkpt lat="41.96813394315540790557861328125" lon="-6.8874743767082691192626953125">
        <ele>908</ele>
        <time>2021-11-06T14:41:51.000Z</time>
      </trkpt>
      <trkpt lat="41.9681390561163425445556640625" lon="-6.88754168339073657989501953125">
        <ele>907.79998779296875</ele>
        <time>2021-11-06T14:41:56.000Z</time>
      </trkpt>
      <trkpt lat="41.968133859336376190185546875" lon="-6.8875508196651935577392578125">
        <ele>907.5999755859375</ele>
        <time>2021-11-06T14:41:59.000Z</time>
      </trkpt>
      <trkpt lat="41.9681316800415515899658203125" lon="-6.8876155279576778411865234375">
        <ele>907.5999755859375</ele>
        <time>2021-11-06T14:42:03.000Z</time>
      </trkpt>
      <trkpt lat="41.96814366616308689117431640625" lon="-6.88777067698538303375244140625">
        <ele>907</ele>
        <time>2021-11-06T14:42:12.000Z</time>
      </trkpt>
      <trkpt lat="41.96815003640949726104736328125" lon="-6.88783404417335987091064453125">
        <ele>906.79998779296875</ele>
        <time>2021-11-06T14:42:17.000Z</time>
      </trkpt>
      <trkpt lat="41.9681507907807826995849609375" lon="-6.88791333697736263275146484375">
        <ele>906.79998779296875</ele>
        <time>2021-11-06T14:42:22.000Z</time>
      </trkpt>
      <trkpt lat="41.96814802475273609161376953125" lon="-6.88796304166316986083984375">
        <ele>906.79998779296875</ele>
        <time>2021-11-06T14:42:26.000Z</time>
      </trkpt>
      <trkpt lat="41.9681663811206817626953125" lon="-6.88808365724980831146240234375">
        <ele>906.4000244140625</ele>
        <time>2021-11-06T14:42:34.000Z</time>
      </trkpt>
      <trkpt lat="41.96816763840615749359130859375" lon="-6.8881261534988880157470703125">
        <ele>906.4000244140625</ele>
        <time>2021-11-06T14:42:37.000Z</time>
      </trkpt>
      <trkpt lat="41.96816311217844486236572265625" lon="-6.88828230835497379302978515625">
        <ele>905.5999755859375</ele>
        <time>2021-11-06T14:42:46.000Z</time>
      </trkpt>
      <trkpt lat="41.9681353680789470672607421875" lon="-6.88852898776531219482421875">
        <ele>905</ele>
        <time>2021-11-06T14:43:02.000Z</time>
      </trkpt>
      <trkpt lat="41.9681283272802829742431640625" lon="-6.8885626830160617828369140625">
        <ele>904.5999755859375</ele>
        <time>2021-11-06T14:43:04.000Z</time>
      </trkpt>
      <trkpt lat="41.96810041554272174835205078125" lon="-6.88880718313157558441162109375">
        <ele>903.79998779296875</ele>
        <time>2021-11-06T14:43:21.000Z</time>
      </trkpt>
      <trkpt lat="41.9681004993617534637451171875" lon="-6.888847164809703826904296875">
        <ele>903.5999755859375</ele>
        <time>2021-11-06T14:43:24.000Z</time>
      </trkpt>
      <trkpt lat="41.9680736772716045379638671875" lon="-6.8890109471976757049560546875">
        <ele>903.20001220703125</ele>
        <time>2021-11-06T14:43:35.000Z</time>
      </trkpt>
      <trkpt lat="41.968060098588466644287109375" lon="-6.88909082673490047454833984375">
        <ele>902.79998779296875</ele>
        <time>2021-11-06T14:43:40.000Z</time>
      </trkpt>
      <trkpt lat="41.9680562429130077362060546875" lon="-6.88911966048181056976318359375">
        <ele>902.5999755859375</ele>
        <time>2021-11-06T14:43:42.000Z</time>
      </trkpt>
      <trkpt lat="41.96804098784923553466796875" lon="-6.88921404071152210235595703125">
        <ele>901.5999755859375</ele>
        <time>2021-11-06T14:43:49.000Z</time>
      </trkpt>
      <trkpt lat="41.96800838224589824676513671875" lon="-6.88934865407645702362060546875">
        <ele>900.4000244140625</ele>
        <time>2021-11-06T14:43:59.000Z</time>
      </trkpt>
      <trkpt lat="41.96801609359681606292724609375" lon="-6.8894816748797893524169921875">
        <ele>899.4000244140625</ele>
        <time>2021-11-06T14:44:09.000Z</time>
      </trkpt>
      <trkpt lat="41.967969238758087158203125" lon="-6.88972667790949344635009765625">
        <ele>898.4000244140625</ele>
        <time>2021-11-06T14:44:25.000Z</time>
      </trkpt>
      <trkpt lat="41.96796379052102565765380859375" lon="-6.8897519074380397796630859375">
        <ele>898.4000244140625</ele>
        <time>2021-11-06T14:44:27.000Z</time>
      </trkpt>
      <trkpt lat="41.9679452665150165557861328125" lon="-6.8898068927228450775146484375">
        <ele>898</ele>
        <time>2021-11-06T14:44:32.000Z</time>
      </trkpt>
      <trkpt lat="41.96792908944189548492431640625" lon="-6.88992566429078578948974609375">
        <ele>897.20001220703125</ele>
        <time>2021-11-06T14:44:40.000Z</time>
      </trkpt>
      <trkpt lat="41.96791416965425014495849609375" lon="-6.889997832477092742919921875">
        <ele>896.5999755859375</ele>
        <time>2021-11-06T14:44:45.000Z</time>
      </trkpt>
      <trkpt lat="41.96791551075875759124755859375" lon="-6.89001635648310184478759765625">
        <ele>896.4000244140625</ele>
        <time>2021-11-06T14:44:47.000Z</time>
      </trkpt>
      <trkpt lat="41.9679207913577556610107421875" lon="-6.8900861777365207672119140625">
        <ele>896.20001220703125</ele>
        <time>2021-11-06T14:44:53.000Z</time>
      </trkpt>
      <trkpt lat="41.96794040501117706298828125" lon="-6.89016454853117465972900390625">
        <ele>895.79998779296875</ele>
        <time>2021-11-06T14:45:00.000Z</time>
      </trkpt>
      <trkpt lat="41.96793713606894016265869140625" lon="-6.89023378305137157440185546875">
        <ele>895.20001220703125</ele>
        <time>2021-11-06T14:45:05.000Z</time>
      </trkpt>
      <trkpt lat="41.9679355435073375701904296875" lon="-6.8902548216283321380615234375">
        <ele>895.20001220703125</ele>
        <time>2021-11-06T14:45:06.000Z</time>
      </trkpt>
      <trkpt lat="41.96790687739849090576171875" lon="-6.89040913246572017669677734375">
        <ele>894.4000244140625</ele>
        <time>2021-11-06T14:45:19.000Z</time>
      </trkpt>
      <trkpt lat="41.96783822961151599884033203125" lon="-6.89045154489576816558837890625">
        <ele>894.20001220703125</ele>
        <time>2021-11-06T14:45:28.000Z</time>
      </trkpt>
      <trkpt lat="41.9678312726318836212158203125" lon="-6.8904533050954341888427734375">
        <ele>894</ele>
        <time>2021-11-06T14:45:29.000Z</time>
      </trkpt>
      <trkpt lat="41.9678262434899806976318359375" lon="-6.89045774750411510467529296875">
        <ele>894</ele>
        <time>2021-11-06T14:45:31.000Z</time>
      </trkpt>
      <trkpt lat="41.96783085353672504425048828125" lon="-6.89046646468341350555419921875">
        <ele>893.79998779296875</ele>
        <time>2021-11-06T14:45:43.000Z</time>
      </trkpt>
    </trkseg>
  </trk>
</gpx>
